<?xml version="1.0" encoding="UTF-8" standalone="no" ?>
<gpx xmlns="http://www.topografix.com/GPX/1/1" xmlns:xsi="http://www.w3.org/2001/XMLSchema-instance" xsi:schemaLocation="http://www.topografix.com/GPX/1/1 http://www.topografix.com/GPX/1/1/gpx.xsd" version="1.1" creator="VisuGPX - https://www.visugpx.com">
  <metadata>
    <name>castelnaud 2018</name>
    <desc><![CDATA[222222222222222222222222222222222222222222222222222222222222222222222222222222222222]]></desc>
  </metadata>
  <trk>
    <name><![CDATA[Strava-1719471552 by Strava to GPX]]></name>
    <trkseg>
      <trkpt lat="44.49765" lon="0.66844">
        <ele>208.8</ele>
        <time>2018-07-22T12:30:54Z</time>
      </trkpt>
      <trkpt lat="44.49749" lon="0.66846">
        <ele>209</ele>
        <time>2018-07-22T12:30:56Z</time>
      </trkpt>
      <trkpt lat="44.49747" lon="0.6685">
        <ele>209.2</ele>
        <time>2018-07-22T12:31:00Z</time>
      </trkpt>
      <trkpt lat="44.4975" lon="0.66851">
        <ele>209.4</ele>
        <time>2018-07-22T12:31:05Z</time>
      </trkpt>
      <trkpt lat="44.49749" lon="0.66856">
        <ele>209.7</ele>
        <time>2018-07-22T12:31:16Z</time>
      </trkpt>
      <trkpt lat="44.49748" lon="0.6686">
        <ele>209.9</ele>
        <time>2018-07-22T12:31:20Z</time>
      </trkpt>
      <trkpt lat="44.49747" lon="0.66864">
        <ele>210.1</ele>
        <time>2018-07-22T12:31:25Z</time>
      </trkpt>
      <trkpt lat="44.49747" lon="0.66868">
        <ele>210.3</ele>
        <time>2018-07-22T12:31:28Z</time>
      </trkpt>
      <trkpt lat="44.49746" lon="0.66874">
        <ele>210.6</ele>
        <time>2018-07-22T12:31:31Z</time>
      </trkpt>
      <trkpt lat="44.49746" lon="0.66879">
        <ele>210.9</ele>
        <time>2018-07-22T12:31:34Z</time>
      </trkpt>
      <trkpt lat="44.49747" lon="0.66884">
        <ele>211.1</ele>
        <time>2018-07-22T12:31:37Z</time>
      </trkpt>
      <trkpt lat="44.49747" lon="0.66888">
        <ele>211.3</ele>
        <time>2018-07-22T12:31:39Z</time>
      </trkpt>
      <trkpt lat="44.49747" lon="0.66894">
        <ele>211.6</ele>
        <time>2018-07-22T12:31:42Z</time>
      </trkpt>
      <trkpt lat="44.49748" lon="0.66898">
        <ele>211.8</ele>
        <time>2018-07-22T12:31:44Z</time>
      </trkpt>
      <trkpt lat="44.49749" lon="0.66904">
        <ele>211.8</ele>
        <time>2018-07-22T12:31:47Z</time>
      </trkpt>
      <trkpt lat="44.4975" lon="0.66908">
        <ele>211.6</ele>
        <time>2018-07-22T12:31:49Z</time>
      </trkpt>
      <trkpt lat="44.4975" lon="0.66912">
        <ele>211.4</ele>
        <time>2018-07-22T12:31:51Z</time>
      </trkpt>
      <trkpt lat="44.49751" lon="0.66916">
        <ele>211.2</ele>
        <time>2018-07-22T12:31:53Z</time>
      </trkpt>
      <trkpt lat="44.49752" lon="0.6692">
        <ele>211</ele>
        <time>2018-07-22T12:31:56Z</time>
      </trkpt>
      <trkpt lat="44.49752" lon="0.66924">
        <ele>210.8</ele>
        <time>2018-07-22T12:31:58Z</time>
      </trkpt>
      <trkpt lat="44.49752" lon="0.66928">
        <ele>210.6</ele>
        <time>2018-07-22T12:32:00Z</time>
      </trkpt>
      <trkpt lat="44.49753" lon="0.66934">
        <ele>210.4</ele>
        <time>2018-07-22T12:32:03Z</time>
      </trkpt>
      <trkpt lat="44.49753" lon="0.66939">
        <ele>210.1</ele>
        <time>2018-07-22T12:32:06Z</time>
      </trkpt>
      <trkpt lat="44.49753" lon="0.66943">
        <ele>209.9</ele>
        <time>2018-07-22T12:32:08Z</time>
      </trkpt>
      <trkpt lat="44.49753" lon="0.66947">
        <ele>209.7</ele>
        <time>2018-07-22T12:32:10Z</time>
      </trkpt>
      <trkpt lat="44.49754" lon="0.66952">
        <ele>209.5</ele>
        <time>2018-07-22T12:32:13Z</time>
      </trkpt>
      <trkpt lat="44.49755" lon="0.66957">
        <ele>209.2</ele>
        <time>2018-07-22T12:32:16Z</time>
      </trkpt>
      <trkpt lat="44.49756" lon="0.66963">
        <ele>208.9</ele>
        <time>2018-07-22T12:32:19Z</time>
      </trkpt>
      <trkpt lat="44.49757" lon="0.66966">
        <ele>208.7</ele>
        <time>2018-07-22T12:32:21Z</time>
      </trkpt>
      <trkpt lat="44.49757" lon="0.66971">
        <ele>208.4</ele>
        <time>2018-07-22T12:32:24Z</time>
      </trkpt>
      <trkpt lat="44.49757" lon="0.66976">
        <ele>208.2</ele>
        <time>2018-07-22T12:32:27Z</time>
      </trkpt>
      <trkpt lat="44.49757" lon="0.6698">
        <ele>207.9</ele>
        <time>2018-07-22T12:32:31Z</time>
      </trkpt>
      <trkpt lat="44.49763" lon="0.66991">
        <ele>207.1</ele>
        <time>2018-07-22T12:34:26Z</time>
      </trkpt>
      <trkpt lat="44.49764" lon="0.66995">
        <ele>207</ele>
        <time>2018-07-22T12:34:29Z</time>
      </trkpt>
      <trkpt lat="44.49765" lon="0.66999">
        <ele>206.5</ele>
        <time>2018-07-22T12:34:32Z</time>
      </trkpt>
      <trkpt lat="44.49765" lon="0.67003">
        <ele>205.9</ele>
        <time>2018-07-22T12:34:34Z</time>
      </trkpt>
      <trkpt lat="44.49766" lon="0.67007">
        <ele>205.4</ele>
        <time>2018-07-22T12:34:36Z</time>
      </trkpt>
      <trkpt lat="44.49766" lon="0.67011">
        <ele>204.8</ele>
        <time>2018-07-22T12:34:38Z</time>
      </trkpt>
      <trkpt lat="44.49766" lon="0.67015">
        <ele>204.3</ele>
        <time>2018-07-22T12:34:40Z</time>
      </trkpt>
      <trkpt lat="44.49767" lon="0.67019">
        <ele>203.8</ele>
        <time>2018-07-22T12:34:42Z</time>
      </trkpt>
      <trkpt lat="44.49766" lon="0.67025">
        <ele>203.1</ele>
        <time>2018-07-22T12:34:45Z</time>
      </trkpt>
      <trkpt lat="44.49765" lon="0.6703">
        <ele>202.4</ele>
        <time>2018-07-22T12:34:48Z</time>
      </trkpt>
      <trkpt lat="44.49764" lon="0.67034">
        <ele>201.8</ele>
        <time>2018-07-22T12:34:51Z</time>
      </trkpt>
      <trkpt lat="44.49763" lon="0.67038">
        <ele>201.3</ele>
        <time>2018-07-22T12:34:54Z</time>
      </trkpt>
      <trkpt lat="44.49761" lon="0.67042">
        <ele>201</ele>
        <time>2018-07-22T12:34:57Z</time>
      </trkpt>
      <trkpt lat="44.49758" lon="0.67043">
        <ele>201</ele>
        <time>2018-07-22T12:34:59Z</time>
      </trkpt>
      <trkpt lat="44.49754" lon="0.67043">
        <ele>200.7</ele>
        <time>2018-07-22T12:35:01Z</time>
      </trkpt>
      <trkpt lat="44.4975" lon="0.67043">
        <ele>199.8</ele>
        <time>2018-07-22T12:35:04Z</time>
      </trkpt>
      <trkpt lat="44.49748" lon="0.67042">
        <ele>199.5</ele>
        <time>2018-07-22T12:35:06Z</time>
      </trkpt>
      <trkpt lat="44.49744" lon="0.6704">
        <ele>199.1</ele>
        <time>2018-07-22T12:35:09Z</time>
      </trkpt>
      <trkpt lat="44.49741" lon="0.67037">
        <ele>198.7</ele>
        <time>2018-07-22T12:35:12Z</time>
      </trkpt>
      <trkpt lat="44.49741" lon="0.67033">
        <ele>198.4</ele>
        <time>2018-07-22T12:35:14Z</time>
      </trkpt>
      <trkpt lat="44.4974" lon="0.67029">
        <ele>198.1</ele>
        <time>2018-07-22T12:35:16Z</time>
      </trkpt>
      <trkpt lat="44.4974" lon="0.67025">
        <ele>197.9</ele>
        <time>2018-07-22T12:35:18Z</time>
      </trkpt>
      <trkpt lat="44.49739" lon="0.67022">
        <ele>197.8</ele>
        <time>2018-07-22T12:35:20Z</time>
      </trkpt>
      <trkpt lat="44.49738" lon="0.67016">
        <ele>197.5</ele>
        <time>2018-07-22T12:35:23Z</time>
      </trkpt>
      <trkpt lat="44.49738" lon="0.67011">
        <ele>197.3</ele>
        <time>2018-07-22T12:35:26Z</time>
      </trkpt>
      <trkpt lat="44.49737" lon="0.67007">
        <ele>197</ele>
        <time>2018-07-22T12:35:29Z</time>
      </trkpt>
      <trkpt lat="44.49736" lon="0.67002">
        <ele>196.7</ele>
        <time>2018-07-22T12:35:32Z</time>
      </trkpt>
      <trkpt lat="44.49735" lon="0.66997">
        <ele>196.5</ele>
        <time>2018-07-22T12:35:36Z</time>
      </trkpt>
      <trkpt lat="44.49735" lon="0.66993">
        <ele>196.2</ele>
        <time>2018-07-22T12:35:39Z</time>
      </trkpt>
      <trkpt lat="44.49734" lon="0.66989">
        <ele>195.9</ele>
        <time>2018-07-22T12:35:42Z</time>
      </trkpt>
      <trkpt lat="44.49733" lon="0.66984">
        <ele>195.6</ele>
        <time>2018-07-22T12:35:45Z</time>
      </trkpt>
      <trkpt lat="44.49729" lon="0.66984">
        <ele>195</ele>
        <time>2018-07-22T12:35:48Z</time>
      </trkpt>
      <trkpt lat="44.49727" lon="0.66987">
        <ele>194.8</ele>
        <time>2018-07-22T12:35:50Z</time>
      </trkpt>
      <trkpt lat="44.49726" lon="0.6699">
        <ele>194.7</ele>
        <time>2018-07-22T12:35:52Z</time>
      </trkpt>
      <trkpt lat="44.49725" lon="0.66994">
        <ele>194.5</ele>
        <time>2018-07-22T12:35:54Z</time>
      </trkpt>
      <trkpt lat="44.49724" lon="0.66998">
        <ele>194.4</ele>
        <time>2018-07-22T12:35:56Z</time>
      </trkpt>
      <trkpt lat="44.49723" lon="0.67002">
        <ele>194.3</ele>
        <time>2018-07-22T12:35:58Z</time>
      </trkpt>
      <trkpt lat="44.49722" lon="0.67007">
        <ele>194</ele>
        <time>2018-07-22T12:36:01Z</time>
      </trkpt>
      <trkpt lat="44.49721" lon="0.67011">
        <ele>193.8</ele>
        <time>2018-07-22T12:36:03Z</time>
      </trkpt>
      <trkpt lat="44.49719" lon="0.67016">
        <ele>193.5</ele>
        <time>2018-07-22T12:36:06Z</time>
      </trkpt>
      <trkpt lat="44.49718" lon="0.6702">
        <ele>193.3</ele>
        <time>2018-07-22T12:36:08Z</time>
      </trkpt>
      <trkpt lat="44.49717" lon="0.67025">
        <ele>193.1</ele>
        <time>2018-07-22T12:36:11Z</time>
      </trkpt>
      <trkpt lat="44.49715" lon="0.6703">
        <ele>192.9</ele>
        <time>2018-07-22T12:36:14Z</time>
      </trkpt>
      <trkpt lat="44.49714" lon="0.67035">
        <ele>192.7</ele>
        <time>2018-07-22T12:36:17Z</time>
      </trkpt>
      <trkpt lat="44.49713" lon="0.6704">
        <ele>192.5</ele>
        <time>2018-07-22T12:36:20Z</time>
      </trkpt>
      <trkpt lat="44.49711" lon="0.67044">
        <ele>192.2</ele>
        <time>2018-07-22T12:36:23Z</time>
      </trkpt>
      <trkpt lat="44.49709" lon="0.67049">
        <ele>191.9</ele>
        <time>2018-07-22T12:36:26Z</time>
      </trkpt>
      <trkpt lat="44.49707" lon="0.67052">
        <ele>191.7</ele>
        <time>2018-07-22T12:36:28Z</time>
      </trkpt>
      <trkpt lat="44.49705" lon="0.67055">
        <ele>191.4</ele>
        <time>2018-07-22T12:36:30Z</time>
      </trkpt>
      <trkpt lat="44.49702" lon="0.67057">
        <ele>190.9</ele>
        <time>2018-07-22T12:36:32Z</time>
      </trkpt>
      <trkpt lat="44.497" lon="0.67058">
        <ele>190.3</ele>
        <time>2018-07-22T12:36:34Z</time>
      </trkpt>
      <trkpt lat="44.49697" lon="0.6706">
        <ele>189.9</ele>
        <time>2018-07-22T12:36:36Z</time>
      </trkpt>
      <trkpt lat="44.49695" lon="0.67061">
        <ele>189.5</ele>
        <time>2018-07-22T12:36:38Z</time>
      </trkpt>
      <trkpt lat="44.49692" lon="0.67062">
        <ele>189.1</ele>
        <time>2018-07-22T12:36:40Z</time>
      </trkpt>
      <trkpt lat="44.49689" lon="0.67064">
        <ele>188.6</ele>
        <time>2018-07-22T12:36:42Z</time>
      </trkpt>
      <trkpt lat="44.49687" lon="0.67065">
        <ele>188</ele>
        <time>2018-07-22T12:36:44Z</time>
      </trkpt>
      <trkpt lat="44.49683" lon="0.67067">
        <ele>187.3</ele>
        <time>2018-07-22T12:36:47Z</time>
      </trkpt>
      <trkpt lat="44.49679" lon="0.67069">
        <ele>186.7</ele>
        <time>2018-07-22T12:36:50Z</time>
      </trkpt>
      <trkpt lat="44.49677" lon="0.6707">
        <ele>186.2</ele>
        <time>2018-07-22T12:36:52Z</time>
      </trkpt>
      <trkpt lat="44.49673" lon="0.67071">
        <ele>185.4</ele>
        <time>2018-07-22T12:36:55Z</time>
      </trkpt>
      <trkpt lat="44.4967" lon="0.67072">
        <ele>184.7</ele>
        <time>2018-07-22T12:36:57Z</time>
      </trkpt>
      <trkpt lat="44.49666" lon="0.67074">
        <ele>183.8</ele>
        <time>2018-07-22T12:37:00Z</time>
      </trkpt>
      <trkpt lat="44.49663" lon="0.67076">
        <ele>183.2</ele>
        <time>2018-07-22T12:37:03Z</time>
      </trkpt>
      <trkpt lat="44.4966" lon="0.67077">
        <ele>182.7</ele>
        <time>2018-07-22T12:37:05Z</time>
      </trkpt>
      <trkpt lat="44.49656" lon="0.67079">
        <ele>181.9</ele>
        <time>2018-07-22T12:37:08Z</time>
      </trkpt>
      <trkpt lat="44.49654" lon="0.6708">
        <ele>181.4</ele>
        <time>2018-07-22T12:37:10Z</time>
      </trkpt>
      <trkpt lat="44.4965" lon="0.67082">
        <ele>180.5</ele>
        <time>2018-07-22T12:37:13Z</time>
      </trkpt>
      <trkpt lat="44.49647" lon="0.67083">
        <ele>179.7</ele>
        <time>2018-07-22T12:37:15Z</time>
      </trkpt>
      <trkpt lat="44.49643" lon="0.67085">
        <ele>178.7</ele>
        <time>2018-07-22T12:37:18Z</time>
      </trkpt>
      <trkpt lat="44.4964" lon="0.67086">
        <ele>178</ele>
        <time>2018-07-22T12:37:21Z</time>
      </trkpt>
      <trkpt lat="44.49637" lon="0.67088">
        <ele>177.5</ele>
        <time>2018-07-22T12:37:23Z</time>
      </trkpt>
      <trkpt lat="44.49633" lon="0.67089">
        <ele>176.6</ele>
        <time>2018-07-22T12:37:26Z</time>
      </trkpt>
      <trkpt lat="44.4963" lon="0.67091">
        <ele>175.9</ele>
        <time>2018-07-22T12:37:28Z</time>
      </trkpt>
      <trkpt lat="44.49627" lon="0.67092">
        <ele>175.3</ele>
        <time>2018-07-22T12:37:30Z</time>
      </trkpt>
      <trkpt lat="44.49624" lon="0.67093">
        <ele>174.8</ele>
        <time>2018-07-22T12:37:32Z</time>
      </trkpt>
      <trkpt lat="44.49622" lon="0.67094">
        <ele>174.3</ele>
        <time>2018-07-22T12:37:34Z</time>
      </trkpt>
      <trkpt lat="44.49619" lon="0.67095">
        <ele>174</ele>
        <time>2018-07-22T12:37:36Z</time>
      </trkpt>
      <trkpt lat="44.49615" lon="0.67096">
        <ele>173.7</ele>
        <time>2018-07-22T12:37:39Z</time>
      </trkpt>
      <trkpt lat="44.49612" lon="0.67096">
        <ele>173.4</ele>
        <time>2018-07-22T12:37:41Z</time>
      </trkpt>
      <trkpt lat="44.49609" lon="0.67097">
        <ele>172.9</ele>
        <time>2018-07-22T12:37:43Z</time>
      </trkpt>
      <trkpt lat="44.49606" lon="0.67097">
        <ele>172.4</ele>
        <time>2018-07-22T12:37:45Z</time>
      </trkpt>
      <trkpt lat="44.49603" lon="0.67098">
        <ele>172</ele>
        <time>2018-07-22T12:37:47Z</time>
      </trkpt>
      <trkpt lat="44.49601" lon="0.67099">
        <ele>171.9</ele>
        <time>2018-07-22T12:37:49Z</time>
      </trkpt>
      <trkpt lat="44.49598" lon="0.67099">
        <ele>171.7</ele>
        <time>2018-07-22T12:37:51Z</time>
      </trkpt>
      <trkpt lat="44.49595" lon="0.671">
        <ele>171.5</ele>
        <time>2018-07-22T12:37:53Z</time>
      </trkpt>
      <trkpt lat="44.49592" lon="0.671">
        <ele>171.3</ele>
        <time>2018-07-22T12:37:55Z</time>
      </trkpt>
      <trkpt lat="44.49589" lon="0.67101">
        <ele>171.1</ele>
        <time>2018-07-22T12:37:57Z</time>
      </trkpt>
      <trkpt lat="44.49586" lon="0.67101">
        <ele>170.8</ele>
        <time>2018-07-22T12:37:59Z</time>
      </trkpt>
      <trkpt lat="44.49582" lon="0.67101">
        <ele>170.3</ele>
        <time>2018-07-22T12:38:02Z</time>
      </trkpt>
      <trkpt lat="44.49579" lon="0.67102">
        <ele>170.1</ele>
        <time>2018-07-22T12:38:04Z</time>
      </trkpt>
      <trkpt lat="44.49576" lon="0.67102">
        <ele>169.9</ele>
        <time>2018-07-22T12:38:06Z</time>
      </trkpt>
      <trkpt lat="44.49574" lon="0.67103">
        <ele>169.7</ele>
        <time>2018-07-22T12:38:08Z</time>
      </trkpt>
      <trkpt lat="44.49571" lon="0.67103">
        <ele>169.6</ele>
        <time>2018-07-22T12:38:10Z</time>
      </trkpt>
      <trkpt lat="44.49568" lon="0.67104">
        <ele>169.5</ele>
        <time>2018-07-22T12:38:12Z</time>
      </trkpt>
      <trkpt lat="44.49565" lon="0.67105">
        <ele>169.3</ele>
        <time>2018-07-22T12:38:14Z</time>
      </trkpt>
      <trkpt lat="44.49562" lon="0.67106">
        <ele>169.1</ele>
        <time>2018-07-22T12:38:16Z</time>
      </trkpt>
      <trkpt lat="44.49559" lon="0.67108">
        <ele>168.8</ele>
        <time>2018-07-22T12:38:18Z</time>
      </trkpt>
      <trkpt lat="44.49556" lon="0.67109">
        <ele>168.4</ele>
        <time>2018-07-22T12:38:20Z</time>
      </trkpt>
      <trkpt lat="44.49553" lon="0.67111">
        <ele>168.1</ele>
        <time>2018-07-22T12:38:22Z</time>
      </trkpt>
      <trkpt lat="44.49551" lon="0.67113">
        <ele>167.7</ele>
        <time>2018-07-22T12:38:24Z</time>
      </trkpt>
      <trkpt lat="44.49548" lon="0.67115">
        <ele>167.5</ele>
        <time>2018-07-22T12:38:26Z</time>
      </trkpt>
      <trkpt lat="44.49546" lon="0.67118">
        <ele>167.2</ele>
        <time>2018-07-22T12:38:28Z</time>
      </trkpt>
      <trkpt lat="44.49544" lon="0.6712">
        <ele>166.8</ele>
        <time>2018-07-22T12:38:30Z</time>
      </trkpt>
      <trkpt lat="44.49541" lon="0.67123">
        <ele>166.4</ele>
        <time>2018-07-22T12:38:32Z</time>
      </trkpt>
      <trkpt lat="44.49539" lon="0.67126">
        <ele>165.8</ele>
        <time>2018-07-22T12:38:34Z</time>
      </trkpt>
      <trkpt lat="44.49537" lon="0.67128">
        <ele>165.2</ele>
        <time>2018-07-22T12:38:36Z</time>
      </trkpt>
      <trkpt lat="44.49535" lon="0.67131">
        <ele>164.8</ele>
        <time>2018-07-22T12:38:38Z</time>
      </trkpt>
      <trkpt lat="44.49532" lon="0.67133">
        <ele>164.6</ele>
        <time>2018-07-22T12:38:40Z</time>
      </trkpt>
      <trkpt lat="44.4953" lon="0.67135">
        <ele>164.3</ele>
        <time>2018-07-22T12:38:42Z</time>
      </trkpt>
      <trkpt lat="44.49527" lon="0.67137">
        <ele>163.9</ele>
        <time>2018-07-22T12:38:44Z</time>
      </trkpt>
      <trkpt lat="44.49525" lon="0.67139">
        <ele>163.5</ele>
        <time>2018-07-22T12:38:46Z</time>
      </trkpt>
      <trkpt lat="44.49522" lon="0.67141">
        <ele>163.1</ele>
        <time>2018-07-22T12:38:48Z</time>
      </trkpt>
      <trkpt lat="44.49519" lon="0.67143">
        <ele>162.7</ele>
        <time>2018-07-22T12:38:50Z</time>
      </trkpt>
      <trkpt lat="44.49516" lon="0.67144">
        <ele>162.4</ele>
        <time>2018-07-22T12:38:52Z</time>
      </trkpt>
      <trkpt lat="44.49512" lon="0.67147">
        <ele>162</ele>
        <time>2018-07-22T12:38:55Z</time>
      </trkpt>
      <trkpt lat="44.49509" lon="0.67149">
        <ele>161.7</ele>
        <time>2018-07-22T12:38:58Z</time>
      </trkpt>
      <trkpt lat="44.49506" lon="0.6715">
        <ele>161.5</ele>
        <time>2018-07-22T12:39:00Z</time>
      </trkpt>
      <trkpt lat="44.49503" lon="0.67151">
        <ele>161.4</ele>
        <time>2018-07-22T12:39:02Z</time>
      </trkpt>
      <trkpt lat="44.49501" lon="0.67152">
        <ele>161.3</ele>
        <time>2018-07-22T12:39:04Z</time>
      </trkpt>
      <trkpt lat="44.49498" lon="0.67153">
        <ele>161.1</ele>
        <time>2018-07-22T12:39:06Z</time>
      </trkpt>
      <trkpt lat="44.49495" lon="0.67154">
        <ele>160.9</ele>
        <time>2018-07-22T12:39:08Z</time>
      </trkpt>
      <trkpt lat="44.49492" lon="0.67156">
        <ele>160.7</ele>
        <time>2018-07-22T12:39:10Z</time>
      </trkpt>
      <trkpt lat="44.4949" lon="0.67157">
        <ele>160.5</ele>
        <time>2018-07-22T12:39:12Z</time>
      </trkpt>
      <trkpt lat="44.49487" lon="0.67158">
        <ele>160.3</ele>
        <time>2018-07-22T12:39:14Z</time>
      </trkpt>
      <trkpt lat="44.49483" lon="0.67159">
        <ele>160.1</ele>
        <time>2018-07-22T12:39:17Z</time>
      </trkpt>
      <trkpt lat="44.4948" lon="0.6716">
        <ele>159.9</ele>
        <time>2018-07-22T12:39:19Z</time>
      </trkpt>
      <trkpt lat="44.49477" lon="0.67161">
        <ele>159.7</ele>
        <time>2018-07-22T12:39:21Z</time>
      </trkpt>
      <trkpt lat="44.49474" lon="0.67162">
        <ele>159.6</ele>
        <time>2018-07-22T12:39:23Z</time>
      </trkpt>
      <trkpt lat="44.4947" lon="0.67163">
        <ele>159.7</ele>
        <time>2018-07-22T12:39:26Z</time>
      </trkpt>
      <trkpt lat="44.49468" lon="0.67165">
        <ele>159.8</ele>
        <time>2018-07-22T12:39:28Z</time>
      </trkpt>
      <trkpt lat="44.49465" lon="0.67166">
        <ele>159.7</ele>
        <time>2018-07-22T12:39:30Z</time>
      </trkpt>
      <trkpt lat="44.49462" lon="0.67167">
        <ele>159.7</ele>
        <time>2018-07-22T12:39:32Z</time>
      </trkpt>
      <trkpt lat="44.4946" lon="0.67168">
        <ele>159.7</ele>
        <time>2018-07-22T12:39:34Z</time>
      </trkpt>
      <trkpt lat="44.49457" lon="0.67169">
        <ele>159.7</ele>
        <time>2018-07-22T12:39:36Z</time>
      </trkpt>
      <trkpt lat="44.49454" lon="0.6717">
        <ele>159.7</ele>
        <time>2018-07-22T12:39:38Z</time>
      </trkpt>
      <trkpt lat="44.49451" lon="0.67171">
        <ele>159.7</ele>
        <time>2018-07-22T12:39:40Z</time>
      </trkpt>
      <trkpt lat="44.49447" lon="0.67172">
        <ele>159.9</ele>
        <time>2018-07-22T12:39:43Z</time>
      </trkpt>
      <trkpt lat="44.49444" lon="0.67173">
        <ele>160.1</ele>
        <time>2018-07-22T12:39:45Z</time>
      </trkpt>
      <trkpt lat="44.49442" lon="0.67174">
        <ele>160.2</ele>
        <time>2018-07-22T12:39:47Z</time>
      </trkpt>
      <trkpt lat="44.49439" lon="0.67176">
        <ele>160.3</ele>
        <time>2018-07-22T12:39:49Z</time>
      </trkpt>
      <trkpt lat="44.49436" lon="0.67177">
        <ele>160.3</ele>
        <time>2018-07-22T12:39:51Z</time>
      </trkpt>
      <trkpt lat="44.49433" lon="0.67178">
        <ele>160.4</ele>
        <time>2018-07-22T12:39:53Z</time>
      </trkpt>
      <trkpt lat="44.4943" lon="0.67179">
        <ele>160.4</ele>
        <time>2018-07-22T12:39:55Z</time>
      </trkpt>
      <trkpt lat="44.49427" lon="0.6718">
        <ele>160.3</ele>
        <time>2018-07-22T12:39:57Z</time>
      </trkpt>
      <trkpt lat="44.49425" lon="0.67182">
        <ele>160.3</ele>
        <time>2018-07-22T12:39:59Z</time>
      </trkpt>
      <trkpt lat="44.49422" lon="0.67183">
        <ele>160.3</ele>
        <time>2018-07-22T12:40:01Z</time>
      </trkpt>
      <trkpt lat="44.49419" lon="0.67185">
        <ele>160.4</ele>
        <time>2018-07-22T12:40:03Z</time>
      </trkpt>
      <trkpt lat="44.49416" lon="0.67187">
        <ele>160.6</ele>
        <time>2018-07-22T12:40:06Z</time>
      </trkpt>
      <trkpt lat="44.49413" lon="0.67188">
        <ele>160.8</ele>
        <time>2018-07-22T12:40:08Z</time>
      </trkpt>
      <trkpt lat="44.4941" lon="0.67189">
        <ele>160.8</ele>
        <time>2018-07-22T12:40:10Z</time>
      </trkpt>
      <trkpt lat="44.49408" lon="0.67191">
        <ele>160.9</ele>
        <time>2018-07-22T12:40:12Z</time>
      </trkpt>
      <trkpt lat="44.49405" lon="0.67192">
        <ele>161</ele>
        <time>2018-07-22T12:40:14Z</time>
      </trkpt>
      <trkpt lat="44.49403" lon="0.67194">
        <ele>161.2</ele>
        <time>2018-07-22T12:40:16Z</time>
      </trkpt>
      <trkpt lat="44.494" lon="0.67196">
        <ele>161.3</ele>
        <time>2018-07-22T12:40:18Z</time>
      </trkpt>
      <trkpt lat="44.49397" lon="0.67197">
        <ele>161.4</ele>
        <time>2018-07-22T12:40:20Z</time>
      </trkpt>
      <trkpt lat="44.49394" lon="0.67199">
        <ele>161.5</ele>
        <time>2018-07-22T12:40:22Z</time>
      </trkpt>
      <trkpt lat="44.49392" lon="0.67201">
        <ele>161.6</ele>
        <time>2018-07-22T12:40:24Z</time>
      </trkpt>
      <trkpt lat="44.49389" lon="0.67203">
        <ele>161.8</ele>
        <time>2018-07-22T12:40:26Z</time>
      </trkpt>
      <trkpt lat="44.49387" lon="0.67205">
        <ele>161.9</ele>
        <time>2018-07-22T12:40:28Z</time>
      </trkpt>
      <trkpt lat="44.49384" lon="0.67207">
        <ele>162</ele>
        <time>2018-07-22T12:40:30Z</time>
      </trkpt>
      <trkpt lat="44.49382" lon="0.67209">
        <ele>162.1</ele>
        <time>2018-07-22T12:40:32Z</time>
      </trkpt>
      <trkpt lat="44.49379" lon="0.67211">
        <ele>162.2</ele>
        <time>2018-07-22T12:40:34Z</time>
      </trkpt>
      <trkpt lat="44.49377" lon="0.67214">
        <ele>162.3</ele>
        <time>2018-07-22T12:40:36Z</time>
      </trkpt>
      <trkpt lat="44.49375" lon="0.67216">
        <ele>162.4</ele>
        <time>2018-07-22T12:40:38Z</time>
      </trkpt>
      <trkpt lat="44.49373" lon="0.67219">
        <ele>162.5</ele>
        <time>2018-07-22T12:40:40Z</time>
      </trkpt>
      <trkpt lat="44.4937" lon="0.67221">
        <ele>162.5</ele>
        <time>2018-07-22T12:40:42Z</time>
      </trkpt>
      <trkpt lat="44.49368" lon="0.67224">
        <ele>162.4</ele>
        <time>2018-07-22T12:40:44Z</time>
      </trkpt>
      <trkpt lat="44.49366" lon="0.67226">
        <ele>162.3</ele>
        <time>2018-07-22T12:40:46Z</time>
      </trkpt>
      <trkpt lat="44.49363" lon="0.6723">
        <ele>162.4</ele>
        <time>2018-07-22T12:40:49Z</time>
      </trkpt>
      <trkpt lat="44.4936" lon="0.67234">
        <ele>162.5</ele>
        <time>2018-07-22T12:40:52Z</time>
      </trkpt>
      <trkpt lat="44.49358" lon="0.67237">
        <ele>162.4</ele>
        <time>2018-07-22T12:40:54Z</time>
      </trkpt>
      <trkpt lat="44.49355" lon="0.67239">
        <ele>162.3</ele>
        <time>2018-07-22T12:40:56Z</time>
      </trkpt>
      <trkpt lat="44.49353" lon="0.67242">
        <ele>162.1</ele>
        <time>2018-07-22T12:40:58Z</time>
      </trkpt>
      <trkpt lat="44.49351" lon="0.67244">
        <ele>162</ele>
        <time>2018-07-22T12:41:00Z</time>
      </trkpt>
      <trkpt lat="44.49348" lon="0.67248">
        <ele>161.9</ele>
        <time>2018-07-22T12:41:03Z</time>
      </trkpt>
      <trkpt lat="44.49345" lon="0.6725">
        <ele>161.8</ele>
        <time>2018-07-22T12:41:06Z</time>
      </trkpt>
      <trkpt lat="44.49342" lon="0.67251">
        <ele>161.7</ele>
        <time>2018-07-22T12:41:09Z</time>
      </trkpt>
      <trkpt lat="44.49339" lon="0.67251">
        <ele>161.7</ele>
        <time>2018-07-22T12:41:14Z</time>
      </trkpt>
      <trkpt lat="44.49336" lon="0.67251">
        <ele>161.5</ele>
        <time>2018-07-22T12:41:17Z</time>
      </trkpt>
      <trkpt lat="44.49333" lon="0.67251">
        <ele>161.3</ele>
        <time>2018-07-22T12:41:20Z</time>
      </trkpt>
      <trkpt lat="44.4933" lon="0.6725">
        <ele>161.1</ele>
        <time>2018-07-22T12:41:23Z</time>
      </trkpt>
      <trkpt lat="44.49327" lon="0.6725">
        <ele>161</ele>
        <time>2018-07-22T12:41:25Z</time>
      </trkpt>
      <trkpt lat="44.49325" lon="0.67249">
        <ele>160.8</ele>
        <time>2018-07-22T12:41:27Z</time>
      </trkpt>
      <trkpt lat="44.49321" lon="0.67247">
        <ele>161.3</ele>
        <time>2018-07-22T12:41:30Z</time>
      </trkpt>
      <trkpt lat="44.49317" lon="0.67246">
        <ele>161.4</ele>
        <time>2018-07-22T12:41:33Z</time>
      </trkpt>
      <trkpt lat="44.49314" lon="0.67246">
        <ele>161.5</ele>
        <time>2018-07-22T12:41:35Z</time>
      </trkpt>
      <trkpt lat="44.49311" lon="0.67245">
        <ele>161.6</ele>
        <time>2018-07-22T12:41:38Z</time>
      </trkpt>
      <trkpt lat="44.49308" lon="0.67243">
        <ele>162.1</ele>
        <time>2018-07-22T12:41:41Z</time>
      </trkpt>
      <trkpt lat="44.49305" lon="0.67242">
        <ele>162.4</ele>
        <time>2018-07-22T12:41:44Z</time>
      </trkpt>
      <trkpt lat="44.49302" lon="0.67241">
        <ele>162.4</ele>
        <time>2018-07-22T12:41:46Z</time>
      </trkpt>
      <trkpt lat="44.49299" lon="0.67239">
        <ele>162.9</ele>
        <time>2018-07-22T12:41:48Z</time>
      </trkpt>
      <trkpt lat="44.49297" lon="0.67237">
        <ele>163</ele>
        <time>2018-07-22T12:41:50Z</time>
      </trkpt>
      <trkpt lat="44.49293" lon="0.67235">
        <ele>163.5</ele>
        <time>2018-07-22T12:41:53Z</time>
      </trkpt>
      <trkpt lat="44.49289" lon="0.67234">
        <ele>163.6</ele>
        <time>2018-07-22T12:41:56Z</time>
      </trkpt>
      <trkpt lat="44.49286" lon="0.67232">
        <ele>163.7</ele>
        <time>2018-07-22T12:41:59Z</time>
      </trkpt>
      <trkpt lat="44.49282" lon="0.67231">
        <ele>164.2</ele>
        <time>2018-07-22T12:42:02Z</time>
      </trkpt>
      <trkpt lat="44.49278" lon="0.6723">
        <ele>164.2</ele>
        <time>2018-07-22T12:42:05Z</time>
      </trkpt>
      <trkpt lat="44.49275" lon="0.67229">
        <ele>164.3</ele>
        <time>2018-07-22T12:42:07Z</time>
      </trkpt>
      <trkpt lat="44.49271" lon="0.67228">
        <ele>164.3</ele>
        <time>2018-07-22T12:42:10Z</time>
      </trkpt>
      <trkpt lat="44.49269" lon="0.67227">
        <ele>164.4</ele>
        <time>2018-07-22T12:42:12Z</time>
      </trkpt>
      <trkpt lat="44.49265" lon="0.67225">
        <ele>164.8</ele>
        <time>2018-07-22T12:42:15Z</time>
      </trkpt>
      <trkpt lat="44.49263" lon="0.67223">
        <ele>164.8</ele>
        <time>2018-07-22T12:42:17Z</time>
      </trkpt>
      <trkpt lat="44.4926" lon="0.67222">
        <ele>165.3</ele>
        <time>2018-07-22T12:42:19Z</time>
      </trkpt>
      <trkpt lat="44.49256" lon="0.6722">
        <ele>165.3</ele>
        <time>2018-07-22T12:42:22Z</time>
      </trkpt>
      <trkpt lat="44.49253" lon="0.67218">
        <ele>165.8</ele>
        <time>2018-07-22T12:42:25Z</time>
      </trkpt>
      <trkpt lat="44.4925" lon="0.67216">
        <ele>165.9</ele>
        <time>2018-07-22T12:42:27Z</time>
      </trkpt>
      <trkpt lat="44.49246" lon="0.67215">
        <ele>166</ele>
        <time>2018-07-22T12:42:30Z</time>
      </trkpt>
      <trkpt lat="44.49244" lon="0.67214">
        <ele>166.5</ele>
        <time>2018-07-22T12:42:32Z</time>
      </trkpt>
      <trkpt lat="44.4924" lon="0.67212">
        <ele>166.5</ele>
        <time>2018-07-22T12:42:35Z</time>
      </trkpt>
      <trkpt lat="44.49236" lon="0.67211">
        <ele>166.6</ele>
        <time>2018-07-22T12:42:38Z</time>
      </trkpt>
      <trkpt lat="44.49232" lon="0.6721">
        <ele>166.6</ele>
        <time>2018-07-22T12:42:41Z</time>
      </trkpt>
      <trkpt lat="44.49228" lon="0.67209">
        <ele>167.1</ele>
        <time>2018-07-22T12:42:44Z</time>
      </trkpt>
      <trkpt lat="44.49226" lon="0.67208">
        <ele>167.1</ele>
        <time>2018-07-22T12:42:47Z</time>
      </trkpt>
      <trkpt lat="44.49222" lon="0.67206">
        <ele>167</ele>
        <time>2018-07-22T12:42:50Z</time>
      </trkpt>
      <trkpt lat="44.49219" lon="0.67205">
        <ele>167.4</ele>
        <time>2018-07-22T12:42:53Z</time>
      </trkpt>
      <trkpt lat="44.49215" lon="0.67204">
        <ele>167.4</ele>
        <time>2018-07-22T12:42:56Z</time>
      </trkpt>
      <trkpt lat="44.49212" lon="0.67203">
        <ele>167.4</ele>
        <time>2018-07-22T12:42:58Z</time>
      </trkpt>
      <trkpt lat="44.49208" lon="0.67203">
        <ele>167.3</ele>
        <time>2018-07-22T12:43:01Z</time>
      </trkpt>
      <trkpt lat="44.49206" lon="0.67203">
        <ele>167.3</ele>
        <time>2018-07-22T12:43:03Z</time>
      </trkpt>
      <trkpt lat="44.49203" lon="0.67203">
        <ele>167.3</ele>
        <time>2018-07-22T12:43:05Z</time>
      </trkpt>
      <trkpt lat="44.492" lon="0.67203">
        <ele>167.2</ele>
        <time>2018-07-22T12:43:07Z</time>
      </trkpt>
      <trkpt lat="44.49197" lon="0.67203">
        <ele>167.2</ele>
        <time>2018-07-22T12:43:09Z</time>
      </trkpt>
      <trkpt lat="44.49194" lon="0.67203">
        <ele>167.1</ele>
        <time>2018-07-22T12:43:11Z</time>
      </trkpt>
      <trkpt lat="44.49191" lon="0.67204">
        <ele>167</ele>
        <time>2018-07-22T12:43:13Z</time>
      </trkpt>
      <trkpt lat="44.49188" lon="0.67205">
        <ele>166.9</ele>
        <time>2018-07-22T12:43:15Z</time>
      </trkpt>
      <trkpt lat="44.49185" lon="0.67206">
        <ele>166.5</ele>
        <time>2018-07-22T12:43:17Z</time>
      </trkpt>
      <trkpt lat="44.49182" lon="0.67207">
        <ele>166.4</ele>
        <time>2018-07-22T12:43:19Z</time>
      </trkpt>
      <trkpt lat="44.49179" lon="0.67207">
        <ele>166.4</ele>
        <time>2018-07-22T12:43:21Z</time>
      </trkpt>
      <trkpt lat="44.49176" lon="0.67208">
        <ele>166.3</ele>
        <time>2018-07-22T12:43:23Z</time>
      </trkpt>
      <trkpt lat="44.49173" lon="0.67209">
        <ele>166.2</ele>
        <time>2018-07-22T12:43:25Z</time>
      </trkpt>
      <trkpt lat="44.4917" lon="0.6721">
        <ele>166.1</ele>
        <time>2018-07-22T12:43:27Z</time>
      </trkpt>
      <trkpt lat="44.49167" lon="0.6721">
        <ele>165.6</ele>
        <time>2018-07-22T12:43:29Z</time>
      </trkpt>
      <trkpt lat="44.49164" lon="0.67211">
        <ele>165.5</ele>
        <time>2018-07-22T12:43:31Z</time>
      </trkpt>
      <trkpt lat="44.49161" lon="0.67211">
        <ele>165.4</ele>
        <time>2018-07-22T12:43:33Z</time>
      </trkpt>
      <trkpt lat="44.49159" lon="0.67211">
        <ele>165.2</ele>
        <time>2018-07-22T12:43:35Z</time>
      </trkpt>
      <trkpt lat="44.49156" lon="0.67211">
        <ele>165.1</ele>
        <time>2018-07-22T12:43:37Z</time>
      </trkpt>
      <trkpt lat="44.49152" lon="0.67211">
        <ele>165</ele>
        <time>2018-07-22T12:43:40Z</time>
      </trkpt>
      <trkpt lat="44.49148" lon="0.67211">
        <ele>164.7</ele>
        <time>2018-07-22T12:43:43Z</time>
      </trkpt>
      <trkpt lat="44.49145" lon="0.67211">
        <ele>164.6</ele>
        <time>2018-07-22T12:43:45Z</time>
      </trkpt>
      <trkpt lat="44.49142" lon="0.67209">
        <ele>164.7</ele>
        <time>2018-07-22T12:43:47Z</time>
      </trkpt>
      <trkpt lat="44.4914" lon="0.67207">
        <ele>164.7</ele>
        <time>2018-07-22T12:43:49Z</time>
      </trkpt>
      <trkpt lat="44.49137" lon="0.67204">
        <ele>164.8</ele>
        <time>2018-07-22T12:43:52Z</time>
      </trkpt>
      <trkpt lat="44.49134" lon="0.67202">
        <ele>164.7</ele>
        <time>2018-07-22T12:43:54Z</time>
      </trkpt>
      <trkpt lat="44.49132" lon="0.672">
        <ele>164.8</ele>
        <time>2018-07-22T12:43:56Z</time>
      </trkpt>
      <trkpt lat="44.4913" lon="0.67197">
        <ele>164.7</ele>
        <time>2018-07-22T12:43:58Z</time>
      </trkpt>
      <trkpt lat="44.49126" lon="0.67194">
        <ele>164.9</ele>
        <time>2018-07-22T12:44:01Z</time>
      </trkpt>
      <trkpt lat="44.49124" lon="0.67193">
        <ele>164.7</ele>
        <time>2018-07-22T12:44:03Z</time>
      </trkpt>
      <trkpt lat="44.4912" lon="0.67191">
        <ele>164.9</ele>
        <time>2018-07-22T12:44:06Z</time>
      </trkpt>
      <trkpt lat="44.49116" lon="0.67189">
        <ele>164.8</ele>
        <time>2018-07-22T12:44:09Z</time>
      </trkpt>
      <trkpt lat="44.49113" lon="0.67187">
        <ele>164.9</ele>
        <time>2018-07-22T12:44:12Z</time>
      </trkpt>
      <trkpt lat="44.4911" lon="0.67185">
        <ele>164.7</ele>
        <time>2018-07-22T12:44:14Z</time>
      </trkpt>
      <trkpt lat="44.49107" lon="0.67183">
        <ele>164.8</ele>
        <time>2018-07-22T12:44:17Z</time>
      </trkpt>
      <trkpt lat="44.49104" lon="0.67181">
        <ele>164.6</ele>
        <time>2018-07-22T12:44:19Z</time>
      </trkpt>
      <trkpt lat="44.49101" lon="0.67178">
        <ele>164.8</ele>
        <time>2018-07-22T12:44:22Z</time>
      </trkpt>
      <trkpt lat="44.49097" lon="0.67176">
        <ele>164.6</ele>
        <time>2018-07-22T12:44:25Z</time>
      </trkpt>
      <trkpt lat="44.49095" lon="0.67174">
        <ele>164.7</ele>
        <time>2018-07-22T12:44:27Z</time>
      </trkpt>
      <trkpt lat="44.49091" lon="0.67171">
        <ele>164.9</ele>
        <time>2018-07-22T12:44:30Z</time>
      </trkpt>
      <trkpt lat="44.49089" lon="0.67169">
        <ele>164.7</ele>
        <time>2018-07-22T12:44:32Z</time>
      </trkpt>
      <trkpt lat="44.49086" lon="0.67167">
        <ele>164.8</ele>
        <time>2018-07-22T12:44:35Z</time>
      </trkpt>
      <trkpt lat="44.49083" lon="0.67165">
        <ele>164.6</ele>
        <time>2018-07-22T12:44:37Z</time>
      </trkpt>
      <trkpt lat="44.49079" lon="0.67163">
        <ele>164.4</ele>
        <time>2018-07-22T12:44:40Z</time>
      </trkpt>
      <trkpt lat="44.49077" lon="0.67161">
        <ele>164.6</ele>
        <time>2018-07-22T12:44:42Z</time>
      </trkpt>
      <trkpt lat="44.49074" lon="0.67159">
        <ele>164.5</ele>
        <time>2018-07-22T12:44:44Z</time>
      </trkpt>
      <trkpt lat="44.49071" lon="0.67157">
        <ele>164.7</ele>
        <time>2018-07-22T12:44:47Z</time>
      </trkpt>
      <trkpt lat="44.49067" lon="0.67155">
        <ele>164.6</ele>
        <time>2018-07-22T12:44:50Z</time>
      </trkpt>
      <trkpt lat="44.49063" lon="0.67152">
        <ele>164.8</ele>
        <time>2018-07-22T12:44:53Z</time>
      </trkpt>
      <trkpt lat="44.49061" lon="0.67151">
        <ele>164.7</ele>
        <time>2018-07-22T12:44:55Z</time>
      </trkpt>
      <trkpt lat="44.49057" lon="0.67149">
        <ele>165</ele>
        <time>2018-07-22T12:44:58Z</time>
      </trkpt>
      <trkpt lat="44.49053" lon="0.67147">
        <ele>164.7</ele>
        <time>2018-07-22T12:45:01Z</time>
      </trkpt>
      <trkpt lat="44.49051" lon="0.67146">
        <ele>164.7</ele>
        <time>2018-07-22T12:45:03Z</time>
      </trkpt>
      <trkpt lat="44.49047" lon="0.67146">
        <ele>164.4</ele>
        <time>2018-07-22T12:45:06Z</time>
      </trkpt>
      <trkpt lat="44.49044" lon="0.67146">
        <ele>164.3</ele>
        <time>2018-07-22T12:45:08Z</time>
      </trkpt>
      <trkpt lat="44.49041" lon="0.67145">
        <ele>164.4</ele>
        <time>2018-07-22T12:45:10Z</time>
      </trkpt>
      <trkpt lat="44.49037" lon="0.67144">
        <ele>164.3</ele>
        <time>2018-07-22T12:45:13Z</time>
      </trkpt>
      <trkpt lat="44.49034" lon="0.67144">
        <ele>164.1</ele>
        <time>2018-07-22T12:45:15Z</time>
      </trkpt>
      <trkpt lat="44.49031" lon="0.67143">
        <ele>163.9</ele>
        <time>2018-07-22T12:45:17Z</time>
      </trkpt>
      <trkpt lat="44.49028" lon="0.67142">
        <ele>163.7</ele>
        <time>2018-07-22T12:45:19Z</time>
      </trkpt>
      <trkpt lat="44.49025" lon="0.67142">
        <ele>163.5</ele>
        <time>2018-07-22T12:45:21Z</time>
      </trkpt>
      <trkpt lat="44.49022" lon="0.67142">
        <ele>163.3</ele>
        <time>2018-07-22T12:45:23Z</time>
      </trkpt>
      <trkpt lat="44.49019" lon="0.67141">
        <ele>163.1</ele>
        <time>2018-07-22T12:45:25Z</time>
      </trkpt>
      <trkpt lat="44.49016" lon="0.67141">
        <ele>162.9</ele>
        <time>2018-07-22T12:45:27Z</time>
      </trkpt>
      <trkpt lat="44.49013" lon="0.67141">
        <ele>163</ele>
        <time>2018-07-22T12:45:29Z</time>
      </trkpt>
      <trkpt lat="44.4901" lon="0.67141">
        <ele>162.5</ele>
        <time>2018-07-22T12:45:31Z</time>
      </trkpt>
      <trkpt lat="44.49007" lon="0.67142">
        <ele>162.3</ele>
        <time>2018-07-22T12:45:33Z</time>
      </trkpt>
      <trkpt lat="44.49004" lon="0.67142">
        <ele>162.1</ele>
        <time>2018-07-22T12:45:35Z</time>
      </trkpt>
      <trkpt lat="44.49001" lon="0.67143">
        <ele>161.9</ele>
        <time>2018-07-22T12:45:37Z</time>
      </trkpt>
      <trkpt lat="44.48999" lon="0.67144">
        <ele>161.9</ele>
        <time>2018-07-22T12:45:39Z</time>
      </trkpt>
      <trkpt lat="44.48996" lon="0.67146">
        <ele>161.5</ele>
        <time>2018-07-22T12:45:41Z</time>
      </trkpt>
      <trkpt lat="44.48994" lon="0.67148">
        <ele>161.3</ele>
        <time>2018-07-22T12:45:43Z</time>
      </trkpt>
      <trkpt lat="44.48991" lon="0.6715">
        <ele>160.9</ele>
        <time>2018-07-22T12:45:45Z</time>
      </trkpt>
      <trkpt lat="44.48988" lon="0.67151">
        <ele>160.8</ele>
        <time>2018-07-22T12:45:47Z</time>
      </trkpt>
      <trkpt lat="44.48985" lon="0.67153">
        <ele>160.6</ele>
        <time>2018-07-22T12:45:49Z</time>
      </trkpt>
      <trkpt lat="44.48983" lon="0.67154">
        <ele>160.2</ele>
        <time>2018-07-22T12:45:51Z</time>
      </trkpt>
      <trkpt lat="44.4898" lon="0.67156">
        <ele>160.1</ele>
        <time>2018-07-22T12:45:53Z</time>
      </trkpt>
      <trkpt lat="44.48977" lon="0.67157">
        <ele>160</ele>
        <time>2018-07-22T12:45:55Z</time>
      </trkpt>
      <trkpt lat="44.48974" lon="0.67158">
        <ele>159.8</ele>
        <time>2018-07-22T12:45:57Z</time>
      </trkpt>
      <trkpt lat="44.48971" lon="0.6716">
        <ele>159.7</ele>
        <time>2018-07-22T12:45:59Z</time>
      </trkpt>
      <trkpt lat="44.48968" lon="0.67162">
        <ele>159.6</ele>
        <time>2018-07-22T12:46:01Z</time>
      </trkpt>
      <trkpt lat="44.48965" lon="0.67164">
        <ele>159.2</ele>
        <time>2018-07-22T12:46:03Z</time>
      </trkpt>
      <trkpt lat="44.48962" lon="0.67165">
        <ele>159.2</ele>
        <time>2018-07-22T12:46:05Z</time>
      </trkpt>
      <trkpt lat="44.48959" lon="0.67165">
        <ele>159.2</ele>
        <time>2018-07-22T12:46:07Z</time>
      </trkpt>
      <trkpt lat="44.48956" lon="0.67165">
        <ele>159.2</ele>
        <time>2018-07-22T12:46:09Z</time>
      </trkpt>
      <trkpt lat="44.48953" lon="0.67165">
        <ele>159.2</ele>
        <time>2018-07-22T12:46:11Z</time>
      </trkpt>
      <trkpt lat="44.4895" lon="0.67166">
        <ele>159.2</ele>
        <time>2018-07-22T12:46:13Z</time>
      </trkpt>
      <trkpt lat="44.48949" lon="0.6717">
        <ele>158.9</ele>
        <time>2018-07-22T12:46:15Z</time>
      </trkpt>
      <trkpt lat="44.4895" lon="0.67175">
        <ele>158.7</ele>
        <time>2018-07-22T12:46:17Z</time>
      </trkpt>
      <trkpt lat="44.48951" lon="0.6718">
        <ele>158.4</ele>
        <time>2018-07-22T12:46:19Z</time>
      </trkpt>
      <trkpt lat="44.48953" lon="0.67184">
        <ele>158.1</ele>
        <time>2018-07-22T12:46:21Z</time>
      </trkpt>
      <trkpt lat="44.48955" lon="0.67188">
        <ele>157.8</ele>
        <time>2018-07-22T12:46:23Z</time>
      </trkpt>
      <trkpt lat="44.48957" lon="0.67192">
        <ele>157.6</ele>
        <time>2018-07-22T12:46:25Z</time>
      </trkpt>
      <trkpt lat="44.48959" lon="0.67196">
        <ele>157.4</ele>
        <time>2018-07-22T12:46:27Z</time>
      </trkpt>
      <trkpt lat="44.48961" lon="0.672">
        <ele>157.1</ele>
        <time>2018-07-22T12:46:29Z</time>
      </trkpt>
      <trkpt lat="44.48962" lon="0.67204">
        <ele>157</ele>
        <time>2018-07-22T12:46:31Z</time>
      </trkpt>
      <trkpt lat="44.48964" lon="0.67207">
        <ele>156.7</ele>
        <time>2018-07-22T12:46:33Z</time>
      </trkpt>
      <trkpt lat="44.48966" lon="0.67211">
        <ele>156.5</ele>
        <time>2018-07-22T12:46:35Z</time>
      </trkpt>
      <trkpt lat="44.48967" lon="0.67215">
        <ele>156.3</ele>
        <time>2018-07-22T12:46:37Z</time>
      </trkpt>
      <trkpt lat="44.48968" lon="0.67218">
        <ele>156.4</ele>
        <time>2018-07-22T12:46:39Z</time>
      </trkpt>
      <trkpt lat="44.4897" lon="0.67222">
        <ele>156.1</ele>
        <time>2018-07-22T12:46:41Z</time>
      </trkpt>
      <trkpt lat="44.48972" lon="0.67225">
        <ele>155.9</ele>
        <time>2018-07-22T12:46:43Z</time>
      </trkpt>
      <trkpt lat="44.48974" lon="0.67229">
        <ele>155.7</ele>
        <time>2018-07-22T12:46:45Z</time>
      </trkpt>
      <trkpt lat="44.48975" lon="0.67232">
        <ele>155.6</ele>
        <time>2018-07-22T12:46:47Z</time>
      </trkpt>
      <trkpt lat="44.48977" lon="0.67236">
        <ele>155.4</ele>
        <time>2018-07-22T12:46:49Z</time>
      </trkpt>
      <trkpt lat="44.48978" lon="0.6724">
        <ele>155.5</ele>
        <time>2018-07-22T12:46:51Z</time>
      </trkpt>
      <trkpt lat="44.4898" lon="0.67243">
        <ele>155.3</ele>
        <time>2018-07-22T12:46:53Z</time>
      </trkpt>
      <trkpt lat="44.48981" lon="0.67247">
        <ele>155.3</ele>
        <time>2018-07-22T12:46:55Z</time>
      </trkpt>
      <trkpt lat="44.48983" lon="0.6725">
        <ele>155.2</ele>
        <time>2018-07-22T12:46:57Z</time>
      </trkpt>
      <trkpt lat="44.48985" lon="0.67254">
        <ele>155.1</ele>
        <time>2018-07-22T12:46:59Z</time>
      </trkpt>
      <trkpt lat="44.48986" lon="0.67258">
        <ele>155</ele>
        <time>2018-07-22T12:47:01Z</time>
      </trkpt>
      <trkpt lat="44.48988" lon="0.67261">
        <ele>155</ele>
        <time>2018-07-22T12:47:03Z</time>
      </trkpt>
      <trkpt lat="44.48989" lon="0.67264">
        <ele>154.9</ele>
        <time>2018-07-22T12:47:05Z</time>
      </trkpt>
      <trkpt lat="44.48991" lon="0.67268">
        <ele>154.8</ele>
        <time>2018-07-22T12:47:07Z</time>
      </trkpt>
      <trkpt lat="44.48992" lon="0.67271">
        <ele>154.5</ele>
        <time>2018-07-22T12:47:09Z</time>
      </trkpt>
      <trkpt lat="44.48994" lon="0.67275">
        <ele>154.4</ele>
        <time>2018-07-22T12:47:11Z</time>
      </trkpt>
      <trkpt lat="44.48995" lon="0.67278">
        <ele>154.2</ele>
        <time>2018-07-22T12:47:13Z</time>
      </trkpt>
      <trkpt lat="44.48997" lon="0.67282">
        <ele>154.3</ele>
        <time>2018-07-22T12:47:15Z</time>
      </trkpt>
      <trkpt lat="44.48998" lon="0.67286">
        <ele>154.1</ele>
        <time>2018-07-22T12:47:17Z</time>
      </trkpt>
      <trkpt lat="44.49" lon="0.6729">
        <ele>154.1</ele>
        <time>2018-07-22T12:47:19Z</time>
      </trkpt>
      <trkpt lat="44.49001" lon="0.67294">
        <ele>153.9</ele>
        <time>2018-07-22T12:47:21Z</time>
      </trkpt>
      <trkpt lat="44.49002" lon="0.67298">
        <ele>153.9</ele>
        <time>2018-07-22T12:47:23Z</time>
      </trkpt>
      <trkpt lat="44.49003" lon="0.67301">
        <ele>153.7</ele>
        <time>2018-07-22T12:47:25Z</time>
      </trkpt>
      <trkpt lat="44.49005" lon="0.67305">
        <ele>153.6</ele>
        <time>2018-07-22T12:47:27Z</time>
      </trkpt>
      <trkpt lat="44.49006" lon="0.67308">
        <ele>153.7</ele>
        <time>2018-07-22T12:47:29Z</time>
      </trkpt>
      <trkpt lat="44.49008" lon="0.67312">
        <ele>153.6</ele>
        <time>2018-07-22T12:47:31Z</time>
      </trkpt>
      <trkpt lat="44.49009" lon="0.67315">
        <ele>153.5</ele>
        <time>2018-07-22T12:47:33Z</time>
      </trkpt>
      <trkpt lat="44.49011" lon="0.67318">
        <ele>153.5</ele>
        <time>2018-07-22T12:47:35Z</time>
      </trkpt>
      <trkpt lat="44.49012" lon="0.67322">
        <ele>153.5</ele>
        <time>2018-07-22T12:47:37Z</time>
      </trkpt>
      <trkpt lat="44.49014" lon="0.67325">
        <ele>153.6</ele>
        <time>2018-07-22T12:47:39Z</time>
      </trkpt>
      <trkpt lat="44.49015" lon="0.67329">
        <ele>153.6</ele>
        <time>2018-07-22T12:47:41Z</time>
      </trkpt>
      <trkpt lat="44.49017" lon="0.67332">
        <ele>153.6</ele>
        <time>2018-07-22T12:47:43Z</time>
      </trkpt>
      <trkpt lat="44.49019" lon="0.67336">
        <ele>153.7</ele>
        <time>2018-07-22T12:47:45Z</time>
      </trkpt>
      <trkpt lat="44.4902" lon="0.67339">
        <ele>153.7</ele>
        <time>2018-07-22T12:47:47Z</time>
      </trkpt>
      <trkpt lat="44.49021" lon="0.67343">
        <ele>154</ele>
        <time>2018-07-22T12:47:49Z</time>
      </trkpt>
      <trkpt lat="44.49023" lon="0.67346">
        <ele>154</ele>
        <time>2018-07-22T12:47:51Z</time>
      </trkpt>
      <trkpt lat="44.49024" lon="0.67349">
        <ele>154.2</ele>
        <time>2018-07-22T12:47:53Z</time>
      </trkpt>
      <trkpt lat="44.49025" lon="0.67353">
        <ele>154.2</ele>
        <time>2018-07-22T12:47:55Z</time>
      </trkpt>
      <trkpt lat="44.49026" lon="0.67357">
        <ele>154.2</ele>
        <time>2018-07-22T12:47:57Z</time>
      </trkpt>
      <trkpt lat="44.49027" lon="0.67361">
        <ele>154.4</ele>
        <time>2018-07-22T12:47:59Z</time>
      </trkpt>
      <trkpt lat="44.49029" lon="0.67366">
        <ele>154.4</ele>
        <time>2018-07-22T12:48:02Z</time>
      </trkpt>
      <trkpt lat="44.4903" lon="0.67369">
        <ele>154.6</ele>
        <time>2018-07-22T12:48:04Z</time>
      </trkpt>
      <trkpt lat="44.49031" lon="0.67374">
        <ele>154.6</ele>
        <time>2018-07-22T12:48:07Z</time>
      </trkpt>
      <trkpt lat="44.49032" lon="0.6738">
        <ele>154.8</ele>
        <time>2018-07-22T12:48:10Z</time>
      </trkpt>
      <trkpt lat="44.49033" lon="0.67384">
        <ele>154.8</ele>
        <time>2018-07-22T12:48:12Z</time>
      </trkpt>
      <trkpt lat="44.49034" lon="0.67387">
        <ele>154.7</ele>
        <time>2018-07-22T12:48:14Z</time>
      </trkpt>
      <trkpt lat="44.49035" lon="0.67391">
        <ele>154.7</ele>
        <time>2018-07-22T12:48:16Z</time>
      </trkpt>
      <trkpt lat="44.49036" lon="0.67395">
        <ele>154.8</ele>
        <time>2018-07-22T12:48:18Z</time>
      </trkpt>
      <trkpt lat="44.49037" lon="0.67399">
        <ele>154.8</ele>
        <time>2018-07-22T12:48:20Z</time>
      </trkpt>
      <trkpt lat="44.49038" lon="0.67403">
        <ele>154.8</ele>
        <time>2018-07-22T12:48:22Z</time>
      </trkpt>
      <trkpt lat="44.49039" lon="0.67407">
        <ele>154.9</ele>
        <time>2018-07-22T12:48:24Z</time>
      </trkpt>
      <trkpt lat="44.4904" lon="0.67412">
        <ele>154.9</ele>
        <time>2018-07-22T12:48:26Z</time>
      </trkpt>
      <trkpt lat="44.49041" lon="0.67416">
        <ele>154.9</ele>
        <time>2018-07-22T12:48:28Z</time>
      </trkpt>
      <trkpt lat="44.49042" lon="0.6742">
        <ele>155</ele>
        <time>2018-07-22T12:48:30Z</time>
      </trkpt>
      <trkpt lat="44.49044" lon="0.67424">
        <ele>155</ele>
        <time>2018-07-22T12:48:32Z</time>
      </trkpt>
      <trkpt lat="44.49045" lon="0.67428">
        <ele>155.1</ele>
        <time>2018-07-22T12:48:34Z</time>
      </trkpt>
      <trkpt lat="44.49046" lon="0.67431">
        <ele>155.1</ele>
        <time>2018-07-22T12:48:36Z</time>
      </trkpt>
      <trkpt lat="44.49048" lon="0.67436">
        <ele>155.1</ele>
        <time>2018-07-22T12:48:38Z</time>
      </trkpt>
      <trkpt lat="44.49049" lon="0.67439">
        <ele>155.1</ele>
        <time>2018-07-22T12:48:40Z</time>
      </trkpt>
      <trkpt lat="44.4905" lon="0.67443">
        <ele>155</ele>
        <time>2018-07-22T12:48:42Z</time>
      </trkpt>
      <trkpt lat="44.49052" lon="0.67447">
        <ele>155</ele>
        <time>2018-07-22T12:48:44Z</time>
      </trkpt>
      <trkpt lat="44.49053" lon="0.67451">
        <ele>154.9</ele>
        <time>2018-07-22T12:48:46Z</time>
      </trkpt>
      <trkpt lat="44.49054" lon="0.67455">
        <ele>154.9</ele>
        <time>2018-07-22T12:48:48Z</time>
      </trkpt>
      <trkpt lat="44.49056" lon="0.67459">
        <ele>155</ele>
        <time>2018-07-22T12:48:50Z</time>
      </trkpt>
      <trkpt lat="44.49057" lon="0.67462">
        <ele>155</ele>
        <time>2018-07-22T12:48:52Z</time>
      </trkpt>
      <trkpt lat="44.49059" lon="0.67466">
        <ele>154.9</ele>
        <time>2018-07-22T12:48:54Z</time>
      </trkpt>
      <trkpt lat="44.4906" lon="0.6747">
        <ele>154.9</ele>
        <time>2018-07-22T12:48:56Z</time>
      </trkpt>
      <trkpt lat="44.49061" lon="0.67473">
        <ele>154.8</ele>
        <time>2018-07-22T12:48:58Z</time>
      </trkpt>
      <trkpt lat="44.49063" lon="0.67477">
        <ele>154.7</ele>
        <time>2018-07-22T12:49:00Z</time>
      </trkpt>
      <trkpt lat="44.49064" lon="0.67481">
        <ele>154.6</ele>
        <time>2018-07-22T12:49:02Z</time>
      </trkpt>
      <trkpt lat="44.49065" lon="0.67484">
        <ele>154.6</ele>
        <time>2018-07-22T12:49:04Z</time>
      </trkpt>
      <trkpt lat="44.49067" lon="0.67488">
        <ele>154.5</ele>
        <time>2018-07-22T12:49:06Z</time>
      </trkpt>
      <trkpt lat="44.49068" lon="0.67491">
        <ele>154.3</ele>
        <time>2018-07-22T12:49:08Z</time>
      </trkpt>
      <trkpt lat="44.4907" lon="0.67495">
        <ele>154.2</ele>
        <time>2018-07-22T12:49:10Z</time>
      </trkpt>
      <trkpt lat="44.49071" lon="0.67499">
        <ele>154</ele>
        <time>2018-07-22T12:49:12Z</time>
      </trkpt>
      <trkpt lat="44.49072" lon="0.67503">
        <ele>153.9</ele>
        <time>2018-07-22T12:49:14Z</time>
      </trkpt>
      <trkpt lat="44.49073" lon="0.67507">
        <ele>153.7</ele>
        <time>2018-07-22T12:49:16Z</time>
      </trkpt>
      <trkpt lat="44.49075" lon="0.6751">
        <ele>153.5</ele>
        <time>2018-07-22T12:49:18Z</time>
      </trkpt>
      <trkpt lat="44.49076" lon="0.67514">
        <ele>153.5</ele>
        <time>2018-07-22T12:49:20Z</time>
      </trkpt>
      <trkpt lat="44.49077" lon="0.67517">
        <ele>153.4</ele>
        <time>2018-07-22T12:49:22Z</time>
      </trkpt>
      <trkpt lat="44.49079" lon="0.67521">
        <ele>153.1</ele>
        <time>2018-07-22T12:49:24Z</time>
      </trkpt>
      <trkpt lat="44.4908" lon="0.67525">
        <ele>152.9</ele>
        <time>2018-07-22T12:49:26Z</time>
      </trkpt>
      <trkpt lat="44.49081" lon="0.67528">
        <ele>152.7</ele>
        <time>2018-07-22T12:49:28Z</time>
      </trkpt>
      <trkpt lat="44.49082" lon="0.67532">
        <ele>152.4</ele>
        <time>2018-07-22T12:49:30Z</time>
      </trkpt>
      <trkpt lat="44.49083" lon="0.67536">
        <ele>152.4</ele>
        <time>2018-07-22T12:49:32Z</time>
      </trkpt>
      <trkpt lat="44.49084" lon="0.6754">
        <ele>152.2</ele>
        <time>2018-07-22T12:49:34Z</time>
      </trkpt>
      <trkpt lat="44.49085" lon="0.67544">
        <ele>151.8</ele>
        <time>2018-07-22T12:49:36Z</time>
      </trkpt>
      <trkpt lat="44.49085" lon="0.67548">
        <ele>151.5</ele>
        <time>2018-07-22T12:49:38Z</time>
      </trkpt>
      <trkpt lat="44.49086" lon="0.67552">
        <ele>151.3</ele>
        <time>2018-07-22T12:49:40Z</time>
      </trkpt>
      <trkpt lat="44.49086" lon="0.67557">
        <ele>151</ele>
        <time>2018-07-22T12:49:42Z</time>
      </trkpt>
      <trkpt lat="44.49086" lon="0.67561">
        <ele>150.7</ele>
        <time>2018-07-22T12:49:44Z</time>
      </trkpt>
      <trkpt lat="44.49085" lon="0.67565">
        <ele>150.5</ele>
        <time>2018-07-22T12:49:46Z</time>
      </trkpt>
      <trkpt lat="44.49084" lon="0.67569">
        <ele>150.2</ele>
        <time>2018-07-22T12:49:48Z</time>
      </trkpt>
      <trkpt lat="44.49083" lon="0.67572">
        <ele>150.1</ele>
        <time>2018-07-22T12:49:50Z</time>
      </trkpt>
      <trkpt lat="44.49082" lon="0.67576">
        <ele>149.8</ele>
        <time>2018-07-22T12:49:52Z</time>
      </trkpt>
      <trkpt lat="44.4908" lon="0.6758">
        <ele>149.7</ele>
        <time>2018-07-22T12:49:54Z</time>
      </trkpt>
      <trkpt lat="44.49079" lon="0.67584">
        <ele>149.5</ele>
        <time>2018-07-22T12:49:56Z</time>
      </trkpt>
      <trkpt lat="44.49079" lon="0.67588">
        <ele>149.2</ele>
        <time>2018-07-22T12:49:58Z</time>
      </trkpt>
      <trkpt lat="44.49078" lon="0.67593">
        <ele>149.1</ele>
        <time>2018-07-22T12:50:00Z</time>
      </trkpt>
      <trkpt lat="44.49078" lon="0.67597">
        <ele>148.8</ele>
        <time>2018-07-22T12:50:03Z</time>
      </trkpt>
      <trkpt lat="44.49078" lon="0.67601">
        <ele>148.5</ele>
        <time>2018-07-22T12:50:05Z</time>
      </trkpt>
      <trkpt lat="44.49077" lon="0.67606">
        <ele>148.2</ele>
        <time>2018-07-22T12:50:07Z</time>
      </trkpt>
      <trkpt lat="44.49077" lon="0.6761">
        <ele>147.9</ele>
        <time>2018-07-22T12:50:09Z</time>
      </trkpt>
      <trkpt lat="44.49079" lon="0.67615">
        <ele>147.5</ele>
        <time>2018-07-22T12:50:11Z</time>
      </trkpt>
      <trkpt lat="44.49081" lon="0.67619">
        <ele>147.2</ele>
        <time>2018-07-22T12:50:13Z</time>
      </trkpt>
      <trkpt lat="44.49083" lon="0.67623">
        <ele>146.8</ele>
        <time>2018-07-22T12:50:15Z</time>
      </trkpt>
      <trkpt lat="44.49085" lon="0.67627">
        <ele>146.5</ele>
        <time>2018-07-22T12:50:17Z</time>
      </trkpt>
      <trkpt lat="44.49088" lon="0.67631">
        <ele>146.2</ele>
        <time>2018-07-22T12:50:19Z</time>
      </trkpt>
      <trkpt lat="44.4909" lon="0.67635">
        <ele>146</ele>
        <time>2018-07-22T12:50:21Z</time>
      </trkpt>
      <trkpt lat="44.49092" lon="0.67639">
        <ele>145.6</ele>
        <time>2018-07-22T12:50:23Z</time>
      </trkpt>
      <trkpt lat="44.49094" lon="0.67643">
        <ele>145.2</ele>
        <time>2018-07-22T12:50:25Z</time>
      </trkpt>
      <trkpt lat="44.49096" lon="0.67647">
        <ele>144.8</ele>
        <time>2018-07-22T12:50:27Z</time>
      </trkpt>
      <trkpt lat="44.49098" lon="0.67651">
        <ele>144.4</ele>
        <time>2018-07-22T12:50:29Z</time>
      </trkpt>
      <trkpt lat="44.491" lon="0.67655">
        <ele>144</ele>
        <time>2018-07-22T12:50:31Z</time>
      </trkpt>
      <trkpt lat="44.49101" lon="0.6766">
        <ele>143.6</ele>
        <time>2018-07-22T12:50:33Z</time>
      </trkpt>
      <trkpt lat="44.49102" lon="0.67663">
        <ele>143.2</ele>
        <time>2018-07-22T12:50:35Z</time>
      </trkpt>
      <trkpt lat="44.49104" lon="0.67667">
        <ele>142.8</ele>
        <time>2018-07-22T12:50:37Z</time>
      </trkpt>
      <trkpt lat="44.49106" lon="0.67671">
        <ele>142.3</ele>
        <time>2018-07-22T12:50:39Z</time>
      </trkpt>
      <trkpt lat="44.49108" lon="0.67675">
        <ele>141.8</ele>
        <time>2018-07-22T12:50:41Z</time>
      </trkpt>
      <trkpt lat="44.4911" lon="0.67679">
        <ele>141.3</ele>
        <time>2018-07-22T12:50:43Z</time>
      </trkpt>
      <trkpt lat="44.49112" lon="0.67683">
        <ele>140.8</ele>
        <time>2018-07-22T12:50:45Z</time>
      </trkpt>
      <trkpt lat="44.49114" lon="0.67688">
        <ele>140.1</ele>
        <time>2018-07-22T12:50:47Z</time>
      </trkpt>
      <trkpt lat="44.49116" lon="0.67692">
        <ele>139.5</ele>
        <time>2018-07-22T12:50:49Z</time>
      </trkpt>
      <trkpt lat="44.49119" lon="0.67696">
        <ele>138.8</ele>
        <time>2018-07-22T12:50:51Z</time>
      </trkpt>
      <trkpt lat="44.49121" lon="0.677">
        <ele>138.4</ele>
        <time>2018-07-22T12:50:53Z</time>
      </trkpt>
      <trkpt lat="44.49123" lon="0.67704">
        <ele>137.8</ele>
        <time>2018-07-22T12:50:55Z</time>
      </trkpt>
      <trkpt lat="44.49125" lon="0.67707">
        <ele>137.3</ele>
        <time>2018-07-22T12:50:57Z</time>
      </trkpt>
      <trkpt lat="44.49127" lon="0.67711">
        <ele>136.7</ele>
        <time>2018-07-22T12:50:59Z</time>
      </trkpt>
      <trkpt lat="44.4913" lon="0.67715">
        <ele>135.9</ele>
        <time>2018-07-22T12:51:01Z</time>
      </trkpt>
      <trkpt lat="44.49132" lon="0.67718">
        <ele>135.3</ele>
        <time>2018-07-22T12:51:03Z</time>
      </trkpt>
      <trkpt lat="44.49134" lon="0.67722">
        <ele>134.8</ele>
        <time>2018-07-22T12:51:05Z</time>
      </trkpt>
      <trkpt lat="44.49136" lon="0.67726">
        <ele>134.3</ele>
        <time>2018-07-22T12:51:07Z</time>
      </trkpt>
      <trkpt lat="44.49138" lon="0.6773">
        <ele>133.8</ele>
        <time>2018-07-22T12:51:09Z</time>
      </trkpt>
      <trkpt lat="44.4914" lon="0.67734">
        <ele>133.4</ele>
        <time>2018-07-22T12:51:11Z</time>
      </trkpt>
      <trkpt lat="44.49142" lon="0.67737">
        <ele>132.9</ele>
        <time>2018-07-22T12:51:13Z</time>
      </trkpt>
      <trkpt lat="44.49144" lon="0.67741">
        <ele>132.4</ele>
        <time>2018-07-22T12:51:15Z</time>
      </trkpt>
      <trkpt lat="44.49145" lon="0.67745">
        <ele>131.8</ele>
        <time>2018-07-22T12:51:17Z</time>
      </trkpt>
      <trkpt lat="44.49147" lon="0.67749">
        <ele>131.2</ele>
        <time>2018-07-22T12:51:19Z</time>
      </trkpt>
      <trkpt lat="44.49149" lon="0.67753">
        <ele>130.7</ele>
        <time>2018-07-22T12:51:21Z</time>
      </trkpt>
      <trkpt lat="44.49151" lon="0.67757">
        <ele>130.4</ele>
        <time>2018-07-22T12:51:23Z</time>
      </trkpt>
      <trkpt lat="44.49153" lon="0.67761">
        <ele>130.1</ele>
        <time>2018-07-22T12:51:25Z</time>
      </trkpt>
      <trkpt lat="44.49154" lon="0.67765">
        <ele>129.7</ele>
        <time>2018-07-22T12:51:27Z</time>
      </trkpt>
      <trkpt lat="44.49156" lon="0.67769">
        <ele>129.4</ele>
        <time>2018-07-22T12:51:29Z</time>
      </trkpt>
      <trkpt lat="44.49158" lon="0.67773">
        <ele>129.1</ele>
        <time>2018-07-22T12:51:31Z</time>
      </trkpt>
      <trkpt lat="44.4916" lon="0.67777">
        <ele>128.9</ele>
        <time>2018-07-22T12:51:33Z</time>
      </trkpt>
      <trkpt lat="44.49161" lon="0.6778">
        <ele>128.7</ele>
        <time>2018-07-22T12:51:35Z</time>
      </trkpt>
      <trkpt lat="44.49163" lon="0.67784">
        <ele>128.6</ele>
        <time>2018-07-22T12:51:37Z</time>
      </trkpt>
      <trkpt lat="44.49164" lon="0.67788">
        <ele>128.5</ele>
        <time>2018-07-22T12:51:39Z</time>
      </trkpt>
      <trkpt lat="44.49166" lon="0.67792">
        <ele>128.3</ele>
        <time>2018-07-22T12:51:41Z</time>
      </trkpt>
      <trkpt lat="44.49168" lon="0.67795">
        <ele>128.1</ele>
        <time>2018-07-22T12:51:43Z</time>
      </trkpt>
      <trkpt lat="44.4917" lon="0.67799">
        <ele>127.9</ele>
        <time>2018-07-22T12:51:45Z</time>
      </trkpt>
      <trkpt lat="44.49171" lon="0.67802">
        <ele>127.9</ele>
        <time>2018-07-22T12:51:47Z</time>
      </trkpt>
      <trkpt lat="44.49173" lon="0.67806">
        <ele>127.8</ele>
        <time>2018-07-22T12:51:49Z</time>
      </trkpt>
      <trkpt lat="44.49175" lon="0.67809">
        <ele>127.7</ele>
        <time>2018-07-22T12:51:51Z</time>
      </trkpt>
      <trkpt lat="44.49177" lon="0.67813">
        <ele>127.6</ele>
        <time>2018-07-22T12:51:53Z</time>
      </trkpt>
      <trkpt lat="44.49179" lon="0.67816">
        <ele>127.5</ele>
        <time>2018-07-22T12:51:55Z</time>
      </trkpt>
      <trkpt lat="44.49181" lon="0.67819">
        <ele>127.5</ele>
        <time>2018-07-22T12:51:57Z</time>
      </trkpt>
      <trkpt lat="44.49183" lon="0.67822">
        <ele>127.5</ele>
        <time>2018-07-22T12:51:59Z</time>
      </trkpt>
      <trkpt lat="44.49186" lon="0.67824">
        <ele>127.5</ele>
        <time>2018-07-22T12:52:01Z</time>
      </trkpt>
      <trkpt lat="44.49188" lon="0.67826">
        <ele>127.6</ele>
        <time>2018-07-22T12:52:03Z</time>
      </trkpt>
      <trkpt lat="44.49192" lon="0.67829">
        <ele>127.8</ele>
        <time>2018-07-22T12:52:06Z</time>
      </trkpt>
      <trkpt lat="44.49194" lon="0.67833">
        <ele>128</ele>
        <time>2018-07-22T12:52:09Z</time>
      </trkpt>
      <trkpt lat="44.49197" lon="0.67836">
        <ele>128</ele>
        <time>2018-07-22T12:52:12Z</time>
      </trkpt>
      <trkpt lat="44.49199" lon="0.6784">
        <ele>128.1</ele>
        <time>2018-07-22T12:52:15Z</time>
      </trkpt>
      <trkpt lat="44.49201" lon="0.67844">
        <ele>128.2</ele>
        <time>2018-07-22T12:52:18Z</time>
      </trkpt>
      <trkpt lat="44.49204" lon="0.67847">
        <ele>128.3</ele>
        <time>2018-07-22T12:52:21Z</time>
      </trkpt>
      <trkpt lat="44.49207" lon="0.67851">
        <ele>128.5</ele>
        <time>2018-07-22T12:52:24Z</time>
      </trkpt>
      <trkpt lat="44.49208" lon="0.67854">
        <ele>128.5</ele>
        <time>2018-07-22T12:52:26Z</time>
      </trkpt>
      <trkpt lat="44.4921" lon="0.67858">
        <ele>128.6</ele>
        <time>2018-07-22T12:52:28Z</time>
      </trkpt>
      <trkpt lat="44.49212" lon="0.67862">
        <ele>128.5</ele>
        <time>2018-07-22T12:52:30Z</time>
      </trkpt>
      <trkpt lat="44.49214" lon="0.67866">
        <ele>128.6</ele>
        <time>2018-07-22T12:52:32Z</time>
      </trkpt>
      <trkpt lat="44.49216" lon="0.6787">
        <ele>128.5</ele>
        <time>2018-07-22T12:52:34Z</time>
      </trkpt>
      <trkpt lat="44.49217" lon="0.67873">
        <ele>128.6</ele>
        <time>2018-07-22T12:52:36Z</time>
      </trkpt>
      <trkpt lat="44.49219" lon="0.67877">
        <ele>128.7</ele>
        <time>2018-07-22T12:52:38Z</time>
      </trkpt>
      <trkpt lat="44.49221" lon="0.67881">
        <ele>128.6</ele>
        <time>2018-07-22T12:52:40Z</time>
      </trkpt>
      <trkpt lat="44.49223" lon="0.67885">
        <ele>128.7</ele>
        <time>2018-07-22T12:52:42Z</time>
      </trkpt>
      <trkpt lat="44.49225" lon="0.67888">
        <ele>128.5</ele>
        <time>2018-07-22T12:52:44Z</time>
      </trkpt>
      <trkpt lat="44.49226" lon="0.67892">
        <ele>128.6</ele>
        <time>2018-07-22T12:52:46Z</time>
      </trkpt>
      <trkpt lat="44.49228" lon="0.67896">
        <ele>128.8</ele>
        <time>2018-07-22T12:52:48Z</time>
      </trkpt>
      <trkpt lat="44.4923" lon="0.67899">
        <ele>128.6</ele>
        <time>2018-07-22T12:52:50Z</time>
      </trkpt>
      <trkpt lat="44.49232" lon="0.67902">
        <ele>128.7</ele>
        <time>2018-07-22T12:52:52Z</time>
      </trkpt>
      <trkpt lat="44.49234" lon="0.67906">
        <ele>128.5</ele>
        <time>2018-07-22T12:52:54Z</time>
      </trkpt>
      <trkpt lat="44.49236" lon="0.67909">
        <ele>128.7</ele>
        <time>2018-07-22T12:52:56Z</time>
      </trkpt>
      <trkpt lat="44.49238" lon="0.67912">
        <ele>128.7</ele>
        <time>2018-07-22T12:52:58Z</time>
      </trkpt>
      <trkpt lat="44.49241" lon="0.67915">
        <ele>128.8</ele>
        <time>2018-07-22T12:53:00Z</time>
      </trkpt>
      <trkpt lat="44.49243" lon="0.67916">
        <ele>128.8</ele>
        <time>2018-07-22T12:53:02Z</time>
      </trkpt>
      <trkpt lat="44.49246" lon="0.67918">
        <ele>128.9</ele>
        <time>2018-07-22T12:53:04Z</time>
      </trkpt>
      <trkpt lat="44.49249" lon="0.67919">
        <ele>129.2</ele>
        <time>2018-07-22T12:53:06Z</time>
      </trkpt>
      <trkpt lat="44.49252" lon="0.67921">
        <ele>129.5</ele>
        <time>2018-07-22T12:53:08Z</time>
      </trkpt>
      <trkpt lat="44.49255" lon="0.67922">
        <ele>129.7</ele>
        <time>2018-07-22T12:53:10Z</time>
      </trkpt>
      <trkpt lat="44.49257" lon="0.67923">
        <ele>129.9</ele>
        <time>2018-07-22T12:53:12Z</time>
      </trkpt>
      <trkpt lat="44.4926" lon="0.67924">
        <ele>130.1</ele>
        <time>2018-07-22T12:53:14Z</time>
      </trkpt>
      <trkpt lat="44.49263" lon="0.67925">
        <ele>130.4</ele>
        <time>2018-07-22T12:53:16Z</time>
      </trkpt>
      <trkpt lat="44.49266" lon="0.67926">
        <ele>130.6</ele>
        <time>2018-07-22T12:53:18Z</time>
      </trkpt>
      <trkpt lat="44.49269" lon="0.67927">
        <ele>130.7</ele>
        <time>2018-07-22T12:53:20Z</time>
      </trkpt>
      <trkpt lat="44.49271" lon="0.67928">
        <ele>131</ele>
        <time>2018-07-22T12:53:22Z</time>
      </trkpt>
      <trkpt lat="44.49274" lon="0.6793">
        <ele>130.9</ele>
        <time>2018-07-22T12:53:24Z</time>
      </trkpt>
      <trkpt lat="44.49276" lon="0.67931">
        <ele>131.1</ele>
        <time>2018-07-22T12:53:26Z</time>
      </trkpt>
      <trkpt lat="44.4928" lon="0.67932">
        <ele>131.4</ele>
        <time>2018-07-22T12:53:29Z</time>
      </trkpt>
      <trkpt lat="44.49284" lon="0.67933">
        <ele>132</ele>
        <time>2018-07-22T12:53:32Z</time>
      </trkpt>
      <trkpt lat="44.49288" lon="0.67935">
        <ele>132.3</ele>
        <time>2018-07-22T12:53:35Z</time>
      </trkpt>
      <trkpt lat="44.49291" lon="0.67936">
        <ele>132.6</ele>
        <time>2018-07-22T12:53:38Z</time>
      </trkpt>
      <trkpt lat="44.49294" lon="0.67937">
        <ele>132.9</ele>
        <time>2018-07-22T12:53:41Z</time>
      </trkpt>
      <trkpt lat="44.49298" lon="0.67939">
        <ele>133.3</ele>
        <time>2018-07-22T12:53:44Z</time>
      </trkpt>
      <trkpt lat="44.493" lon="0.6794">
        <ele>133.7</ele>
        <time>2018-07-22T12:53:46Z</time>
      </trkpt>
      <trkpt lat="44.49304" lon="0.67942">
        <ele>134.1</ele>
        <time>2018-07-22T12:53:49Z</time>
      </trkpt>
      <trkpt lat="44.49307" lon="0.67943">
        <ele>134.6</ele>
        <time>2018-07-22T12:53:51Z</time>
      </trkpt>
      <trkpt lat="44.49309" lon="0.67944">
        <ele>135</ele>
        <time>2018-07-22T12:53:53Z</time>
      </trkpt>
      <trkpt lat="44.49312" lon="0.67945">
        <ele>135.5</ele>
        <time>2018-07-22T12:53:55Z</time>
      </trkpt>
      <trkpt lat="44.49315" lon="0.67944">
        <ele>135.8</ele>
        <time>2018-07-22T12:53:57Z</time>
      </trkpt>
      <trkpt lat="44.49318" lon="0.67943">
        <ele>136.2</ele>
        <time>2018-07-22T12:53:59Z</time>
      </trkpt>
      <trkpt lat="44.49321" lon="0.6794">
        <ele>136.5</ele>
        <time>2018-07-22T12:54:01Z</time>
      </trkpt>
      <trkpt lat="44.49323" lon="0.67937">
        <ele>136.5</ele>
        <time>2018-07-22T12:54:03Z</time>
      </trkpt>
      <trkpt lat="44.49324" lon="0.67933">
        <ele>136.9</ele>
        <time>2018-07-22T12:54:05Z</time>
      </trkpt>
      <trkpt lat="44.49325" lon="0.6793">
        <ele>136.9</ele>
        <time>2018-07-22T12:54:07Z</time>
      </trkpt>
      <trkpt lat="44.49326" lon="0.67926">
        <ele>137</ele>
        <time>2018-07-22T12:54:09Z</time>
      </trkpt>
      <trkpt lat="44.49327" lon="0.67923">
        <ele>137.3</ele>
        <time>2018-07-22T12:54:11Z</time>
      </trkpt>
      <trkpt lat="44.49328" lon="0.67919">
        <ele>137.4</ele>
        <time>2018-07-22T12:54:13Z</time>
      </trkpt>
      <trkpt lat="44.49329" lon="0.67914">
        <ele>137.9</ele>
        <time>2018-07-22T12:54:16Z</time>
      </trkpt>
      <trkpt lat="44.49331" lon="0.67911">
        <ele>138</ele>
        <time>2018-07-22T12:54:18Z</time>
      </trkpt>
      <trkpt lat="44.49333" lon="0.67908">
        <ele>138.5</ele>
        <time>2018-07-22T12:54:20Z</time>
      </trkpt>
      <trkpt lat="44.49335" lon="0.67905">
        <ele>138.5</ele>
        <time>2018-07-22T12:54:22Z</time>
      </trkpt>
      <trkpt lat="44.49338" lon="0.67905">
        <ele>139</ele>
        <time>2018-07-22T12:54:24Z</time>
      </trkpt>
      <trkpt lat="44.49342" lon="0.67905">
        <ele>139.7</ele>
        <time>2018-07-22T12:54:27Z</time>
      </trkpt>
      <trkpt lat="44.49346" lon="0.67906">
        <ele>139.7</ele>
        <time>2018-07-22T12:54:30Z</time>
      </trkpt>
      <trkpt lat="44.49348" lon="0.67908">
        <ele>140</ele>
        <time>2018-07-22T12:54:32Z</time>
      </trkpt>
      <trkpt lat="44.49352" lon="0.6791">
        <ele>140</ele>
        <time>2018-07-22T12:54:35Z</time>
      </trkpt>
      <trkpt lat="44.49354" lon="0.67911">
        <ele>140.4</ele>
        <time>2018-07-22T12:54:37Z</time>
      </trkpt>
      <trkpt lat="44.49357" lon="0.67913">
        <ele>140.7</ele>
        <time>2018-07-22T12:54:39Z</time>
      </trkpt>
      <trkpt lat="44.4936" lon="0.67914">
        <ele>140.9</ele>
        <time>2018-07-22T12:54:41Z</time>
      </trkpt>
      <trkpt lat="44.49363" lon="0.67916">
        <ele>141.3</ele>
        <time>2018-07-22T12:54:44Z</time>
      </trkpt>
      <trkpt lat="44.49367" lon="0.67918">
        <ele>141.5</ele>
        <time>2018-07-22T12:54:47Z</time>
      </trkpt>
      <trkpt lat="44.4937" lon="0.6792">
        <ele>141.9</ele>
        <time>2018-07-22T12:54:50Z</time>
      </trkpt>
      <trkpt lat="44.49374" lon="0.67922">
        <ele>142.1</ele>
        <time>2018-07-22T12:54:53Z</time>
      </trkpt>
      <trkpt lat="44.49376" lon="0.67923">
        <ele>142.5</ele>
        <time>2018-07-22T12:54:55Z</time>
      </trkpt>
      <trkpt lat="44.49379" lon="0.67925">
        <ele>142.9</ele>
        <time>2018-07-22T12:54:57Z</time>
      </trkpt>
      <trkpt lat="44.49382" lon="0.67927">
        <ele>143.3</ele>
        <time>2018-07-22T12:55:00Z</time>
      </trkpt>
      <trkpt lat="44.49386" lon="0.67928">
        <ele>143.8</ele>
        <time>2018-07-22T12:55:03Z</time>
      </trkpt>
      <trkpt lat="44.4939" lon="0.6793">
        <ele>144.3</ele>
        <time>2018-07-22T12:55:06Z</time>
      </trkpt>
      <trkpt lat="44.49393" lon="0.67932">
        <ele>144.9</ele>
        <time>2018-07-22T12:55:09Z</time>
      </trkpt>
      <trkpt lat="44.49397" lon="0.67934">
        <ele>146.2</ele>
        <time>2018-07-22T12:55:12Z</time>
      </trkpt>
      <trkpt lat="44.49399" lon="0.67936">
        <ele>146.1</ele>
        <time>2018-07-22T12:55:14Z</time>
      </trkpt>
      <trkpt lat="44.49402" lon="0.67939">
        <ele>146.7</ele>
        <time>2018-07-22T12:55:17Z</time>
      </trkpt>
      <trkpt lat="44.49405" lon="0.67942">
        <ele>147.3</ele>
        <time>2018-07-22T12:55:20Z</time>
      </trkpt>
      <trkpt lat="44.49409" lon="0.67945">
        <ele>147.9</ele>
        <time>2018-07-22T12:55:23Z</time>
      </trkpt>
      <trkpt lat="44.49412" lon="0.67947">
        <ele>149.2</ele>
        <time>2018-07-22T12:55:26Z</time>
      </trkpt>
      <trkpt lat="44.49416" lon="0.6795">
        <ele>150</ele>
        <time>2018-07-22T12:55:29Z</time>
      </trkpt>
      <trkpt lat="44.49419" lon="0.67953">
        <ele>150.7</ele>
        <time>2018-07-22T12:55:32Z</time>
      </trkpt>
      <trkpt lat="44.49423" lon="0.67955">
        <ele>151.5</ele>
        <time>2018-07-22T12:55:35Z</time>
      </trkpt>
      <trkpt lat="44.49427" lon="0.67956">
        <ele>152.1</ele>
        <time>2018-07-22T12:55:38Z</time>
      </trkpt>
      <trkpt lat="44.49429" lon="0.67957">
        <ele>152.8</ele>
        <time>2018-07-22T12:55:40Z</time>
      </trkpt>
      <trkpt lat="44.49433" lon="0.6796">
        <ele>153.4</ele>
        <time>2018-07-22T12:55:43Z</time>
      </trkpt>
      <trkpt lat="44.49436" lon="0.67962">
        <ele>154.1</ele>
        <time>2018-07-22T12:55:46Z</time>
      </trkpt>
      <trkpt lat="44.4944" lon="0.67964">
        <ele>155.4</ele>
        <time>2018-07-22T12:55:49Z</time>
      </trkpt>
      <trkpt lat="44.49443" lon="0.67967">
        <ele>156.1</ele>
        <time>2018-07-22T12:55:52Z</time>
      </trkpt>
      <trkpt lat="44.49446" lon="0.67969">
        <ele>156.7</ele>
        <time>2018-07-22T12:55:55Z</time>
      </trkpt>
      <trkpt lat="44.4945" lon="0.67972">
        <ele>157.2</ele>
        <time>2018-07-22T12:55:58Z</time>
      </trkpt>
      <trkpt lat="44.49453" lon="0.67974">
        <ele>157.7</ele>
        <time>2018-07-22T12:56:01Z</time>
      </trkpt>
      <trkpt lat="44.49456" lon="0.67976">
        <ele>158.1</ele>
        <time>2018-07-22T12:56:04Z</time>
      </trkpt>
      <trkpt lat="44.4946" lon="0.67978">
        <ele>158.4</ele>
        <time>2018-07-22T12:56:07Z</time>
      </trkpt>
      <trkpt lat="44.49462" lon="0.67981">
        <ele>158.7</ele>
        <time>2018-07-22T12:56:10Z</time>
      </trkpt>
      <trkpt lat="44.49465" lon="0.67983">
        <ele>159</ele>
        <time>2018-07-22T12:56:13Z</time>
      </trkpt>
      <trkpt lat="44.49469" lon="0.67985">
        <ele>159.3</ele>
        <time>2018-07-22T12:56:16Z</time>
      </trkpt>
      <trkpt lat="44.49472" lon="0.67987">
        <ele>159.5</ele>
        <time>2018-07-22T12:56:19Z</time>
      </trkpt>
      <trkpt lat="44.49475" lon="0.6799">
        <ele>159.7</ele>
        <time>2018-07-22T12:56:22Z</time>
      </trkpt>
      <trkpt lat="44.49478" lon="0.67992">
        <ele>159.8</ele>
        <time>2018-07-22T12:56:25Z</time>
      </trkpt>
      <trkpt lat="44.49481" lon="0.67995">
        <ele>160</ele>
        <time>2018-07-22T12:56:28Z</time>
      </trkpt>
      <trkpt lat="44.49485" lon="0.67998">
        <ele>160</ele>
        <time>2018-07-22T12:56:31Z</time>
      </trkpt>
      <trkpt lat="44.49488" lon="0.68001">
        <ele>159.9</ele>
        <time>2018-07-22T12:56:34Z</time>
      </trkpt>
      <trkpt lat="44.49491" lon="0.68003">
        <ele>160</ele>
        <time>2018-07-22T12:56:37Z</time>
      </trkpt>
      <trkpt lat="44.49494" lon="0.68005">
        <ele>159.9</ele>
        <time>2018-07-22T12:56:40Z</time>
      </trkpt>
      <trkpt lat="44.49497" lon="0.68007">
        <ele>159.9</ele>
        <time>2018-07-22T12:56:43Z</time>
      </trkpt>
      <trkpt lat="44.49501" lon="0.68009">
        <ele>159.8</ele>
        <time>2018-07-22T12:56:46Z</time>
      </trkpt>
      <trkpt lat="44.49503" lon="0.68012">
        <ele>159.8</ele>
        <time>2018-07-22T12:56:49Z</time>
      </trkpt>
      <trkpt lat="44.49506" lon="0.68014">
        <ele>159.6</ele>
        <time>2018-07-22T12:56:52Z</time>
      </trkpt>
      <trkpt lat="44.49509" lon="0.68016">
        <ele>159.6</ele>
        <time>2018-07-22T12:56:55Z</time>
      </trkpt>
      <trkpt lat="44.49513" lon="0.68018">
        <ele>159.3</ele>
        <time>2018-07-22T12:56:58Z</time>
      </trkpt>
      <trkpt lat="44.49516" lon="0.68021">
        <ele>159.3</ele>
        <time>2018-07-22T12:57:01Z</time>
      </trkpt>
      <trkpt lat="44.49518" lon="0.68023">
        <ele>158.9</ele>
        <time>2018-07-22T12:57:04Z</time>
      </trkpt>
      <trkpt lat="44.49521" lon="0.68025">
        <ele>158.8</ele>
        <time>2018-07-22T12:57:07Z</time>
      </trkpt>
      <trkpt lat="44.49525" lon="0.68027">
        <ele>158.3</ele>
        <time>2018-07-22T12:57:10Z</time>
      </trkpt>
      <trkpt lat="44.49528" lon="0.68029">
        <ele>158.1</ele>
        <time>2018-07-22T12:57:13Z</time>
      </trkpt>
      <trkpt lat="44.49531" lon="0.68031">
        <ele>157.4</ele>
        <time>2018-07-22T12:57:16Z</time>
      </trkpt>
      <trkpt lat="44.49534" lon="0.68034">
        <ele>156.6</ele>
        <time>2018-07-22T12:57:19Z</time>
      </trkpt>
      <trkpt lat="44.49536" lon="0.68037">
        <ele>156.3</ele>
        <time>2018-07-22T12:57:22Z</time>
      </trkpt>
      <trkpt lat="44.4954" lon="0.68039">
        <ele>155.6</ele>
        <time>2018-07-22T12:57:25Z</time>
      </trkpt>
      <trkpt lat="44.49543" lon="0.68041">
        <ele>155.3</ele>
        <time>2018-07-22T12:57:28Z</time>
      </trkpt>
      <trkpt lat="44.49546" lon="0.68042">
        <ele>155.1</ele>
        <time>2018-07-22T12:57:31Z</time>
      </trkpt>
      <trkpt lat="44.49549" lon="0.68044">
        <ele>154.4</ele>
        <time>2018-07-22T12:57:34Z</time>
      </trkpt>
      <trkpt lat="44.49552" lon="0.68047">
        <ele>154.2</ele>
        <time>2018-07-22T12:57:37Z</time>
      </trkpt>
      <trkpt lat="44.49554" lon="0.68049">
        <ele>153.7</ele>
        <time>2018-07-22T12:57:40Z</time>
      </trkpt>
      <trkpt lat="44.49557" lon="0.68052">
        <ele>153.3</ele>
        <time>2018-07-22T12:57:43Z</time>
      </trkpt>
      <trkpt lat="44.49561" lon="0.68054">
        <ele>153.1</ele>
        <time>2018-07-22T12:57:46Z</time>
      </trkpt>
      <trkpt lat="44.49563" lon="0.68057">
        <ele>152.7</ele>
        <time>2018-07-22T12:57:49Z</time>
      </trkpt>
      <trkpt lat="44.49564" lon="0.68061">
        <ele>152.4</ele>
        <time>2018-07-22T12:57:52Z</time>
      </trkpt>
      <trkpt lat="44.49562" lon="0.68065">
        <ele>152.2</ele>
        <time>2018-07-22T12:57:56Z</time>
      </trkpt>
      <trkpt lat="44.4956" lon="0.68069">
        <ele>152.1</ele>
        <time>2018-07-22T12:58:04Z</time>
      </trkpt>
      <trkpt lat="44.49558" lon="0.68073">
        <ele>152</ele>
        <time>2018-07-22T12:58:06Z</time>
      </trkpt>
      <trkpt lat="44.49557" lon="0.68078">
        <ele>151.7</ele>
        <time>2018-07-22T12:58:08Z</time>
      </trkpt>
      <trkpt lat="44.49555" lon="0.68082">
        <ele>151.5</ele>
        <time>2018-07-22T12:58:10Z</time>
      </trkpt>
      <trkpt lat="44.49554" lon="0.68086">
        <ele>151.2</ele>
        <time>2018-07-22T12:58:12Z</time>
      </trkpt>
      <trkpt lat="44.49552" lon="0.6809">
        <ele>151</ele>
        <time>2018-07-22T12:58:14Z</time>
      </trkpt>
      <trkpt lat="44.4955" lon="0.68094">
        <ele>150.7</ele>
        <time>2018-07-22T12:58:16Z</time>
      </trkpt>
      <trkpt lat="44.49549" lon="0.68098">
        <ele>150.5</ele>
        <time>2018-07-22T12:58:18Z</time>
      </trkpt>
      <trkpt lat="44.49547" lon="0.68102">
        <ele>150.5</ele>
        <time>2018-07-22T12:58:20Z</time>
      </trkpt>
      <trkpt lat="44.49545" lon="0.68106">
        <ele>150.3</ele>
        <time>2018-07-22T12:58:22Z</time>
      </trkpt>
      <trkpt lat="44.49543" lon="0.68109">
        <ele>150.2</ele>
        <time>2018-07-22T12:58:24Z</time>
      </trkpt>
      <trkpt lat="44.4954" lon="0.68112">
        <ele>149.8</ele>
        <time>2018-07-22T12:58:26Z</time>
      </trkpt>
      <trkpt lat="44.49538" lon="0.68115">
        <ele>149.9</ele>
        <time>2018-07-22T12:58:28Z</time>
      </trkpt>
      <trkpt lat="44.49536" lon="0.68118">
        <ele>149.6</ele>
        <time>2018-07-22T12:58:30Z</time>
      </trkpt>
      <trkpt lat="44.49534" lon="0.6812">
        <ele>149.5</ele>
        <time>2018-07-22T12:58:32Z</time>
      </trkpt>
      <trkpt lat="44.49532" lon="0.68123">
        <ele>149.5</ele>
        <time>2018-07-22T12:58:34Z</time>
      </trkpt>
      <trkpt lat="44.49529" lon="0.68127">
        <ele>149.4</ele>
        <time>2018-07-22T12:58:37Z</time>
      </trkpt>
      <trkpt lat="44.49527" lon="0.6813">
        <ele>149.3</ele>
        <time>2018-07-22T12:58:39Z</time>
      </trkpt>
      <trkpt lat="44.49524" lon="0.68133">
        <ele>149.2</ele>
        <time>2018-07-22T12:58:41Z</time>
      </trkpt>
      <trkpt lat="44.49522" lon="0.68136">
        <ele>149.2</ele>
        <time>2018-07-22T12:58:43Z</time>
      </trkpt>
      <trkpt lat="44.4952" lon="0.68139">
        <ele>149.1</ele>
        <time>2018-07-22T12:58:45Z</time>
      </trkpt>
      <trkpt lat="44.49518" lon="0.68143">
        <ele>149.1</ele>
        <time>2018-07-22T12:58:48Z</time>
      </trkpt>
      <trkpt lat="44.49516" lon="0.68146">
        <ele>148.9</ele>
        <time>2018-07-22T12:58:50Z</time>
      </trkpt>
      <trkpt lat="44.49513" lon="0.68149">
        <ele>149</ele>
        <time>2018-07-22T12:58:53Z</time>
      </trkpt>
      <trkpt lat="44.49511" lon="0.68152">
        <ele>149</ele>
        <time>2018-07-22T12:58:55Z</time>
      </trkpt>
      <trkpt lat="44.49509" lon="0.68155">
        <ele>149</ele>
        <time>2018-07-22T12:58:57Z</time>
      </trkpt>
      <trkpt lat="44.49507" lon="0.68157">
        <ele>149</ele>
        <time>2018-07-22T12:58:59Z</time>
      </trkpt>
      <trkpt lat="44.49504" lon="0.6816">
        <ele>149</ele>
        <time>2018-07-22T12:59:01Z</time>
      </trkpt>
      <trkpt lat="44.49501" lon="0.68163">
        <ele>149.1</ele>
        <time>2018-07-22T12:59:04Z</time>
      </trkpt>
      <trkpt lat="44.49499" lon="0.68166">
        <ele>149.3</ele>
        <time>2018-07-22T12:59:06Z</time>
      </trkpt>
      <trkpt lat="44.49497" lon="0.68169">
        <ele>149.3</ele>
        <time>2018-07-22T12:59:08Z</time>
      </trkpt>
      <trkpt lat="44.49495" lon="0.68172">
        <ele>149.1</ele>
        <time>2018-07-22T12:59:10Z</time>
      </trkpt>
      <trkpt lat="44.49493" lon="0.68175">
        <ele>149.3</ele>
        <time>2018-07-22T12:59:12Z</time>
      </trkpt>
      <trkpt lat="44.4949" lon="0.68178">
        <ele>149.3</ele>
        <time>2018-07-22T12:59:14Z</time>
      </trkpt>
      <trkpt lat="44.49488" lon="0.68181">
        <ele>149.1</ele>
        <time>2018-07-22T12:59:16Z</time>
      </trkpt>
      <trkpt lat="44.49487" lon="0.68184">
        <ele>149.1</ele>
        <time>2018-07-22T12:59:18Z</time>
      </trkpt>
      <trkpt lat="44.49485" lon="0.68187">
        <ele>149.2</ele>
        <time>2018-07-22T12:59:20Z</time>
      </trkpt>
      <trkpt lat="44.49483" lon="0.68191">
        <ele>149</ele>
        <time>2018-07-22T12:59:22Z</time>
      </trkpt>
      <trkpt lat="44.49481" lon="0.68194">
        <ele>148.9</ele>
        <time>2018-07-22T12:59:24Z</time>
      </trkpt>
      <trkpt lat="44.49479" lon="0.68197">
        <ele>148.9</ele>
        <time>2018-07-22T12:59:26Z</time>
      </trkpt>
      <trkpt lat="44.49477" lon="0.68201">
        <ele>148.8</ele>
        <time>2018-07-22T12:59:28Z</time>
      </trkpt>
      <trkpt lat="44.49475" lon="0.68204">
        <ele>148.6</ele>
        <time>2018-07-22T12:59:30Z</time>
      </trkpt>
      <trkpt lat="44.49473" lon="0.68207">
        <ele>148.5</ele>
        <time>2018-07-22T12:59:32Z</time>
      </trkpt>
      <trkpt lat="44.49471" lon="0.6821">
        <ele>148.2</ele>
        <time>2018-07-22T12:59:34Z</time>
      </trkpt>
      <trkpt lat="44.49469" lon="0.68213">
        <ele>148.2</ele>
        <time>2018-07-22T12:59:36Z</time>
      </trkpt>
      <trkpt lat="44.49467" lon="0.68216">
        <ele>148</ele>
        <time>2018-07-22T12:59:38Z</time>
      </trkpt>
      <trkpt lat="44.49465" lon="0.68219">
        <ele>147.8</ele>
        <time>2018-07-22T12:59:40Z</time>
      </trkpt>
      <trkpt lat="44.49462" lon="0.68221">
        <ele>147.7</ele>
        <time>2018-07-22T12:59:42Z</time>
      </trkpt>
      <trkpt lat="44.49461" lon="0.68224">
        <ele>147.5</ele>
        <time>2018-07-22T12:59:44Z</time>
      </trkpt>
      <trkpt lat="44.49459" lon="0.68227">
        <ele>147.3</ele>
        <time>2018-07-22T12:59:46Z</time>
      </trkpt>
      <trkpt lat="44.49456" lon="0.6823">
        <ele>147.2</ele>
        <time>2018-07-22T12:59:48Z</time>
      </trkpt>
      <trkpt lat="44.49454" lon="0.68233">
        <ele>147</ele>
        <time>2018-07-22T12:59:50Z</time>
      </trkpt>
      <trkpt lat="44.49452" lon="0.68236">
        <ele>146.8</ele>
        <time>2018-07-22T12:59:52Z</time>
      </trkpt>
      <trkpt lat="44.4945" lon="0.68239">
        <ele>146.7</ele>
        <time>2018-07-22T12:59:54Z</time>
      </trkpt>
      <trkpt lat="44.49448" lon="0.68242">
        <ele>146.4</ele>
        <time>2018-07-22T12:59:56Z</time>
      </trkpt>
      <trkpt lat="44.49446" lon="0.68246">
        <ele>146.2</ele>
        <time>2018-07-22T12:59:58Z</time>
      </trkpt>
      <trkpt lat="44.49445" lon="0.68249">
        <ele>146</ele>
        <time>2018-07-22T13:00:00Z</time>
      </trkpt>
      <trkpt lat="44.49443" lon="0.68253">
        <ele>145.9</ele>
        <time>2018-07-22T13:00:02Z</time>
      </trkpt>
      <trkpt lat="44.49441" lon="0.68257">
        <ele>145.8</ele>
        <time>2018-07-22T13:00:04Z</time>
      </trkpt>
      <trkpt lat="44.49439" lon="0.68261">
        <ele>145.6</ele>
        <time>2018-07-22T13:00:06Z</time>
      </trkpt>
      <trkpt lat="44.49437" lon="0.68265">
        <ele>145.4</ele>
        <time>2018-07-22T13:00:09Z</time>
      </trkpt>
      <trkpt lat="44.49435" lon="0.68269">
        <ele>145.2</ele>
        <time>2018-07-22T13:00:11Z</time>
      </trkpt>
      <trkpt lat="44.49433" lon="0.68272">
        <ele>144.9</ele>
        <time>2018-07-22T13:00:13Z</time>
      </trkpt>
      <trkpt lat="44.49432" lon="0.68276">
        <ele>144.7</ele>
        <time>2018-07-22T13:00:15Z</time>
      </trkpt>
      <trkpt lat="44.49431" lon="0.6828">
        <ele>144.5</ele>
        <time>2018-07-22T13:00:17Z</time>
      </trkpt>
      <trkpt lat="44.49431" lon="0.68284">
        <ele>144.3</ele>
        <time>2018-07-22T13:00:19Z</time>
      </trkpt>
      <trkpt lat="44.49431" lon="0.68289">
        <ele>144.1</ele>
        <time>2018-07-22T13:00:21Z</time>
      </trkpt>
      <trkpt lat="44.49431" lon="0.68293">
        <ele>143.9</ele>
        <time>2018-07-22T13:00:23Z</time>
      </trkpt>
      <trkpt lat="44.4943" lon="0.68299">
        <ele>143.7</ele>
        <time>2018-07-22T13:00:26Z</time>
      </trkpt>
      <trkpt lat="44.49431" lon="0.68303">
        <ele>143.4</ele>
        <time>2018-07-22T13:00:28Z</time>
      </trkpt>
      <trkpt lat="44.49433" lon="0.68307">
        <ele>143.2</ele>
        <time>2018-07-22T13:00:31Z</time>
      </trkpt>
      <trkpt lat="44.49436" lon="0.68309">
        <ele>143</ele>
        <time>2018-07-22T13:00:33Z</time>
      </trkpt>
      <trkpt lat="44.49439" lon="0.68309">
        <ele>143</ele>
        <time>2018-07-22T13:00:35Z</time>
      </trkpt>
      <trkpt lat="44.49442" lon="0.68309">
        <ele>142.9</ele>
        <time>2018-07-22T13:00:37Z</time>
      </trkpt>
      <trkpt lat="44.49446" lon="0.68309">
        <ele>142.8</ele>
        <time>2018-07-22T13:00:44Z</time>
      </trkpt>
      <trkpt lat="44.49449" lon="0.6831">
        <ele>142.7</ele>
        <time>2018-07-22T13:00:46Z</time>
      </trkpt>
      <trkpt lat="44.49452" lon="0.68311">
        <ele>142.6</ele>
        <time>2018-07-22T13:00:48Z</time>
      </trkpt>
      <trkpt lat="44.49456" lon="0.68312">
        <ele>142.5</ele>
        <time>2018-07-22T13:00:50Z</time>
      </trkpt>
      <trkpt lat="44.49459" lon="0.68313">
        <ele>142.1</ele>
        <time>2018-07-22T13:00:52Z</time>
      </trkpt>
      <trkpt lat="44.49462" lon="0.68314">
        <ele>141.9</ele>
        <time>2018-07-22T13:00:54Z</time>
      </trkpt>
      <trkpt lat="44.49465" lon="0.68315">
        <ele>141.7</ele>
        <time>2018-07-22T13:00:56Z</time>
      </trkpt>
      <trkpt lat="44.49467" lon="0.68316">
        <ele>141.4</ele>
        <time>2018-07-22T13:00:58Z</time>
      </trkpt>
      <trkpt lat="44.49471" lon="0.68317">
        <ele>141.1</ele>
        <time>2018-07-22T13:01:00Z</time>
      </trkpt>
      <trkpt lat="44.49473" lon="0.68318">
        <ele>140.6</ele>
        <time>2018-07-22T13:01:02Z</time>
      </trkpt>
      <trkpt lat="44.49476" lon="0.68319">
        <ele>140.3</ele>
        <time>2018-07-22T13:01:04Z</time>
      </trkpt>
      <trkpt lat="44.49479" lon="0.6832">
        <ele>139.9</ele>
        <time>2018-07-22T13:01:06Z</time>
      </trkpt>
      <trkpt lat="44.49482" lon="0.68321">
        <ele>139.6</ele>
        <time>2018-07-22T13:01:08Z</time>
      </trkpt>
      <trkpt lat="44.49485" lon="0.68321">
        <ele>139.2</ele>
        <time>2018-07-22T13:01:10Z</time>
      </trkpt>
      <trkpt lat="44.49488" lon="0.68321">
        <ele>138.9</ele>
        <time>2018-07-22T13:01:12Z</time>
      </trkpt>
      <trkpt lat="44.49491" lon="0.68323">
        <ele>138.5</ele>
        <time>2018-07-22T13:01:14Z</time>
      </trkpt>
      <trkpt lat="44.49493" lon="0.68325">
        <ele>138.1</ele>
        <time>2018-07-22T13:01:16Z</time>
      </trkpt>
      <trkpt lat="44.49496" lon="0.68327">
        <ele>137.5</ele>
        <time>2018-07-22T13:01:18Z</time>
      </trkpt>
      <trkpt lat="44.49499" lon="0.68329">
        <ele>137</ele>
        <time>2018-07-22T13:01:20Z</time>
      </trkpt>
      <trkpt lat="44.49501" lon="0.6833">
        <ele>136.2</ele>
        <time>2018-07-22T13:01:22Z</time>
      </trkpt>
      <trkpt lat="44.49505" lon="0.68332">
        <ele>135.7</ele>
        <time>2018-07-22T13:01:25Z</time>
      </trkpt>
      <trkpt lat="44.49509" lon="0.68334">
        <ele>135.2</ele>
        <time>2018-07-22T13:01:27Z</time>
      </trkpt>
      <trkpt lat="44.49511" lon="0.68335">
        <ele>134.4</ele>
        <time>2018-07-22T13:01:29Z</time>
      </trkpt>
      <trkpt lat="44.49514" lon="0.68337">
        <ele>133.9</ele>
        <time>2018-07-22T13:01:31Z</time>
      </trkpt>
      <trkpt lat="44.49517" lon="0.68338">
        <ele>133.4</ele>
        <time>2018-07-22T13:01:33Z</time>
      </trkpt>
      <trkpt lat="44.4952" lon="0.6834">
        <ele>132.5</ele>
        <time>2018-07-22T13:01:35Z</time>
      </trkpt>
      <trkpt lat="44.49523" lon="0.68341">
        <ele>132</ele>
        <time>2018-07-22T13:01:37Z</time>
      </trkpt>
      <trkpt lat="44.49526" lon="0.68342">
        <ele>131.4</ele>
        <time>2018-07-22T13:01:39Z</time>
      </trkpt>
      <trkpt lat="44.4953" lon="0.68343">
        <ele>130.4</ele>
        <time>2018-07-22T13:01:41Z</time>
      </trkpt>
      <trkpt lat="44.49532" lon="0.68344">
        <ele>129.8</ele>
        <time>2018-07-22T13:01:43Z</time>
      </trkpt>
      <trkpt lat="44.49536" lon="0.68346">
        <ele>129.3</ele>
        <time>2018-07-22T13:01:45Z</time>
      </trkpt>
      <trkpt lat="44.49538" lon="0.68348">
        <ele>128.4</ele>
        <time>2018-07-22T13:01:47Z</time>
      </trkpt>
      <trkpt lat="44.49541" lon="0.68349">
        <ele>127.9</ele>
        <time>2018-07-22T13:01:49Z</time>
      </trkpt>
      <trkpt lat="44.49544" lon="0.68351">
        <ele>127.5</ele>
        <time>2018-07-22T13:01:51Z</time>
      </trkpt>
      <trkpt lat="44.49548" lon="0.68353">
        <ele>126.6</ele>
        <time>2018-07-22T13:01:53Z</time>
      </trkpt>
      <trkpt lat="44.49551" lon="0.68354">
        <ele>126.1</ele>
        <time>2018-07-22T13:01:55Z</time>
      </trkpt>
      <trkpt lat="44.49554" lon="0.68354">
        <ele>125.7</ele>
        <time>2018-07-22T13:01:57Z</time>
      </trkpt>
      <trkpt lat="44.49557" lon="0.68355">
        <ele>125.2</ele>
        <time>2018-07-22T13:01:59Z</time>
      </trkpt>
      <trkpt lat="44.4956" lon="0.68355">
        <ele>124.8</ele>
        <time>2018-07-22T13:02:01Z</time>
      </trkpt>
      <trkpt lat="44.49563" lon="0.68356">
        <ele>124</ele>
        <time>2018-07-22T13:02:03Z</time>
      </trkpt>
      <trkpt lat="44.49566" lon="0.68357">
        <ele>123.6</ele>
        <time>2018-07-22T13:02:05Z</time>
      </trkpt>
      <trkpt lat="44.49569" lon="0.68357">
        <ele>123.2</ele>
        <time>2018-07-22T13:02:07Z</time>
      </trkpt>
      <trkpt lat="44.49572" lon="0.68357">
        <ele>122.9</ele>
        <time>2018-07-22T13:02:09Z</time>
      </trkpt>
      <trkpt lat="44.49575" lon="0.68357">
        <ele>122.5</ele>
        <time>2018-07-22T13:02:11Z</time>
      </trkpt>
      <trkpt lat="44.49578" lon="0.68357">
        <ele>122.2</ele>
        <time>2018-07-22T13:02:13Z</time>
      </trkpt>
      <trkpt lat="44.49581" lon="0.68359">
        <ele>121.8</ele>
        <time>2018-07-22T13:02:15Z</time>
      </trkpt>
      <trkpt lat="44.49584" lon="0.68361">
        <ele>121.2</ele>
        <time>2018-07-22T13:02:18Z</time>
      </trkpt>
      <trkpt lat="44.49588" lon="0.68362">
        <ele>120.9</ele>
        <time>2018-07-22T13:02:21Z</time>
      </trkpt>
      <trkpt lat="44.49591" lon="0.68362">
        <ele>120.6</ele>
        <time>2018-07-22T13:02:24Z</time>
      </trkpt>
      <trkpt lat="44.49594" lon="0.68362">
        <ele>120.4</ele>
        <time>2018-07-22T13:02:26Z</time>
      </trkpt>
      <trkpt lat="44.49597" lon="0.68362">
        <ele>120.1</ele>
        <time>2018-07-22T13:02:28Z</time>
      </trkpt>
      <trkpt lat="44.496" lon="0.68363">
        <ele>119.9</ele>
        <time>2018-07-22T13:02:30Z</time>
      </trkpt>
      <trkpt lat="44.49603" lon="0.68365">
        <ele>119.5</ele>
        <time>2018-07-22T13:02:32Z</time>
      </trkpt>
      <trkpt lat="44.49605" lon="0.68366">
        <ele>119.4</ele>
        <time>2018-07-22T13:02:34Z</time>
      </trkpt>
      <trkpt lat="44.49608" lon="0.68367">
        <ele>119.2</ele>
        <time>2018-07-22T13:02:36Z</time>
      </trkpt>
      <trkpt lat="44.49611" lon="0.68368">
        <ele>119</ele>
        <time>2018-07-22T13:02:38Z</time>
      </trkpt>
      <trkpt lat="44.49614" lon="0.6837">
        <ele>118.6</ele>
        <time>2018-07-22T13:02:40Z</time>
      </trkpt>
      <trkpt lat="44.49617" lon="0.6837">
        <ele>118.4</ele>
        <time>2018-07-22T13:02:42Z</time>
      </trkpt>
      <trkpt lat="44.49621" lon="0.68372">
        <ele>118.2</ele>
        <time>2018-07-22T13:02:45Z</time>
      </trkpt>
      <trkpt lat="44.49625" lon="0.68374">
        <ele>117.9</ele>
        <time>2018-07-22T13:02:48Z</time>
      </trkpt>
      <trkpt lat="44.49627" lon="0.68375">
        <ele>117.8</ele>
        <time>2018-07-22T13:02:50Z</time>
      </trkpt>
      <trkpt lat="44.4963" lon="0.68376">
        <ele>117.7</ele>
        <time>2018-07-22T13:02:52Z</time>
      </trkpt>
      <trkpt lat="44.49633" lon="0.68378">
        <ele>117.4</ele>
        <time>2018-07-22T13:02:54Z</time>
      </trkpt>
      <trkpt lat="44.49636" lon="0.68378">
        <ele>117.2</ele>
        <time>2018-07-22T13:02:56Z</time>
      </trkpt>
      <trkpt lat="44.49638" lon="0.68379">
        <ele>117.1</ele>
        <time>2018-07-22T13:02:58Z</time>
      </trkpt>
      <trkpt lat="44.49641" lon="0.6838">
        <ele>117.1</ele>
        <time>2018-07-22T13:03:00Z</time>
      </trkpt>
      <trkpt lat="44.49644" lon="0.68381">
        <ele>116.9</ele>
        <time>2018-07-22T13:03:02Z</time>
      </trkpt>
      <trkpt lat="44.49647" lon="0.68381">
        <ele>116.8</ele>
        <time>2018-07-22T13:03:04Z</time>
      </trkpt>
      <trkpt lat="44.4965" lon="0.68381">
        <ele>116.7</ele>
        <time>2018-07-22T13:03:06Z</time>
      </trkpt>
      <trkpt lat="44.49653" lon="0.68381">
        <ele>116.7</ele>
        <time>2018-07-22T13:03:08Z</time>
      </trkpt>
      <trkpt lat="44.49655" lon="0.68382">
        <ele>116.4</ele>
        <time>2018-07-22T13:03:10Z</time>
      </trkpt>
      <trkpt lat="44.49658" lon="0.68382">
        <ele>116.3</ele>
        <time>2018-07-22T13:03:12Z</time>
      </trkpt>
      <trkpt lat="44.49662" lon="0.68382">
        <ele>116.2</ele>
        <time>2018-07-22T13:03:14Z</time>
      </trkpt>
      <trkpt lat="44.49665" lon="0.68382">
        <ele>116.1</ele>
        <time>2018-07-22T13:03:16Z</time>
      </trkpt>
      <trkpt lat="44.49668" lon="0.68382">
        <ele>115.9</ele>
        <time>2018-07-22T13:03:18Z</time>
      </trkpt>
      <trkpt lat="44.49671" lon="0.68383">
        <ele>115.8</ele>
        <time>2018-07-22T13:03:20Z</time>
      </trkpt>
      <trkpt lat="44.49674" lon="0.68383">
        <ele>115.7</ele>
        <time>2018-07-22T13:03:22Z</time>
      </trkpt>
      <trkpt lat="44.49677" lon="0.68384">
        <ele>115.5</ele>
        <time>2018-07-22T13:03:24Z</time>
      </trkpt>
      <trkpt lat="44.4968" lon="0.68385">
        <ele>115.3</ele>
        <time>2018-07-22T13:03:26Z</time>
      </trkpt>
      <trkpt lat="44.49683" lon="0.68385">
        <ele>115.1</ele>
        <time>2018-07-22T13:03:28Z</time>
      </trkpt>
      <trkpt lat="44.49686" lon="0.68386">
        <ele>114.9</ele>
        <time>2018-07-22T13:03:30Z</time>
      </trkpt>
      <trkpt lat="44.49689" lon="0.68386">
        <ele>114.5</ele>
        <time>2018-07-22T13:03:32Z</time>
      </trkpt>
      <trkpt lat="44.49692" lon="0.68386">
        <ele>114.3</ele>
        <time>2018-07-22T13:03:34Z</time>
      </trkpt>
      <trkpt lat="44.49695" lon="0.68386">
        <ele>114</ele>
        <time>2018-07-22T13:03:36Z</time>
      </trkpt>
      <trkpt lat="44.49698" lon="0.68386">
        <ele>113.8</ele>
        <time>2018-07-22T13:03:38Z</time>
      </trkpt>
      <trkpt lat="44.49701" lon="0.68386">
        <ele>113.5</ele>
        <time>2018-07-22T13:03:40Z</time>
      </trkpt>
      <trkpt lat="44.49704" lon="0.68386">
        <ele>113.3</ele>
        <time>2018-07-22T13:03:42Z</time>
      </trkpt>
      <trkpt lat="44.49707" lon="0.68386">
        <ele>113</ele>
        <time>2018-07-22T13:03:44Z</time>
      </trkpt>
      <trkpt lat="44.4971" lon="0.68386">
        <ele>112.8</ele>
        <time>2018-07-22T13:03:46Z</time>
      </trkpt>
      <trkpt lat="44.49713" lon="0.68387">
        <ele>112.6</ele>
        <time>2018-07-22T13:03:48Z</time>
      </trkpt>
      <trkpt lat="44.49716" lon="0.68387">
        <ele>112.4</ele>
        <time>2018-07-22T13:03:50Z</time>
      </trkpt>
      <trkpt lat="44.49719" lon="0.68387">
        <ele>112.2</ele>
        <time>2018-07-22T13:03:52Z</time>
      </trkpt>
      <trkpt lat="44.49722" lon="0.68387">
        <ele>112</ele>
        <time>2018-07-22T13:03:54Z</time>
      </trkpt>
      <trkpt lat="44.49725" lon="0.68388">
        <ele>111.8</ele>
        <time>2018-07-22T13:03:56Z</time>
      </trkpt>
      <trkpt lat="44.49729" lon="0.68388">
        <ele>111.7</ele>
        <time>2018-07-22T13:03:58Z</time>
      </trkpt>
      <trkpt lat="44.49732" lon="0.68387">
        <ele>111.5</ele>
        <time>2018-07-22T13:04:00Z</time>
      </trkpt>
      <trkpt lat="44.49735" lon="0.68388">
        <ele>111.4</ele>
        <time>2018-07-22T13:04:02Z</time>
      </trkpt>
      <trkpt lat="44.49738" lon="0.68388">
        <ele>111.3</ele>
        <time>2018-07-22T13:04:04Z</time>
      </trkpt>
      <trkpt lat="44.49741" lon="0.68388">
        <ele>111.2</ele>
        <time>2018-07-22T13:04:06Z</time>
      </trkpt>
      <trkpt lat="44.49744" lon="0.68389">
        <ele>111.2</ele>
        <time>2018-07-22T13:04:08Z</time>
      </trkpt>
      <trkpt lat="44.49747" lon="0.68389">
        <ele>111.1</ele>
        <time>2018-07-22T13:04:10Z</time>
      </trkpt>
      <trkpt lat="44.4975" lon="0.68389">
        <ele>111.1</ele>
        <time>2018-07-22T13:04:12Z</time>
      </trkpt>
      <trkpt lat="44.49753" lon="0.68389">
        <ele>111.1</ele>
        <time>2018-07-22T13:04:14Z</time>
      </trkpt>
      <trkpt lat="44.49756" lon="0.68389">
        <ele>111.1</ele>
        <time>2018-07-22T13:04:16Z</time>
      </trkpt>
      <trkpt lat="44.49759" lon="0.6839">
        <ele>111.1</ele>
        <time>2018-07-22T13:04:18Z</time>
      </trkpt>
      <trkpt lat="44.49762" lon="0.6839">
        <ele>110.8</ele>
        <time>2018-07-22T13:04:20Z</time>
      </trkpt>
      <trkpt lat="44.49765" lon="0.68391">
        <ele>110.8</ele>
        <time>2018-07-22T13:04:22Z</time>
      </trkpt>
      <trkpt lat="44.49769" lon="0.68391">
        <ele>110.9</ele>
        <time>2018-07-22T13:04:25Z</time>
      </trkpt>
      <trkpt lat="44.49771" lon="0.68391">
        <ele>111</ele>
        <time>2018-07-22T13:04:27Z</time>
      </trkpt>
      <trkpt lat="44.49774" lon="0.68392">
        <ele>111</ele>
        <time>2018-07-22T13:04:29Z</time>
      </trkpt>
      <trkpt lat="44.49777" lon="0.68392">
        <ele>111.1</ele>
        <time>2018-07-22T13:04:31Z</time>
      </trkpt>
      <trkpt lat="44.4978" lon="0.68393">
        <ele>111.2</ele>
        <time>2018-07-22T13:04:33Z</time>
      </trkpt>
      <trkpt lat="44.49783" lon="0.68394">
        <ele>111.3</ele>
        <time>2018-07-22T13:04:35Z</time>
      </trkpt>
      <trkpt lat="44.49786" lon="0.68395">
        <ele>111</ele>
        <time>2018-07-22T13:04:37Z</time>
      </trkpt>
      <trkpt lat="44.49789" lon="0.68396">
        <ele>111.1</ele>
        <time>2018-07-22T13:04:39Z</time>
      </trkpt>
      <trkpt lat="44.49792" lon="0.68397">
        <ele>111.2</ele>
        <time>2018-07-22T13:04:41Z</time>
      </trkpt>
      <trkpt lat="44.49794" lon="0.68398">
        <ele>111.1</ele>
        <time>2018-07-22T13:04:43Z</time>
      </trkpt>
      <trkpt lat="44.49797" lon="0.68399">
        <ele>110.9</ele>
        <time>2018-07-22T13:04:45Z</time>
      </trkpt>
      <trkpt lat="44.49801" lon="0.684">
        <ele>111</ele>
        <time>2018-07-22T13:04:47Z</time>
      </trkpt>
      <trkpt lat="44.49804" lon="0.68402">
        <ele>111.1</ele>
        <time>2018-07-22T13:04:49Z</time>
      </trkpt>
      <trkpt lat="44.49807" lon="0.68403">
        <ele>110.9</ele>
        <time>2018-07-22T13:04:51Z</time>
      </trkpt>
      <trkpt lat="44.4981" lon="0.68405">
        <ele>111</ele>
        <time>2018-07-22T13:04:53Z</time>
      </trkpt>
      <trkpt lat="44.49813" lon="0.68407">
        <ele>111</ele>
        <time>2018-07-22T13:04:55Z</time>
      </trkpt>
      <trkpt lat="44.49815" lon="0.68408">
        <ele>110.8</ele>
        <time>2018-07-22T13:04:57Z</time>
      </trkpt>
      <trkpt lat="44.49818" lon="0.6841">
        <ele>110.9</ele>
        <time>2018-07-22T13:04:59Z</time>
      </trkpt>
      <trkpt lat="44.49821" lon="0.68412">
        <ele>110.7</ele>
        <time>2018-07-22T13:05:01Z</time>
      </trkpt>
      <trkpt lat="44.49823" lon="0.68414">
        <ele>110.7</ele>
        <time>2018-07-22T13:05:03Z</time>
      </trkpt>
      <trkpt lat="44.49826" lon="0.68416">
        <ele>110.5</ele>
        <time>2018-07-22T13:05:05Z</time>
      </trkpt>
      <trkpt lat="44.49829" lon="0.68418">
        <ele>110.5</ele>
        <time>2018-07-22T13:05:07Z</time>
      </trkpt>
      <trkpt lat="44.49832" lon="0.68419">
        <ele>110.5</ele>
        <time>2018-07-22T13:05:09Z</time>
      </trkpt>
      <trkpt lat="44.49834" lon="0.68422">
        <ele>110.3</ele>
        <time>2018-07-22T13:05:11Z</time>
      </trkpt>
      <trkpt lat="44.49837" lon="0.68425">
        <ele>110.2</ele>
        <time>2018-07-22T13:05:13Z</time>
      </trkpt>
      <trkpt lat="44.49839" lon="0.68428">
        <ele>110.2</ele>
        <time>2018-07-22T13:05:15Z</time>
      </trkpt>
      <trkpt lat="44.49842" lon="0.68432">
        <ele>110.1</ele>
        <time>2018-07-22T13:05:18Z</time>
      </trkpt>
      <trkpt lat="44.49844" lon="0.68435">
        <ele>110.1</ele>
        <time>2018-07-22T13:05:20Z</time>
      </trkpt>
      <trkpt lat="44.49846" lon="0.68438">
        <ele>109.9</ele>
        <time>2018-07-22T13:05:22Z</time>
      </trkpt>
      <trkpt lat="44.49848" lon="0.68442">
        <ele>109.9</ele>
        <time>2018-07-22T13:05:24Z</time>
      </trkpt>
      <trkpt lat="44.49849" lon="0.68446">
        <ele>109.8</ele>
        <time>2018-07-22T13:05:26Z</time>
      </trkpt>
      <trkpt lat="44.4985" lon="0.6845">
        <ele>109.8</ele>
        <time>2018-07-22T13:05:28Z</time>
      </trkpt>
      <trkpt lat="44.49852" lon="0.68454">
        <ele>109.8</ele>
        <time>2018-07-22T13:05:30Z</time>
      </trkpt>
      <trkpt lat="44.49853" lon="0.68458">
        <ele>109.8</ele>
        <time>2018-07-22T13:05:32Z</time>
      </trkpt>
      <trkpt lat="44.49855" lon="0.68462">
        <ele>109.7</ele>
        <time>2018-07-22T13:05:34Z</time>
      </trkpt>
      <trkpt lat="44.49856" lon="0.68466">
        <ele>109.8</ele>
        <time>2018-07-22T13:05:36Z</time>
      </trkpt>
      <trkpt lat="44.49858" lon="0.6847">
        <ele>109.7</ele>
        <time>2018-07-22T13:05:38Z</time>
      </trkpt>
      <trkpt lat="44.49859" lon="0.68474">
        <ele>109.9</ele>
        <time>2018-07-22T13:05:40Z</time>
      </trkpt>
      <trkpt lat="44.4986" lon="0.68478">
        <ele>109.8</ele>
        <time>2018-07-22T13:05:42Z</time>
      </trkpt>
      <trkpt lat="44.49861" lon="0.68482">
        <ele>109.7</ele>
        <time>2018-07-22T13:05:44Z</time>
      </trkpt>
      <trkpt lat="44.49862" lon="0.68486">
        <ele>109.9</ele>
        <time>2018-07-22T13:05:46Z</time>
      </trkpt>
      <trkpt lat="44.49863" lon="0.6849">
        <ele>109.9</ele>
        <time>2018-07-22T13:05:48Z</time>
      </trkpt>
      <trkpt lat="44.49865" lon="0.68493">
        <ele>109.9</ele>
        <time>2018-07-22T13:05:50Z</time>
      </trkpt>
      <trkpt lat="44.49866" lon="0.68496">
        <ele>110.1</ele>
        <time>2018-07-22T13:05:52Z</time>
      </trkpt>
      <trkpt lat="44.49868" lon="0.68499">
        <ele>110.3</ele>
        <time>2018-07-22T13:05:54Z</time>
      </trkpt>
      <trkpt lat="44.4987" lon="0.68504">
        <ele>110.4</ele>
        <time>2018-07-22T13:05:57Z</time>
      </trkpt>
      <trkpt lat="44.49871" lon="0.68508">
        <ele>110.7</ele>
        <time>2018-07-22T13:05:59Z</time>
      </trkpt>
      <trkpt lat="44.49872" lon="0.68512">
        <ele>110.9</ele>
        <time>2018-07-22T13:06:01Z</time>
      </trkpt>
      <trkpt lat="44.49872" lon="0.68516">
        <ele>111</ele>
        <time>2018-07-22T13:06:03Z</time>
      </trkpt>
      <trkpt lat="44.49873" lon="0.6852">
        <ele>111.2</ele>
        <time>2018-07-22T13:06:05Z</time>
      </trkpt>
      <trkpt lat="44.49874" lon="0.68525">
        <ele>111.6</ele>
        <time>2018-07-22T13:06:08Z</time>
      </trkpt>
      <trkpt lat="44.49876" lon="0.6853">
        <ele>111.9</ele>
        <time>2018-07-22T13:06:11Z</time>
      </trkpt>
      <trkpt lat="44.49877" lon="0.68534">
        <ele>112.1</ele>
        <time>2018-07-22T13:06:14Z</time>
      </trkpt>
      <trkpt lat="44.49878" lon="0.68539">
        <ele>112.5</ele>
        <time>2018-07-22T13:06:17Z</time>
      </trkpt>
      <trkpt lat="44.49878" lon="0.68544">
        <ele>112.7</ele>
        <time>2018-07-22T13:06:20Z</time>
      </trkpt>
      <trkpt lat="44.49877" lon="0.68548">
        <ele>112.7</ele>
        <time>2018-07-22T13:06:23Z</time>
      </trkpt>
      <trkpt lat="44.49877" lon="0.68553">
        <ele>113.2</ele>
        <time>2018-07-22T13:06:26Z</time>
      </trkpt>
      <trkpt lat="44.49878" lon="0.68558">
        <ele>113.6</ele>
        <time>2018-07-22T13:06:29Z</time>
      </trkpt>
      <trkpt lat="44.49879" lon="0.68562">
        <ele>113.8</ele>
        <time>2018-07-22T13:06:32Z</time>
      </trkpt>
      <trkpt lat="44.4988" lon="0.68568">
        <ele>114.3</ele>
        <time>2018-07-22T13:06:35Z</time>
      </trkpt>
      <trkpt lat="44.49882" lon="0.68572">
        <ele>114.5</ele>
        <time>2018-07-22T13:06:37Z</time>
      </trkpt>
      <trkpt lat="44.49883" lon="0.68575">
        <ele>114.7</ele>
        <time>2018-07-22T13:06:39Z</time>
      </trkpt>
      <trkpt lat="44.49885" lon="0.6858">
        <ele>115.3</ele>
        <time>2018-07-22T13:06:42Z</time>
      </trkpt>
      <trkpt lat="44.49886" lon="0.68584">
        <ele>115.8</ele>
        <time>2018-07-22T13:06:45Z</time>
      </trkpt>
      <trkpt lat="44.49888" lon="0.68589">
        <ele>116.1</ele>
        <time>2018-07-22T13:06:48Z</time>
      </trkpt>
      <trkpt lat="44.49891" lon="0.68593">
        <ele>116.6</ele>
        <time>2018-07-22T13:06:50Z</time>
      </trkpt>
      <trkpt lat="44.49893" lon="0.68597">
        <ele>117.2</ele>
        <time>2018-07-22T13:06:53Z</time>
      </trkpt>
      <trkpt lat="44.49895" lon="0.68601">
        <ele>117.4</ele>
        <time>2018-07-22T13:06:56Z</time>
      </trkpt>
      <trkpt lat="44.49898" lon="0.68604">
        <ele>117.7</ele>
        <time>2018-07-22T13:06:59Z</time>
      </trkpt>
      <trkpt lat="44.49901" lon="0.68608">
        <ele>118.4</ele>
        <time>2018-07-22T13:07:02Z</time>
      </trkpt>
      <trkpt lat="44.49903" lon="0.68613">
        <ele>119</ele>
        <time>2018-07-22T13:07:05Z</time>
      </trkpt>
      <trkpt lat="44.49905" lon="0.68615">
        <ele>119.4</ele>
        <time>2018-07-22T13:07:07Z</time>
      </trkpt>
      <trkpt lat="44.49908" lon="0.68618">
        <ele>120.4</ele>
        <time>2018-07-22T13:07:10Z</time>
      </trkpt>
      <trkpt lat="44.49911" lon="0.68621">
        <ele>120.7</ele>
        <time>2018-07-22T13:07:13Z</time>
      </trkpt>
      <trkpt lat="44.49913" lon="0.68624">
        <ele>121</ele>
        <time>2018-07-22T13:07:15Z</time>
      </trkpt>
      <trkpt lat="44.49915" lon="0.68628">
        <ele>121.7</ele>
        <time>2018-07-22T13:07:17Z</time>
      </trkpt>
      <trkpt lat="44.49915" lon="0.68631">
        <ele>122.1</ele>
        <time>2018-07-22T13:07:19Z</time>
      </trkpt>
      <trkpt lat="44.49917" lon="0.68637">
        <ele>122.4</ele>
        <time>2018-07-22T13:07:22Z</time>
      </trkpt>
      <trkpt lat="44.49918" lon="0.68641">
        <ele>123</ele>
        <time>2018-07-22T13:07:24Z</time>
      </trkpt>
      <trkpt lat="44.4992" lon="0.68645">
        <ele>123.6</ele>
        <time>2018-07-22T13:07:27Z</time>
      </trkpt>
      <trkpt lat="44.49922" lon="0.68648">
        <ele>123.9</ele>
        <time>2018-07-22T13:07:29Z</time>
      </trkpt>
      <trkpt lat="44.49925" lon="0.68652">
        <ele>124.4</ele>
        <time>2018-07-22T13:07:32Z</time>
      </trkpt>
      <trkpt lat="44.49927" lon="0.68656">
        <ele>124.6</ele>
        <time>2018-07-22T13:07:35Z</time>
      </trkpt>
      <trkpt lat="44.49929" lon="0.6866">
        <ele>125.3</ele>
        <time>2018-07-22T13:07:38Z</time>
      </trkpt>
      <trkpt lat="44.49931" lon="0.68665">
        <ele>125.4</ele>
        <time>2018-07-22T13:07:41Z</time>
      </trkpt>
      <trkpt lat="44.49934" lon="0.68669">
        <ele>125.6</ele>
        <time>2018-07-22T13:07:44Z</time>
      </trkpt>
      <trkpt lat="44.49937" lon="0.68673">
        <ele>126</ele>
        <time>2018-07-22T13:07:47Z</time>
      </trkpt>
      <trkpt lat="44.4994" lon="0.68676">
        <ele>126.3</ele>
        <time>2018-07-22T13:07:50Z</time>
      </trkpt>
      <trkpt lat="44.49942" lon="0.68681">
        <ele>126.7</ele>
        <time>2018-07-22T13:07:53Z</time>
      </trkpt>
      <trkpt lat="44.49944" lon="0.68684">
        <ele>126.8</ele>
        <time>2018-07-22T13:07:55Z</time>
      </trkpt>
      <trkpt lat="44.49946" lon="0.68687">
        <ele>127.1</ele>
        <time>2018-07-22T13:07:57Z</time>
      </trkpt>
      <trkpt lat="44.49949" lon="0.6869">
        <ele>127.3</ele>
        <time>2018-07-22T13:08:00Z</time>
      </trkpt>
      <trkpt lat="44.49951" lon="0.68693">
        <ele>127.5</ele>
        <time>2018-07-22T13:08:02Z</time>
      </trkpt>
      <trkpt lat="44.49953" lon="0.68696">
        <ele>127.5</ele>
        <time>2018-07-22T13:08:05Z</time>
      </trkpt>
      <trkpt lat="44.49955" lon="0.687">
        <ele>127.6</ele>
        <time>2018-07-22T13:08:08Z</time>
      </trkpt>
      <trkpt lat="44.49956" lon="0.68704">
        <ele>127.6</ele>
        <time>2018-07-22T13:08:11Z</time>
      </trkpt>
      <trkpt lat="44.49958" lon="0.68708">
        <ele>127.7</ele>
        <time>2018-07-22T13:08:13Z</time>
      </trkpt>
      <trkpt lat="44.4996" lon="0.68712">
        <ele>127.7</ele>
        <time>2018-07-22T13:08:15Z</time>
      </trkpt>
      <trkpt lat="44.49962" lon="0.68716">
        <ele>127.6</ele>
        <time>2018-07-22T13:08:18Z</time>
      </trkpt>
      <trkpt lat="44.49965" lon="0.68718">
        <ele>127.7</ele>
        <time>2018-07-22T13:08:21Z</time>
      </trkpt>
      <trkpt lat="44.49968" lon="0.68719">
        <ele>127.8</ele>
        <time>2018-07-22T13:08:24Z</time>
      </trkpt>
      <trkpt lat="44.49971" lon="0.68723">
        <ele>127.8</ele>
        <time>2018-07-22T13:08:27Z</time>
      </trkpt>
      <trkpt lat="44.49974" lon="0.68725">
        <ele>127.8</ele>
        <time>2018-07-22T13:08:29Z</time>
      </trkpt>
      <trkpt lat="44.49977" lon="0.68728">
        <ele>127.9</ele>
        <time>2018-07-22T13:08:32Z</time>
      </trkpt>
      <trkpt lat="44.4998" lon="0.68731">
        <ele>127.8</ele>
        <time>2018-07-22T13:08:34Z</time>
      </trkpt>
      <trkpt lat="44.49981" lon="0.68734">
        <ele>127.7</ele>
        <time>2018-07-22T13:08:36Z</time>
      </trkpt>
      <trkpt lat="44.49984" lon="0.68737">
        <ele>127.6</ele>
        <time>2018-07-22T13:08:38Z</time>
      </trkpt>
      <trkpt lat="44.49986" lon="0.6874">
        <ele>127.4</ele>
        <time>2018-07-22T13:08:40Z</time>
      </trkpt>
      <trkpt lat="44.49989" lon="0.68743">
        <ele>127.2</ele>
        <time>2018-07-22T13:08:42Z</time>
      </trkpt>
      <trkpt lat="44.49992" lon="0.68746">
        <ele>127.1</ele>
        <time>2018-07-22T13:08:44Z</time>
      </trkpt>
      <trkpt lat="44.49994" lon="0.68749">
        <ele>126.9</ele>
        <time>2018-07-22T13:08:46Z</time>
      </trkpt>
      <trkpt lat="44.49995" lon="0.68753">
        <ele>126.5</ele>
        <time>2018-07-22T13:08:48Z</time>
      </trkpt>
      <trkpt lat="44.49997" lon="0.68756">
        <ele>126.2</ele>
        <time>2018-07-22T13:08:50Z</time>
      </trkpt>
      <trkpt lat="44.49998" lon="0.68759">
        <ele>125.9</ele>
        <time>2018-07-22T13:08:52Z</time>
      </trkpt>
      <trkpt lat="44.49999" lon="0.68764">
        <ele>125.6</ele>
        <time>2018-07-22T13:08:54Z</time>
      </trkpt>
      <trkpt lat="44.5" lon="0.68768">
        <ele>125.3</ele>
        <time>2018-07-22T13:08:56Z</time>
      </trkpt>
      <trkpt lat="44.50002" lon="0.68773">
        <ele>124.9</ele>
        <time>2018-07-22T13:08:59Z</time>
      </trkpt>
      <trkpt lat="44.50003" lon="0.68776">
        <ele>124.6</ele>
        <time>2018-07-22T13:09:01Z</time>
      </trkpt>
      <trkpt lat="44.50005" lon="0.6878">
        <ele>124.6</ele>
        <time>2018-07-22T13:09:04Z</time>
      </trkpt>
      <trkpt lat="44.50005" lon="0.68784">
        <ele>124.2</ele>
        <time>2018-07-22T13:09:06Z</time>
      </trkpt>
      <trkpt lat="44.50005" lon="0.68789">
        <ele>123.9</ele>
        <time>2018-07-22T13:09:08Z</time>
      </trkpt>
      <trkpt lat="44.50005" lon="0.68793">
        <ele>123.6</ele>
        <time>2018-07-22T13:09:10Z</time>
      </trkpt>
      <trkpt lat="44.50007" lon="0.68797">
        <ele>123.3</ele>
        <time>2018-07-22T13:09:13Z</time>
      </trkpt>
      <trkpt lat="44.50008" lon="0.68801">
        <ele>122.9</ele>
        <time>2018-07-22T13:09:15Z</time>
      </trkpt>
      <trkpt lat="44.5001" lon="0.68804">
        <ele>122.5</ele>
        <time>2018-07-22T13:09:17Z</time>
      </trkpt>
      <trkpt lat="44.50011" lon="0.68808">
        <ele>122.2</ele>
        <time>2018-07-22T13:09:19Z</time>
      </trkpt>
      <trkpt lat="44.50013" lon="0.68811">
        <ele>121.8</ele>
        <time>2018-07-22T13:09:21Z</time>
      </trkpt>
      <trkpt lat="44.50014" lon="0.68815">
        <ele>121.5</ele>
        <time>2018-07-22T13:09:23Z</time>
      </trkpt>
      <trkpt lat="44.50016" lon="0.6882">
        <ele>121.1</ele>
        <time>2018-07-22T13:09:26Z</time>
      </trkpt>
      <trkpt lat="44.50018" lon="0.68823">
        <ele>121.1</ele>
        <time>2018-07-22T13:09:28Z</time>
      </trkpt>
      <trkpt lat="44.50019" lon="0.68827">
        <ele>120.7</ele>
        <time>2018-07-22T13:09:30Z</time>
      </trkpt>
      <trkpt lat="44.50021" lon="0.68831">
        <ele>120.4</ele>
        <time>2018-07-22T13:09:33Z</time>
      </trkpt>
      <trkpt lat="44.50023" lon="0.68834">
        <ele>120</ele>
        <time>2018-07-22T13:09:35Z</time>
      </trkpt>
      <trkpt lat="44.50025" lon="0.68839">
        <ele>119.6</ele>
        <time>2018-07-22T13:09:38Z</time>
      </trkpt>
      <trkpt lat="44.50026" lon="0.68843">
        <ele>119.2</ele>
        <time>2018-07-22T13:09:40Z</time>
      </trkpt>
      <trkpt lat="44.50026" lon="0.68846">
        <ele>118.8</ele>
        <time>2018-07-22T13:09:42Z</time>
      </trkpt>
      <trkpt lat="44.50027" lon="0.6885">
        <ele>118.5</ele>
        <time>2018-07-22T13:09:44Z</time>
      </trkpt>
      <trkpt lat="44.50028" lon="0.68854">
        <ele>118.1</ele>
        <time>2018-07-22T13:09:46Z</time>
      </trkpt>
      <trkpt lat="44.50029" lon="0.68858">
        <ele>117.9</ele>
        <time>2018-07-22T13:09:48Z</time>
      </trkpt>
      <trkpt lat="44.5003" lon="0.68862">
        <ele>117.7</ele>
        <time>2018-07-22T13:09:50Z</time>
      </trkpt>
      <trkpt lat="44.50029" lon="0.68869">
        <ele>117.4</ele>
        <time>2018-07-22T13:09:56Z</time>
      </trkpt>
      <trkpt lat="44.50031" lon="0.68873">
        <ele>117.2</ele>
        <time>2018-07-22T13:09:58Z</time>
      </trkpt>
      <trkpt lat="44.50034" lon="0.68877">
        <ele>117</ele>
        <time>2018-07-22T13:10:00Z</time>
      </trkpt>
      <trkpt lat="44.50035" lon="0.68881">
        <ele>116.9</ele>
        <time>2018-07-22T13:10:02Z</time>
      </trkpt>
      <trkpt lat="44.50036" lon="0.68886">
        <ele>116.7</ele>
        <time>2018-07-22T13:10:04Z</time>
      </trkpt>
      <trkpt lat="44.50036" lon="0.68891">
        <ele>116.6</ele>
        <time>2018-07-22T13:10:06Z</time>
      </trkpt>
      <trkpt lat="44.50036" lon="0.68896">
        <ele>116.5</ele>
        <time>2018-07-22T13:10:08Z</time>
      </trkpt>
      <trkpt lat="44.50035" lon="0.68901">
        <ele>116.4</ele>
        <time>2018-07-22T13:10:10Z</time>
      </trkpt>
      <trkpt lat="44.50034" lon="0.68905">
        <ele>116.3</ele>
        <time>2018-07-22T13:10:12Z</time>
      </trkpt>
      <trkpt lat="44.50032" lon="0.68909">
        <ele>116.2</ele>
        <time>2018-07-22T13:10:14Z</time>
      </trkpt>
      <trkpt lat="44.50031" lon="0.68914">
        <ele>116.1</ele>
        <time>2018-07-22T13:10:16Z</time>
      </trkpt>
      <trkpt lat="44.5003" lon="0.68918">
        <ele>116</ele>
        <time>2018-07-22T13:10:18Z</time>
      </trkpt>
      <trkpt lat="44.50028" lon="0.68922">
        <ele>115.9</ele>
        <time>2018-07-22T13:10:20Z</time>
      </trkpt>
      <trkpt lat="44.50028" lon="0.68926">
        <ele>115.9</ele>
        <time>2018-07-22T13:10:22Z</time>
      </trkpt>
      <trkpt lat="44.50028" lon="0.6893">
        <ele>115.8</ele>
        <time>2018-07-22T13:10:24Z</time>
      </trkpt>
      <trkpt lat="44.50027" lon="0.68934">
        <ele>115.7</ele>
        <time>2018-07-22T13:10:26Z</time>
      </trkpt>
      <trkpt lat="44.50027" lon="0.68938">
        <ele>115.6</ele>
        <time>2018-07-22T13:10:28Z</time>
      </trkpt>
      <trkpt lat="44.50027" lon="0.68942">
        <ele>115.5</ele>
        <time>2018-07-22T13:10:30Z</time>
      </trkpt>
      <trkpt lat="44.50027" lon="0.68947">
        <ele>115.4</ele>
        <time>2018-07-22T13:10:32Z</time>
      </trkpt>
      <trkpt lat="44.50026" lon="0.68952">
        <ele>115.3</ele>
        <time>2018-07-22T13:10:34Z</time>
      </trkpt>
      <trkpt lat="44.50026" lon="0.68956">
        <ele>115.2</ele>
        <time>2018-07-22T13:10:36Z</time>
      </trkpt>
      <trkpt lat="44.50025" lon="0.68961">
        <ele>115.1</ele>
        <time>2018-07-22T13:10:38Z</time>
      </trkpt>
      <trkpt lat="44.50025" lon="0.68965">
        <ele>115.1</ele>
        <time>2018-07-22T13:10:40Z</time>
      </trkpt>
      <trkpt lat="44.50025" lon="0.68969">
        <ele>115</ele>
        <time>2018-07-22T13:10:42Z</time>
      </trkpt>
      <trkpt lat="44.50024" lon="0.68974">
        <ele>114.9</ele>
        <time>2018-07-22T13:10:44Z</time>
      </trkpt>
      <trkpt lat="44.50023" lon="0.68978">
        <ele>114.7</ele>
        <time>2018-07-22T13:10:46Z</time>
      </trkpt>
      <trkpt lat="44.50022" lon="0.68982">
        <ele>114.5</ele>
        <time>2018-07-22T13:10:48Z</time>
      </trkpt>
      <trkpt lat="44.50022" lon="0.68986">
        <ele>114.3</ele>
        <time>2018-07-22T13:10:50Z</time>
      </trkpt>
      <trkpt lat="44.50021" lon="0.6899">
        <ele>114.2</ele>
        <time>2018-07-22T13:10:52Z</time>
      </trkpt>
      <trkpt lat="44.50021" lon="0.68995">
        <ele>114</ele>
        <time>2018-07-22T13:10:54Z</time>
      </trkpt>
      <trkpt lat="44.50021" lon="0.68999">
        <ele>113.8</ele>
        <time>2018-07-22T13:10:56Z</time>
      </trkpt>
      <trkpt lat="44.5002" lon="0.69004">
        <ele>113.6</ele>
        <time>2018-07-22T13:10:58Z</time>
      </trkpt>
      <trkpt lat="44.5002" lon="0.69008">
        <ele>113.5</ele>
        <time>2018-07-22T13:11:00Z</time>
      </trkpt>
      <trkpt lat="44.5002" lon="0.69012">
        <ele>113.3</ele>
        <time>2018-07-22T13:11:02Z</time>
      </trkpt>
      <trkpt lat="44.50019" lon="0.69017">
        <ele>113.1</ele>
        <time>2018-07-22T13:11:04Z</time>
      </trkpt>
      <trkpt lat="44.50019" lon="0.69021">
        <ele>113</ele>
        <time>2018-07-22T13:11:06Z</time>
      </trkpt>
      <trkpt lat="44.50019" lon="0.69026">
        <ele>112.8</ele>
        <time>2018-07-22T13:11:08Z</time>
      </trkpt>
      <trkpt lat="44.50019" lon="0.6903">
        <ele>112.6</ele>
        <time>2018-07-22T13:11:10Z</time>
      </trkpt>
      <trkpt lat="44.50019" lon="0.69034">
        <ele>112.5</ele>
        <time>2018-07-22T13:11:12Z</time>
      </trkpt>
      <trkpt lat="44.50018" lon="0.69039">
        <ele>112.5</ele>
        <time>2018-07-22T13:11:14Z</time>
      </trkpt>
      <trkpt lat="44.50018" lon="0.69044">
        <ele>112.4</ele>
        <time>2018-07-22T13:11:16Z</time>
      </trkpt>
      <trkpt lat="44.50017" lon="0.69048">
        <ele>112.4</ele>
        <time>2018-07-22T13:11:18Z</time>
      </trkpt>
      <trkpt lat="44.50016" lon="0.69053">
        <ele>112.3</ele>
        <time>2018-07-22T13:11:20Z</time>
      </trkpt>
      <trkpt lat="44.50016" lon="0.69057">
        <ele>112.2</ele>
        <time>2018-07-22T13:11:22Z</time>
      </trkpt>
      <trkpt lat="44.50015" lon="0.69062">
        <ele>112.2</ele>
        <time>2018-07-22T13:11:24Z</time>
      </trkpt>
      <trkpt lat="44.50014" lon="0.69066">
        <ele>112.1</ele>
        <time>2018-07-22T13:11:26Z</time>
      </trkpt>
      <trkpt lat="44.50014" lon="0.69071">
        <ele>112.1</ele>
        <time>2018-07-22T13:11:28Z</time>
      </trkpt>
      <trkpt lat="44.50013" lon="0.69076">
        <ele>112</ele>
        <time>2018-07-22T13:11:30Z</time>
      </trkpt>
      <trkpt lat="44.50011" lon="0.69081">
        <ele>111.9</ele>
        <time>2018-07-22T13:11:32Z</time>
      </trkpt>
      <trkpt lat="44.50011" lon="0.69085">
        <ele>111.9</ele>
        <time>2018-07-22T13:11:34Z</time>
      </trkpt>
      <trkpt lat="44.5001" lon="0.69089">
        <ele>111.8</ele>
        <time>2018-07-22T13:11:36Z</time>
      </trkpt>
      <trkpt lat="44.5001" lon="0.69093">
        <ele>111.8</ele>
        <time>2018-07-22T13:11:38Z</time>
      </trkpt>
      <trkpt lat="44.5001" lon="0.69097">
        <ele>111.7</ele>
        <time>2018-07-22T13:11:40Z</time>
      </trkpt>
      <trkpt lat="44.50009" lon="0.69102">
        <ele>111.7</ele>
        <time>2018-07-22T13:11:42Z</time>
      </trkpt>
      <trkpt lat="44.50009" lon="0.69106">
        <ele>111.6</ele>
        <time>2018-07-22T13:11:44Z</time>
      </trkpt>
      <trkpt lat="44.50009" lon="0.6911">
        <ele>111.6</ele>
        <time>2018-07-22T13:11:46Z</time>
      </trkpt>
      <trkpt lat="44.5001" lon="0.69114">
        <ele>111.5</ele>
        <time>2018-07-22T13:11:48Z</time>
      </trkpt>
      <trkpt lat="44.5001" lon="0.69118">
        <ele>111.5</ele>
        <time>2018-07-22T13:11:50Z</time>
      </trkpt>
      <trkpt lat="44.5001" lon="0.69122">
        <ele>111.4</ele>
        <time>2018-07-22T13:11:52Z</time>
      </trkpt>
      <trkpt lat="44.5001" lon="0.69126">
        <ele>111.2</ele>
        <time>2018-07-22T13:11:54Z</time>
      </trkpt>
      <trkpt lat="44.5001" lon="0.69131">
        <ele>111.1</ele>
        <time>2018-07-22T13:11:56Z</time>
      </trkpt>
      <trkpt lat="44.50011" lon="0.69135">
        <ele>110.9</ele>
        <time>2018-07-22T13:11:58Z</time>
      </trkpt>
      <trkpt lat="44.50011" lon="0.69139">
        <ele>110.7</ele>
        <time>2018-07-22T13:12:00Z</time>
      </trkpt>
      <trkpt lat="44.50011" lon="0.69144">
        <ele>110.6</ele>
        <time>2018-07-22T13:12:02Z</time>
      </trkpt>
      <trkpt lat="44.50011" lon="0.69148">
        <ele>110.4</ele>
        <time>2018-07-22T13:12:04Z</time>
      </trkpt>
      <trkpt lat="44.50012" lon="0.69153">
        <ele>110.2</ele>
        <time>2018-07-22T13:12:06Z</time>
      </trkpt>
      <trkpt lat="44.50013" lon="0.69157">
        <ele>110</ele>
        <time>2018-07-22T13:12:08Z</time>
      </trkpt>
      <trkpt lat="44.50013" lon="0.69161">
        <ele>109.8</ele>
        <time>2018-07-22T13:12:10Z</time>
      </trkpt>
      <trkpt lat="44.50014" lon="0.69164">
        <ele>109.6</ele>
        <time>2018-07-22T13:12:12Z</time>
      </trkpt>
      <trkpt lat="44.50015" lon="0.69168">
        <ele>109.4</ele>
        <time>2018-07-22T13:12:14Z</time>
      </trkpt>
      <trkpt lat="44.50016" lon="0.69173">
        <ele>109.2</ele>
        <time>2018-07-22T13:12:16Z</time>
      </trkpt>
      <trkpt lat="44.50017" lon="0.69176">
        <ele>109.1</ele>
        <time>2018-07-22T13:12:18Z</time>
      </trkpt>
      <trkpt lat="44.50018" lon="0.69181">
        <ele>108.9</ele>
        <time>2018-07-22T13:12:20Z</time>
      </trkpt>
      <trkpt lat="44.50019" lon="0.69185">
        <ele>108.7</ele>
        <time>2018-07-22T13:12:22Z</time>
      </trkpt>
      <trkpt lat="44.5002" lon="0.69189">
        <ele>108.5</ele>
        <time>2018-07-22T13:12:24Z</time>
      </trkpt>
      <trkpt lat="44.50022" lon="0.69193">
        <ele>108.3</ele>
        <time>2018-07-22T13:12:26Z</time>
      </trkpt>
      <trkpt lat="44.50023" lon="0.69198">
        <ele>108.1</ele>
        <time>2018-07-22T13:12:28Z</time>
      </trkpt>
      <trkpt lat="44.50025" lon="0.69202">
        <ele>108</ele>
        <time>2018-07-22T13:12:30Z</time>
      </trkpt>
      <trkpt lat="44.50026" lon="0.69206">
        <ele>107.8</ele>
        <time>2018-07-22T13:12:32Z</time>
      </trkpt>
      <trkpt lat="44.50028" lon="0.6921">
        <ele>107.7</ele>
        <time>2018-07-22T13:12:34Z</time>
      </trkpt>
      <trkpt lat="44.50029" lon="0.69215">
        <ele>107.7</ele>
        <time>2018-07-22T13:12:36Z</time>
      </trkpt>
      <trkpt lat="44.50031" lon="0.69219">
        <ele>107.6</ele>
        <time>2018-07-22T13:12:38Z</time>
      </trkpt>
      <trkpt lat="44.50032" lon="0.69223">
        <ele>107.5</ele>
        <time>2018-07-22T13:12:40Z</time>
      </trkpt>
      <trkpt lat="44.50034" lon="0.69226">
        <ele>107.5</ele>
        <time>2018-07-22T13:12:42Z</time>
      </trkpt>
      <trkpt lat="44.50036" lon="0.6923">
        <ele>107.4</ele>
        <time>2018-07-22T13:12:44Z</time>
      </trkpt>
      <trkpt lat="44.50038" lon="0.69233">
        <ele>107.3</ele>
        <time>2018-07-22T13:12:46Z</time>
      </trkpt>
      <trkpt lat="44.5004" lon="0.69236">
        <ele>107.3</ele>
        <time>2018-07-22T13:12:48Z</time>
      </trkpt>
      <trkpt lat="44.50041" lon="0.6924">
        <ele>107.2</ele>
        <time>2018-07-22T13:12:50Z</time>
      </trkpt>
      <trkpt lat="44.50043" lon="0.69244">
        <ele>107.1</ele>
        <time>2018-07-22T13:12:52Z</time>
      </trkpt>
      <trkpt lat="44.50045" lon="0.69248">
        <ele>107.1</ele>
        <time>2018-07-22T13:12:54Z</time>
      </trkpt>
      <trkpt lat="44.50046" lon="0.69252">
        <ele>107</ele>
        <time>2018-07-22T13:12:56Z</time>
      </trkpt>
      <trkpt lat="44.50048" lon="0.69256">
        <ele>107</ele>
        <time>2018-07-22T13:12:58Z</time>
      </trkpt>
      <trkpt lat="44.5005" lon="0.69259">
        <ele>107</ele>
        <time>2018-07-22T13:13:00Z</time>
      </trkpt>
      <trkpt lat="44.50051" lon="0.69264">
        <ele>106.9</ele>
        <time>2018-07-22T13:13:02Z</time>
      </trkpt>
      <trkpt lat="44.50052" lon="0.69268">
        <ele>106.9</ele>
        <time>2018-07-22T13:13:04Z</time>
      </trkpt>
      <trkpt lat="44.50053" lon="0.69272">
        <ele>106.8</ele>
        <time>2018-07-22T13:13:06Z</time>
      </trkpt>
      <trkpt lat="44.50054" lon="0.69276">
        <ele>106.8</ele>
        <time>2018-07-22T13:13:08Z</time>
      </trkpt>
      <trkpt lat="44.50056" lon="0.69279">
        <ele>106.7</ele>
        <time>2018-07-22T13:13:10Z</time>
      </trkpt>
      <trkpt lat="44.50058" lon="0.69283">
        <ele>106.7</ele>
        <time>2018-07-22T13:13:13Z</time>
      </trkpt>
      <trkpt lat="44.50059" lon="0.69287">
        <ele>106.7</ele>
        <time>2018-07-22T13:13:15Z</time>
      </trkpt>
      <trkpt lat="44.50061" lon="0.69291">
        <ele>106.6</ele>
        <time>2018-07-22T13:13:18Z</time>
      </trkpt>
      <trkpt lat="44.50063" lon="0.69296">
        <ele>106.6</ele>
        <time>2018-07-22T13:13:21Z</time>
      </trkpt>
      <trkpt lat="44.50063" lon="0.693">
        <ele>106.5</ele>
        <time>2018-07-22T13:13:23Z</time>
      </trkpt>
      <trkpt lat="44.50064" lon="0.69306">
        <ele>106.5</ele>
        <time>2018-07-22T13:13:26Z</time>
      </trkpt>
      <trkpt lat="44.50065" lon="0.6931">
        <ele>106.4</ele>
        <time>2018-07-22T13:13:28Z</time>
      </trkpt>
      <trkpt lat="44.50065" lon="0.69315">
        <ele>106.4</ele>
        <time>2018-07-22T13:13:30Z</time>
      </trkpt>
      <trkpt lat="44.50067" lon="0.6932">
        <ele>106.3</ele>
        <time>2018-07-22T13:13:33Z</time>
      </trkpt>
      <trkpt lat="44.50069" lon="0.69324">
        <ele>106.3</ele>
        <time>2018-07-22T13:13:35Z</time>
      </trkpt>
      <trkpt lat="44.5007" lon="0.69328">
        <ele>106.2</ele>
        <time>2018-07-22T13:13:37Z</time>
      </trkpt>
      <trkpt lat="44.50073" lon="0.69331">
        <ele>106.2</ele>
        <time>2018-07-22T13:13:39Z</time>
      </trkpt>
      <trkpt lat="44.50077" lon="0.69332">
        <ele>106</ele>
        <time>2018-07-22T13:13:41Z</time>
      </trkpt>
      <trkpt lat="44.50081" lon="0.69333">
        <ele>105.9</ele>
        <time>2018-07-22T13:13:43Z</time>
      </trkpt>
      <trkpt lat="44.50085" lon="0.69334">
        <ele>105.8</ele>
        <time>2018-07-22T13:13:45Z</time>
      </trkpt>
      <trkpt lat="44.50089" lon="0.69334">
        <ele>105.7</ele>
        <time>2018-07-22T13:13:47Z</time>
      </trkpt>
      <trkpt lat="44.50093" lon="0.69333">
        <ele>105.2</ele>
        <time>2018-07-22T13:13:49Z</time>
      </trkpt>
      <trkpt lat="44.50097" lon="0.69332">
        <ele>104.7</ele>
        <time>2018-07-22T13:13:51Z</time>
      </trkpt>
      <trkpt lat="44.50101" lon="0.6933">
        <ele>104.5</ele>
        <time>2018-07-22T13:13:53Z</time>
      </trkpt>
      <trkpt lat="44.50104" lon="0.69326">
        <ele>103.4</ele>
        <time>2018-07-22T13:13:55Z</time>
      </trkpt>
      <trkpt lat="44.50107" lon="0.69323">
        <ele>103.1</ele>
        <time>2018-07-22T13:13:57Z</time>
      </trkpt>
      <trkpt lat="44.5011" lon="0.69319">
        <ele>102.7</ele>
        <time>2018-07-22T13:13:59Z</time>
      </trkpt>
      <trkpt lat="44.50113" lon="0.69315">
        <ele>102.3</ele>
        <time>2018-07-22T13:14:01Z</time>
      </trkpt>
      <trkpt lat="44.50115" lon="0.69312">
        <ele>102.5</ele>
        <time>2018-07-22T13:14:03Z</time>
      </trkpt>
      <trkpt lat="44.50118" lon="0.69308">
        <ele>101.9</ele>
        <time>2018-07-22T13:14:05Z</time>
      </trkpt>
      <trkpt lat="44.5012" lon="0.69305">
        <ele>101.4</ele>
        <time>2018-07-22T13:14:07Z</time>
      </trkpt>
      <trkpt lat="44.50122" lon="0.69301">
        <ele>101</ele>
        <time>2018-07-22T13:14:09Z</time>
      </trkpt>
      <trkpt lat="44.50124" lon="0.69298">
        <ele>101.2</ele>
        <time>2018-07-22T13:14:11Z</time>
      </trkpt>
      <trkpt lat="44.50127" lon="0.69295">
        <ele>100.9</ele>
        <time>2018-07-22T13:14:13Z</time>
      </trkpt>
      <trkpt lat="44.50129" lon="0.69292">
        <ele>100.5</ele>
        <time>2018-07-22T13:14:15Z</time>
      </trkpt>
      <trkpt lat="44.50132" lon="0.6929">
        <ele>100.3</ele>
        <time>2018-07-22T13:14:17Z</time>
      </trkpt>
      <trkpt lat="44.50136" lon="0.69289">
        <ele>99.9</ele>
        <time>2018-07-22T13:14:20Z</time>
      </trkpt>
      <trkpt lat="44.50139" lon="0.69289">
        <ele>99.5</ele>
        <time>2018-07-22T13:14:22Z</time>
      </trkpt>
      <trkpt lat="44.50142" lon="0.69291">
        <ele>99.1</ele>
        <time>2018-07-22T13:14:24Z</time>
      </trkpt>
      <trkpt lat="44.50145" lon="0.69293">
        <ele>98.4</ele>
        <time>2018-07-22T13:14:26Z</time>
      </trkpt>
      <trkpt lat="44.50147" lon="0.69295">
        <ele>98</ele>
        <time>2018-07-22T13:14:28Z</time>
      </trkpt>
      <trkpt lat="44.5015" lon="0.69297">
        <ele>97.4</ele>
        <time>2018-07-22T13:14:30Z</time>
      </trkpt>
      <trkpt lat="44.50153" lon="0.69299">
        <ele>97</ele>
        <time>2018-07-22T13:14:32Z</time>
      </trkpt>
      <trkpt lat="44.50155" lon="0.69301">
        <ele>96.7</ele>
        <time>2018-07-22T13:14:34Z</time>
      </trkpt>
      <trkpt lat="44.50158" lon="0.69304">
        <ele>96</ele>
        <time>2018-07-22T13:14:36Z</time>
      </trkpt>
      <trkpt lat="44.50161" lon="0.69306">
        <ele>95.5</ele>
        <time>2018-07-22T13:14:38Z</time>
      </trkpt>
      <trkpt lat="44.50163" lon="0.69308">
        <ele>94.7</ele>
        <time>2018-07-22T13:14:40Z</time>
      </trkpt>
      <trkpt lat="44.50166" lon="0.6931">
        <ele>94.2</ele>
        <time>2018-07-22T13:14:42Z</time>
      </trkpt>
      <trkpt lat="44.50169" lon="0.69313">
        <ele>93.5</ele>
        <time>2018-07-22T13:14:44Z</time>
      </trkpt>
      <trkpt lat="44.50171" lon="0.69315">
        <ele>93</ele>
        <time>2018-07-22T13:14:46Z</time>
      </trkpt>
      <trkpt lat="44.50174" lon="0.69317">
        <ele>92.8</ele>
        <time>2018-07-22T13:14:48Z</time>
      </trkpt>
      <trkpt lat="44.50176" lon="0.6932">
        <ele>92.4</ele>
        <time>2018-07-22T13:14:50Z</time>
      </trkpt>
      <trkpt lat="44.50179" lon="0.69322">
        <ele>91.8</ele>
        <time>2018-07-22T13:14:52Z</time>
      </trkpt>
      <trkpt lat="44.50181" lon="0.69325">
        <ele>91.4</ele>
        <time>2018-07-22T13:14:54Z</time>
      </trkpt>
      <trkpt lat="44.50184" lon="0.69328">
        <ele>91</ele>
        <time>2018-07-22T13:14:56Z</time>
      </trkpt>
      <trkpt lat="44.50186" lon="0.69331">
        <ele>90.7</ele>
        <time>2018-07-22T13:14:58Z</time>
      </trkpt>
      <trkpt lat="44.50189" lon="0.69333">
        <ele>90.4</ele>
        <time>2018-07-22T13:15:00Z</time>
      </trkpt>
      <trkpt lat="44.50192" lon="0.69336">
        <ele>89.9</ele>
        <time>2018-07-22T13:15:02Z</time>
      </trkpt>
      <trkpt lat="44.50194" lon="0.69339">
        <ele>89.4</ele>
        <time>2018-07-22T13:15:04Z</time>
      </trkpt>
      <trkpt lat="44.50197" lon="0.69341">
        <ele>89.1</ele>
        <time>2018-07-22T13:15:06Z</time>
      </trkpt>
      <trkpt lat="44.502" lon="0.69344">
        <ele>88.7</ele>
        <time>2018-07-22T13:15:08Z</time>
      </trkpt>
      <trkpt lat="44.50203" lon="0.69346">
        <ele>88.6</ele>
        <time>2018-07-22T13:15:10Z</time>
      </trkpt>
      <trkpt lat="44.50206" lon="0.69348">
        <ele>88.3</ele>
        <time>2018-07-22T13:15:12Z</time>
      </trkpt>
      <trkpt lat="44.50208" lon="0.69351">
        <ele>88.1</ele>
        <time>2018-07-22T13:15:14Z</time>
      </trkpt>
      <trkpt lat="44.50211" lon="0.69354">
        <ele>87.9</ele>
        <time>2018-07-22T13:15:16Z</time>
      </trkpt>
      <trkpt lat="44.50214" lon="0.69356">
        <ele>87.7</ele>
        <time>2018-07-22T13:15:18Z</time>
      </trkpt>
      <trkpt lat="44.50217" lon="0.69358">
        <ele>87.6</ele>
        <time>2018-07-22T13:15:20Z</time>
      </trkpt>
      <trkpt lat="44.5022" lon="0.69361">
        <ele>87.5</ele>
        <time>2018-07-22T13:15:22Z</time>
      </trkpt>
      <trkpt lat="44.50222" lon="0.69363">
        <ele>87.5</ele>
        <time>2018-07-22T13:15:24Z</time>
      </trkpt>
      <trkpt lat="44.50225" lon="0.69366">
        <ele>87.4</ele>
        <time>2018-07-22T13:15:26Z</time>
      </trkpt>
      <trkpt lat="44.50228" lon="0.69368">
        <ele>87.3</ele>
        <time>2018-07-22T13:15:28Z</time>
      </trkpt>
      <trkpt lat="44.5023" lon="0.69371">
        <ele>87.3</ele>
        <time>2018-07-22T13:15:30Z</time>
      </trkpt>
      <trkpt lat="44.50233" lon="0.69374">
        <ele>87.3</ele>
        <time>2018-07-22T13:15:32Z</time>
      </trkpt>
      <trkpt lat="44.50235" lon="0.69376">
        <ele>87.3</ele>
        <time>2018-07-22T13:15:34Z</time>
      </trkpt>
      <trkpt lat="44.50238" lon="0.69379">
        <ele>87.3</ele>
        <time>2018-07-22T13:15:36Z</time>
      </trkpt>
      <trkpt lat="44.5024" lon="0.69381">
        <ele>87.3</ele>
        <time>2018-07-22T13:15:38Z</time>
      </trkpt>
      <trkpt lat="44.50242" lon="0.69383">
        <ele>87.3</ele>
        <time>2018-07-22T13:15:40Z</time>
      </trkpt>
      <trkpt lat="44.50245" lon="0.69385">
        <ele>87.4</ele>
        <time>2018-07-22T13:15:42Z</time>
      </trkpt>
      <trkpt lat="44.50248" lon="0.69387">
        <ele>87.4</ele>
        <time>2018-07-22T13:15:44Z</time>
      </trkpt>
      <trkpt lat="44.5025" lon="0.69389">
        <ele>87.4</ele>
        <time>2018-07-22T13:15:46Z</time>
      </trkpt>
      <trkpt lat="44.50253" lon="0.69391">
        <ele>87.4</ele>
        <time>2018-07-22T13:15:48Z</time>
      </trkpt>
      <trkpt lat="44.50256" lon="0.69393">
        <ele>87.5</ele>
        <time>2018-07-22T13:15:50Z</time>
      </trkpt>
      <trkpt lat="44.50259" lon="0.69394">
        <ele>87.6</ele>
        <time>2018-07-22T13:15:52Z</time>
      </trkpt>
      <trkpt lat="44.50262" lon="0.69396">
        <ele>87.7</ele>
        <time>2018-07-22T13:15:54Z</time>
      </trkpt>
      <trkpt lat="44.50265" lon="0.69397">
        <ele>87.9</ele>
        <time>2018-07-22T13:15:56Z</time>
      </trkpt>
      <trkpt lat="44.50268" lon="0.69399">
        <ele>88</ele>
        <time>2018-07-22T13:15:58Z</time>
      </trkpt>
      <trkpt lat="44.50271" lon="0.694">
        <ele>88.2</ele>
        <time>2018-07-22T13:16:00Z</time>
      </trkpt>
      <trkpt lat="44.50274" lon="0.69402">
        <ele>88.4</ele>
        <time>2018-07-22T13:16:02Z</time>
      </trkpt>
      <trkpt lat="44.50276" lon="0.69404">
        <ele>88.6</ele>
        <time>2018-07-22T13:16:04Z</time>
      </trkpt>
      <trkpt lat="44.50279" lon="0.69406">
        <ele>88.9</ele>
        <time>2018-07-22T13:16:06Z</time>
      </trkpt>
      <trkpt lat="44.50281" lon="0.69408">
        <ele>89.1</ele>
        <time>2018-07-22T13:16:08Z</time>
      </trkpt>
      <trkpt lat="44.50284" lon="0.6941">
        <ele>89.1</ele>
        <time>2018-07-22T13:16:10Z</time>
      </trkpt>
      <trkpt lat="44.50287" lon="0.69412">
        <ele>89.3</ele>
        <time>2018-07-22T13:16:12Z</time>
      </trkpt>
      <trkpt lat="44.50289" lon="0.69414">
        <ele>89.5</ele>
        <time>2018-07-22T13:16:14Z</time>
      </trkpt>
      <trkpt lat="44.50292" lon="0.69416">
        <ele>89.7</ele>
        <time>2018-07-22T13:16:16Z</time>
      </trkpt>
      <trkpt lat="44.50296" lon="0.69418">
        <ele>90</ele>
        <time>2018-07-22T13:16:19Z</time>
      </trkpt>
      <trkpt lat="44.50299" lon="0.6942">
        <ele>90.2</ele>
        <time>2018-07-22T13:16:21Z</time>
      </trkpt>
      <trkpt lat="44.50301" lon="0.69421">
        <ele>90.4</ele>
        <time>2018-07-22T13:16:23Z</time>
      </trkpt>
      <trkpt lat="44.50304" lon="0.69423">
        <ele>90.7</ele>
        <time>2018-07-22T13:16:25Z</time>
      </trkpt>
      <trkpt lat="44.50306" lon="0.69425">
        <ele>90.9</ele>
        <time>2018-07-22T13:16:27Z</time>
      </trkpt>
      <trkpt lat="44.50309" lon="0.69426">
        <ele>91.2</ele>
        <time>2018-07-22T13:16:29Z</time>
      </trkpt>
      <trkpt lat="44.50311" lon="0.69428">
        <ele>91.2</ele>
        <time>2018-07-22T13:16:31Z</time>
      </trkpt>
      <trkpt lat="44.50314" lon="0.6943">
        <ele>91.4</ele>
        <time>2018-07-22T13:16:33Z</time>
      </trkpt>
      <trkpt lat="44.50316" lon="0.69432">
        <ele>91.7</ele>
        <time>2018-07-22T13:16:35Z</time>
      </trkpt>
      <trkpt lat="44.50319" lon="0.69434">
        <ele>92</ele>
        <time>2018-07-22T13:16:37Z</time>
      </trkpt>
      <trkpt lat="44.50321" lon="0.69436">
        <ele>92.3</ele>
        <time>2018-07-22T13:16:39Z</time>
      </trkpt>
      <trkpt lat="44.50324" lon="0.69438">
        <ele>92.3</ele>
        <time>2018-07-22T13:16:41Z</time>
      </trkpt>
      <trkpt lat="44.50326" lon="0.69439">
        <ele>92.6</ele>
        <time>2018-07-22T13:16:43Z</time>
      </trkpt>
      <trkpt lat="44.50329" lon="0.69441">
        <ele>92.9</ele>
        <time>2018-07-22T13:16:45Z</time>
      </trkpt>
      <trkpt lat="44.50331" lon="0.69443">
        <ele>93.2</ele>
        <time>2018-07-22T13:16:47Z</time>
      </trkpt>
      <trkpt lat="44.50334" lon="0.69445">
        <ele>93.6</ele>
        <time>2018-07-22T13:16:49Z</time>
      </trkpt>
      <trkpt lat="44.50336" lon="0.69446">
        <ele>93.6</ele>
        <time>2018-07-22T13:16:51Z</time>
      </trkpt>
      <trkpt lat="44.5034" lon="0.69449">
        <ele>94.4</ele>
        <time>2018-07-22T13:16:54Z</time>
      </trkpt>
      <trkpt lat="44.50343" lon="0.69452">
        <ele>94.8</ele>
        <time>2018-07-22T13:16:57Z</time>
      </trkpt>
      <trkpt lat="44.50345" lon="0.69453">
        <ele>95.2</ele>
        <time>2018-07-22T13:16:59Z</time>
      </trkpt>
      <trkpt lat="44.50349" lon="0.69456">
        <ele>95.5</ele>
        <time>2018-07-22T13:17:02Z</time>
      </trkpt>
      <trkpt lat="44.50352" lon="0.69459">
        <ele>95.9</ele>
        <time>2018-07-22T13:17:05Z</time>
      </trkpt>
      <trkpt lat="44.50355" lon="0.6946">
        <ele>96.3</ele>
        <time>2018-07-22T13:17:07Z</time>
      </trkpt>
      <trkpt lat="44.50358" lon="0.69463">
        <ele>96.7</ele>
        <time>2018-07-22T13:17:10Z</time>
      </trkpt>
      <trkpt lat="44.50361" lon="0.69464">
        <ele>97</ele>
        <time>2018-07-22T13:17:12Z</time>
      </trkpt>
      <trkpt lat="44.50364" lon="0.69467">
        <ele>97.4</ele>
        <time>2018-07-22T13:17:15Z</time>
      </trkpt>
      <trkpt lat="44.50367" lon="0.6947">
        <ele>97.7</ele>
        <time>2018-07-22T13:17:18Z</time>
      </trkpt>
      <trkpt lat="44.50371" lon="0.69472">
        <ele>97.9</ele>
        <time>2018-07-22T13:17:21Z</time>
      </trkpt>
      <trkpt lat="44.50374" lon="0.69474">
        <ele>98.1</ele>
        <time>2018-07-22T13:17:24Z</time>
      </trkpt>
      <trkpt lat="44.50377" lon="0.69477">
        <ele>98.3</ele>
        <time>2018-07-22T13:17:27Z</time>
      </trkpt>
      <trkpt lat="44.5038" lon="0.69479">
        <ele>98.5</ele>
        <time>2018-07-22T13:17:30Z</time>
      </trkpt>
      <trkpt lat="44.50384" lon="0.6948">
        <ele>98.6</ele>
        <time>2018-07-22T13:17:33Z</time>
      </trkpt>
      <trkpt lat="44.50387" lon="0.69482">
        <ele>98.8</ele>
        <time>2018-07-22T13:17:36Z</time>
      </trkpt>
      <trkpt lat="44.50389" lon="0.69483">
        <ele>99</ele>
        <time>2018-07-22T13:17:38Z</time>
      </trkpt>
      <trkpt lat="44.50393" lon="0.69486">
        <ele>99</ele>
        <time>2018-07-22T13:17:41Z</time>
      </trkpt>
      <trkpt lat="44.50395" lon="0.69487">
        <ele>99.2</ele>
        <time>2018-07-22T13:17:43Z</time>
      </trkpt>
      <trkpt lat="44.50398" lon="0.69489">
        <ele>99.3</ele>
        <time>2018-07-22T13:17:45Z</time>
      </trkpt>
      <trkpt lat="44.50401" lon="0.6949">
        <ele>99.3</ele>
        <time>2018-07-22T13:17:47Z</time>
      </trkpt>
      <trkpt lat="44.50404" lon="0.69491">
        <ele>99.5</ele>
        <time>2018-07-22T13:17:50Z</time>
      </trkpt>
      <trkpt lat="44.50407" lon="0.69493">
        <ele>99.5</ele>
        <time>2018-07-22T13:17:52Z</time>
      </trkpt>
      <trkpt lat="44.5041" lon="0.69496">
        <ele>99.7</ele>
        <time>2018-07-22T13:17:55Z</time>
      </trkpt>
      <trkpt lat="44.50413" lon="0.69499">
        <ele>99.6</ele>
        <time>2018-07-22T13:17:58Z</time>
      </trkpt>
      <trkpt lat="44.50414" lon="0.69503">
        <ele>99.7</ele>
        <time>2018-07-22T13:18:01Z</time>
      </trkpt>
      <trkpt lat="44.50416" lon="0.69507">
        <ele>99.8</ele>
        <time>2018-07-22T13:18:04Z</time>
      </trkpt>
      <trkpt lat="44.50418" lon="0.69509">
        <ele>99.8</ele>
        <time>2018-07-22T13:18:06Z</time>
      </trkpt>
      <trkpt lat="44.50421" lon="0.69512">
        <ele>100</ele>
        <time>2018-07-22T13:18:09Z</time>
      </trkpt>
      <trkpt lat="44.50426" lon="0.69511">
        <ele>100.3</ele>
        <time>2018-07-22T13:20:40Z</time>
      </trkpt>
      <trkpt lat="44.50428" lon="0.69507">
        <ele>100.6</ele>
        <time>2018-07-22T13:20:42Z</time>
      </trkpt>
      <trkpt lat="44.50432" lon="0.69507">
        <ele>100.8</ele>
        <time>2018-07-22T13:20:44Z</time>
      </trkpt>
      <trkpt lat="44.50435" lon="0.69509">
        <ele>101</ele>
        <time>2018-07-22T13:20:46Z</time>
      </trkpt>
      <trkpt lat="44.50437" lon="0.69512">
        <ele>101.2</ele>
        <time>2018-07-22T13:20:48Z</time>
      </trkpt>
      <trkpt lat="44.50441" lon="0.69515">
        <ele>101.4</ele>
        <time>2018-07-22T13:20:50Z</time>
      </trkpt>
      <trkpt lat="44.50445" lon="0.69517">
        <ele>101.6</ele>
        <time>2018-07-22T13:20:52Z</time>
      </trkpt>
      <trkpt lat="44.50449" lon="0.69519">
        <ele>101.8</ele>
        <time>2018-07-22T13:20:54Z</time>
      </trkpt>
      <trkpt lat="44.50452" lon="0.6952">
        <ele>102</ele>
        <time>2018-07-22T13:20:57Z</time>
      </trkpt>
      <trkpt lat="44.50456" lon="0.69522">
        <ele>102.4</ele>
        <time>2018-07-22T13:21:00Z</time>
      </trkpt>
      <trkpt lat="44.50459" lon="0.69524">
        <ele>102.5</ele>
        <time>2018-07-22T13:21:02Z</time>
      </trkpt>
      <trkpt lat="44.50462" lon="0.69526">
        <ele>102.7</ele>
        <time>2018-07-22T13:21:04Z</time>
      </trkpt>
      <trkpt lat="44.50465" lon="0.69527">
        <ele>102.7</ele>
        <time>2018-07-22T13:21:06Z</time>
      </trkpt>
      <trkpt lat="44.50467" lon="0.69529">
        <ele>102.9</ele>
        <time>2018-07-22T13:21:08Z</time>
      </trkpt>
      <trkpt lat="44.5047" lon="0.6953">
        <ele>103.1</ele>
        <time>2018-07-22T13:21:10Z</time>
      </trkpt>
      <trkpt lat="44.50473" lon="0.69532">
        <ele>103.3</ele>
        <time>2018-07-22T13:21:12Z</time>
      </trkpt>
      <trkpt lat="44.50476" lon="0.69534">
        <ele>103.6</ele>
        <time>2018-07-22T13:21:14Z</time>
      </trkpt>
      <trkpt lat="44.50479" lon="0.69536">
        <ele>103.8</ele>
        <time>2018-07-22T13:21:16Z</time>
      </trkpt>
      <trkpt lat="44.50482" lon="0.69537">
        <ele>104</ele>
        <time>2018-07-22T13:21:18Z</time>
      </trkpt>
      <trkpt lat="44.50485" lon="0.69539">
        <ele>104.3</ele>
        <time>2018-07-22T13:21:20Z</time>
      </trkpt>
      <trkpt lat="44.50488" lon="0.69541">
        <ele>104.4</ele>
        <time>2018-07-22T13:21:22Z</time>
      </trkpt>
      <trkpt lat="44.5049" lon="0.69542">
        <ele>104.8</ele>
        <time>2018-07-22T13:21:24Z</time>
      </trkpt>
      <trkpt lat="44.50493" lon="0.69544">
        <ele>105.1</ele>
        <time>2018-07-22T13:21:26Z</time>
      </trkpt>
      <trkpt lat="44.50496" lon="0.69546">
        <ele>105.4</ele>
        <time>2018-07-22T13:21:28Z</time>
      </trkpt>
      <trkpt lat="44.50499" lon="0.69548">
        <ele>105.8</ele>
        <time>2018-07-22T13:21:30Z</time>
      </trkpt>
      <trkpt lat="44.50502" lon="0.69549">
        <ele>106.1</ele>
        <time>2018-07-22T13:21:32Z</time>
      </trkpt>
      <trkpt lat="44.50505" lon="0.69551">
        <ele>106.1</ele>
        <time>2018-07-22T13:21:34Z</time>
      </trkpt>
      <trkpt lat="44.50508" lon="0.69552">
        <ele>106.9</ele>
        <time>2018-07-22T13:21:36Z</time>
      </trkpt>
      <trkpt lat="44.50511" lon="0.69553">
        <ele>106.7</ele>
        <time>2018-07-22T13:21:38Z</time>
      </trkpt>
      <trkpt lat="44.50513" lon="0.69554">
        <ele>107.1</ele>
        <time>2018-07-22T13:21:40Z</time>
      </trkpt>
      <trkpt lat="44.50516" lon="0.69555">
        <ele>107.5</ele>
        <time>2018-07-22T13:21:42Z</time>
      </trkpt>
      <trkpt lat="44.5052" lon="0.69555">
        <ele>108.3</ele>
        <time>2018-07-22T13:21:45Z</time>
      </trkpt>
      <trkpt lat="44.50523" lon="0.69555">
        <ele>108.7</ele>
        <time>2018-07-22T13:21:47Z</time>
      </trkpt>
      <trkpt lat="44.50526" lon="0.69554">
        <ele>109.1</ele>
        <time>2018-07-22T13:21:49Z</time>
      </trkpt>
      <trkpt lat="44.50529" lon="0.69553">
        <ele>109.5</ele>
        <time>2018-07-22T13:21:51Z</time>
      </trkpt>
      <trkpt lat="44.50533" lon="0.69553">
        <ele>110</ele>
        <time>2018-07-22T13:21:53Z</time>
      </trkpt>
      <trkpt lat="44.50536" lon="0.69553">
        <ele>110.4</ele>
        <time>2018-07-22T13:21:55Z</time>
      </trkpt>
      <trkpt lat="44.50539" lon="0.69553">
        <ele>110.8</ele>
        <time>2018-07-22T13:21:57Z</time>
      </trkpt>
      <trkpt lat="44.50542" lon="0.69552">
        <ele>111.1</ele>
        <time>2018-07-22T13:21:59Z</time>
      </trkpt>
      <trkpt lat="44.50545" lon="0.69552">
        <ele>111.5</ele>
        <time>2018-07-22T13:22:01Z</time>
      </trkpt>
      <trkpt lat="44.50548" lon="0.69552">
        <ele>111.8</ele>
        <time>2018-07-22T13:22:03Z</time>
      </trkpt>
      <trkpt lat="44.50553" lon="0.69552">
        <ele>112.2</ele>
        <time>2018-07-22T13:22:06Z</time>
      </trkpt>
      <trkpt lat="44.50555" lon="0.69552">
        <ele>112.6</ele>
        <time>2018-07-22T13:22:08Z</time>
      </trkpt>
      <trkpt lat="44.50558" lon="0.69552">
        <ele>113</ele>
        <time>2018-07-22T13:22:10Z</time>
      </trkpt>
      <trkpt lat="44.50561" lon="0.69553">
        <ele>113.3</ele>
        <time>2018-07-22T13:22:12Z</time>
      </trkpt>
      <trkpt lat="44.50564" lon="0.69553">
        <ele>113.7</ele>
        <time>2018-07-22T13:22:14Z</time>
      </trkpt>
      <trkpt lat="44.50568" lon="0.69553">
        <ele>114</ele>
        <time>2018-07-22T13:22:17Z</time>
      </trkpt>
      <trkpt lat="44.50571" lon="0.69553">
        <ele>114.3</ele>
        <time>2018-07-22T13:22:19Z</time>
      </trkpt>
      <trkpt lat="44.50575" lon="0.69553">
        <ele>115.1</ele>
        <time>2018-07-22T13:22:22Z</time>
      </trkpt>
      <trkpt lat="44.50579" lon="0.69554">
        <ele>115.5</ele>
        <time>2018-07-22T13:22:25Z</time>
      </trkpt>
      <trkpt lat="44.50583" lon="0.69554">
        <ele>115.9</ele>
        <time>2018-07-22T13:22:28Z</time>
      </trkpt>
      <trkpt lat="44.50586" lon="0.69554">
        <ele>116.3</ele>
        <time>2018-07-22T13:22:30Z</time>
      </trkpt>
      <trkpt lat="44.50589" lon="0.69554">
        <ele>116.7</ele>
        <time>2018-07-22T13:22:32Z</time>
      </trkpt>
      <trkpt lat="44.50591" lon="0.69555">
        <ele>117.1</ele>
        <time>2018-07-22T13:22:35Z</time>
      </trkpt>
      <trkpt lat="44.50595" lon="0.69555">
        <ele>117.5</ele>
        <time>2018-07-22T13:22:38Z</time>
      </trkpt>
      <trkpt lat="44.50598" lon="0.69555">
        <ele>118</ele>
        <time>2018-07-22T13:22:40Z</time>
      </trkpt>
      <trkpt lat="44.50601" lon="0.69555">
        <ele>118.4</ele>
        <time>2018-07-22T13:22:42Z</time>
      </trkpt>
      <trkpt lat="44.50604" lon="0.69555">
        <ele>118.9</ele>
        <time>2018-07-22T13:22:44Z</time>
      </trkpt>
      <trkpt lat="44.50607" lon="0.69555">
        <ele>119.4</ele>
        <time>2018-07-22T13:22:46Z</time>
      </trkpt>
      <trkpt lat="44.5061" lon="0.69555">
        <ele>119.9</ele>
        <time>2018-07-22T13:22:48Z</time>
      </trkpt>
      <trkpt lat="44.50613" lon="0.69556">
        <ele>120.4</ele>
        <time>2018-07-22T13:22:50Z</time>
      </trkpt>
      <trkpt lat="44.50615" lon="0.69558">
        <ele>120.6</ele>
        <time>2018-07-22T13:22:52Z</time>
      </trkpt>
      <trkpt lat="44.50618" lon="0.6956">
        <ele>120.6</ele>
        <time>2018-07-22T13:22:55Z</time>
      </trkpt>
      <trkpt lat="44.5062" lon="0.69564">
        <ele>120.7</ele>
        <time>2018-07-22T13:22:58Z</time>
      </trkpt>
      <trkpt lat="44.50622" lon="0.69567">
        <ele>120.8</ele>
        <time>2018-07-22T13:23:01Z</time>
      </trkpt>
      <trkpt lat="44.50625" lon="0.69569">
        <ele>121.1</ele>
        <time>2018-07-22T13:23:04Z</time>
      </trkpt>
      <trkpt lat="44.50628" lon="0.69572">
        <ele>121.1</ele>
        <time>2018-07-22T13:23:07Z</time>
      </trkpt>
      <trkpt lat="44.5063" lon="0.69577">
        <ele>120.7</ele>
        <time>2018-07-22T13:23:10Z</time>
      </trkpt>
      <trkpt lat="44.50632" lon="0.69581">
        <ele>120.6</ele>
        <time>2018-07-22T13:23:12Z</time>
      </trkpt>
      <trkpt lat="44.50636" lon="0.69583">
        <ele>120.5</ele>
        <time>2018-07-22T13:23:14Z</time>
      </trkpt>
      <trkpt lat="44.50639" lon="0.69585">
        <ele>120.8</ele>
        <time>2018-07-22T13:23:17Z</time>
      </trkpt>
      <trkpt lat="44.50642" lon="0.69587">
        <ele>121.1</ele>
        <time>2018-07-22T13:23:20Z</time>
      </trkpt>
      <trkpt lat="44.50646" lon="0.69587">
        <ele>121.2</ele>
        <time>2018-07-22T13:23:23Z</time>
      </trkpt>
      <trkpt lat="44.50649" lon="0.69587">
        <ele>121.9</ele>
        <time>2018-07-22T13:23:26Z</time>
      </trkpt>
      <trkpt lat="44.50653" lon="0.69588">
        <ele>121.7</ele>
        <time>2018-07-22T13:23:29Z</time>
      </trkpt>
      <trkpt lat="44.50656" lon="0.69589">
        <ele>121.9</ele>
        <time>2018-07-22T13:23:32Z</time>
      </trkpt>
      <trkpt lat="44.50659" lon="0.69589">
        <ele>122.2</ele>
        <time>2018-07-22T13:23:35Z</time>
      </trkpt>
      <trkpt lat="44.50663" lon="0.6959">
        <ele>122.4</ele>
        <time>2018-07-22T13:23:38Z</time>
      </trkpt>
      <trkpt lat="44.50666" lon="0.6959">
        <ele>122.6</ele>
        <time>2018-07-22T13:23:41Z</time>
      </trkpt>
      <trkpt lat="44.50669" lon="0.6959">
        <ele>122.9</ele>
        <time>2018-07-22T13:23:44Z</time>
      </trkpt>
      <trkpt lat="44.50672" lon="0.69589">
        <ele>123.1</ele>
        <time>2018-07-22T13:23:47Z</time>
      </trkpt>
      <trkpt lat="44.50675" lon="0.69589">
        <ele>123.3</ele>
        <time>2018-07-22T13:23:49Z</time>
      </trkpt>
      <trkpt lat="44.50679" lon="0.69589">
        <ele>123.5</ele>
        <time>2018-07-22T13:23:52Z</time>
      </trkpt>
      <trkpt lat="44.50681" lon="0.69589">
        <ele>123.7</ele>
        <time>2018-07-22T13:23:54Z</time>
      </trkpt>
      <trkpt lat="44.50685" lon="0.6959">
        <ele>123.9</ele>
        <time>2018-07-22T13:23:57Z</time>
      </trkpt>
      <trkpt lat="44.50688" lon="0.69589">
        <ele>124</ele>
        <time>2018-07-22T13:24:00Z</time>
      </trkpt>
      <trkpt lat="44.50691" lon="0.69589">
        <ele>124.2</ele>
        <time>2018-07-22T13:24:03Z</time>
      </trkpt>
      <trkpt lat="44.50695" lon="0.69589">
        <ele>124.5</ele>
        <time>2018-07-22T13:24:06Z</time>
      </trkpt>
      <trkpt lat="44.50698" lon="0.6959">
        <ele>124.6</ele>
        <time>2018-07-22T13:24:09Z</time>
      </trkpt>
      <trkpt lat="44.50701" lon="0.69591">
        <ele>124.7</ele>
        <time>2018-07-22T13:24:12Z</time>
      </trkpt>
      <trkpt lat="44.50705" lon="0.69591">
        <ele>124.8</ele>
        <time>2018-07-22T13:24:15Z</time>
      </trkpt>
      <trkpt lat="44.50708" lon="0.69593">
        <ele>124.3</ele>
        <time>2018-07-22T13:24:18Z</time>
      </trkpt>
      <trkpt lat="44.50711" lon="0.69594">
        <ele>124.5</ele>
        <time>2018-07-22T13:24:20Z</time>
      </trkpt>
      <trkpt lat="44.50714" lon="0.69594">
        <ele>124.6</ele>
        <time>2018-07-22T13:24:23Z</time>
      </trkpt>
      <trkpt lat="44.50717" lon="0.69594">
        <ele>124.7</ele>
        <time>2018-07-22T13:24:26Z</time>
      </trkpt>
      <trkpt lat="44.50721" lon="0.69594">
        <ele>124.7</ele>
        <time>2018-07-22T13:24:29Z</time>
      </trkpt>
      <trkpt lat="44.50724" lon="0.69594">
        <ele>124.8</ele>
        <time>2018-07-22T13:24:32Z</time>
      </trkpt>
      <trkpt lat="44.50728" lon="0.69594">
        <ele>124.9</ele>
        <time>2018-07-22T13:24:35Z</time>
      </trkpt>
      <trkpt lat="44.50731" lon="0.69594">
        <ele>125</ele>
        <time>2018-07-22T13:24:37Z</time>
      </trkpt>
      <trkpt lat="44.50734" lon="0.69593">
        <ele>125</ele>
        <time>2018-07-22T13:24:39Z</time>
      </trkpt>
      <trkpt lat="44.50736" lon="0.6959">
        <ele>125.5</ele>
        <time>2018-07-22T13:24:41Z</time>
      </trkpt>
      <trkpt lat="44.50737" lon="0.69586">
        <ele>126</ele>
        <time>2018-07-22T13:24:43Z</time>
      </trkpt>
      <trkpt lat="44.50738" lon="0.69582">
        <ele>126.5</ele>
        <time>2018-07-22T13:24:46Z</time>
      </trkpt>
      <trkpt lat="44.50737" lon="0.69578">
        <ele>127</ele>
        <time>2018-07-22T13:24:48Z</time>
      </trkpt>
      <trkpt lat="44.50737" lon="0.69572">
        <ele>127.5</ele>
        <time>2018-07-22T13:24:51Z</time>
      </trkpt>
      <trkpt lat="44.50738" lon="0.69569">
        <ele>128.1</ele>
        <time>2018-07-22T13:24:53Z</time>
      </trkpt>
      <trkpt lat="44.5074" lon="0.69566">
        <ele>128.7</ele>
        <time>2018-07-22T13:24:56Z</time>
      </trkpt>
      <trkpt lat="44.5074" lon="0.69562">
        <ele>128.7</ele>
        <time>2018-07-22T13:24:59Z</time>
      </trkpt>
      <trkpt lat="44.50742" lon="0.69558">
        <ele>129.3</ele>
        <time>2018-07-22T13:25:02Z</time>
      </trkpt>
      <trkpt lat="44.50744" lon="0.69554">
        <ele>129.9</ele>
        <time>2018-07-22T13:25:05Z</time>
      </trkpt>
      <trkpt lat="44.50746" lon="0.6955">
        <ele>130.5</ele>
        <time>2018-07-22T13:25:08Z</time>
      </trkpt>
      <trkpt lat="44.50748" lon="0.69546">
        <ele>131.1</ele>
        <time>2018-07-22T13:25:11Z</time>
      </trkpt>
      <trkpt lat="44.5075" lon="0.69542">
        <ele>131.6</ele>
        <time>2018-07-22T13:25:14Z</time>
      </trkpt>
      <trkpt lat="44.50752" lon="0.69538">
        <ele>132.1</ele>
        <time>2018-07-22T13:25:17Z</time>
      </trkpt>
      <trkpt lat="44.50754" lon="0.69534">
        <ele>132.6</ele>
        <time>2018-07-22T13:25:20Z</time>
      </trkpt>
      <trkpt lat="44.50755" lon="0.6953">
        <ele>133.2</ele>
        <time>2018-07-22T13:25:23Z</time>
      </trkpt>
      <trkpt lat="44.50755" lon="0.69525">
        <ele>133.9</ele>
        <time>2018-07-22T13:25:26Z</time>
      </trkpt>
      <trkpt lat="44.50757" lon="0.6952">
        <ele>134.5</ele>
        <time>2018-07-22T13:25:29Z</time>
      </trkpt>
      <trkpt lat="44.50758" lon="0.69515">
        <ele>135.3</ele>
        <time>2018-07-22T13:25:32Z</time>
      </trkpt>
      <trkpt lat="44.5076" lon="0.6951">
        <ele>135.9</ele>
        <time>2018-07-22T13:25:36Z</time>
      </trkpt>
      <trkpt lat="44.50761" lon="0.69505">
        <ele>137.5</ele>
        <time>2018-07-22T13:25:39Z</time>
      </trkpt>
      <trkpt lat="44.5076" lon="0.695">
        <ele>138.2</ele>
        <time>2018-07-22T13:25:42Z</time>
      </trkpt>
      <trkpt lat="44.5076" lon="0.69495">
        <ele>139</ele>
        <time>2018-07-22T13:25:45Z</time>
      </trkpt>
      <trkpt lat="44.50761" lon="0.69491">
        <ele>139.6</ele>
        <time>2018-07-22T13:25:47Z</time>
      </trkpt>
      <trkpt lat="44.50763" lon="0.69488">
        <ele>140.1</ele>
        <time>2018-07-22T13:25:49Z</time>
      </trkpt>
      <trkpt lat="44.50765" lon="0.69485">
        <ele>139.9</ele>
        <time>2018-07-22T13:25:51Z</time>
      </trkpt>
      <trkpt lat="44.50765" lon="0.6948">
        <ele>141.2</ele>
        <time>2018-07-22T13:25:54Z</time>
      </trkpt>
      <trkpt lat="44.50764" lon="0.69476">
        <ele>141.4</ele>
        <time>2018-07-22T13:25:57Z</time>
      </trkpt>
      <trkpt lat="44.50764" lon="0.69472">
        <ele>141.9</ele>
        <time>2018-07-22T13:25:59Z</time>
      </trkpt>
      <trkpt lat="44.50765" lon="0.69466">
        <ele>142.9</ele>
        <time>2018-07-22T13:26:02Z</time>
      </trkpt>
      <trkpt lat="44.50766" lon="0.69463">
        <ele>143.4</ele>
        <time>2018-07-22T13:26:04Z</time>
      </trkpt>
      <trkpt lat="44.50766" lon="0.69459">
        <ele>143.4</ele>
        <time>2018-07-22T13:26:07Z</time>
      </trkpt>
      <trkpt lat="44.50765" lon="0.69455">
        <ele>143.9</ele>
        <time>2018-07-22T13:26:10Z</time>
      </trkpt>
      <trkpt lat="44.50765" lon="0.6945">
        <ele>144.4</ele>
        <time>2018-07-22T13:26:13Z</time>
      </trkpt>
      <trkpt lat="44.50764" lon="0.69445">
        <ele>145.1</ele>
        <time>2018-07-22T13:26:16Z</time>
      </trkpt>
      <trkpt lat="44.50764" lon="0.69441">
        <ele>145.1</ele>
        <time>2018-07-22T13:26:18Z</time>
      </trkpt>
      <trkpt lat="44.50764" lon="0.69437">
        <ele>145.9</ele>
        <time>2018-07-22T13:26:21Z</time>
      </trkpt>
      <trkpt lat="44.50764" lon="0.69433">
        <ele>146.2</ele>
        <time>2018-07-22T13:26:24Z</time>
      </trkpt>
      <trkpt lat="44.50764" lon="0.69429">
        <ele>146.2</ele>
        <time>2018-07-22T13:26:27Z</time>
      </trkpt>
      <trkpt lat="44.50765" lon="0.69426">
        <ele>146.5</ele>
        <time>2018-07-22T13:26:30Z</time>
      </trkpt>
      <trkpt lat="44.50765" lon="0.69421">
        <ele>146.8</ele>
        <time>2018-07-22T13:26:33Z</time>
      </trkpt>
      <trkpt lat="44.50764" lon="0.69416">
        <ele>147.2</ele>
        <time>2018-07-22T13:26:36Z</time>
      </trkpt>
      <trkpt lat="44.50764" lon="0.69411">
        <ele>147.8</ele>
        <time>2018-07-22T13:26:39Z</time>
      </trkpt>
      <trkpt lat="44.50765" lon="0.69406">
        <ele>148.1</ele>
        <time>2018-07-22T13:26:41Z</time>
      </trkpt>
      <trkpt lat="44.50766" lon="0.69402">
        <ele>148.2</ele>
        <time>2018-07-22T13:26:43Z</time>
      </trkpt>
      <trkpt lat="44.50767" lon="0.69398">
        <ele>148.4</ele>
        <time>2018-07-22T13:26:45Z</time>
      </trkpt>
      <trkpt lat="44.50769" lon="0.69393">
        <ele>148.6</ele>
        <time>2018-07-22T13:26:47Z</time>
      </trkpt>
      <trkpt lat="44.5077" lon="0.6939">
        <ele>148.6</ele>
        <time>2018-07-22T13:26:49Z</time>
      </trkpt>
      <trkpt lat="44.50771" lon="0.69385">
        <ele>149.1</ele>
        <time>2018-07-22T13:26:52Z</time>
      </trkpt>
      <trkpt lat="44.50772" lon="0.6938">
        <ele>149.3</ele>
        <time>2018-07-22T13:26:54Z</time>
      </trkpt>
      <trkpt lat="44.50773" lon="0.69377">
        <ele>149.6</ele>
        <time>2018-07-22T13:26:56Z</time>
      </trkpt>
      <trkpt lat="44.50774" lon="0.69372">
        <ele>149.8</ele>
        <time>2018-07-22T13:26:59Z</time>
      </trkpt>
      <trkpt lat="44.50775" lon="0.69368">
        <ele>150</ele>
        <time>2018-07-22T13:27:02Z</time>
      </trkpt>
      <trkpt lat="44.50776" lon="0.69363">
        <ele>150.2</ele>
        <time>2018-07-22T13:27:05Z</time>
      </trkpt>
      <trkpt lat="44.50778" lon="0.6936">
        <ele>150.3</ele>
        <time>2018-07-22T13:27:07Z</time>
      </trkpt>
      <trkpt lat="44.5078" lon="0.69356">
        <ele>150.2</ele>
        <time>2018-07-22T13:27:10Z</time>
      </trkpt>
      <trkpt lat="44.50781" lon="0.69351">
        <ele>150.6</ele>
        <time>2018-07-22T13:27:13Z</time>
      </trkpt>
      <trkpt lat="44.50782" lon="0.69347">
        <ele>150.8</ele>
        <time>2018-07-22T13:27:16Z</time>
      </trkpt>
      <trkpt lat="44.50782" lon="0.69343">
        <ele>150.9</ele>
        <time>2018-07-22T13:27:18Z</time>
      </trkpt>
      <trkpt lat="44.50782" lon="0.69339">
        <ele>150.9</ele>
        <time>2018-07-22T13:27:20Z</time>
      </trkpt>
      <trkpt lat="44.50784" lon="0.69335">
        <ele>151</ele>
        <time>2018-07-22T13:27:22Z</time>
      </trkpt>
      <trkpt lat="44.50787" lon="0.69331">
        <ele>151</ele>
        <time>2018-07-22T13:27:24Z</time>
      </trkpt>
      <trkpt lat="44.50789" lon="0.69328">
        <ele>151.1</ele>
        <time>2018-07-22T13:27:26Z</time>
      </trkpt>
      <trkpt lat="44.50791" lon="0.69325">
        <ele>151.2</ele>
        <time>2018-07-22T13:27:29Z</time>
      </trkpt>
      <trkpt lat="44.50792" lon="0.69321">
        <ele>151.1</ele>
        <time>2018-07-22T13:27:31Z</time>
      </trkpt>
      <trkpt lat="44.50794" lon="0.69317">
        <ele>151.2</ele>
        <time>2018-07-22T13:27:33Z</time>
      </trkpt>
      <trkpt lat="44.50795" lon="0.69313">
        <ele>151.2</ele>
        <time>2018-07-22T13:27:35Z</time>
      </trkpt>
      <trkpt lat="44.50796" lon="0.69308">
        <ele>151.3</ele>
        <time>2018-07-22T13:27:38Z</time>
      </trkpt>
      <trkpt lat="44.50798" lon="0.69303">
        <ele>151.3</ele>
        <time>2018-07-22T13:27:41Z</time>
      </trkpt>
      <trkpt lat="44.508" lon="0.69299">
        <ele>151.3</ele>
        <time>2018-07-22T13:27:44Z</time>
      </trkpt>
      <trkpt lat="44.50803" lon="0.69296">
        <ele>151.3</ele>
        <time>2018-07-22T13:27:46Z</time>
      </trkpt>
      <trkpt lat="44.50805" lon="0.69293">
        <ele>151.3</ele>
        <time>2018-07-22T13:27:48Z</time>
      </trkpt>
      <trkpt lat="44.50807" lon="0.6929">
        <ele>151.4</ele>
        <time>2018-07-22T13:27:50Z</time>
      </trkpt>
      <trkpt lat="44.50809" lon="0.69287">
        <ele>151.4</ele>
        <time>2018-07-22T13:27:52Z</time>
      </trkpt>
      <trkpt lat="44.50811" lon="0.69284">
        <ele>151.4</ele>
        <time>2018-07-22T13:27:54Z</time>
      </trkpt>
      <trkpt lat="44.50814" lon="0.69281">
        <ele>151.5</ele>
        <time>2018-07-22T13:27:57Z</time>
      </trkpt>
      <trkpt lat="44.50816" lon="0.69278">
        <ele>151.6</ele>
        <time>2018-07-22T13:28:00Z</time>
      </trkpt>
      <trkpt lat="44.50818" lon="0.69275">
        <ele>151.6</ele>
        <time>2018-07-22T13:28:04Z</time>
      </trkpt>
      <trkpt lat="44.5082" lon="0.69272">
        <ele>151.7</ele>
        <time>2018-07-22T13:28:07Z</time>
      </trkpt>
      <trkpt lat="44.50823" lon="0.6927">
        <ele>151.7</ele>
        <time>2018-07-22T13:28:10Z</time>
      </trkpt>
      <trkpt lat="44.50826" lon="0.69269">
        <ele>151.8</ele>
        <time>2018-07-22T13:28:13Z</time>
      </trkpt>
      <trkpt lat="44.50829" lon="0.69266">
        <ele>151.8</ele>
        <time>2018-07-22T13:28:16Z</time>
      </trkpt>
      <trkpt lat="44.50832" lon="0.69263">
        <ele>151.9</ele>
        <time>2018-07-22T13:28:19Z</time>
      </trkpt>
      <trkpt lat="44.50834" lon="0.69261">
        <ele>151.9</ele>
        <time>2018-07-22T13:28:21Z</time>
      </trkpt>
      <trkpt lat="44.50838" lon="0.69258">
        <ele>152</ele>
        <time>2018-07-22T13:28:24Z</time>
      </trkpt>
      <trkpt lat="44.50841" lon="0.69255">
        <ele>152.1</ele>
        <time>2018-07-22T13:28:27Z</time>
      </trkpt>
      <trkpt lat="44.50843" lon="0.69253">
        <ele>152.2</ele>
        <time>2018-07-22T13:28:30Z</time>
      </trkpt>
      <trkpt lat="44.50847" lon="0.69251">
        <ele>152.3</ele>
        <time>2018-07-22T13:28:33Z</time>
      </trkpt>
      <trkpt lat="44.5085" lon="0.6925">
        <ele>152.5</ele>
        <time>2018-07-22T13:28:36Z</time>
      </trkpt>
      <trkpt lat="44.50854" lon="0.69248">
        <ele>152.8</ele>
        <time>2018-07-22T13:28:39Z</time>
      </trkpt>
      <trkpt lat="44.50857" lon="0.69246">
        <ele>152.9</ele>
        <time>2018-07-22T13:28:42Z</time>
      </trkpt>
      <trkpt lat="44.5086" lon="0.69244">
        <ele>153</ele>
        <time>2018-07-22T13:28:45Z</time>
      </trkpt>
      <trkpt lat="44.50863" lon="0.69242">
        <ele>153.1</ele>
        <time>2018-07-22T13:28:48Z</time>
      </trkpt>
      <trkpt lat="44.50867" lon="0.6924">
        <ele>153.3</ele>
        <time>2018-07-22T13:28:51Z</time>
      </trkpt>
      <trkpt lat="44.5087" lon="0.69239">
        <ele>153.3</ele>
        <time>2018-07-22T13:28:53Z</time>
      </trkpt>
      <trkpt lat="44.50873" lon="0.69238">
        <ele>153.4</ele>
        <time>2018-07-22T13:28:55Z</time>
      </trkpt>
      <trkpt lat="44.50876" lon="0.69236">
        <ele>153.5</ele>
        <time>2018-07-22T13:28:57Z</time>
      </trkpt>
      <trkpt lat="44.5088" lon="0.69235">
        <ele>153.5</ele>
        <time>2018-07-22T13:28:59Z</time>
      </trkpt>
      <trkpt lat="44.50883" lon="0.69233">
        <ele>153.6</ele>
        <time>2018-07-22T13:29:01Z</time>
      </trkpt>
      <trkpt lat="44.50887" lon="0.69231">
        <ele>153.6</ele>
        <time>2018-07-22T13:29:03Z</time>
      </trkpt>
      <trkpt lat="44.5089" lon="0.69229">
        <ele>153.4</ele>
        <time>2018-07-22T13:29:05Z</time>
      </trkpt>
      <trkpt lat="44.50893" lon="0.69228">
        <ele>153.4</ele>
        <time>2018-07-22T13:29:07Z</time>
      </trkpt>
      <trkpt lat="44.50896" lon="0.69227">
        <ele>153.2</ele>
        <time>2018-07-22T13:29:09Z</time>
      </trkpt>
      <trkpt lat="44.50899" lon="0.69225">
        <ele>153</ele>
        <time>2018-07-22T13:29:11Z</time>
      </trkpt>
      <trkpt lat="44.50903" lon="0.69223">
        <ele>152.8</ele>
        <time>2018-07-22T13:29:14Z</time>
      </trkpt>
      <trkpt lat="44.50907" lon="0.69222">
        <ele>152.5</ele>
        <time>2018-07-22T13:29:16Z</time>
      </trkpt>
      <trkpt lat="44.50911" lon="0.6922">
        <ele>152.3</ele>
        <time>2018-07-22T13:29:18Z</time>
      </trkpt>
      <trkpt lat="44.50914" lon="0.69217">
        <ele>152</ele>
        <time>2018-07-22T13:29:21Z</time>
      </trkpt>
      <trkpt lat="44.50915" lon="0.69213">
        <ele>151.6</ele>
        <time>2018-07-22T13:29:24Z</time>
      </trkpt>
      <trkpt lat="44.50918" lon="0.69211">
        <ele>151.4</ele>
        <time>2018-07-22T13:29:26Z</time>
      </trkpt>
      <trkpt lat="44.50922" lon="0.69208">
        <ele>151.1</ele>
        <time>2018-07-22T13:29:28Z</time>
      </trkpt>
      <trkpt lat="44.50925" lon="0.69207">
        <ele>150.9</ele>
        <time>2018-07-22T13:29:30Z</time>
      </trkpt>
      <trkpt lat="44.50929" lon="0.69205">
        <ele>150.7</ele>
        <time>2018-07-22T13:29:32Z</time>
      </trkpt>
      <trkpt lat="44.50932" lon="0.69203">
        <ele>150.5</ele>
        <time>2018-07-22T13:29:34Z</time>
      </trkpt>
      <trkpt lat="44.50935" lon="0.692">
        <ele>150.3</ele>
        <time>2018-07-22T13:29:36Z</time>
      </trkpt>
      <trkpt lat="44.50938" lon="0.69198">
        <ele>150.2</ele>
        <time>2018-07-22T13:29:38Z</time>
      </trkpt>
      <trkpt lat="44.50942" lon="0.69195">
        <ele>150.1</ele>
        <time>2018-07-22T13:29:40Z</time>
      </trkpt>
      <trkpt lat="44.50946" lon="0.69193">
        <ele>149.9</ele>
        <time>2018-07-22T13:29:42Z</time>
      </trkpt>
      <trkpt lat="44.50949" lon="0.6919">
        <ele>149.9</ele>
        <time>2018-07-22T13:29:44Z</time>
      </trkpt>
      <trkpt lat="44.50952" lon="0.69187">
        <ele>149.9</ele>
        <time>2018-07-22T13:29:46Z</time>
      </trkpt>
      <trkpt lat="44.50954" lon="0.69182">
        <ele>150</ele>
        <time>2018-07-22T13:29:48Z</time>
      </trkpt>
      <trkpt lat="44.50955" lon="0.69177">
        <ele>150</ele>
        <time>2018-07-22T13:29:50Z</time>
      </trkpt>
      <trkpt lat="44.50956" lon="0.69172">
        <ele>150.1</ele>
        <time>2018-07-22T13:29:52Z</time>
      </trkpt>
      <trkpt lat="44.50957" lon="0.69167">
        <ele>150.2</ele>
        <time>2018-07-22T13:29:54Z</time>
      </trkpt>
      <trkpt lat="44.50958" lon="0.69162">
        <ele>150.1</ele>
        <time>2018-07-22T13:29:56Z</time>
      </trkpt>
      <trkpt lat="44.50959" lon="0.69157">
        <ele>150.1</ele>
        <time>2018-07-22T13:29:58Z</time>
      </trkpt>
      <trkpt lat="44.50959" lon="0.69153">
        <ele>150.1</ele>
        <time>2018-07-22T13:30:00Z</time>
      </trkpt>
      <trkpt lat="44.50961" lon="0.69149">
        <ele>150</ele>
        <time>2018-07-22T13:30:02Z</time>
      </trkpt>
      <trkpt lat="44.50962" lon="0.69144">
        <ele>149.9</ele>
        <time>2018-07-22T13:30:04Z</time>
      </trkpt>
      <trkpt lat="44.50963" lon="0.6914">
        <ele>149.8</ele>
        <time>2018-07-22T13:30:06Z</time>
      </trkpt>
      <trkpt lat="44.50964" lon="0.69135">
        <ele>149.6</ele>
        <time>2018-07-22T13:30:08Z</time>
      </trkpt>
      <trkpt lat="44.50964" lon="0.69131">
        <ele>149.4</ele>
        <time>2018-07-22T13:30:10Z</time>
      </trkpt>
      <trkpt lat="44.50965" lon="0.69126">
        <ele>149.3</ele>
        <time>2018-07-22T13:30:12Z</time>
      </trkpt>
      <trkpt lat="44.50966" lon="0.69122">
        <ele>149.1</ele>
        <time>2018-07-22T13:30:14Z</time>
      </trkpt>
      <trkpt lat="44.50967" lon="0.69118">
        <ele>148.9</ele>
        <time>2018-07-22T13:30:16Z</time>
      </trkpt>
      <trkpt lat="44.50968" lon="0.69113">
        <ele>148.6</ele>
        <time>2018-07-22T13:30:18Z</time>
      </trkpt>
      <trkpt lat="44.50968" lon="0.69109">
        <ele>148.4</ele>
        <time>2018-07-22T13:30:20Z</time>
      </trkpt>
      <trkpt lat="44.50969" lon="0.69105">
        <ele>148.2</ele>
        <time>2018-07-22T13:30:22Z</time>
      </trkpt>
      <trkpt lat="44.50971" lon="0.69101">
        <ele>147.9</ele>
        <time>2018-07-22T13:30:24Z</time>
      </trkpt>
      <trkpt lat="44.50972" lon="0.69097">
        <ele>147.7</ele>
        <time>2018-07-22T13:30:26Z</time>
      </trkpt>
      <trkpt lat="44.50973" lon="0.69093">
        <ele>147.5</ele>
        <time>2018-07-22T13:30:28Z</time>
      </trkpt>
      <trkpt lat="44.50973" lon="0.69088">
        <ele>147.3</ele>
        <time>2018-07-22T13:30:30Z</time>
      </trkpt>
      <trkpt lat="44.50974" lon="0.69084">
        <ele>147.1</ele>
        <time>2018-07-22T13:30:32Z</time>
      </trkpt>
      <trkpt lat="44.50975" lon="0.6908">
        <ele>147</ele>
        <time>2018-07-22T13:30:34Z</time>
      </trkpt>
      <trkpt lat="44.50976" lon="0.69076">
        <ele>146.8</ele>
        <time>2018-07-22T13:30:36Z</time>
      </trkpt>
      <trkpt lat="44.50977" lon="0.69072">
        <ele>146.8</ele>
        <time>2018-07-22T13:30:38Z</time>
      </trkpt>
      <trkpt lat="44.50978" lon="0.69068">
        <ele>146.7</ele>
        <time>2018-07-22T13:30:40Z</time>
      </trkpt>
      <trkpt lat="44.50979" lon="0.69064">
        <ele>146.5</ele>
        <time>2018-07-22T13:30:42Z</time>
      </trkpt>
      <trkpt lat="44.50981" lon="0.6906">
        <ele>146.4</ele>
        <time>2018-07-22T13:30:44Z</time>
      </trkpt>
      <trkpt lat="44.50982" lon="0.69056">
        <ele>146.2</ele>
        <time>2018-07-22T13:30:46Z</time>
      </trkpt>
      <trkpt lat="44.50982" lon="0.69052">
        <ele>146.1</ele>
        <time>2018-07-22T13:30:48Z</time>
      </trkpt>
      <trkpt lat="44.50983" lon="0.69048">
        <ele>146</ele>
        <time>2018-07-22T13:30:50Z</time>
      </trkpt>
      <trkpt lat="44.50984" lon="0.69044">
        <ele>145.9</ele>
        <time>2018-07-22T13:30:52Z</time>
      </trkpt>
      <trkpt lat="44.50985" lon="0.6904">
        <ele>145.8</ele>
        <time>2018-07-22T13:30:54Z</time>
      </trkpt>
      <trkpt lat="44.50986" lon="0.69035">
        <ele>145.7</ele>
        <time>2018-07-22T13:30:56Z</time>
      </trkpt>
      <trkpt lat="44.50986" lon="0.69031">
        <ele>145.6</ele>
        <time>2018-07-22T13:30:58Z</time>
      </trkpt>
      <trkpt lat="44.50986" lon="0.69026">
        <ele>145.5</ele>
        <time>2018-07-22T13:31:00Z</time>
      </trkpt>
      <trkpt lat="44.50987" lon="0.69022">
        <ele>145.5</ele>
        <time>2018-07-22T13:31:02Z</time>
      </trkpt>
      <trkpt lat="44.50988" lon="0.69018">
        <ele>145.4</ele>
        <time>2018-07-22T13:31:04Z</time>
      </trkpt>
      <trkpt lat="44.5099" lon="0.69016">
        <ele>145.2</ele>
        <time>2018-07-22T13:31:06Z</time>
      </trkpt>
      <trkpt lat="44.50993" lon="0.69016">
        <ele>144.9</ele>
        <time>2018-07-22T13:31:08Z</time>
      </trkpt>
      <trkpt lat="44.50996" lon="0.69018">
        <ele>144.6</ele>
        <time>2018-07-22T13:31:10Z</time>
      </trkpt>
      <trkpt lat="44.51" lon="0.69021">
        <ele>144.4</ele>
        <time>2018-07-22T13:31:12Z</time>
      </trkpt>
      <trkpt lat="44.51003" lon="0.69024">
        <ele>144.1</ele>
        <time>2018-07-22T13:31:14Z</time>
      </trkpt>
      <trkpt lat="44.51006" lon="0.69027">
        <ele>143.8</ele>
        <time>2018-07-22T13:31:16Z</time>
      </trkpt>
      <trkpt lat="44.51009" lon="0.69029">
        <ele>143.5</ele>
        <time>2018-07-22T13:31:18Z</time>
      </trkpt>
      <trkpt lat="44.51012" lon="0.69032">
        <ele>143.2</ele>
        <time>2018-07-22T13:31:20Z</time>
      </trkpt>
      <trkpt lat="44.51014" lon="0.69035">
        <ele>142.9</ele>
        <time>2018-07-22T13:31:22Z</time>
      </trkpt>
      <trkpt lat="44.51017" lon="0.69038">
        <ele>142.8</ele>
        <time>2018-07-22T13:31:24Z</time>
      </trkpt>
      <trkpt lat="44.5102" lon="0.6904">
        <ele>142.7</ele>
        <time>2018-07-22T13:31:26Z</time>
      </trkpt>
      <trkpt lat="44.51023" lon="0.69043">
        <ele>142.5</ele>
        <time>2018-07-22T13:31:28Z</time>
      </trkpt>
      <trkpt lat="44.51026" lon="0.69045">
        <ele>142.4</ele>
        <time>2018-07-22T13:31:30Z</time>
      </trkpt>
      <trkpt lat="44.51029" lon="0.69048">
        <ele>142.3</ele>
        <time>2018-07-22T13:31:32Z</time>
      </trkpt>
      <trkpt lat="44.51032" lon="0.6905">
        <ele>142.2</ele>
        <time>2018-07-22T13:31:34Z</time>
      </trkpt>
      <trkpt lat="44.51035" lon="0.69052">
        <ele>142</ele>
        <time>2018-07-22T13:31:36Z</time>
      </trkpt>
      <trkpt lat="44.51038" lon="0.69055">
        <ele>141.7</ele>
        <time>2018-07-22T13:31:38Z</time>
      </trkpt>
      <trkpt lat="44.51041" lon="0.69058">
        <ele>141.6</ele>
        <time>2018-07-22T13:31:40Z</time>
      </trkpt>
      <trkpt lat="44.51044" lon="0.6906">
        <ele>141.4</ele>
        <time>2018-07-22T13:31:42Z</time>
      </trkpt>
      <trkpt lat="44.51047" lon="0.69062">
        <ele>141.2</ele>
        <time>2018-07-22T13:31:44Z</time>
      </trkpt>
      <trkpt lat="44.5105" lon="0.69064">
        <ele>141.2</ele>
        <time>2018-07-22T13:31:46Z</time>
      </trkpt>
      <trkpt lat="44.51053" lon="0.69067">
        <ele>141.1</ele>
        <time>2018-07-22T13:31:48Z</time>
      </trkpt>
      <trkpt lat="44.51056" lon="0.69069">
        <ele>141.1</ele>
        <time>2018-07-22T13:31:50Z</time>
      </trkpt>
      <trkpt lat="44.51059" lon="0.69071">
        <ele>141</ele>
        <time>2018-07-22T13:31:52Z</time>
      </trkpt>
      <trkpt lat="44.51062" lon="0.69074">
        <ele>141</ele>
        <time>2018-07-22T13:31:54Z</time>
      </trkpt>
      <trkpt lat="44.51064" lon="0.69076">
        <ele>141</ele>
        <time>2018-07-22T13:31:56Z</time>
      </trkpt>
      <trkpt lat="44.51067" lon="0.69078">
        <ele>140.9</ele>
        <time>2018-07-22T13:31:58Z</time>
      </trkpt>
      <trkpt lat="44.5107" lon="0.69081">
        <ele>140.9</ele>
        <time>2018-07-22T13:32:00Z</time>
      </trkpt>
      <trkpt lat="44.51073" lon="0.69083">
        <ele>140.9</ele>
        <time>2018-07-22T13:32:02Z</time>
      </trkpt>
      <trkpt lat="44.51076" lon="0.69085">
        <ele>140.8</ele>
        <time>2018-07-22T13:32:04Z</time>
      </trkpt>
      <trkpt lat="44.51078" lon="0.69087">
        <ele>140.8</ele>
        <time>2018-07-22T13:32:06Z</time>
      </trkpt>
      <trkpt lat="44.51081" lon="0.69089">
        <ele>140.8</ele>
        <time>2018-07-22T13:32:08Z</time>
      </trkpt>
      <trkpt lat="44.51084" lon="0.69091">
        <ele>140.8</ele>
        <time>2018-07-22T13:32:10Z</time>
      </trkpt>
      <trkpt lat="44.51086" lon="0.69093">
        <ele>140.8</ele>
        <time>2018-07-22T13:32:12Z</time>
      </trkpt>
      <trkpt lat="44.51089" lon="0.69095">
        <ele>140.7</ele>
        <time>2018-07-22T13:32:14Z</time>
      </trkpt>
      <trkpt lat="44.51092" lon="0.69097">
        <ele>140.7</ele>
        <time>2018-07-22T13:32:16Z</time>
      </trkpt>
      <trkpt lat="44.51095" lon="0.69099">
        <ele>140.7</ele>
        <time>2018-07-22T13:32:18Z</time>
      </trkpt>
      <trkpt lat="44.51097" lon="0.69101">
        <ele>140.7</ele>
        <time>2018-07-22T13:32:20Z</time>
      </trkpt>
      <trkpt lat="44.511" lon="0.69103">
        <ele>140.7</ele>
        <time>2018-07-22T13:32:22Z</time>
      </trkpt>
      <trkpt lat="44.51102" lon="0.69106">
        <ele>140.7</ele>
        <time>2018-07-22T13:32:24Z</time>
      </trkpt>
      <trkpt lat="44.51105" lon="0.69108">
        <ele>140.7</ele>
        <time>2018-07-22T13:32:26Z</time>
      </trkpt>
      <trkpt lat="44.51107" lon="0.69111">
        <ele>140.7</ele>
        <time>2018-07-22T13:32:28Z</time>
      </trkpt>
      <trkpt lat="44.5111" lon="0.69113">
        <ele>140.6</ele>
        <time>2018-07-22T13:32:30Z</time>
      </trkpt>
      <trkpt lat="44.51113" lon="0.69115">
        <ele>140.6</ele>
        <time>2018-07-22T13:32:32Z</time>
      </trkpt>
      <trkpt lat="44.51116" lon="0.69117">
        <ele>140.6</ele>
        <time>2018-07-22T13:32:34Z</time>
      </trkpt>
      <trkpt lat="44.51119" lon="0.69119">
        <ele>140.6</ele>
        <time>2018-07-22T13:32:36Z</time>
      </trkpt>
      <trkpt lat="44.51121" lon="0.69121">
        <ele>140.6</ele>
        <time>2018-07-22T13:32:38Z</time>
      </trkpt>
      <trkpt lat="44.51124" lon="0.69124">
        <ele>140.6</ele>
        <time>2018-07-22T13:32:40Z</time>
      </trkpt>
      <trkpt lat="44.51127" lon="0.69126">
        <ele>140.6</ele>
        <time>2018-07-22T13:32:42Z</time>
      </trkpt>
      <trkpt lat="44.5113" lon="0.69128">
        <ele>140.6</ele>
        <time>2018-07-22T13:32:44Z</time>
      </trkpt>
      <trkpt lat="44.51133" lon="0.6913">
        <ele>140.6</ele>
        <time>2018-07-22T13:32:46Z</time>
      </trkpt>
      <trkpt lat="44.51135" lon="0.69133">
        <ele>140.6</ele>
        <time>2018-07-22T13:32:48Z</time>
      </trkpt>
      <trkpt lat="44.51137" lon="0.69137">
        <ele>140.6</ele>
        <time>2018-07-22T13:32:50Z</time>
      </trkpt>
      <trkpt lat="44.51138" lon="0.6914">
        <ele>140.6</ele>
        <time>2018-07-22T13:32:52Z</time>
      </trkpt>
      <trkpt lat="44.51139" lon="0.69144">
        <ele>140.6</ele>
        <time>2018-07-22T13:32:54Z</time>
      </trkpt>
      <trkpt lat="44.5114" lon="0.69149">
        <ele>140.6</ele>
        <time>2018-07-22T13:32:56Z</time>
      </trkpt>
      <trkpt lat="44.51141" lon="0.69153">
        <ele>140.5</ele>
        <time>2018-07-22T13:32:58Z</time>
      </trkpt>
      <trkpt lat="44.51141" lon="0.69157">
        <ele>140.5</ele>
        <time>2018-07-22T13:33:00Z</time>
      </trkpt>
      <trkpt lat="44.51142" lon="0.69161">
        <ele>140.4</ele>
        <time>2018-07-22T13:33:02Z</time>
      </trkpt>
      <trkpt lat="44.51142" lon="0.69165">
        <ele>140.4</ele>
        <time>2018-07-22T13:33:04Z</time>
      </trkpt>
      <trkpt lat="44.51142" lon="0.69169">
        <ele>140.3</ele>
        <time>2018-07-22T13:33:06Z</time>
      </trkpt>
      <trkpt lat="44.51143" lon="0.69174">
        <ele>140.2</ele>
        <time>2018-07-22T13:33:08Z</time>
      </trkpt>
      <trkpt lat="44.51144" lon="0.69178">
        <ele>140.1</ele>
        <time>2018-07-22T13:33:10Z</time>
      </trkpt>
      <trkpt lat="44.51143" lon="0.69182">
        <ele>139.9</ele>
        <time>2018-07-22T13:33:12Z</time>
      </trkpt>
      <trkpt lat="44.51143" lon="0.69186">
        <ele>139.7</ele>
        <time>2018-07-22T13:33:14Z</time>
      </trkpt>
      <trkpt lat="44.51142" lon="0.69191">
        <ele>139.5</ele>
        <time>2018-07-22T13:33:17Z</time>
      </trkpt>
      <trkpt lat="44.51142" lon="0.69195">
        <ele>139.3</ele>
        <time>2018-07-22T13:33:19Z</time>
      </trkpt>
      <trkpt lat="44.51142" lon="0.69199">
        <ele>139.1</ele>
        <time>2018-07-22T13:33:21Z</time>
      </trkpt>
      <trkpt lat="44.51143" lon="0.69204">
        <ele>139</ele>
        <time>2018-07-22T13:33:23Z</time>
      </trkpt>
      <trkpt lat="44.51145" lon="0.69209">
        <ele>138.8</ele>
        <time>2018-07-22T13:33:25Z</time>
      </trkpt>
      <trkpt lat="44.51146" lon="0.69213">
        <ele>138.6</ele>
        <time>2018-07-22T13:33:27Z</time>
      </trkpt>
      <trkpt lat="44.51147" lon="0.69218">
        <ele>138.3</ele>
        <time>2018-07-22T13:33:29Z</time>
      </trkpt>
      <trkpt lat="44.51146" lon="0.69222">
        <ele>138.1</ele>
        <time>2018-07-22T13:33:31Z</time>
      </trkpt>
      <trkpt lat="44.51145" lon="0.69225">
        <ele>137.8</ele>
        <time>2018-07-22T13:33:33Z</time>
      </trkpt>
      <trkpt lat="44.51146" lon="0.69229">
        <ele>137.6</ele>
        <time>2018-07-22T13:33:35Z</time>
      </trkpt>
      <trkpt lat="44.51147" lon="0.69233">
        <ele>137.4</ele>
        <time>2018-07-22T13:33:37Z</time>
      </trkpt>
      <trkpt lat="44.51148" lon="0.69237">
        <ele>137.2</ele>
        <time>2018-07-22T13:33:39Z</time>
      </trkpt>
      <trkpt lat="44.51149" lon="0.69241">
        <ele>137.1</ele>
        <time>2018-07-22T13:33:41Z</time>
      </trkpt>
      <trkpt lat="44.51151" lon="0.69246">
        <ele>136.9</ele>
        <time>2018-07-22T13:33:44Z</time>
      </trkpt>
      <trkpt lat="44.51153" lon="0.69249">
        <ele>136.6</ele>
        <time>2018-07-22T13:33:46Z</time>
      </trkpt>
      <trkpt lat="44.51154" lon="0.69254">
        <ele>136.3</ele>
        <time>2018-07-22T13:33:49Z</time>
      </trkpt>
      <trkpt lat="44.51153" lon="0.69259">
        <ele>135.9</ele>
        <time>2018-07-22T13:33:51Z</time>
      </trkpt>
      <trkpt lat="44.51153" lon="0.69263">
        <ele>135.6</ele>
        <time>2018-07-22T13:33:53Z</time>
      </trkpt>
      <trkpt lat="44.51152" lon="0.69267">
        <ele>135.4</ele>
        <time>2018-07-22T13:33:55Z</time>
      </trkpt>
      <trkpt lat="44.51153" lon="0.69272">
        <ele>135.1</ele>
        <time>2018-07-22T13:33:57Z</time>
      </trkpt>
      <trkpt lat="44.51154" lon="0.69277">
        <ele>134.7</ele>
        <time>2018-07-22T13:33:59Z</time>
      </trkpt>
      <trkpt lat="44.51155" lon="0.6928">
        <ele>134.4</ele>
        <time>2018-07-22T13:34:01Z</time>
      </trkpt>
      <trkpt lat="44.51155" lon="0.69285">
        <ele>134</ele>
        <time>2018-07-22T13:34:03Z</time>
      </trkpt>
      <trkpt lat="44.51156" lon="0.69289">
        <ele>133.6</ele>
        <time>2018-07-22T13:34:05Z</time>
      </trkpt>
      <trkpt lat="44.51158" lon="0.69293">
        <ele>133.2</ele>
        <time>2018-07-22T13:34:07Z</time>
      </trkpt>
      <trkpt lat="44.5116" lon="0.69298">
        <ele>132.9</ele>
        <time>2018-07-22T13:34:09Z</time>
      </trkpt>
      <trkpt lat="44.51161" lon="0.69304">
        <ele>132.5</ele>
        <time>2018-07-22T13:34:11Z</time>
      </trkpt>
      <trkpt lat="44.51162" lon="0.69308">
        <ele>132.1</ele>
        <time>2018-07-22T13:34:13Z</time>
      </trkpt>
      <trkpt lat="44.51162" lon="0.69313">
        <ele>131.8</ele>
        <time>2018-07-22T13:34:15Z</time>
      </trkpt>
      <trkpt lat="44.51163" lon="0.69317">
        <ele>131.5</ele>
        <time>2018-07-22T13:34:17Z</time>
      </trkpt>
      <trkpt lat="44.51165" lon="0.69321">
        <ele>131.2</ele>
        <time>2018-07-22T13:34:19Z</time>
      </trkpt>
      <trkpt lat="44.51165" lon="0.69326">
        <ele>131</ele>
        <time>2018-07-22T13:34:21Z</time>
      </trkpt>
      <trkpt lat="44.51165" lon="0.69331">
        <ele>130.6</ele>
        <time>2018-07-22T13:34:23Z</time>
      </trkpt>
      <trkpt lat="44.51165" lon="0.69336">
        <ele>130.2</ele>
        <time>2018-07-22T13:34:25Z</time>
      </trkpt>
      <trkpt lat="44.51166" lon="0.69341">
        <ele>129.8</ele>
        <time>2018-07-22T13:34:27Z</time>
      </trkpt>
      <trkpt lat="44.51167" lon="0.69346">
        <ele>129.6</ele>
        <time>2018-07-22T13:34:29Z</time>
      </trkpt>
      <trkpt lat="44.51168" lon="0.69351">
        <ele>129.4</ele>
        <time>2018-07-22T13:34:31Z</time>
      </trkpt>
      <trkpt lat="44.5117" lon="0.69355">
        <ele>129.3</ele>
        <time>2018-07-22T13:34:33Z</time>
      </trkpt>
      <trkpt lat="44.51171" lon="0.69359">
        <ele>129.1</ele>
        <time>2018-07-22T13:34:36Z</time>
      </trkpt>
      <trkpt lat="44.51174" lon="0.69362">
        <ele>128.9</ele>
        <time>2018-07-22T13:34:38Z</time>
      </trkpt>
      <trkpt lat="44.51176" lon="0.69365">
        <ele>128.6</ele>
        <time>2018-07-22T13:34:40Z</time>
      </trkpt>
      <trkpt lat="44.51177" lon="0.6937">
        <ele>128.3</ele>
        <time>2018-07-22T13:34:43Z</time>
      </trkpt>
      <trkpt lat="44.51178" lon="0.69374">
        <ele>127.8</ele>
        <time>2018-07-22T13:34:46Z</time>
      </trkpt>
      <trkpt lat="44.51181" lon="0.69377">
        <ele>127.5</ele>
        <time>2018-07-22T13:34:48Z</time>
      </trkpt>
      <trkpt lat="44.51183" lon="0.69381">
        <ele>127.2</ele>
        <time>2018-07-22T13:34:50Z</time>
      </trkpt>
      <trkpt lat="44.51185" lon="0.69384">
        <ele>126.8</ele>
        <time>2018-07-22T13:34:52Z</time>
      </trkpt>
      <trkpt lat="44.51187" lon="0.69386">
        <ele>126.4</ele>
        <time>2018-07-22T13:34:54Z</time>
      </trkpt>
      <trkpt lat="44.51189" lon="0.6939">
        <ele>126.1</ele>
        <time>2018-07-22T13:34:56Z</time>
      </trkpt>
      <trkpt lat="44.51191" lon="0.69392">
        <ele>125.8</ele>
        <time>2018-07-22T13:34:58Z</time>
      </trkpt>
      <trkpt lat="44.51194" lon="0.69394">
        <ele>125.6</ele>
        <time>2018-07-22T13:35:00Z</time>
      </trkpt>
      <trkpt lat="44.51197" lon="0.69394">
        <ele>125.3</ele>
        <time>2018-07-22T13:35:02Z</time>
      </trkpt>
      <trkpt lat="44.512" lon="0.69391">
        <ele>125.1</ele>
        <time>2018-07-22T13:35:04Z</time>
      </trkpt>
      <trkpt lat="44.51202" lon="0.69388">
        <ele>125.6</ele>
        <time>2018-07-22T13:35:06Z</time>
      </trkpt>
      <trkpt lat="44.51205" lon="0.69385">
        <ele>125.7</ele>
        <time>2018-07-22T13:35:09Z</time>
      </trkpt>
      <trkpt lat="44.51207" lon="0.69383">
        <ele>125.5</ele>
        <time>2018-07-22T13:35:11Z</time>
      </trkpt>
      <trkpt lat="44.5121" lon="0.69382">
        <ele>125.2</ele>
        <time>2018-07-22T13:35:13Z</time>
      </trkpt>
      <trkpt lat="44.51213" lon="0.69378">
        <ele>125.3</ele>
        <time>2018-07-22T13:35:15Z</time>
      </trkpt>
      <trkpt lat="44.51215" lon="0.69375">
        <ele>125.4</ele>
        <time>2018-07-22T13:35:18Z</time>
      </trkpt>
      <trkpt lat="44.51217" lon="0.69372">
        <ele>125.9</ele>
        <time>2018-07-22T13:35:20Z</time>
      </trkpt>
      <trkpt lat="44.5122" lon="0.69369">
        <ele>125.4</ele>
        <time>2018-07-22T13:35:22Z</time>
      </trkpt>
      <trkpt lat="44.51223" lon="0.69366">
        <ele>125.5</ele>
        <time>2018-07-22T13:35:24Z</time>
      </trkpt>
      <trkpt lat="44.51226" lon="0.69364">
        <ele>125.2</ele>
        <time>2018-07-22T13:35:26Z</time>
      </trkpt>
      <trkpt lat="44.51229" lon="0.69363">
        <ele>125.3</ele>
        <time>2018-07-22T13:35:28Z</time>
      </trkpt>
      <trkpt lat="44.51233" lon="0.69362">
        <ele>125</ele>
        <time>2018-07-22T13:35:30Z</time>
      </trkpt>
      <trkpt lat="44.51236" lon="0.69361">
        <ele>124.8</ele>
        <time>2018-07-22T13:35:32Z</time>
      </trkpt>
      <trkpt lat="44.51239" lon="0.69359">
        <ele>124.9</ele>
        <time>2018-07-22T13:35:35Z</time>
      </trkpt>
      <trkpt lat="44.51242" lon="0.69356">
        <ele>124.6</ele>
        <time>2018-07-22T13:35:37Z</time>
      </trkpt>
      <trkpt lat="44.51246" lon="0.69354">
        <ele>124.4</ele>
        <time>2018-07-22T13:35:39Z</time>
      </trkpt>
      <trkpt lat="44.51249" lon="0.69353">
        <ele>124.1</ele>
        <time>2018-07-22T13:35:41Z</time>
      </trkpt>
      <trkpt lat="44.51252" lon="0.69351">
        <ele>124.2</ele>
        <time>2018-07-22T13:35:43Z</time>
      </trkpt>
      <trkpt lat="44.51255" lon="0.69349">
        <ele>123.9</ele>
        <time>2018-07-22T13:35:45Z</time>
      </trkpt>
      <trkpt lat="44.51258" lon="0.69348">
        <ele>123.6</ele>
        <time>2018-07-22T13:35:47Z</time>
      </trkpt>
      <trkpt lat="44.51262" lon="0.69346">
        <ele>123.7</ele>
        <time>2018-07-22T13:35:49Z</time>
      </trkpt>
      <trkpt lat="44.51266" lon="0.69344">
        <ele>123.5</ele>
        <time>2018-07-22T13:35:51Z</time>
      </trkpt>
      <trkpt lat="44.51269" lon="0.69342">
        <ele>123.6</ele>
        <time>2018-07-22T13:35:53Z</time>
      </trkpt>
      <trkpt lat="44.51273" lon="0.69341">
        <ele>123.4</ele>
        <time>2018-07-22T13:35:55Z</time>
      </trkpt>
      <trkpt lat="44.51276" lon="0.69339">
        <ele>123.2</ele>
        <time>2018-07-22T13:35:57Z</time>
      </trkpt>
      <trkpt lat="44.51279" lon="0.69338">
        <ele>123.2</ele>
        <time>2018-07-22T13:35:59Z</time>
      </trkpt>
      <trkpt lat="44.51281" lon="0.69336">
        <ele>123</ele>
        <time>2018-07-22T13:36:01Z</time>
      </trkpt>
      <trkpt lat="44.51284" lon="0.69334">
        <ele>123</ele>
        <time>2018-07-22T13:36:04Z</time>
      </trkpt>
      <trkpt lat="44.51287" lon="0.69332">
        <ele>122.8</ele>
        <time>2018-07-22T13:36:07Z</time>
      </trkpt>
      <trkpt lat="44.51289" lon="0.6933">
        <ele>122.9</ele>
        <time>2018-07-22T13:36:11Z</time>
      </trkpt>
      <trkpt lat="44.51291" lon="0.69326">
        <ele>123</ele>
        <time>2018-07-22T13:36:16Z</time>
      </trkpt>
      <trkpt lat="44.51293" lon="0.69322">
        <ele>123</ele>
        <time>2018-07-22T13:36:19Z</time>
      </trkpt>
      <trkpt lat="44.51296" lon="0.6932">
        <ele>123.1</ele>
        <time>2018-07-22T13:36:22Z</time>
      </trkpt>
      <trkpt lat="44.51299" lon="0.69318">
        <ele>122.8</ele>
        <time>2018-07-22T13:36:24Z</time>
      </trkpt>
      <trkpt lat="44.51302" lon="0.69316">
        <ele>122.8</ele>
        <time>2018-07-22T13:36:27Z</time>
      </trkpt>
      <trkpt lat="44.51304" lon="0.69314">
        <ele>122.5</ele>
        <time>2018-07-22T13:36:29Z</time>
      </trkpt>
      <trkpt lat="44.51308" lon="0.69312">
        <ele>122.4</ele>
        <time>2018-07-22T13:36:31Z</time>
      </trkpt>
      <trkpt lat="44.5131" lon="0.6931">
        <ele>122.2</ele>
        <time>2018-07-22T13:36:33Z</time>
      </trkpt>
      <trkpt lat="44.51313" lon="0.69307">
        <ele>122.1</ele>
        <time>2018-07-22T13:36:35Z</time>
      </trkpt>
      <trkpt lat="44.51317" lon="0.69305">
        <ele>121.9</ele>
        <time>2018-07-22T13:36:37Z</time>
      </trkpt>
      <trkpt lat="44.5132" lon="0.69304">
        <ele>121.8</ele>
        <time>2018-07-22T13:36:40Z</time>
      </trkpt>
      <trkpt lat="44.51323" lon="0.69302">
        <ele>121.7</ele>
        <time>2018-07-22T13:36:42Z</time>
      </trkpt>
      <trkpt lat="44.51325" lon="0.693">
        <ele>121.5</ele>
        <time>2018-07-22T13:36:44Z</time>
      </trkpt>
      <trkpt lat="44.51329" lon="0.69298">
        <ele>121.4</ele>
        <time>2018-07-22T13:36:46Z</time>
      </trkpt>
      <trkpt lat="44.51331" lon="0.69296">
        <ele>121.2</ele>
        <time>2018-07-22T13:36:48Z</time>
      </trkpt>
      <trkpt lat="44.51334" lon="0.69293">
        <ele>121.4</ele>
        <time>2018-07-22T13:36:50Z</time>
      </trkpt>
      <trkpt lat="44.51337" lon="0.69291">
        <ele>121.1</ele>
        <time>2018-07-22T13:36:52Z</time>
      </trkpt>
      <trkpt lat="44.5134" lon="0.69289">
        <ele>121.2</ele>
        <time>2018-07-22T13:36:54Z</time>
      </trkpt>
      <trkpt lat="44.51343" lon="0.69287">
        <ele>121.1</ele>
        <time>2018-07-22T13:36:56Z</time>
      </trkpt>
      <trkpt lat="44.51346" lon="0.69285">
        <ele>121.1</ele>
        <time>2018-07-22T13:36:58Z</time>
      </trkpt>
      <trkpt lat="44.51349" lon="0.69282">
        <ele>121</ele>
        <time>2018-07-22T13:37:00Z</time>
      </trkpt>
      <trkpt lat="44.51352" lon="0.6928">
        <ele>120.8</ele>
        <time>2018-07-22T13:37:02Z</time>
      </trkpt>
      <trkpt lat="44.51355" lon="0.69278">
        <ele>121.1</ele>
        <time>2018-07-22T13:37:04Z</time>
      </trkpt>
      <trkpt lat="44.51358" lon="0.69276">
        <ele>120.9</ele>
        <time>2018-07-22T13:37:06Z</time>
      </trkpt>
      <trkpt lat="44.51362" lon="0.69273">
        <ele>120.6</ele>
        <time>2018-07-22T13:37:09Z</time>
      </trkpt>
      <trkpt lat="44.51365" lon="0.69271">
        <ele>120.4</ele>
        <time>2018-07-22T13:37:12Z</time>
      </trkpt>
      <trkpt lat="44.51369" lon="0.6927">
        <ele>120.3</ele>
        <time>2018-07-22T13:37:15Z</time>
      </trkpt>
      <trkpt lat="44.51371" lon="0.69272">
        <ele>120</ele>
        <time>2018-07-22T13:37:17Z</time>
      </trkpt>
      <trkpt lat="44.51373" lon="0.69267">
        <ele>120.2</ele>
        <time>2018-07-22T13:37:56Z</time>
      </trkpt>
      <trkpt lat="44.51374" lon="0.69262">
        <ele>120.1</ele>
        <time>2018-07-22T13:37:58Z</time>
      </trkpt>
      <trkpt lat="44.51376" lon="0.69258">
        <ele>120.3</ele>
        <time>2018-07-22T13:38:00Z</time>
      </trkpt>
      <trkpt lat="44.51378" lon="0.69255">
        <ele>120.2</ele>
        <time>2018-07-22T13:38:02Z</time>
      </trkpt>
      <trkpt lat="44.51382" lon="0.69253">
        <ele>120</ele>
        <time>2018-07-22T13:38:04Z</time>
      </trkpt>
      <trkpt lat="44.51384" lon="0.69251">
        <ele>119.9</ele>
        <time>2018-07-22T13:38:06Z</time>
      </trkpt>
      <trkpt lat="44.51388" lon="0.69247">
        <ele>119.8</ele>
        <time>2018-07-22T13:38:08Z</time>
      </trkpt>
      <trkpt lat="44.51391" lon="0.69243">
        <ele>119.7</ele>
        <time>2018-07-22T13:38:10Z</time>
      </trkpt>
      <trkpt lat="44.51395" lon="0.69239">
        <ele>119.7</ele>
        <time>2018-07-22T13:38:12Z</time>
      </trkpt>
      <trkpt lat="44.51397" lon="0.69234">
        <ele>119.6</ele>
        <time>2018-07-22T13:38:14Z</time>
      </trkpt>
      <trkpt lat="44.51398" lon="0.69227">
        <ele>119.6</ele>
        <time>2018-07-22T13:38:16Z</time>
      </trkpt>
      <trkpt lat="44.51399" lon="0.6922">
        <ele>120</ele>
        <time>2018-07-22T13:38:18Z</time>
      </trkpt>
      <trkpt lat="44.514" lon="0.69214">
        <ele>120.4</ele>
        <time>2018-07-22T13:38:20Z</time>
      </trkpt>
      <trkpt lat="44.51402" lon="0.69207">
        <ele>120.4</ele>
        <time>2018-07-22T13:38:22Z</time>
      </trkpt>
      <trkpt lat="44.51403" lon="0.69201">
        <ele>120.6</ele>
        <time>2018-07-22T13:38:24Z</time>
      </trkpt>
      <trkpt lat="44.51406" lon="0.69195">
        <ele>120.8</ele>
        <time>2018-07-22T13:38:26Z</time>
      </trkpt>
      <trkpt lat="44.51408" lon="0.69189">
        <ele>120.7</ele>
        <time>2018-07-22T13:38:28Z</time>
      </trkpt>
      <trkpt lat="44.5141" lon="0.69183">
        <ele>121.2</ele>
        <time>2018-07-22T13:38:30Z</time>
      </trkpt>
      <trkpt lat="44.51412" lon="0.69177">
        <ele>121.1</ele>
        <time>2018-07-22T13:38:32Z</time>
      </trkpt>
      <trkpt lat="44.51414" lon="0.6917">
        <ele>121.3</ele>
        <time>2018-07-22T13:38:34Z</time>
      </trkpt>
      <trkpt lat="44.51416" lon="0.69164">
        <ele>121.6</ele>
        <time>2018-07-22T13:38:36Z</time>
      </trkpt>
      <trkpt lat="44.51418" lon="0.69158">
        <ele>121.9</ele>
        <time>2018-07-22T13:38:38Z</time>
      </trkpt>
      <trkpt lat="44.5142" lon="0.69152">
        <ele>121.9</ele>
        <time>2018-07-22T13:38:40Z</time>
      </trkpt>
      <trkpt lat="44.51422" lon="0.69147">
        <ele>122.3</ele>
        <time>2018-07-22T13:38:42Z</time>
      </trkpt>
      <trkpt lat="44.51423" lon="0.69141">
        <ele>122.4</ele>
        <time>2018-07-22T13:38:44Z</time>
      </trkpt>
      <trkpt lat="44.51425" lon="0.69136">
        <ele>122.9</ele>
        <time>2018-07-22T13:38:46Z</time>
      </trkpt>
      <trkpt lat="44.51427" lon="0.69131">
        <ele>123</ele>
        <time>2018-07-22T13:38:48Z</time>
      </trkpt>
      <trkpt lat="44.51428" lon="0.69125">
        <ele>123.3</ele>
        <time>2018-07-22T13:38:50Z</time>
      </trkpt>
      <trkpt lat="44.5143" lon="0.6912">
        <ele>123.4</ele>
        <time>2018-07-22T13:38:52Z</time>
      </trkpt>
      <trkpt lat="44.51432" lon="0.69115">
        <ele>123.9</ele>
        <time>2018-07-22T13:38:54Z</time>
      </trkpt>
      <trkpt lat="44.51433" lon="0.6911">
        <ele>124</ele>
        <time>2018-07-22T13:38:56Z</time>
      </trkpt>
      <trkpt lat="44.51435" lon="0.69105">
        <ele>124.4</ele>
        <time>2018-07-22T13:38:58Z</time>
      </trkpt>
      <trkpt lat="44.51437" lon="0.69099">
        <ele>124.5</ele>
        <time>2018-07-22T13:39:00Z</time>
      </trkpt>
      <trkpt lat="44.51439" lon="0.69094">
        <ele>124.8</ele>
        <time>2018-07-22T13:39:02Z</time>
      </trkpt>
      <trkpt lat="44.5144" lon="0.69089">
        <ele>125.1</ele>
        <time>2018-07-22T13:39:04Z</time>
      </trkpt>
      <trkpt lat="44.51442" lon="0.69083">
        <ele>125.2</ele>
        <time>2018-07-22T13:39:06Z</time>
      </trkpt>
      <trkpt lat="44.51444" lon="0.69079">
        <ele>125.5</ele>
        <time>2018-07-22T13:39:08Z</time>
      </trkpt>
      <trkpt lat="44.51445" lon="0.69074">
        <ele>125.5</ele>
        <time>2018-07-22T13:39:11Z</time>
      </trkpt>
      <trkpt lat="44.51448" lon="0.6907">
        <ele>125.5</ele>
        <time>2018-07-22T13:39:14Z</time>
      </trkpt>
      <trkpt lat="44.5145" lon="0.69069">
        <ele>125.3</ele>
        <time>2018-07-22T13:39:16Z</time>
      </trkpt>
      <trkpt lat="44.51454" lon="0.69072">
        <ele>125.2</ele>
        <time>2018-07-22T13:39:18Z</time>
      </trkpt>
      <trkpt lat="44.51456" lon="0.69076">
        <ele>125.1</ele>
        <time>2018-07-22T13:39:20Z</time>
      </trkpt>
      <trkpt lat="44.51459" lon="0.6908">
        <ele>124.8</ele>
        <time>2018-07-22T13:39:22Z</time>
      </trkpt>
      <trkpt lat="44.51462" lon="0.69082">
        <ele>124.5</ele>
        <time>2018-07-22T13:39:24Z</time>
      </trkpt>
      <trkpt lat="44.51465" lon="0.69083">
        <ele>124.4</ele>
        <time>2018-07-22T13:39:27Z</time>
      </trkpt>
      <trkpt lat="44.51469" lon="0.69083">
        <ele>124</ele>
        <time>2018-07-22T13:39:31Z</time>
      </trkpt>
      <trkpt lat="44.51472" lon="0.69082">
        <ele>123.8</ele>
        <time>2018-07-22T13:39:33Z</time>
      </trkpt>
      <trkpt lat="44.51476" lon="0.69082">
        <ele>123.7</ele>
        <time>2018-07-22T13:39:35Z</time>
      </trkpt>
      <trkpt lat="44.5148" lon="0.69083">
        <ele>123.6</ele>
        <time>2018-07-22T13:39:37Z</time>
      </trkpt>
      <trkpt lat="44.51483" lon="0.69086">
        <ele>123.4</ele>
        <time>2018-07-22T13:39:39Z</time>
      </trkpt>
      <trkpt lat="44.51485" lon="0.69088">
        <ele>123.3</ele>
        <time>2018-07-22T13:39:41Z</time>
      </trkpt>
      <trkpt lat="44.51488" lon="0.69091">
        <ele>123.2</ele>
        <time>2018-07-22T13:39:44Z</time>
      </trkpt>
      <trkpt lat="44.5149" lon="0.69094">
        <ele>123.2</ele>
        <time>2018-07-22T13:39:46Z</time>
      </trkpt>
      <trkpt lat="44.51493" lon="0.69097">
        <ele>123.2</ele>
        <time>2018-07-22T13:39:48Z</time>
      </trkpt>
      <trkpt lat="44.51496" lon="0.691">
        <ele>123.3</ele>
        <time>2018-07-22T13:39:50Z</time>
      </trkpt>
      <trkpt lat="44.51499" lon="0.69102">
        <ele>123.4</ele>
        <time>2018-07-22T13:39:52Z</time>
      </trkpt>
      <trkpt lat="44.51502" lon="0.69105">
        <ele>123.6</ele>
        <time>2018-07-22T13:39:54Z</time>
      </trkpt>
      <trkpt lat="44.51504" lon="0.69108">
        <ele>123.9</ele>
        <time>2018-07-22T13:39:56Z</time>
      </trkpt>
      <trkpt lat="44.51507" lon="0.69111">
        <ele>124.2</ele>
        <time>2018-07-22T13:39:59Z</time>
      </trkpt>
      <trkpt lat="44.5151" lon="0.69114">
        <ele>124.6</ele>
        <time>2018-07-22T13:40:02Z</time>
      </trkpt>
      <trkpt lat="44.51513" lon="0.69117">
        <ele>124.9</ele>
        <time>2018-07-22T13:40:05Z</time>
      </trkpt>
      <trkpt lat="44.51515" lon="0.69119">
        <ele>125.3</ele>
        <time>2018-07-22T13:40:07Z</time>
      </trkpt>
      <trkpt lat="44.51519" lon="0.69122">
        <ele>125.7</ele>
        <time>2018-07-22T13:40:10Z</time>
      </trkpt>
      <trkpt lat="44.51521" lon="0.69124">
        <ele>126.1</ele>
        <time>2018-07-22T13:40:12Z</time>
      </trkpt>
      <trkpt lat="44.51524" lon="0.69126">
        <ele>126.4</ele>
        <time>2018-07-22T13:40:14Z</time>
      </trkpt>
      <trkpt lat="44.51526" lon="0.69128">
        <ele>126.5</ele>
        <time>2018-07-22T13:40:16Z</time>
      </trkpt>
      <trkpt lat="44.51529" lon="0.6913">
        <ele>126.8</ele>
        <time>2018-07-22T13:40:18Z</time>
      </trkpt>
      <trkpt lat="44.51532" lon="0.69132">
        <ele>127.2</ele>
        <time>2018-07-22T13:40:20Z</time>
      </trkpt>
      <trkpt lat="44.51535" lon="0.69133">
        <ele>127.4</ele>
        <time>2018-07-22T13:40:22Z</time>
      </trkpt>
      <trkpt lat="44.51537" lon="0.69135">
        <ele>127.7</ele>
        <time>2018-07-22T13:40:24Z</time>
      </trkpt>
      <trkpt lat="44.5154" lon="0.69136">
        <ele>128</ele>
        <time>2018-07-22T13:40:26Z</time>
      </trkpt>
      <trkpt lat="44.51544" lon="0.69139">
        <ele>128.2</ele>
        <time>2018-07-22T13:40:29Z</time>
      </trkpt>
      <trkpt lat="44.51546" lon="0.6914">
        <ele>128.5</ele>
        <time>2018-07-22T13:40:31Z</time>
      </trkpt>
      <trkpt lat="44.51549" lon="0.69142">
        <ele>128.7</ele>
        <time>2018-07-22T13:40:34Z</time>
      </trkpt>
      <trkpt lat="44.51553" lon="0.69145">
        <ele>129</ele>
        <time>2018-07-22T13:40:37Z</time>
      </trkpt>
      <trkpt lat="44.51556" lon="0.69146">
        <ele>129.3</ele>
        <time>2018-07-22T13:40:39Z</time>
      </trkpt>
      <trkpt lat="44.51559" lon="0.69149">
        <ele>129.5</ele>
        <time>2018-07-22T13:40:42Z</time>
      </trkpt>
      <trkpt lat="44.51562" lon="0.6915">
        <ele>129.8</ele>
        <time>2018-07-22T13:40:44Z</time>
      </trkpt>
      <trkpt lat="44.51565" lon="0.69152">
        <ele>130.1</ele>
        <time>2018-07-22T13:40:46Z</time>
      </trkpt>
      <trkpt lat="44.51567" lon="0.69154">
        <ele>130.3</ele>
        <time>2018-07-22T13:40:48Z</time>
      </trkpt>
      <trkpt lat="44.5157" lon="0.69155">
        <ele>130.5</ele>
        <time>2018-07-22T13:40:50Z</time>
      </trkpt>
      <trkpt lat="44.51573" lon="0.69157">
        <ele>130.6</ele>
        <time>2018-07-22T13:40:52Z</time>
      </trkpt>
      <trkpt lat="44.51576" lon="0.69159">
        <ele>130.8</ele>
        <time>2018-07-22T13:40:55Z</time>
      </trkpt>
      <trkpt lat="44.51579" lon="0.69161">
        <ele>131.1</ele>
        <time>2018-07-22T13:40:58Z</time>
      </trkpt>
      <trkpt lat="44.51582" lon="0.69163">
        <ele>131.5</ele>
        <time>2018-07-22T13:41:01Z</time>
      </trkpt>
      <trkpt lat="44.51585" lon="0.69165">
        <ele>131.6</ele>
        <time>2018-07-22T13:41:03Z</time>
      </trkpt>
      <trkpt lat="44.51588" lon="0.69168">
        <ele>132</ele>
        <time>2018-07-22T13:41:06Z</time>
      </trkpt>
      <trkpt lat="44.51591" lon="0.69171">
        <ele>132.2</ele>
        <time>2018-07-22T13:41:09Z</time>
      </trkpt>
      <trkpt lat="44.51593" lon="0.69173">
        <ele>132.3</ele>
        <time>2018-07-22T13:41:11Z</time>
      </trkpt>
      <trkpt lat="44.51596" lon="0.69175">
        <ele>132.5</ele>
        <time>2018-07-22T13:41:13Z</time>
      </trkpt>
      <trkpt lat="44.51598" lon="0.69177">
        <ele>132.8</ele>
        <time>2018-07-22T13:41:15Z</time>
      </trkpt>
      <trkpt lat="44.51601" lon="0.69179">
        <ele>133.1</ele>
        <time>2018-07-22T13:41:18Z</time>
      </trkpt>
      <trkpt lat="44.51604" lon="0.69182">
        <ele>133.4</ele>
        <time>2018-07-22T13:41:21Z</time>
      </trkpt>
      <trkpt lat="44.51607" lon="0.69185">
        <ele>133.8</ele>
        <time>2018-07-22T13:41:24Z</time>
      </trkpt>
      <trkpt lat="44.51609" lon="0.69188">
        <ele>133.9</ele>
        <time>2018-07-22T13:41:26Z</time>
      </trkpt>
      <trkpt lat="44.51612" lon="0.69191">
        <ele>134.5</ele>
        <time>2018-07-22T13:41:29Z</time>
      </trkpt>
      <trkpt lat="44.51616" lon="0.69192">
        <ele>134.8</ele>
        <time>2018-07-22T13:41:32Z</time>
      </trkpt>
      <trkpt lat="44.51619" lon="0.69195">
        <ele>135.2</ele>
        <time>2018-07-22T13:41:35Z</time>
      </trkpt>
      <trkpt lat="44.51622" lon="0.69197">
        <ele>135.5</ele>
        <time>2018-07-22T13:41:38Z</time>
      </trkpt>
      <trkpt lat="44.51625" lon="0.692">
        <ele>135.8</ele>
        <time>2018-07-22T13:41:41Z</time>
      </trkpt>
      <trkpt lat="44.51628" lon="0.69202">
        <ele>136.1</ele>
        <time>2018-07-22T13:41:43Z</time>
      </trkpt>
      <trkpt lat="44.51631" lon="0.69206">
        <ele>136.5</ele>
        <time>2018-07-22T13:41:46Z</time>
      </trkpt>
      <trkpt lat="44.51633" lon="0.69208">
        <ele>136.6</ele>
        <time>2018-07-22T13:41:48Z</time>
      </trkpt>
      <trkpt lat="44.51636" lon="0.69211">
        <ele>136.9</ele>
        <time>2018-07-22T13:41:51Z</time>
      </trkpt>
      <trkpt lat="44.51639" lon="0.69213">
        <ele>137.2</ele>
        <time>2018-07-22T13:41:54Z</time>
      </trkpt>
      <trkpt lat="44.51643" lon="0.69216">
        <ele>137.2</ele>
        <time>2018-07-22T13:41:57Z</time>
      </trkpt>
      <trkpt lat="44.51646" lon="0.69219">
        <ele>137.2</ele>
        <time>2018-07-22T13:42:00Z</time>
      </trkpt>
      <trkpt lat="44.51648" lon="0.69222">
        <ele>137.1</ele>
        <time>2018-07-22T13:42:02Z</time>
      </trkpt>
      <trkpt lat="44.5165" lon="0.69224">
        <ele>137.1</ele>
        <time>2018-07-22T13:42:04Z</time>
      </trkpt>
      <trkpt lat="44.51653" lon="0.69227">
        <ele>137.1</ele>
        <time>2018-07-22T13:42:07Z</time>
      </trkpt>
      <trkpt lat="44.51655" lon="0.6923">
        <ele>137</ele>
        <time>2018-07-22T13:42:09Z</time>
      </trkpt>
      <trkpt lat="44.51658" lon="0.69233">
        <ele>137</ele>
        <time>2018-07-22T13:42:11Z</time>
      </trkpt>
      <trkpt lat="44.5166" lon="0.69234">
        <ele>137.4</ele>
        <time>2018-07-22T13:42:14Z</time>
      </trkpt>
      <trkpt lat="44.51664" lon="0.69236">
        <ele>137.9</ele>
        <time>2018-07-22T13:42:17Z</time>
      </trkpt>
      <trkpt lat="44.51667" lon="0.69238">
        <ele>138.3</ele>
        <time>2018-07-22T13:42:20Z</time>
      </trkpt>
      <trkpt lat="44.5167" lon="0.6924">
        <ele>138.8</ele>
        <time>2018-07-22T13:42:23Z</time>
      </trkpt>
      <trkpt lat="44.51672" lon="0.69242">
        <ele>139.2</ele>
        <time>2018-07-22T13:42:26Z</time>
      </trkpt>
      <trkpt lat="44.51676" lon="0.69245">
        <ele>139.8</ele>
        <time>2018-07-22T13:42:29Z</time>
      </trkpt>
      <trkpt lat="44.51679" lon="0.69247">
        <ele>140.2</ele>
        <time>2018-07-22T13:42:32Z</time>
      </trkpt>
      <trkpt lat="44.51682" lon="0.69249">
        <ele>140.7</ele>
        <time>2018-07-22T13:42:35Z</time>
      </trkpt>
      <trkpt lat="44.51684" lon="0.69251">
        <ele>141</ele>
        <time>2018-07-22T13:42:38Z</time>
      </trkpt>
      <trkpt lat="44.51687" lon="0.69254">
        <ele>141.6</ele>
        <time>2018-07-22T13:42:41Z</time>
      </trkpt>
      <trkpt lat="44.5169" lon="0.69256">
        <ele>141.9</ele>
        <time>2018-07-22T13:42:44Z</time>
      </trkpt>
      <trkpt lat="44.51692" lon="0.69258">
        <ele>142.5</ele>
        <time>2018-07-22T13:42:47Z</time>
      </trkpt>
      <trkpt lat="44.51695" lon="0.69261">
        <ele>142.9</ele>
        <time>2018-07-22T13:42:50Z</time>
      </trkpt>
      <trkpt lat="44.51698" lon="0.69263">
        <ele>143.5</ele>
        <time>2018-07-22T13:42:53Z</time>
      </trkpt>
      <trkpt lat="44.51701" lon="0.69265">
        <ele>143.5</ele>
        <time>2018-07-22T13:42:55Z</time>
      </trkpt>
      <trkpt lat="44.51704" lon="0.69268">
        <ele>144.1</ele>
        <time>2018-07-22T13:42:58Z</time>
      </trkpt>
      <trkpt lat="44.51707" lon="0.6927">
        <ele>144.6</ele>
        <time>2018-07-22T13:43:01Z</time>
      </trkpt>
      <trkpt lat="44.5171" lon="0.69273">
        <ele>144.9</ele>
        <time>2018-07-22T13:43:04Z</time>
      </trkpt>
      <trkpt lat="44.51713" lon="0.69274">
        <ele>145.4</ele>
        <time>2018-07-22T13:43:07Z</time>
      </trkpt>
      <trkpt lat="44.51716" lon="0.69276">
        <ele>145.8</ele>
        <time>2018-07-22T13:43:10Z</time>
      </trkpt>
      <trkpt lat="44.51719" lon="0.69278">
        <ele>146.1</ele>
        <time>2018-07-22T13:43:13Z</time>
      </trkpt>
      <trkpt lat="44.51722" lon="0.6928">
        <ele>146.7</ele>
        <time>2018-07-22T13:43:16Z</time>
      </trkpt>
      <trkpt lat="44.51725" lon="0.69283">
        <ele>147.3</ele>
        <time>2018-07-22T13:43:19Z</time>
      </trkpt>
      <trkpt lat="44.51728" lon="0.69285">
        <ele>147.7</ele>
        <time>2018-07-22T13:43:22Z</time>
      </trkpt>
      <trkpt lat="44.51731" lon="0.69288">
        <ele>148.2</ele>
        <time>2018-07-22T13:43:25Z</time>
      </trkpt>
      <trkpt lat="44.51735" lon="0.6929">
        <ele>148.5</ele>
        <time>2018-07-22T13:43:28Z</time>
      </trkpt>
      <trkpt lat="44.51737" lon="0.69292">
        <ele>149.1</ele>
        <time>2018-07-22T13:43:31Z</time>
      </trkpt>
      <trkpt lat="44.5174" lon="0.69295">
        <ele>149.4</ele>
        <time>2018-07-22T13:43:34Z</time>
      </trkpt>
      <trkpt lat="44.51744" lon="0.69298">
        <ele>150</ele>
        <time>2018-07-22T13:43:37Z</time>
      </trkpt>
      <trkpt lat="44.51747" lon="0.69299">
        <ele>150.3</ele>
        <time>2018-07-22T13:43:40Z</time>
      </trkpt>
      <trkpt lat="44.5175" lon="0.69302">
        <ele>150.9</ele>
        <time>2018-07-22T13:43:43Z</time>
      </trkpt>
      <trkpt lat="44.51753" lon="0.69304">
        <ele>151.2</ele>
        <time>2018-07-22T13:43:46Z</time>
      </trkpt>
      <trkpt lat="44.51755" lon="0.69306">
        <ele>151.8</ele>
        <time>2018-07-22T13:43:49Z</time>
      </trkpt>
      <trkpt lat="44.51759" lon="0.6931">
        <ele>152.4</ele>
        <time>2018-07-22T13:43:52Z</time>
      </trkpt>
      <trkpt lat="44.51761" lon="0.69312">
        <ele>152.7</ele>
        <time>2018-07-22T13:43:55Z</time>
      </trkpt>
      <trkpt lat="44.51764" lon="0.69315">
        <ele>153.2</ele>
        <time>2018-07-22T13:43:58Z</time>
      </trkpt>
      <trkpt lat="44.51767" lon="0.69317">
        <ele>153.7</ele>
        <time>2018-07-22T13:44:01Z</time>
      </trkpt>
      <trkpt lat="44.5177" lon="0.6932">
        <ele>153.9</ele>
        <time>2018-07-22T13:44:04Z</time>
      </trkpt>
      <trkpt lat="44.51773" lon="0.69321">
        <ele>154.4</ele>
        <time>2018-07-22T13:44:07Z</time>
      </trkpt>
      <trkpt lat="44.51777" lon="0.69321">
        <ele>154.6</ele>
        <time>2018-07-22T13:44:10Z</time>
      </trkpt>
      <trkpt lat="44.51781" lon="0.69321">
        <ele>155.1</ele>
        <time>2018-07-22T13:44:13Z</time>
      </trkpt>
      <trkpt lat="44.51784" lon="0.69322">
        <ele>155.1</ele>
        <time>2018-07-22T13:44:15Z</time>
      </trkpt>
      <trkpt lat="44.51788" lon="0.69321">
        <ele>155.5</ele>
        <time>2018-07-22T13:44:18Z</time>
      </trkpt>
      <trkpt lat="44.5179" lon="0.6932">
        <ele>155.6</ele>
        <time>2018-07-22T13:44:20Z</time>
      </trkpt>
      <trkpt lat="44.51793" lon="0.69316">
        <ele>155.4</ele>
        <time>2018-07-22T13:44:22Z</time>
      </trkpt>
      <trkpt lat="44.51795" lon="0.69312">
        <ele>155.4</ele>
        <time>2018-07-22T13:44:24Z</time>
      </trkpt>
      <trkpt lat="44.51797" lon="0.69309">
        <ele>155.6</ele>
        <time>2018-07-22T13:44:26Z</time>
      </trkpt>
      <trkpt lat="44.51799" lon="0.69306">
        <ele>155.4</ele>
        <time>2018-07-22T13:44:28Z</time>
      </trkpt>
      <trkpt lat="44.51801" lon="0.69303">
        <ele>155.4</ele>
        <time>2018-07-22T13:44:30Z</time>
      </trkpt>
      <trkpt lat="44.51803" lon="0.69299">
        <ele>155.5</ele>
        <time>2018-07-22T13:44:32Z</time>
      </trkpt>
      <trkpt lat="44.51805" lon="0.69296">
        <ele>155.5</ele>
        <time>2018-07-22T13:44:34Z</time>
      </trkpt>
      <trkpt lat="44.51807" lon="0.69293">
        <ele>155.5</ele>
        <time>2018-07-22T13:44:36Z</time>
      </trkpt>
      <trkpt lat="44.51809" lon="0.69289">
        <ele>155.6</ele>
        <time>2018-07-22T13:44:38Z</time>
      </trkpt>
      <trkpt lat="44.51811" lon="0.69285">
        <ele>155.4</ele>
        <time>2018-07-22T13:44:40Z</time>
      </trkpt>
      <trkpt lat="44.51811" lon="0.69282">
        <ele>155.4</ele>
        <time>2018-07-22T13:44:42Z</time>
      </trkpt>
      <trkpt lat="44.51812" lon="0.69278">
        <ele>155.2</ele>
        <time>2018-07-22T13:44:44Z</time>
      </trkpt>
      <trkpt lat="44.51813" lon="0.69273">
        <ele>155</ele>
        <time>2018-07-22T13:44:47Z</time>
      </trkpt>
      <trkpt lat="44.51815" lon="0.69269">
        <ele>155</ele>
        <time>2018-07-22T13:44:49Z</time>
      </trkpt>
      <trkpt lat="44.51817" lon="0.69265">
        <ele>154.8</ele>
        <time>2018-07-22T13:44:52Z</time>
      </trkpt>
      <trkpt lat="44.51819" lon="0.6926">
        <ele>154.8</ele>
        <time>2018-07-22T13:44:55Z</time>
      </trkpt>
      <trkpt lat="44.5182" lon="0.69257">
        <ele>154.7</ele>
        <time>2018-07-22T13:44:57Z</time>
      </trkpt>
      <trkpt lat="44.51822" lon="0.69253">
        <ele>154.9</ele>
        <time>2018-07-22T13:45:00Z</time>
      </trkpt>
      <trkpt lat="44.51822" lon="0.69249">
        <ele>154.8</ele>
        <time>2018-07-22T13:45:04Z</time>
      </trkpt>
      <trkpt lat="44.51825" lon="0.69245">
        <ele>154.9</ele>
        <time>2018-07-22T13:45:07Z</time>
      </trkpt>
      <trkpt lat="44.51827" lon="0.69241">
        <ele>155.1</ele>
        <time>2018-07-22T13:45:10Z</time>
      </trkpt>
      <trkpt lat="44.51827" lon="0.69235">
        <ele>154.9</ele>
        <time>2018-07-22T13:45:13Z</time>
      </trkpt>
      <trkpt lat="44.51828" lon="0.6923">
        <ele>154.8</ele>
        <time>2018-07-22T13:45:15Z</time>
      </trkpt>
      <trkpt lat="44.5183" lon="0.69227">
        <ele>155.2</ele>
        <time>2018-07-22T13:45:17Z</time>
      </trkpt>
      <trkpt lat="44.51832" lon="0.69223">
        <ele>155.1</ele>
        <time>2018-07-22T13:45:19Z</time>
      </trkpt>
      <trkpt lat="44.51834" lon="0.6922">
        <ele>155.4</ele>
        <time>2018-07-22T13:45:21Z</time>
      </trkpt>
      <trkpt lat="44.51835" lon="0.69216">
        <ele>155.4</ele>
        <time>2018-07-22T13:45:23Z</time>
      </trkpt>
      <trkpt lat="44.51837" lon="0.69212">
        <ele>155.7</ele>
        <time>2018-07-22T13:45:25Z</time>
      </trkpt>
      <trkpt lat="44.51838" lon="0.69209">
        <ele>155.7</ele>
        <time>2018-07-22T13:45:27Z</time>
      </trkpt>
      <trkpt lat="44.5184" lon="0.69205">
        <ele>156</ele>
        <time>2018-07-22T13:45:29Z</time>
      </trkpt>
      <trkpt lat="44.51841" lon="0.69202">
        <ele>156</ele>
        <time>2018-07-22T13:45:31Z</time>
      </trkpt>
      <trkpt lat="44.51842" lon="0.69198">
        <ele>156</ele>
        <time>2018-07-22T13:45:33Z</time>
      </trkpt>
      <trkpt lat="44.51843" lon="0.69193">
        <ele>156.4</ele>
        <time>2018-07-22T13:45:36Z</time>
      </trkpt>
      <trkpt lat="44.51845" lon="0.69189">
        <ele>156.4</ele>
        <time>2018-07-22T13:45:38Z</time>
      </trkpt>
      <trkpt lat="44.51846" lon="0.69185">
        <ele>156.7</ele>
        <time>2018-07-22T13:45:40Z</time>
      </trkpt>
      <trkpt lat="44.51848" lon="0.6918">
        <ele>156.8</ele>
        <time>2018-07-22T13:45:43Z</time>
      </trkpt>
      <trkpt lat="44.51849" lon="0.69175">
        <ele>157.2</ele>
        <time>2018-07-22T13:45:46Z</time>
      </trkpt>
      <trkpt lat="44.51851" lon="0.6917">
        <ele>157.6</ele>
        <time>2018-07-22T13:45:49Z</time>
      </trkpt>
      <trkpt lat="44.51853" lon="0.69166">
        <ele>157.6</ele>
        <time>2018-07-22T13:45:52Z</time>
      </trkpt>
      <trkpt lat="44.51855" lon="0.69161">
        <ele>157.9</ele>
        <time>2018-07-22T13:45:55Z</time>
      </trkpt>
      <trkpt lat="44.51857" lon="0.69156">
        <ele>157.9</ele>
        <time>2018-07-22T13:45:58Z</time>
      </trkpt>
      <trkpt lat="44.51859" lon="0.69151">
        <ele>158.3</ele>
        <time>2018-07-22T13:46:01Z</time>
      </trkpt>
      <trkpt lat="44.5186" lon="0.69147">
        <ele>158.3</ele>
        <time>2018-07-22T13:46:04Z</time>
      </trkpt>
      <trkpt lat="44.51862" lon="0.69144">
        <ele>158.7</ele>
        <time>2018-07-22T13:46:06Z</time>
      </trkpt>
      <trkpt lat="44.51866" lon="0.69142">
        <ele>159</ele>
        <time>2018-07-22T13:46:09Z</time>
      </trkpt>
      <trkpt lat="44.51869" lon="0.69144">
        <ele>159.2</ele>
        <time>2018-07-22T13:46:11Z</time>
      </trkpt>
      <trkpt lat="44.51871" lon="0.69148">
        <ele>159.4</ele>
        <time>2018-07-22T13:46:13Z</time>
      </trkpt>
      <trkpt lat="44.51874" lon="0.69151">
        <ele>159.6</ele>
        <time>2018-07-22T13:46:15Z</time>
      </trkpt>
      <trkpt lat="44.51876" lon="0.69154">
        <ele>159.8</ele>
        <time>2018-07-22T13:46:17Z</time>
      </trkpt>
      <trkpt lat="44.51879" lon="0.69156">
        <ele>160.1</ele>
        <time>2018-07-22T13:46:19Z</time>
      </trkpt>
      <trkpt lat="44.51882" lon="0.69158">
        <ele>160.3</ele>
        <time>2018-07-22T13:46:21Z</time>
      </trkpt>
      <trkpt lat="44.51884" lon="0.6916">
        <ele>160.3</ele>
        <time>2018-07-22T13:46:23Z</time>
      </trkpt>
      <trkpt lat="44.51887" lon="0.69162">
        <ele>160.6</ele>
        <time>2018-07-22T13:46:25Z</time>
      </trkpt>
      <trkpt lat="44.5189" lon="0.69165">
        <ele>160.9</ele>
        <time>2018-07-22T13:46:27Z</time>
      </trkpt>
      <trkpt lat="44.51893" lon="0.69167">
        <ele>161.2</ele>
        <time>2018-07-22T13:46:29Z</time>
      </trkpt>
      <trkpt lat="44.51895" lon="0.69169">
        <ele>161.5</ele>
        <time>2018-07-22T13:46:31Z</time>
      </trkpt>
      <trkpt lat="44.51898" lon="0.69171">
        <ele>161.8</ele>
        <time>2018-07-22T13:46:33Z</time>
      </trkpt>
      <trkpt lat="44.51901" lon="0.69173">
        <ele>162</ele>
        <time>2018-07-22T13:46:35Z</time>
      </trkpt>
      <trkpt lat="44.51903" lon="0.69176">
        <ele>161.9</ele>
        <time>2018-07-22T13:46:37Z</time>
      </trkpt>
      <trkpt lat="44.51906" lon="0.69179">
        <ele>162.1</ele>
        <time>2018-07-22T13:46:39Z</time>
      </trkpt>
      <trkpt lat="44.51908" lon="0.69181">
        <ele>162.2</ele>
        <time>2018-07-22T13:46:41Z</time>
      </trkpt>
      <trkpt lat="44.51911" lon="0.69184">
        <ele>162.3</ele>
        <time>2018-07-22T13:46:44Z</time>
      </trkpt>
      <trkpt lat="44.51914" lon="0.69187">
        <ele>162.4</ele>
        <time>2018-07-22T13:46:47Z</time>
      </trkpt>
      <trkpt lat="44.51917" lon="0.6919">
        <ele>162.4</ele>
        <time>2018-07-22T13:46:50Z</time>
      </trkpt>
      <trkpt lat="44.51919" lon="0.69193">
        <ele>162.5</ele>
        <time>2018-07-22T13:46:53Z</time>
      </trkpt>
      <trkpt lat="44.51923" lon="0.69196">
        <ele>162.6</ele>
        <time>2018-07-22T13:46:56Z</time>
      </trkpt>
      <trkpt lat="44.51926" lon="0.69198">
        <ele>162.6</ele>
        <time>2018-07-22T13:46:59Z</time>
      </trkpt>
      <trkpt lat="44.51929" lon="0.69201">
        <ele>162.6</ele>
        <time>2018-07-22T13:47:02Z</time>
      </trkpt>
      <trkpt lat="44.51932" lon="0.69204">
        <ele>162.6</ele>
        <time>2018-07-22T13:47:05Z</time>
      </trkpt>
      <trkpt lat="44.51935" lon="0.69207">
        <ele>162.6</ele>
        <time>2018-07-22T13:47:08Z</time>
      </trkpt>
      <trkpt lat="44.51938" lon="0.69209">
        <ele>162.6</ele>
        <time>2018-07-22T13:47:11Z</time>
      </trkpt>
      <trkpt lat="44.51942" lon="0.69212">
        <ele>162.6</ele>
        <time>2018-07-22T13:47:14Z</time>
      </trkpt>
      <trkpt lat="44.51944" lon="0.69215">
        <ele>162.7</ele>
        <time>2018-07-22T13:47:17Z</time>
      </trkpt>
      <trkpt lat="44.51947" lon="0.69218">
        <ele>162.7</ele>
        <time>2018-07-22T13:47:20Z</time>
      </trkpt>
      <trkpt lat="44.5195" lon="0.6922">
        <ele>162.7</ele>
        <time>2018-07-22T13:47:22Z</time>
      </trkpt>
      <trkpt lat="44.51952" lon="0.69224">
        <ele>162.8</ele>
        <time>2018-07-22T13:47:25Z</time>
      </trkpt>
      <trkpt lat="44.51953" lon="0.69227">
        <ele>163</ele>
        <time>2018-07-22T13:47:28Z</time>
      </trkpt>
      <trkpt lat="44.51954" lon="0.69232">
        <ele>163.1</ele>
        <time>2018-07-22T13:47:31Z</time>
      </trkpt>
      <trkpt lat="44.51954" lon="0.69237">
        <ele>163.3</ele>
        <time>2018-07-22T13:47:34Z</time>
      </trkpt>
      <trkpt lat="44.51954" lon="0.69242">
        <ele>163.5</ele>
        <time>2018-07-22T13:47:37Z</time>
      </trkpt>
      <trkpt lat="44.51954" lon="0.69248">
        <ele>163.7</ele>
        <time>2018-07-22T13:47:40Z</time>
      </trkpt>
      <trkpt lat="44.51954" lon="0.69254">
        <ele>164.1</ele>
        <time>2018-07-22T13:47:43Z</time>
      </trkpt>
      <trkpt lat="44.51954" lon="0.69257">
        <ele>164.3</ele>
        <time>2018-07-22T13:47:45Z</time>
      </trkpt>
      <trkpt lat="44.51957" lon="0.69262">
        <ele>164.4</ele>
        <time>2018-07-22T13:47:48Z</time>
      </trkpt>
      <trkpt lat="44.51959" lon="0.69265">
        <ele>164.3</ele>
        <time>2018-07-22T13:47:51Z</time>
      </trkpt>
      <trkpt lat="44.5196" lon="0.69268">
        <ele>164.4</ele>
        <time>2018-07-22T13:47:54Z</time>
      </trkpt>
      <trkpt lat="44.51961" lon="0.69274">
        <ele>164.5</ele>
        <time>2018-07-22T13:47:57Z</time>
      </trkpt>
      <trkpt lat="44.51961" lon="0.69278">
        <ele>164.5</ele>
        <time>2018-07-22T13:48:00Z</time>
      </trkpt>
      <trkpt lat="44.51961" lon="0.69283">
        <ele>164.5</ele>
        <time>2018-07-22T13:48:03Z</time>
      </trkpt>
      <trkpt lat="44.51962" lon="0.69287">
        <ele>164.4</ele>
        <time>2018-07-22T13:48:06Z</time>
      </trkpt>
      <trkpt lat="44.51963" lon="0.69291">
        <ele>164.4</ele>
        <time>2018-07-22T13:48:09Z</time>
      </trkpt>
      <trkpt lat="44.51963" lon="0.69295">
        <ele>164.4</ele>
        <time>2018-07-22T13:48:12Z</time>
      </trkpt>
      <trkpt lat="44.51964" lon="0.69299">
        <ele>164.4</ele>
        <time>2018-07-22T13:48:15Z</time>
      </trkpt>
      <trkpt lat="44.51965" lon="0.69304">
        <ele>164.3</ele>
        <time>2018-07-22T13:48:18Z</time>
      </trkpt>
      <trkpt lat="44.51965" lon="0.69309">
        <ele>164.3</ele>
        <time>2018-07-22T13:48:21Z</time>
      </trkpt>
      <trkpt lat="44.51965" lon="0.69313">
        <ele>164.3</ele>
        <time>2018-07-22T13:48:24Z</time>
      </trkpt>
      <trkpt lat="44.51966" lon="0.69317">
        <ele>164.3</ele>
        <time>2018-07-22T13:48:27Z</time>
      </trkpt>
      <trkpt lat="44.51967" lon="0.69322">
        <ele>164.3</ele>
        <time>2018-07-22T13:48:30Z</time>
      </trkpt>
      <trkpt lat="44.51968" lon="0.69326">
        <ele>164</ele>
        <time>2018-07-22T13:48:34Z</time>
      </trkpt>
      <trkpt lat="44.51967" lon="0.69331">
        <ele>164.3</ele>
        <time>2018-07-22T13:48:38Z</time>
      </trkpt>
      <trkpt lat="44.51966" lon="0.69335">
        <ele>164.3</ele>
        <time>2018-07-22T13:48:41Z</time>
      </trkpt>
      <trkpt lat="44.51965" lon="0.69339">
        <ele>164.3</ele>
        <time>2018-07-22T13:48:44Z</time>
      </trkpt>
      <trkpt lat="44.51964" lon="0.69344">
        <ele>164.6</ele>
        <time>2018-07-22T13:48:47Z</time>
      </trkpt>
      <trkpt lat="44.51964" lon="0.69348">
        <ele>164.6</ele>
        <time>2018-07-22T13:48:50Z</time>
      </trkpt>
      <trkpt lat="44.51963" lon="0.69352">
        <ele>164.6</ele>
        <time>2018-07-22T13:48:53Z</time>
      </trkpt>
      <trkpt lat="44.51963" lon="0.69357">
        <ele>164.6</ele>
        <time>2018-07-22T13:48:57Z</time>
      </trkpt>
      <trkpt lat="44.51962" lon="0.69362">
        <ele>164.6</ele>
        <time>2018-07-22T13:49:00Z</time>
      </trkpt>
      <trkpt lat="44.51962" lon="0.69367">
        <ele>164.6</ele>
        <time>2018-07-22T13:49:04Z</time>
      </trkpt>
      <trkpt lat="44.51961" lon="0.69371">
        <ele>164.9</ele>
        <time>2018-07-22T13:49:07Z</time>
      </trkpt>
      <trkpt lat="44.5196" lon="0.69375">
        <ele>164.9</ele>
        <time>2018-07-22T13:49:10Z</time>
      </trkpt>
      <trkpt lat="44.5196" lon="0.69379">
        <ele>164.9</ele>
        <time>2018-07-22T13:49:13Z</time>
      </trkpt>
      <trkpt lat="44.5196" lon="0.69384">
        <ele>164.9</ele>
        <time>2018-07-22T13:49:16Z</time>
      </trkpt>
      <trkpt lat="44.51959" lon="0.69389">
        <ele>164.9</ele>
        <time>2018-07-22T13:49:19Z</time>
      </trkpt>
      <trkpt lat="44.51958" lon="0.69393">
        <ele>165.2</ele>
        <time>2018-07-22T13:49:22Z</time>
      </trkpt>
      <trkpt lat="44.51957" lon="0.69397">
        <ele>165.2</ele>
        <time>2018-07-22T13:49:24Z</time>
      </trkpt>
      <trkpt lat="44.51957" lon="0.69401">
        <ele>165.2</ele>
        <time>2018-07-22T13:49:27Z</time>
      </trkpt>
      <trkpt lat="44.51957" lon="0.69405">
        <ele>165.2</ele>
        <time>2018-07-22T13:49:30Z</time>
      </trkpt>
      <trkpt lat="44.51956" lon="0.69409">
        <ele>165.2</ele>
        <time>2018-07-22T13:49:33Z</time>
      </trkpt>
      <trkpt lat="44.51955" lon="0.69414">
        <ele>165.5</ele>
        <time>2018-07-22T13:49:36Z</time>
      </trkpt>
      <trkpt lat="44.51953" lon="0.69417">
        <ele>165.5</ele>
        <time>2018-07-22T13:49:39Z</time>
      </trkpt>
      <trkpt lat="44.51951" lon="0.69421">
        <ele>165.8</ele>
        <time>2018-07-22T13:49:42Z</time>
      </trkpt>
      <trkpt lat="44.5195" lon="0.69425">
        <ele>165.8</ele>
        <time>2018-07-22T13:49:45Z</time>
      </trkpt>
      <trkpt lat="44.51949" lon="0.6943">
        <ele>166.2</ele>
        <time>2018-07-22T13:49:48Z</time>
      </trkpt>
      <trkpt lat="44.51947" lon="0.69434">
        <ele>166.3</ele>
        <time>2018-07-22T13:49:50Z</time>
      </trkpt>
      <trkpt lat="44.51946" lon="0.69437">
        <ele>166.7</ele>
        <time>2018-07-22T13:49:52Z</time>
      </trkpt>
      <trkpt lat="44.51945" lon="0.69442">
        <ele>166.7</ele>
        <time>2018-07-22T13:49:54Z</time>
      </trkpt>
      <trkpt lat="44.51944" lon="0.69446">
        <ele>166.8</ele>
        <time>2018-07-22T13:49:56Z</time>
      </trkpt>
      <trkpt lat="44.51942" lon="0.6945">
        <ele>167.2</ele>
        <time>2018-07-22T13:49:58Z</time>
      </trkpt>
      <trkpt lat="44.51941" lon="0.69454">
        <ele>167.2</ele>
        <time>2018-07-22T13:50:00Z</time>
      </trkpt>
      <trkpt lat="44.51939" lon="0.69458">
        <ele>167.7</ele>
        <time>2018-07-22T13:50:02Z</time>
      </trkpt>
      <trkpt lat="44.51937" lon="0.69462">
        <ele>167.8</ele>
        <time>2018-07-22T13:50:04Z</time>
      </trkpt>
      <trkpt lat="44.51936" lon="0.69466">
        <ele>168.3</ele>
        <time>2018-07-22T13:50:06Z</time>
      </trkpt>
      <trkpt lat="44.51935" lon="0.6947">
        <ele>168.4</ele>
        <time>2018-07-22T13:50:08Z</time>
      </trkpt>
      <trkpt lat="44.51933" lon="0.69473">
        <ele>168.9</ele>
        <time>2018-07-22T13:50:10Z</time>
      </trkpt>
      <trkpt lat="44.51931" lon="0.69478">
        <ele>169</ele>
        <time>2018-07-22T13:50:13Z</time>
      </trkpt>
      <trkpt lat="44.51929" lon="0.69482">
        <ele>169.4</ele>
        <time>2018-07-22T13:50:16Z</time>
      </trkpt>
      <trkpt lat="44.51927" lon="0.69487">
        <ele>169.7</ele>
        <time>2018-07-22T13:50:19Z</time>
      </trkpt>
      <trkpt lat="44.51926" lon="0.69491">
        <ele>169.7</ele>
        <time>2018-07-22T13:50:21Z</time>
      </trkpt>
      <trkpt lat="44.51925" lon="0.69495">
        <ele>169.8</ele>
        <time>2018-07-22T13:50:24Z</time>
      </trkpt>
      <trkpt lat="44.51923" lon="0.69499">
        <ele>170</ele>
        <time>2018-07-22T13:50:26Z</time>
      </trkpt>
      <trkpt lat="44.51922" lon="0.69503">
        <ele>170.1</ele>
        <time>2018-07-22T13:50:28Z</time>
      </trkpt>
      <trkpt lat="44.5192" lon="0.69506">
        <ele>170.3</ele>
        <time>2018-07-22T13:50:31Z</time>
      </trkpt>
      <trkpt lat="44.51919" lon="0.69512">
        <ele>170.4</ele>
        <time>2018-07-22T13:50:34Z</time>
      </trkpt>
      <trkpt lat="44.51917" lon="0.69517">
        <ele>170.6</ele>
        <time>2018-07-22T13:50:36Z</time>
      </trkpt>
      <trkpt lat="44.51915" lon="0.6952">
        <ele>170.9</ele>
        <time>2018-07-22T13:50:38Z</time>
      </trkpt>
      <trkpt lat="44.51913" lon="0.69524">
        <ele>171.1</ele>
        <time>2018-07-22T13:50:40Z</time>
      </trkpt>
      <trkpt lat="44.51911" lon="0.69528">
        <ele>171.5</ele>
        <time>2018-07-22T13:50:42Z</time>
      </trkpt>
      <trkpt lat="44.5191" lon="0.69533">
        <ele>171.7</ele>
        <time>2018-07-22T13:50:44Z</time>
      </trkpt>
      <trkpt lat="44.51909" lon="0.69538">
        <ele>171.9</ele>
        <time>2018-07-22T13:50:46Z</time>
      </trkpt>
      <trkpt lat="44.51909" lon="0.69542">
        <ele>172.4</ele>
        <time>2018-07-22T13:50:48Z</time>
      </trkpt>
      <trkpt lat="44.51909" lon="0.69547">
        <ele>172.6</ele>
        <time>2018-07-22T13:50:50Z</time>
      </trkpt>
      <trkpt lat="44.51909" lon="0.69552">
        <ele>172.8</ele>
        <time>2018-07-22T13:50:52Z</time>
      </trkpt>
      <trkpt lat="44.51909" lon="0.69556">
        <ele>172.9</ele>
        <time>2018-07-22T13:50:54Z</time>
      </trkpt>
      <trkpt lat="44.51908" lon="0.6956">
        <ele>173.1</ele>
        <time>2018-07-22T13:50:56Z</time>
      </trkpt>
      <trkpt lat="44.51907" lon="0.69565">
        <ele>173.2</ele>
        <time>2018-07-22T13:50:58Z</time>
      </trkpt>
      <trkpt lat="44.51907" lon="0.69569">
        <ele>173.3</ele>
        <time>2018-07-22T13:51:00Z</time>
      </trkpt>
      <trkpt lat="44.51906" lon="0.69574">
        <ele>173.5</ele>
        <time>2018-07-22T13:51:02Z</time>
      </trkpt>
      <trkpt lat="44.51905" lon="0.69578">
        <ele>173.5</ele>
        <time>2018-07-22T13:51:04Z</time>
      </trkpt>
      <trkpt lat="44.51903" lon="0.69582">
        <ele>173.7</ele>
        <time>2018-07-22T13:51:06Z</time>
      </trkpt>
      <trkpt lat="44.51902" lon="0.69588">
        <ele>173.7</ele>
        <time>2018-07-22T13:51:09Z</time>
      </trkpt>
      <trkpt lat="44.51902" lon="0.69592">
        <ele>173.7</ele>
        <time>2018-07-22T13:51:11Z</time>
      </trkpt>
      <trkpt lat="44.51903" lon="0.69596">
        <ele>173.5</ele>
        <time>2018-07-22T13:51:14Z</time>
      </trkpt>
      <trkpt lat="44.51906" lon="0.69599">
        <ele>173.3</ele>
        <time>2018-07-22T13:51:17Z</time>
      </trkpt>
      <trkpt lat="44.51906" lon="0.69604">
        <ele>173.3</ele>
        <time>2018-07-22T13:51:19Z</time>
      </trkpt>
      <trkpt lat="44.51905" lon="0.69609">
        <ele>173.6</ele>
        <time>2018-07-22T13:51:21Z</time>
      </trkpt>
      <trkpt lat="44.51904" lon="0.69613">
        <ele>173.6</ele>
        <time>2018-07-22T13:51:23Z</time>
      </trkpt>
      <trkpt lat="44.51903" lon="0.69617">
        <ele>173.8</ele>
        <time>2018-07-22T13:51:25Z</time>
      </trkpt>
      <trkpt lat="44.519" lon="0.69621">
        <ele>173.9</ele>
        <time>2018-07-22T13:51:27Z</time>
      </trkpt>
      <trkpt lat="44.51898" lon="0.69625">
        <ele>174.1</ele>
        <time>2018-07-22T13:51:29Z</time>
      </trkpt>
      <trkpt lat="44.51895" lon="0.69629">
        <ele>174.3</ele>
        <time>2018-07-22T13:51:31Z</time>
      </trkpt>
      <trkpt lat="44.51893" lon="0.69633">
        <ele>174.5</ele>
        <time>2018-07-22T13:51:33Z</time>
      </trkpt>
      <trkpt lat="44.51892" lon="0.69637">
        <ele>174.6</ele>
        <time>2018-07-22T13:51:35Z</time>
      </trkpt>
      <trkpt lat="44.5189" lon="0.69641">
        <ele>174.9</ele>
        <time>2018-07-22T13:51:37Z</time>
      </trkpt>
      <trkpt lat="44.5189" lon="0.69645">
        <ele>175</ele>
        <time>2018-07-22T13:51:39Z</time>
      </trkpt>
      <trkpt lat="44.5189" lon="0.69649">
        <ele>175</ele>
        <time>2018-07-22T13:51:41Z</time>
      </trkpt>
      <trkpt lat="44.5189" lon="0.69653">
        <ele>175.1</ele>
        <time>2018-07-22T13:51:43Z</time>
      </trkpt>
      <trkpt lat="44.5189" lon="0.69657">
        <ele>175.2</ele>
        <time>2018-07-22T13:51:45Z</time>
      </trkpt>
      <trkpt lat="44.5189" lon="0.69661">
        <ele>175.3</ele>
        <time>2018-07-22T13:51:47Z</time>
      </trkpt>
      <trkpt lat="44.51889" lon="0.69665">
        <ele>175.3</ele>
        <time>2018-07-22T13:51:49Z</time>
      </trkpt>
      <trkpt lat="44.51889" lon="0.69669">
        <ele>175.4</ele>
        <time>2018-07-22T13:51:51Z</time>
      </trkpt>
      <trkpt lat="44.51888" lon="0.69673">
        <ele>175.5</ele>
        <time>2018-07-22T13:51:53Z</time>
      </trkpt>
      <trkpt lat="44.51888" lon="0.69677">
        <ele>175.5</ele>
        <time>2018-07-22T13:51:55Z</time>
      </trkpt>
      <trkpt lat="44.51888" lon="0.69682">
        <ele>175.5</ele>
        <time>2018-07-22T13:51:57Z</time>
      </trkpt>
      <trkpt lat="44.51888" lon="0.69686">
        <ele>175.6</ele>
        <time>2018-07-22T13:51:59Z</time>
      </trkpt>
      <trkpt lat="44.51888" lon="0.6969">
        <ele>175.6</ele>
        <time>2018-07-22T13:52:01Z</time>
      </trkpt>
      <trkpt lat="44.51888" lon="0.69694">
        <ele>175.9</ele>
        <time>2018-07-22T13:52:03Z</time>
      </trkpt>
      <trkpt lat="44.51887" lon="0.69699">
        <ele>175.9</ele>
        <time>2018-07-22T13:52:05Z</time>
      </trkpt>
      <trkpt lat="44.51886" lon="0.69704">
        <ele>175.9</ele>
        <time>2018-07-22T13:52:07Z</time>
      </trkpt>
      <trkpt lat="44.51886" lon="0.69708">
        <ele>175.9</ele>
        <time>2018-07-22T13:52:09Z</time>
      </trkpt>
      <trkpt lat="44.51885" lon="0.69712">
        <ele>175.9</ele>
        <time>2018-07-22T13:52:11Z</time>
      </trkpt>
      <trkpt lat="44.51884" lon="0.69716">
        <ele>176.2</ele>
        <time>2018-07-22T13:52:13Z</time>
      </trkpt>
      <trkpt lat="44.51883" lon="0.6972">
        <ele>176.2</ele>
        <time>2018-07-22T13:52:15Z</time>
      </trkpt>
      <trkpt lat="44.51882" lon="0.69725">
        <ele>176.2</ele>
        <time>2018-07-22T13:52:17Z</time>
      </trkpt>
      <trkpt lat="44.51881" lon="0.69729">
        <ele>176.6</ele>
        <time>2018-07-22T13:52:19Z</time>
      </trkpt>
      <trkpt lat="44.5188" lon="0.69733">
        <ele>176.6</ele>
        <time>2018-07-22T13:52:21Z</time>
      </trkpt>
      <trkpt lat="44.51878" lon="0.69737">
        <ele>176.9</ele>
        <time>2018-07-22T13:52:23Z</time>
      </trkpt>
      <trkpt lat="44.51877" lon="0.69741">
        <ele>176.9</ele>
        <time>2018-07-22T13:52:25Z</time>
      </trkpt>
      <trkpt lat="44.51877" lon="0.69746">
        <ele>176.9</ele>
        <time>2018-07-22T13:52:28Z</time>
      </trkpt>
      <trkpt lat="44.51878" lon="0.69751">
        <ele>176.9</ele>
        <time>2018-07-22T13:52:31Z</time>
      </trkpt>
      <trkpt lat="44.51878" lon="0.69756">
        <ele>176.9</ele>
        <time>2018-07-22T13:52:34Z</time>
      </trkpt>
      <trkpt lat="44.51878" lon="0.6976">
        <ele>176.9</ele>
        <time>2018-07-22T13:52:37Z</time>
      </trkpt>
      <trkpt lat="44.51878" lon="0.69765">
        <ele>176.9</ele>
        <time>2018-07-22T13:52:40Z</time>
      </trkpt>
      <trkpt lat="44.51877" lon="0.69769">
        <ele>176.9</ele>
        <time>2018-07-22T13:52:43Z</time>
      </trkpt>
      <trkpt lat="44.51876" lon="0.69774">
        <ele>176.9</ele>
        <time>2018-07-22T13:52:45Z</time>
      </trkpt>
      <trkpt lat="44.51876" lon="0.69779">
        <ele>177</ele>
        <time>2018-07-22T13:52:47Z</time>
      </trkpt>
      <trkpt lat="44.51876" lon="0.69783">
        <ele>177</ele>
        <time>2018-07-22T13:52:49Z</time>
      </trkpt>
      <trkpt lat="44.51877" lon="0.69788">
        <ele>177</ele>
        <time>2018-07-22T13:52:52Z</time>
      </trkpt>
      <trkpt lat="44.51877" lon="0.69792">
        <ele>177.1</ele>
        <time>2018-07-22T13:52:54Z</time>
      </trkpt>
      <trkpt lat="44.51877" lon="0.69797">
        <ele>177.1</ele>
        <time>2018-07-22T13:52:56Z</time>
      </trkpt>
      <trkpt lat="44.51878" lon="0.698">
        <ele>177.1</ele>
        <time>2018-07-22T13:52:58Z</time>
      </trkpt>
      <trkpt lat="44.51879" lon="0.69805">
        <ele>176.7</ele>
        <time>2018-07-22T13:53:01Z</time>
      </trkpt>
      <trkpt lat="44.51879" lon="0.69809">
        <ele>176.7</ele>
        <time>2018-07-22T13:53:04Z</time>
      </trkpt>
      <trkpt lat="44.51879" lon="0.69814">
        <ele>176.7</ele>
        <time>2018-07-22T13:53:08Z</time>
      </trkpt>
      <trkpt lat="44.51878" lon="0.69818">
        <ele>177.1</ele>
        <time>2018-07-22T13:53:10Z</time>
      </trkpt>
      <trkpt lat="44.51879" lon="0.69822">
        <ele>176.7</ele>
        <time>2018-07-22T13:53:12Z</time>
      </trkpt>
      <trkpt lat="44.5188" lon="0.69827">
        <ele>176.6</ele>
        <time>2018-07-22T13:53:15Z</time>
      </trkpt>
      <trkpt lat="44.5188" lon="0.69831">
        <ele>176.6</ele>
        <time>2018-07-22T13:53:17Z</time>
      </trkpt>
      <trkpt lat="44.51878" lon="0.69835">
        <ele>177</ele>
        <time>2018-07-22T13:53:19Z</time>
      </trkpt>
      <trkpt lat="44.51877" lon="0.6984">
        <ele>177</ele>
        <time>2018-07-22T13:53:22Z</time>
      </trkpt>
      <trkpt lat="44.51877" lon="0.69845">
        <ele>176.8</ele>
        <time>2018-07-22T13:53:25Z</time>
      </trkpt>
      <trkpt lat="44.51876" lon="0.69849">
        <ele>176.8</ele>
        <time>2018-07-22T13:53:27Z</time>
      </trkpt>
      <trkpt lat="44.51874" lon="0.69853">
        <ele>177.2</ele>
        <time>2018-07-22T13:53:29Z</time>
      </trkpt>
      <trkpt lat="44.51873" lon="0.69858">
        <ele>176.9</ele>
        <time>2018-07-22T13:53:32Z</time>
      </trkpt>
      <trkpt lat="44.51873" lon="0.69863">
        <ele>176.8</ele>
        <time>2018-07-22T13:53:35Z</time>
      </trkpt>
      <trkpt lat="44.51873" lon="0.69868">
        <ele>176.7</ele>
        <time>2018-07-22T13:53:38Z</time>
      </trkpt>
      <trkpt lat="44.51873" lon="0.69873">
        <ele>176.5</ele>
        <time>2018-07-22T13:53:42Z</time>
      </trkpt>
      <trkpt lat="44.51872" lon="0.69878">
        <ele>176.9</ele>
        <time>2018-07-22T13:53:45Z</time>
      </trkpt>
      <trkpt lat="44.51872" lon="0.69883">
        <ele>176.8</ele>
        <time>2018-07-22T13:53:48Z</time>
      </trkpt>
      <trkpt lat="44.51872" lon="0.69889">
        <ele>176.7</ele>
        <time>2018-07-22T13:53:51Z</time>
      </trkpt>
      <trkpt lat="44.51873" lon="0.69892">
        <ele>176.1</ele>
        <time>2018-07-22T13:53:53Z</time>
      </trkpt>
      <trkpt lat="44.51873" lon="0.69897">
        <ele>176</ele>
        <time>2018-07-22T13:53:55Z</time>
      </trkpt>
      <trkpt lat="44.51874" lon="0.69901">
        <ele>175.9</ele>
        <time>2018-07-22T13:53:57Z</time>
      </trkpt>
      <trkpt lat="44.51875" lon="0.69905">
        <ele>175.9</ele>
        <time>2018-07-22T13:53:59Z</time>
      </trkpt>
      <trkpt lat="44.51876" lon="0.69909">
        <ele>175.3</ele>
        <time>2018-07-22T13:54:01Z</time>
      </trkpt>
      <trkpt lat="44.51877" lon="0.69915">
        <ele>175.2</ele>
        <time>2018-07-22T13:54:04Z</time>
      </trkpt>
      <trkpt lat="44.51877" lon="0.6992">
        <ele>175</ele>
        <time>2018-07-22T13:54:06Z</time>
      </trkpt>
      <trkpt lat="44.51877" lon="0.69924">
        <ele>174.9</ele>
        <time>2018-07-22T13:54:08Z</time>
      </trkpt>
      <trkpt lat="44.51879" lon="0.69928">
        <ele>174.3</ele>
        <time>2018-07-22T13:54:10Z</time>
      </trkpt>
      <trkpt lat="44.51882" lon="0.69933">
        <ele>174.2</ele>
        <time>2018-07-22T13:54:13Z</time>
      </trkpt>
      <trkpt lat="44.51883" lon="0.69937">
        <ele>173.7</ele>
        <time>2018-07-22T13:54:15Z</time>
      </trkpt>
      <trkpt lat="44.51883" lon="0.69942">
        <ele>173.6</ele>
        <time>2018-07-22T13:54:18Z</time>
      </trkpt>
      <trkpt lat="44.51883" lon="0.69946">
        <ele>173.6</ele>
        <time>2018-07-22T13:54:20Z</time>
      </trkpt>
      <trkpt lat="44.51883" lon="0.6995">
        <ele>173.5</ele>
        <time>2018-07-22T13:54:22Z</time>
      </trkpt>
      <trkpt lat="44.51883" lon="0.69955">
        <ele>173.5</ele>
        <time>2018-07-22T13:54:24Z</time>
      </trkpt>
      <trkpt lat="44.51882" lon="0.69959">
        <ele>173.9</ele>
        <time>2018-07-22T13:54:26Z</time>
      </trkpt>
      <trkpt lat="44.5188" lon="0.69964">
        <ele>173.8</ele>
        <time>2018-07-22T13:54:28Z</time>
      </trkpt>
      <trkpt lat="44.51878" lon="0.69968">
        <ele>174.2</ele>
        <time>2018-07-22T13:54:31Z</time>
      </trkpt>
      <trkpt lat="44.51877" lon="0.69972">
        <ele>174.1</ele>
        <time>2018-07-22T13:54:34Z</time>
      </trkpt>
      <trkpt lat="44.51875" lon="0.69978">
        <ele>174.4</ele>
        <time>2018-07-22T13:54:37Z</time>
      </trkpt>
      <trkpt lat="44.51873" lon="0.69981">
        <ele>174.4</ele>
        <time>2018-07-22T13:54:39Z</time>
      </trkpt>
      <trkpt lat="44.51871" lon="0.69985">
        <ele>174.8</ele>
        <time>2018-07-22T13:54:42Z</time>
      </trkpt>
      <trkpt lat="44.5187" lon="0.6999">
        <ele>174.7</ele>
        <time>2018-07-22T13:54:45Z</time>
      </trkpt>
      <trkpt lat="44.51869" lon="0.69994">
        <ele>175.2</ele>
        <time>2018-07-22T13:54:47Z</time>
      </trkpt>
      <trkpt lat="44.51868" lon="0.69999">
        <ele>175.1</ele>
        <time>2018-07-22T13:54:50Z</time>
      </trkpt>
      <trkpt lat="44.51867" lon="0.70004">
        <ele>175.1</ele>
        <time>2018-07-22T13:54:54Z</time>
      </trkpt>
      <trkpt lat="44.51865" lon="0.70007">
        <ele>175.6</ele>
        <time>2018-07-22T13:54:57Z</time>
      </trkpt>
      <trkpt lat="44.51863" lon="0.7001">
        <ele>176.1</ele>
        <time>2018-07-22T13:55:00Z</time>
      </trkpt>
      <trkpt lat="44.51861" lon="0.70015">
        <ele>176</ele>
        <time>2018-07-22T13:55:03Z</time>
      </trkpt>
      <trkpt lat="44.5186" lon="0.70019">
        <ele>176.4</ele>
        <time>2018-07-22T13:55:06Z</time>
      </trkpt>
      <trkpt lat="44.51858" lon="0.70023">
        <ele>176.3</ele>
        <time>2018-07-22T13:55:08Z</time>
      </trkpt>
      <trkpt lat="44.51857" lon="0.70028">
        <ele>176.6</ele>
        <time>2018-07-22T13:55:11Z</time>
      </trkpt>
      <trkpt lat="44.51855" lon="0.70032">
        <ele>176.4</ele>
        <time>2018-07-22T13:55:14Z</time>
      </trkpt>
      <trkpt lat="44.51856" lon="0.70037">
        <ele>176.3</ele>
        <time>2018-07-22T13:55:17Z</time>
      </trkpt>
      <trkpt lat="44.51855" lon="0.70041">
        <ele>176.2</ele>
        <time>2018-07-22T13:55:20Z</time>
      </trkpt>
      <trkpt lat="44.51854" lon="0.70046">
        <ele>176</ele>
        <time>2018-07-22T13:55:23Z</time>
      </trkpt>
      <trkpt lat="44.51853" lon="0.70041">
        <ele>176.4</ele>
        <time>2018-07-22T13:55:30Z</time>
      </trkpt>
      <trkpt lat="44.51852" lon="0.70037">
        <ele>176.5</ele>
        <time>2018-07-22T13:55:33Z</time>
      </trkpt>
      <trkpt lat="44.51852" lon="0.70031">
        <ele>176.6</ele>
        <time>2018-07-22T13:55:36Z</time>
      </trkpt>
      <trkpt lat="44.51851" lon="0.70026">
        <ele>177.1</ele>
        <time>2018-07-22T13:55:39Z</time>
      </trkpt>
      <trkpt lat="44.5185" lon="0.70022">
        <ele>177.2</ele>
        <time>2018-07-22T13:55:42Z</time>
      </trkpt>
      <trkpt lat="44.5185" lon="0.70018">
        <ele>177.2</ele>
        <time>2018-07-22T13:55:44Z</time>
      </trkpt>
      <trkpt lat="44.5185" lon="0.70013">
        <ele>177.3</ele>
        <time>2018-07-22T13:55:46Z</time>
      </trkpt>
      <trkpt lat="44.51849" lon="0.70009">
        <ele>177.4</ele>
        <time>2018-07-22T13:55:48Z</time>
      </trkpt>
      <trkpt lat="44.51849" lon="0.70004">
        <ele>177.4</ele>
        <time>2018-07-22T13:55:51Z</time>
      </trkpt>
      <trkpt lat="44.51847" lon="0.69999">
        <ele>177.8</ele>
        <time>2018-07-22T13:55:54Z</time>
      </trkpt>
      <trkpt lat="44.51846" lon="0.69994">
        <ele>177.9</ele>
        <time>2018-07-22T13:55:56Z</time>
      </trkpt>
      <trkpt lat="44.51845" lon="0.6999">
        <ele>178</ele>
        <time>2018-07-22T13:55:58Z</time>
      </trkpt>
      <trkpt lat="44.51844" lon="0.69986">
        <ele>178.3</ele>
        <time>2018-07-22T13:56:00Z</time>
      </trkpt>
      <trkpt lat="44.51844" lon="0.69982">
        <ele>178.4</ele>
        <time>2018-07-22T13:56:02Z</time>
      </trkpt>
      <trkpt lat="44.51843" lon="0.69978">
        <ele>178.3</ele>
        <time>2018-07-22T13:56:04Z</time>
      </trkpt>
      <trkpt lat="44.51843" lon="0.69974">
        <ele>178.4</ele>
        <time>2018-07-22T13:56:06Z</time>
      </trkpt>
      <trkpt lat="44.51844" lon="0.69969">
        <ele>178.5</ele>
        <time>2018-07-22T13:56:08Z</time>
      </trkpt>
      <trkpt lat="44.51844" lon="0.69965">
        <ele>178.6</ele>
        <time>2018-07-22T13:56:10Z</time>
      </trkpt>
      <trkpt lat="44.51844" lon="0.69961">
        <ele>178.7</ele>
        <time>2018-07-22T13:56:12Z</time>
      </trkpt>
      <trkpt lat="44.51843" lon="0.69956">
        <ele>178.7</ele>
        <time>2018-07-22T13:56:15Z</time>
      </trkpt>
      <trkpt lat="44.51841" lon="0.69951">
        <ele>178.9</ele>
        <time>2018-07-22T13:56:18Z</time>
      </trkpt>
      <trkpt lat="44.5184" lon="0.69947">
        <ele>179</ele>
        <time>2018-07-22T13:56:20Z</time>
      </trkpt>
      <trkpt lat="44.5184" lon="0.69942">
        <ele>179</ele>
        <time>2018-07-22T13:56:22Z</time>
      </trkpt>
      <trkpt lat="44.5184" lon="0.69938">
        <ele>179.1</ele>
        <time>2018-07-22T13:56:24Z</time>
      </trkpt>
      <trkpt lat="44.51839" lon="0.69934">
        <ele>179.1</ele>
        <time>2018-07-22T13:56:26Z</time>
      </trkpt>
      <trkpt lat="44.51839" lon="0.6993">
        <ele>179.2</ele>
        <time>2018-07-22T13:56:28Z</time>
      </trkpt>
      <trkpt lat="44.51839" lon="0.69924">
        <ele>179.3</ele>
        <time>2018-07-22T13:56:31Z</time>
      </trkpt>
      <trkpt lat="44.5184" lon="0.6992">
        <ele>179.2</ele>
        <time>2018-07-22T13:56:33Z</time>
      </trkpt>
      <trkpt lat="44.51839" lon="0.69914">
        <ele>179.3</ele>
        <time>2018-07-22T13:56:36Z</time>
      </trkpt>
      <trkpt lat="44.51839" lon="0.6991">
        <ele>179.4</ele>
        <time>2018-07-22T13:56:38Z</time>
      </trkpt>
      <trkpt lat="44.5184" lon="0.69906">
        <ele>179.4</ele>
        <time>2018-07-22T13:56:40Z</time>
      </trkpt>
      <trkpt lat="44.51841" lon="0.69901">
        <ele>179.4</ele>
        <time>2018-07-22T13:56:43Z</time>
      </trkpt>
      <trkpt lat="44.51841" lon="0.69897">
        <ele>179.4</ele>
        <time>2018-07-22T13:56:45Z</time>
      </trkpt>
      <trkpt lat="44.5184" lon="0.69892">
        <ele>179.4</ele>
        <time>2018-07-22T13:56:47Z</time>
      </trkpt>
      <trkpt lat="44.51839" lon="0.69889">
        <ele>179.5</ele>
        <time>2018-07-22T13:56:49Z</time>
      </trkpt>
      <trkpt lat="44.51837" lon="0.69885">
        <ele>179.4</ele>
        <time>2018-07-22T13:56:51Z</time>
      </trkpt>
      <trkpt lat="44.51836" lon="0.69881">
        <ele>179.4</ele>
        <time>2018-07-22T13:56:53Z</time>
      </trkpt>
      <trkpt lat="44.51836" lon="0.69877">
        <ele>179.4</ele>
        <time>2018-07-22T13:56:55Z</time>
      </trkpt>
      <trkpt lat="44.51836" lon="0.69873">
        <ele>179.4</ele>
        <time>2018-07-22T13:56:57Z</time>
      </trkpt>
      <trkpt lat="44.51836" lon="0.69869">
        <ele>179.4</ele>
        <time>2018-07-22T13:56:59Z</time>
      </trkpt>
      <trkpt lat="44.51836" lon="0.69864">
        <ele>179.4</ele>
        <time>2018-07-22T13:57:02Z</time>
      </trkpt>
      <trkpt lat="44.51836" lon="0.6986">
        <ele>179.3</ele>
        <time>2018-07-22T13:57:04Z</time>
      </trkpt>
      <trkpt lat="44.51835" lon="0.69856">
        <ele>179.4</ele>
        <time>2018-07-22T13:57:06Z</time>
      </trkpt>
      <trkpt lat="44.51835" lon="0.69852">
        <ele>179.5</ele>
        <time>2018-07-22T13:57:08Z</time>
      </trkpt>
      <trkpt lat="44.51835" lon="0.69848">
        <ele>179.5</ele>
        <time>2018-07-22T13:57:10Z</time>
      </trkpt>
      <trkpt lat="44.51836" lon="0.69844">
        <ele>179.5</ele>
        <time>2018-07-22T13:57:12Z</time>
      </trkpt>
      <trkpt lat="44.51835" lon="0.6984">
        <ele>179.5</ele>
        <time>2018-07-22T13:57:14Z</time>
      </trkpt>
      <trkpt lat="44.51833" lon="0.69836">
        <ele>179.5</ele>
        <time>2018-07-22T13:57:16Z</time>
      </trkpt>
      <trkpt lat="44.51831" lon="0.69833">
        <ele>179.6</ele>
        <time>2018-07-22T13:57:18Z</time>
      </trkpt>
      <trkpt lat="44.51828" lon="0.6983">
        <ele>179.7</ele>
        <time>2018-07-22T13:57:20Z</time>
      </trkpt>
      <trkpt lat="44.51825" lon="0.69828">
        <ele>179.7</ele>
        <time>2018-07-22T13:57:22Z</time>
      </trkpt>
      <trkpt lat="44.51822" lon="0.69825">
        <ele>179.7</ele>
        <time>2018-07-22T13:57:25Z</time>
      </trkpt>
      <trkpt lat="44.51819" lon="0.69822">
        <ele>179.7</ele>
        <time>2018-07-22T13:57:28Z</time>
      </trkpt>
      <trkpt lat="44.51816" lon="0.69819">
        <ele>179.6</ele>
        <time>2018-07-22T13:57:31Z</time>
      </trkpt>
      <trkpt lat="44.51813" lon="0.69817">
        <ele>179.5</ele>
        <time>2018-07-22T13:57:33Z</time>
      </trkpt>
      <trkpt lat="44.5181" lon="0.69813">
        <ele>179.3</ele>
        <time>2018-07-22T13:57:36Z</time>
      </trkpt>
      <trkpt lat="44.51806" lon="0.69812">
        <ele>179.1</ele>
        <time>2018-07-22T13:57:39Z</time>
      </trkpt>
      <trkpt lat="44.51804" lon="0.6981">
        <ele>178.8</ele>
        <time>2018-07-22T13:57:42Z</time>
      </trkpt>
      <trkpt lat="44.518" lon="0.69809">
        <ele>178.6</ele>
        <time>2018-07-22T13:57:45Z</time>
      </trkpt>
      <trkpt lat="44.51797" lon="0.69808">
        <ele>178.3</ele>
        <time>2018-07-22T13:57:47Z</time>
      </trkpt>
      <trkpt lat="44.51794" lon="0.69808">
        <ele>178.1</ele>
        <time>2018-07-22T13:57:49Z</time>
      </trkpt>
      <trkpt lat="44.51791" lon="0.69807">
        <ele>177.9</ele>
        <time>2018-07-22T13:57:51Z</time>
      </trkpt>
      <trkpt lat="44.51787" lon="0.69807">
        <ele>177.7</ele>
        <time>2018-07-22T13:57:54Z</time>
      </trkpt>
      <trkpt lat="44.51784" lon="0.69804">
        <ele>177.2</ele>
        <time>2018-07-22T13:57:57Z</time>
      </trkpt>
      <trkpt lat="44.51781" lon="0.69802">
        <ele>177.1</ele>
        <time>2018-07-22T13:57:59Z</time>
      </trkpt>
      <trkpt lat="44.51778" lon="0.69801">
        <ele>176.7</ele>
        <time>2018-07-22T13:58:01Z</time>
      </trkpt>
      <trkpt lat="44.51775" lon="0.69799">
        <ele>176.4</ele>
        <time>2018-07-22T13:58:04Z</time>
      </trkpt>
      <trkpt lat="44.51772" lon="0.69798">
        <ele>176</ele>
        <time>2018-07-22T13:58:06Z</time>
      </trkpt>
      <trkpt lat="44.51769" lon="0.69796">
        <ele>175.6</ele>
        <time>2018-07-22T13:58:08Z</time>
      </trkpt>
      <trkpt lat="44.51766" lon="0.69794">
        <ele>175.2</ele>
        <time>2018-07-22T13:58:10Z</time>
      </trkpt>
      <trkpt lat="44.51763" lon="0.69793">
        <ele>174.7</ele>
        <time>2018-07-22T13:58:13Z</time>
      </trkpt>
      <trkpt lat="44.51759" lon="0.69791">
        <ele>173.6</ele>
        <time>2018-07-22T13:58:16Z</time>
      </trkpt>
      <trkpt lat="44.51756" lon="0.69789">
        <ele>172.9</ele>
        <time>2018-07-22T13:58:19Z</time>
      </trkpt>
      <trkpt lat="44.51754" lon="0.69784">
        <ele>172.8</ele>
        <time>2018-07-22T13:58:22Z</time>
      </trkpt>
      <trkpt lat="44.51751" lon="0.69781">
        <ele>172.1</ele>
        <time>2018-07-22T13:58:24Z</time>
      </trkpt>
      <trkpt lat="44.51749" lon="0.6978">
        <ele>171.4</ele>
        <time>2018-07-22T13:58:26Z</time>
      </trkpt>
      <trkpt lat="44.51746" lon="0.69779">
        <ele>170.7</ele>
        <time>2018-07-22T13:58:28Z</time>
      </trkpt>
      <trkpt lat="44.51743" lon="0.69778">
        <ele>170.1</ele>
        <time>2018-07-22T13:58:30Z</time>
      </trkpt>
      <trkpt lat="44.5174" lon="0.69777">
        <ele>169.4</ele>
        <time>2018-07-22T13:58:32Z</time>
      </trkpt>
      <trkpt lat="44.51736" lon="0.69776">
        <ele>168.7</ele>
        <time>2018-07-22T13:58:35Z</time>
      </trkpt>
      <trkpt lat="44.51733" lon="0.69775">
        <ele>168</ele>
        <time>2018-07-22T13:58:37Z</time>
      </trkpt>
      <trkpt lat="44.5173" lon="0.69773">
        <ele>167.3</ele>
        <time>2018-07-22T13:58:40Z</time>
      </trkpt>
      <trkpt lat="44.51726" lon="0.69771">
        <ele>166.5</ele>
        <time>2018-07-22T13:58:43Z</time>
      </trkpt>
      <trkpt lat="44.51723" lon="0.69769">
        <ele>165.8</ele>
        <time>2018-07-22T13:58:45Z</time>
      </trkpt>
      <trkpt lat="44.5172" lon="0.69768">
        <ele>165</ele>
        <time>2018-07-22T13:58:48Z</time>
      </trkpt>
      <trkpt lat="44.51717" lon="0.69767">
        <ele>164</ele>
        <time>2018-07-22T13:58:50Z</time>
      </trkpt>
      <trkpt lat="44.51713" lon="0.69766">
        <ele>162.5</ele>
        <time>2018-07-22T13:58:53Z</time>
      </trkpt>
      <trkpt lat="44.51711" lon="0.69765">
        <ele>162.4</ele>
        <time>2018-07-22T13:58:55Z</time>
      </trkpt>
      <trkpt lat="44.51708" lon="0.69764">
        <ele>161.7</ele>
        <time>2018-07-22T13:58:57Z</time>
      </trkpt>
      <trkpt lat="44.51705" lon="0.69763">
        <ele>160.9</ele>
        <time>2018-07-22T13:58:59Z</time>
      </trkpt>
      <trkpt lat="44.51702" lon="0.69763">
        <ele>160.3</ele>
        <time>2018-07-22T13:59:01Z</time>
      </trkpt>
      <trkpt lat="44.51699" lon="0.69763">
        <ele>159.6</ele>
        <time>2018-07-22T13:59:03Z</time>
      </trkpt>
      <trkpt lat="44.51695" lon="0.69762">
        <ele>158.1</ele>
        <time>2018-07-22T13:59:06Z</time>
      </trkpt>
      <trkpt lat="44.51692" lon="0.69761">
        <ele>157.4</ele>
        <time>2018-07-22T13:59:08Z</time>
      </trkpt>
      <trkpt lat="44.51689" lon="0.69761">
        <ele>157.4</ele>
        <time>2018-07-22T13:59:10Z</time>
      </trkpt>
      <trkpt lat="44.51685" lon="0.6976">
        <ele>156.1</ele>
        <time>2018-07-22T13:59:13Z</time>
      </trkpt>
      <trkpt lat="44.51682" lon="0.69759">
        <ele>155.5</ele>
        <time>2018-07-22T13:59:15Z</time>
      </trkpt>
      <trkpt lat="44.51679" lon="0.69757">
        <ele>155</ele>
        <time>2018-07-22T13:59:17Z</time>
      </trkpt>
      <trkpt lat="44.51676" lon="0.69756">
        <ele>154.4</ele>
        <time>2018-07-22T13:59:19Z</time>
      </trkpt>
      <trkpt lat="44.51673" lon="0.69754">
        <ele>153.7</ele>
        <time>2018-07-22T13:59:21Z</time>
      </trkpt>
      <trkpt lat="44.51669" lon="0.69754">
        <ele>153</ele>
        <time>2018-07-22T13:59:24Z</time>
      </trkpt>
      <trkpt lat="44.51666" lon="0.69754">
        <ele>152.4</ele>
        <time>2018-07-22T13:59:26Z</time>
      </trkpt>
      <trkpt lat="44.51663" lon="0.69752">
        <ele>151.9</ele>
        <time>2018-07-22T13:59:28Z</time>
      </trkpt>
      <trkpt lat="44.51659" lon="0.69751">
        <ele>151.3</ele>
        <time>2018-07-22T13:59:31Z</time>
      </trkpt>
      <trkpt lat="44.51656" lon="0.6975">
        <ele>150.8</ele>
        <time>2018-07-22T13:59:33Z</time>
      </trkpt>
      <trkpt lat="44.51653" lon="0.6975">
        <ele>150.2</ele>
        <time>2018-07-22T13:59:36Z</time>
      </trkpt>
      <trkpt lat="44.51648" lon="0.6975">
        <ele>149.1</ele>
        <time>2018-07-22T13:59:39Z</time>
      </trkpt>
      <trkpt lat="44.51645" lon="0.69749">
        <ele>148.6</ele>
        <time>2018-07-22T13:59:41Z</time>
      </trkpt>
      <trkpt lat="44.51642" lon="0.69748">
        <ele>148.1</ele>
        <time>2018-07-22T13:59:43Z</time>
      </trkpt>
      <trkpt lat="44.5164" lon="0.69746">
        <ele>147.6</ele>
        <time>2018-07-22T13:59:45Z</time>
      </trkpt>
      <trkpt lat="44.51637" lon="0.69745">
        <ele>147</ele>
        <time>2018-07-22T13:59:47Z</time>
      </trkpt>
      <trkpt lat="44.51634" lon="0.69743">
        <ele>147</ele>
        <time>2018-07-22T13:59:49Z</time>
      </trkpt>
      <trkpt lat="44.51631" lon="0.69742">
        <ele>146.5</ele>
        <time>2018-07-22T13:59:51Z</time>
      </trkpt>
      <trkpt lat="44.51628" lon="0.6974">
        <ele>146.1</ele>
        <time>2018-07-22T13:59:53Z</time>
      </trkpt>
      <trkpt lat="44.51625" lon="0.69739">
        <ele>145.7</ele>
        <time>2018-07-22T13:59:55Z</time>
      </trkpt>
      <trkpt lat="44.51622" lon="0.69738">
        <ele>145.3</ele>
        <time>2018-07-22T13:59:57Z</time>
      </trkpt>
      <trkpt lat="44.51619" lon="0.69737">
        <ele>144.9</ele>
        <time>2018-07-22T13:59:59Z</time>
      </trkpt>
      <trkpt lat="44.51617" lon="0.69738">
        <ele>144.6</ele>
        <time>2018-07-22T14:00:01Z</time>
      </trkpt>
      <trkpt lat="44.51614" lon="0.69741">
        <ele>144.2</ele>
        <time>2018-07-22T14:00:03Z</time>
      </trkpt>
      <trkpt lat="44.51613" lon="0.69746">
        <ele>144.3</ele>
        <time>2018-07-22T14:00:05Z</time>
      </trkpt>
      <trkpt lat="44.51612" lon="0.69751">
        <ele>144.1</ele>
        <time>2018-07-22T14:00:07Z</time>
      </trkpt>
      <trkpt lat="44.51611" lon="0.69755">
        <ele>144.1</ele>
        <time>2018-07-22T14:00:09Z</time>
      </trkpt>
      <trkpt lat="44.51611" lon="0.6976">
        <ele>144.1</ele>
        <time>2018-07-22T14:00:11Z</time>
      </trkpt>
      <trkpt lat="44.51609" lon="0.69764">
        <ele>144.1</ele>
        <time>2018-07-22T14:00:13Z</time>
      </trkpt>
      <trkpt lat="44.51609" lon="0.69768">
        <ele>143.9</ele>
        <time>2018-07-22T14:00:15Z</time>
      </trkpt>
      <trkpt lat="44.5161" lon="0.69772">
        <ele>144.1</ele>
        <time>2018-07-22T14:00:17Z</time>
      </trkpt>
      <trkpt lat="44.5161" lon="0.69777">
        <ele>144.1</ele>
        <time>2018-07-22T14:00:19Z</time>
      </trkpt>
      <trkpt lat="44.51609" lon="0.69782">
        <ele>143.8</ele>
        <time>2018-07-22T14:00:21Z</time>
      </trkpt>
      <trkpt lat="44.51608" lon="0.69787">
        <ele>143.8</ele>
        <time>2018-07-22T14:00:23Z</time>
      </trkpt>
      <trkpt lat="44.51608" lon="0.69791">
        <ele>143.8</ele>
        <time>2018-07-22T14:00:25Z</time>
      </trkpt>
      <trkpt lat="44.51608" lon="0.69796">
        <ele>143.7</ele>
        <time>2018-07-22T14:00:27Z</time>
      </trkpt>
      <trkpt lat="44.51607" lon="0.69801">
        <ele>143.7</ele>
        <time>2018-07-22T14:00:29Z</time>
      </trkpt>
      <trkpt lat="44.51606" lon="0.69806">
        <ele>143.4</ele>
        <time>2018-07-22T14:00:31Z</time>
      </trkpt>
      <trkpt lat="44.51605" lon="0.6981">
        <ele>143.4</ele>
        <time>2018-07-22T14:00:33Z</time>
      </trkpt>
      <trkpt lat="44.51605" lon="0.69814">
        <ele>143.4</ele>
        <time>2018-07-22T14:00:35Z</time>
      </trkpt>
      <trkpt lat="44.51605" lon="0.69819">
        <ele>143.3</ele>
        <time>2018-07-22T14:00:37Z</time>
      </trkpt>
      <trkpt lat="44.51604" lon="0.69823">
        <ele>143.3</ele>
        <time>2018-07-22T14:00:39Z</time>
      </trkpt>
      <trkpt lat="44.51604" lon="0.69828">
        <ele>143.3</ele>
        <time>2018-07-22T14:00:41Z</time>
      </trkpt>
      <trkpt lat="44.51604" lon="0.69832">
        <ele>143.3</ele>
        <time>2018-07-22T14:00:43Z</time>
      </trkpt>
      <trkpt lat="44.51604" lon="0.69836">
        <ele>143.3</ele>
        <time>2018-07-22T14:00:45Z</time>
      </trkpt>
      <trkpt lat="44.51603" lon="0.69841">
        <ele>143.3</ele>
        <time>2018-07-22T14:00:47Z</time>
      </trkpt>
      <trkpt lat="44.51603" lon="0.69845">
        <ele>143</ele>
        <time>2018-07-22T14:00:49Z</time>
      </trkpt>
      <trkpt lat="44.51603" lon="0.6985">
        <ele>142.9</ele>
        <time>2018-07-22T14:00:51Z</time>
      </trkpt>
      <trkpt lat="44.51603" lon="0.69854">
        <ele>142.8</ele>
        <time>2018-07-22T14:00:53Z</time>
      </trkpt>
      <trkpt lat="44.51603" lon="0.69858">
        <ele>142.7</ele>
        <time>2018-07-22T14:00:55Z</time>
      </trkpt>
      <trkpt lat="44.51603" lon="0.69862">
        <ele>142.6</ele>
        <time>2018-07-22T14:00:57Z</time>
      </trkpt>
      <trkpt lat="44.51603" lon="0.69866">
        <ele>142.6</ele>
        <time>2018-07-22T14:00:59Z</time>
      </trkpt>
      <trkpt lat="44.51603" lon="0.69872">
        <ele>142.3</ele>
        <time>2018-07-22T14:01:02Z</time>
      </trkpt>
      <trkpt lat="44.51603" lon="0.69877">
        <ele>142.1</ele>
        <time>2018-07-22T14:01:05Z</time>
      </trkpt>
      <trkpt lat="44.51603" lon="0.69881">
        <ele>142</ele>
        <time>2018-07-22T14:01:07Z</time>
      </trkpt>
      <trkpt lat="44.51603" lon="0.69885">
        <ele>141.9</ele>
        <time>2018-07-22T14:01:09Z</time>
      </trkpt>
      <trkpt lat="44.51603" lon="0.69889">
        <ele>141.9</ele>
        <time>2018-07-22T14:01:11Z</time>
      </trkpt>
      <trkpt lat="44.51604" lon="0.69894">
        <ele>142</ele>
        <time>2018-07-22T14:01:13Z</time>
      </trkpt>
      <trkpt lat="44.51603" lon="0.69898">
        <ele>141.9</ele>
        <time>2018-07-22T14:01:15Z</time>
      </trkpt>
      <trkpt lat="44.51603" lon="0.69903">
        <ele>141.9</ele>
        <time>2018-07-22T14:01:17Z</time>
      </trkpt>
      <trkpt lat="44.51604" lon="0.69907">
        <ele>141.9</ele>
        <time>2018-07-22T14:01:19Z</time>
      </trkpt>
      <trkpt lat="44.51603" lon="0.69912">
        <ele>141.9</ele>
        <time>2018-07-22T14:01:22Z</time>
      </trkpt>
      <trkpt lat="44.51605" lon="0.69917">
        <ele>141.9</ele>
        <time>2018-07-22T14:01:25Z</time>
      </trkpt>
      <trkpt lat="44.51605" lon="0.69923">
        <ele>141.9</ele>
        <time>2018-07-22T14:01:28Z</time>
      </trkpt>
      <trkpt lat="44.51605" lon="0.69927">
        <ele>141.9</ele>
        <time>2018-07-22T14:01:30Z</time>
      </trkpt>
      <trkpt lat="44.51604" lon="0.69932">
        <ele>141.9</ele>
        <time>2018-07-22T14:01:32Z</time>
      </trkpt>
      <trkpt lat="44.51604" lon="0.69936">
        <ele>141.9</ele>
        <time>2018-07-22T14:01:34Z</time>
      </trkpt>
      <trkpt lat="44.51604" lon="0.6994">
        <ele>141.9</ele>
        <time>2018-07-22T14:01:36Z</time>
      </trkpt>
      <trkpt lat="44.51603" lon="0.69945">
        <ele>141.7</ele>
        <time>2018-07-22T14:01:38Z</time>
      </trkpt>
      <trkpt lat="44.51603" lon="0.69949">
        <ele>141.8</ele>
        <time>2018-07-22T14:01:40Z</time>
      </trkpt>
      <trkpt lat="44.51603" lon="0.69953">
        <ele>142</ele>
        <time>2018-07-22T14:01:42Z</time>
      </trkpt>
      <trkpt lat="44.51603" lon="0.69958">
        <ele>142.1</ele>
        <time>2018-07-22T14:01:44Z</time>
      </trkpt>
      <trkpt lat="44.51603" lon="0.69962">
        <ele>142.2</ele>
        <time>2018-07-22T14:01:46Z</time>
      </trkpt>
      <trkpt lat="44.51602" lon="0.69967">
        <ele>142.4</ele>
        <time>2018-07-22T14:01:48Z</time>
      </trkpt>
      <trkpt lat="44.51602" lon="0.69971">
        <ele>142.5</ele>
        <time>2018-07-22T14:01:50Z</time>
      </trkpt>
      <trkpt lat="44.51602" lon="0.69975">
        <ele>142.7</ele>
        <time>2018-07-22T14:01:52Z</time>
      </trkpt>
      <trkpt lat="44.51602" lon="0.6998">
        <ele>142.9</ele>
        <time>2018-07-22T14:01:54Z</time>
      </trkpt>
      <trkpt lat="44.51603" lon="0.69985">
        <ele>143</ele>
        <time>2018-07-22T14:01:56Z</time>
      </trkpt>
      <trkpt lat="44.51604" lon="0.69989">
        <ele>143.2</ele>
        <time>2018-07-22T14:01:58Z</time>
      </trkpt>
      <trkpt lat="44.51605" lon="0.69993">
        <ele>143.4</ele>
        <time>2018-07-22T14:02:00Z</time>
      </trkpt>
      <trkpt lat="44.51607" lon="0.69996">
        <ele>143.5</ele>
        <time>2018-07-22T14:02:02Z</time>
      </trkpt>
      <trkpt lat="44.51608" lon="0.7">
        <ele>143.7</ele>
        <time>2018-07-22T14:02:04Z</time>
      </trkpt>
      <trkpt lat="44.5161" lon="0.70004">
        <ele>143.9</ele>
        <time>2018-07-22T14:02:06Z</time>
      </trkpt>
      <trkpt lat="44.51611" lon="0.70008">
        <ele>144</ele>
        <time>2018-07-22T14:02:08Z</time>
      </trkpt>
      <trkpt lat="44.51613" lon="0.70012">
        <ele>144.2</ele>
        <time>2018-07-22T14:02:10Z</time>
      </trkpt>
      <trkpt lat="44.51613" lon="0.70016">
        <ele>144.4</ele>
        <time>2018-07-22T14:02:12Z</time>
      </trkpt>
      <trkpt lat="44.51614" lon="0.7002">
        <ele>144.5</ele>
        <time>2018-07-22T14:02:14Z</time>
      </trkpt>
      <trkpt lat="44.51616" lon="0.70024">
        <ele>144.7</ele>
        <time>2018-07-22T14:02:16Z</time>
      </trkpt>
      <trkpt lat="44.51616" lon="0.7003">
        <ele>144.9</ele>
        <time>2018-07-22T14:02:19Z</time>
      </trkpt>
      <trkpt lat="44.51615" lon="0.70034">
        <ele>145</ele>
        <time>2018-07-22T14:02:21Z</time>
      </trkpt>
      <trkpt lat="44.51615" lon="0.70038">
        <ele>145.2</ele>
        <time>2018-07-22T14:02:23Z</time>
      </trkpt>
      <trkpt lat="44.51616" lon="0.70042">
        <ele>145.3</ele>
        <time>2018-07-22T14:02:25Z</time>
      </trkpt>
      <trkpt lat="44.51616" lon="0.70046">
        <ele>145.5</ele>
        <time>2018-07-22T14:02:27Z</time>
      </trkpt>
      <trkpt lat="44.51616" lon="0.7005">
        <ele>145.6</ele>
        <time>2018-07-22T14:02:29Z</time>
      </trkpt>
      <trkpt lat="44.51615" lon="0.70055">
        <ele>145.8</ele>
        <time>2018-07-22T14:02:31Z</time>
      </trkpt>
      <trkpt lat="44.51615" lon="0.70059">
        <ele>145.9</ele>
        <time>2018-07-22T14:02:33Z</time>
      </trkpt>
      <trkpt lat="44.51614" lon="0.70063">
        <ele>146.1</ele>
        <time>2018-07-22T14:02:35Z</time>
      </trkpt>
      <trkpt lat="44.51614" lon="0.70067">
        <ele>146.2</ele>
        <time>2018-07-22T14:02:37Z</time>
      </trkpt>
      <trkpt lat="44.51612" lon="0.70071">
        <ele>146.4</ele>
        <time>2018-07-22T14:02:39Z</time>
      </trkpt>
      <trkpt lat="44.5161" lon="0.70076">
        <ele>146.6</ele>
        <time>2018-07-22T14:02:41Z</time>
      </trkpt>
      <trkpt lat="44.51609" lon="0.70079">
        <ele>146.7</ele>
        <time>2018-07-22T14:02:43Z</time>
      </trkpt>
      <trkpt lat="44.51607" lon="0.70083">
        <ele>146.9</ele>
        <time>2018-07-22T14:02:45Z</time>
      </trkpt>
      <trkpt lat="44.51605" lon="0.70087">
        <ele>147.1</ele>
        <time>2018-07-22T14:02:47Z</time>
      </trkpt>
      <trkpt lat="44.51604" lon="0.70091">
        <ele>147.2</ele>
        <time>2018-07-22T14:02:49Z</time>
      </trkpt>
      <trkpt lat="44.51603" lon="0.70095">
        <ele>147.4</ele>
        <time>2018-07-22T14:02:51Z</time>
      </trkpt>
      <trkpt lat="44.51602" lon="0.70098">
        <ele>147.5</ele>
        <time>2018-07-22T14:02:53Z</time>
      </trkpt>
      <trkpt lat="44.516" lon="0.70102">
        <ele>147.7</ele>
        <time>2018-07-22T14:02:55Z</time>
      </trkpt>
      <trkpt lat="44.51599" lon="0.70106">
        <ele>147.8</ele>
        <time>2018-07-22T14:02:57Z</time>
      </trkpt>
      <trkpt lat="44.51597" lon="0.7011">
        <ele>148</ele>
        <time>2018-07-22T14:03:00Z</time>
      </trkpt>
      <trkpt lat="44.51595" lon="0.70114">
        <ele>148.2</ele>
        <time>2018-07-22T14:03:02Z</time>
      </trkpt>
      <trkpt lat="44.51593" lon="0.70117">
        <ele>148.3</ele>
        <time>2018-07-22T14:03:04Z</time>
      </trkpt>
      <trkpt lat="44.51591" lon="0.70121">
        <ele>148.5</ele>
        <time>2018-07-22T14:03:06Z</time>
      </trkpt>
      <trkpt lat="44.51589" lon="0.70124">
        <ele>148.6</ele>
        <time>2018-07-22T14:03:08Z</time>
      </trkpt>
      <trkpt lat="44.51588" lon="0.70128">
        <ele>148.8</ele>
        <time>2018-07-22T14:03:10Z</time>
      </trkpt>
      <trkpt lat="44.51586" lon="0.70132">
        <ele>148.9</ele>
        <time>2018-07-22T14:03:12Z</time>
      </trkpt>
      <trkpt lat="44.51585" lon="0.70136">
        <ele>149.1</ele>
        <time>2018-07-22T14:03:14Z</time>
      </trkpt>
      <trkpt lat="44.51584" lon="0.7014">
        <ele>149.2</ele>
        <time>2018-07-22T14:03:16Z</time>
      </trkpt>
      <trkpt lat="44.51583" lon="0.70144">
        <ele>149.4</ele>
        <time>2018-07-22T14:03:19Z</time>
      </trkpt>
      <trkpt lat="44.51582" lon="0.70149">
        <ele>149.6</ele>
        <time>2018-07-22T14:03:22Z</time>
      </trkpt>
      <trkpt lat="44.5158" lon="0.70153">
        <ele>149.7</ele>
        <time>2018-07-22T14:03:25Z</time>
      </trkpt>
      <trkpt lat="44.51579" lon="0.70158">
        <ele>149.9</ele>
        <time>2018-07-22T14:03:28Z</time>
      </trkpt>
      <trkpt lat="44.51577" lon="0.70162">
        <ele>150.1</ele>
        <time>2018-07-22T14:03:30Z</time>
      </trkpt>
      <trkpt lat="44.51576" lon="0.70166">
        <ele>150.3</ele>
        <time>2018-07-22T14:03:33Z</time>
      </trkpt>
      <trkpt lat="44.51574" lon="0.70171">
        <ele>150.5</ele>
        <time>2018-07-22T14:03:36Z</time>
      </trkpt>
      <trkpt lat="44.51572" lon="0.70175">
        <ele>150.6</ele>
        <time>2018-07-22T14:03:38Z</time>
      </trkpt>
      <trkpt lat="44.51571" lon="0.70178">
        <ele>150.8</ele>
        <time>2018-07-22T14:03:40Z</time>
      </trkpt>
      <trkpt lat="44.51569" lon="0.70181">
        <ele>150.9</ele>
        <time>2018-07-22T14:03:42Z</time>
      </trkpt>
      <trkpt lat="44.51568" lon="0.70185">
        <ele>151.1</ele>
        <time>2018-07-22T14:03:44Z</time>
      </trkpt>
      <trkpt lat="44.51566" lon="0.70189">
        <ele>151.2</ele>
        <time>2018-07-22T14:03:46Z</time>
      </trkpt>
      <trkpt lat="44.51565" lon="0.70192">
        <ele>151.4</ele>
        <time>2018-07-22T14:03:48Z</time>
      </trkpt>
      <trkpt lat="44.51563" lon="0.70197">
        <ele>151.6</ele>
        <time>2018-07-22T14:03:51Z</time>
      </trkpt>
      <trkpt lat="44.51562" lon="0.702">
        <ele>151.8</ele>
        <time>2018-07-22T14:03:53Z</time>
      </trkpt>
      <trkpt lat="44.5156" lon="0.70205">
        <ele>151.9</ele>
        <time>2018-07-22T14:03:56Z</time>
      </trkpt>
      <trkpt lat="44.51559" lon="0.7021">
        <ele>152.2</ele>
        <time>2018-07-22T14:03:59Z</time>
      </trkpt>
      <trkpt lat="44.51557" lon="0.70214">
        <ele>152.3</ele>
        <time>2018-07-22T14:04:02Z</time>
      </trkpt>
      <trkpt lat="44.51556" lon="0.70218">
        <ele>152.5</ele>
        <time>2018-07-22T14:04:04Z</time>
      </trkpt>
      <trkpt lat="44.51554" lon="0.70222">
        <ele>152.6</ele>
        <time>2018-07-22T14:04:06Z</time>
      </trkpt>
      <trkpt lat="44.51553" lon="0.70226">
        <ele>152.8</ele>
        <time>2018-07-22T14:04:08Z</time>
      </trkpt>
      <trkpt lat="44.51551" lon="0.70229">
        <ele>153</ele>
        <time>2018-07-22T14:04:10Z</time>
      </trkpt>
      <trkpt lat="44.5155" lon="0.70233">
        <ele>153.1</ele>
        <time>2018-07-22T14:04:12Z</time>
      </trkpt>
      <trkpt lat="44.51549" lon="0.70237">
        <ele>153.3</ele>
        <time>2018-07-22T14:04:14Z</time>
      </trkpt>
      <trkpt lat="44.51547" lon="0.70241">
        <ele>153.5</ele>
        <time>2018-07-22T14:04:17Z</time>
      </trkpt>
      <trkpt lat="44.51545" lon="0.70246">
        <ele>153.7</ele>
        <time>2018-07-22T14:04:20Z</time>
      </trkpt>
      <trkpt lat="44.51543" lon="0.7025">
        <ele>153.9</ele>
        <time>2018-07-22T14:04:23Z</time>
      </trkpt>
      <trkpt lat="44.51541" lon="0.70254">
        <ele>154</ele>
        <time>2018-07-22T14:04:25Z</time>
      </trkpt>
      <trkpt lat="44.5154" lon="0.70259">
        <ele>154.2</ele>
        <time>2018-07-22T14:04:28Z</time>
      </trkpt>
      <trkpt lat="44.51538" lon="0.70262">
        <ele>154.4</ele>
        <time>2018-07-22T14:04:30Z</time>
      </trkpt>
      <trkpt lat="44.51536" lon="0.70266">
        <ele>154.5</ele>
        <time>2018-07-22T14:04:32Z</time>
      </trkpt>
      <trkpt lat="44.51535" lon="0.70269">
        <ele>154.7</ele>
        <time>2018-07-22T14:04:34Z</time>
      </trkpt>
      <trkpt lat="44.51533" lon="0.70274">
        <ele>154.9</ele>
        <time>2018-07-22T14:04:37Z</time>
      </trkpt>
      <trkpt lat="44.51531" lon="0.70278">
        <ele>155.1</ele>
        <time>2018-07-22T14:04:39Z</time>
      </trkpt>
      <trkpt lat="44.51529" lon="0.70281">
        <ele>155.3</ele>
        <time>2018-07-22T14:04:41Z</time>
      </trkpt>
      <trkpt lat="44.51527" lon="0.70285">
        <ele>155.4</ele>
        <time>2018-07-22T14:04:43Z</time>
      </trkpt>
      <trkpt lat="44.51525" lon="0.70289">
        <ele>155.6</ele>
        <time>2018-07-22T14:04:45Z</time>
      </trkpt>
      <trkpt lat="44.51524" lon="0.70292">
        <ele>155.8</ele>
        <time>2018-07-22T14:04:47Z</time>
      </trkpt>
      <trkpt lat="44.51522" lon="0.70296">
        <ele>156</ele>
        <time>2018-07-22T14:04:49Z</time>
      </trkpt>
      <trkpt lat="44.5152" lon="0.70299">
        <ele>156.2</ele>
        <time>2018-07-22T14:04:51Z</time>
      </trkpt>
      <trkpt lat="44.51518" lon="0.70303">
        <ele>156.3</ele>
        <time>2018-07-22T14:04:53Z</time>
      </trkpt>
      <trkpt lat="44.51517" lon="0.70306">
        <ele>156.5</ele>
        <time>2018-07-22T14:04:55Z</time>
      </trkpt>
      <trkpt lat="44.51515" lon="0.70309">
        <ele>156.6</ele>
        <time>2018-07-22T14:04:57Z</time>
      </trkpt>
      <trkpt lat="44.51513" lon="0.70314">
        <ele>156.9</ele>
        <time>2018-07-22T14:05:00Z</time>
      </trkpt>
      <trkpt lat="44.51511" lon="0.70318">
        <ele>157.1</ele>
        <time>2018-07-22T14:05:03Z</time>
      </trkpt>
      <trkpt lat="44.5151" lon="0.70322">
        <ele>157.3</ele>
        <time>2018-07-22T14:05:05Z</time>
      </trkpt>
      <trkpt lat="44.51508" lon="0.70326">
        <ele>157.6</ele>
        <time>2018-07-22T14:05:08Z</time>
      </trkpt>
      <trkpt lat="44.51506" lon="0.70332">
        <ele>157.8</ele>
        <time>2018-07-22T14:05:11Z</time>
      </trkpt>
      <trkpt lat="44.51505" lon="0.70335">
        <ele>158</ele>
        <time>2018-07-22T14:05:13Z</time>
      </trkpt>
      <trkpt lat="44.51504" lon="0.7034">
        <ele>158.2</ele>
        <time>2018-07-22T14:05:16Z</time>
      </trkpt>
      <trkpt lat="44.51502" lon="0.70345">
        <ele>158.5</ele>
        <time>2018-07-22T14:05:19Z</time>
      </trkpt>
      <trkpt lat="44.515" lon="0.70349">
        <ele>158.8</ele>
        <time>2018-07-22T14:05:22Z</time>
      </trkpt>
      <trkpt lat="44.51499" lon="0.70353">
        <ele>159</ele>
        <time>2018-07-22T14:05:24Z</time>
      </trkpt>
      <trkpt lat="44.51497" lon="0.70356">
        <ele>159.2</ele>
        <time>2018-07-22T14:05:26Z</time>
      </trkpt>
      <trkpt lat="44.51496" lon="0.7036">
        <ele>159.4</ele>
        <time>2018-07-22T14:05:28Z</time>
      </trkpt>
      <trkpt lat="44.51495" lon="0.70364">
        <ele>159.6</ele>
        <time>2018-07-22T14:05:30Z</time>
      </trkpt>
      <trkpt lat="44.51493" lon="0.70367">
        <ele>159.7</ele>
        <time>2018-07-22T14:05:32Z</time>
      </trkpt>
      <trkpt lat="44.51492" lon="0.70371">
        <ele>159.9</ele>
        <time>2018-07-22T14:05:35Z</time>
      </trkpt>
      <trkpt lat="44.51491" lon="0.70376">
        <ele>160.1</ele>
        <time>2018-07-22T14:05:38Z</time>
      </trkpt>
      <trkpt lat="44.5149" lon="0.7038">
        <ele>160.4</ele>
        <time>2018-07-22T14:05:41Z</time>
      </trkpt>
      <trkpt lat="44.51486" lon="0.7038">
        <ele>160.6</ele>
        <time>2018-07-22T14:08:24Z</time>
      </trkpt>
      <trkpt lat="44.51483" lon="0.7038">
        <ele>160.8</ele>
        <time>2018-07-22T14:08:32Z</time>
      </trkpt>
      <trkpt lat="44.51484" lon="0.70376">
        <ele>161</ele>
        <time>2018-07-22T14:09:38Z</time>
      </trkpt>
      <trkpt lat="44.51482" lon="0.70372">
        <ele>161.2</ele>
        <time>2018-07-22T14:09:44Z</time>
      </trkpt>
      <trkpt lat="44.51481" lon="0.70368">
        <ele>161.3</ele>
        <time>2018-07-22T14:09:48Z</time>
      </trkpt>
      <trkpt lat="44.51478" lon="0.70369">
        <ele>161.5</ele>
        <time>2018-07-22T14:09:51Z</time>
      </trkpt>
      <trkpt lat="44.51476" lon="0.70367">
        <ele>161.7</ele>
        <time>2018-07-22T14:09:56Z</time>
      </trkpt>
      <trkpt lat="44.51472" lon="0.70367">
        <ele>161.9</ele>
        <time>2018-07-22T14:09:59Z</time>
      </trkpt>
      <trkpt lat="44.51475" lon="0.70367">
        <ele>162.1</ele>
        <time>2018-07-22T14:10:09Z</time>
      </trkpt>
      <trkpt lat="44.51478" lon="0.70365">
        <ele>162.2</ele>
        <time>2018-07-22T14:10:12Z</time>
      </trkpt>
      <trkpt lat="44.51475" lon="0.70367">
        <ele>162.4</ele>
        <time>2018-07-22T14:10:17Z</time>
      </trkpt>
      <trkpt lat="44.51472" lon="0.70368">
        <ele>162.6</ele>
        <time>2018-07-22T14:10:19Z</time>
      </trkpt>
      <trkpt lat="44.51469" lon="0.70369">
        <ele>162.8</ele>
        <time>2018-07-22T14:10:22Z</time>
      </trkpt>
      <trkpt lat="44.51466" lon="0.7037">
        <ele>163</ele>
        <time>2018-07-22T14:10:24Z</time>
      </trkpt>
      <trkpt lat="44.51463" lon="0.70372">
        <ele>163.2</ele>
        <time>2018-07-22T14:10:26Z</time>
      </trkpt>
      <trkpt lat="44.51459" lon="0.70374">
        <ele>163.4</ele>
        <time>2018-07-22T14:10:29Z</time>
      </trkpt>
      <trkpt lat="44.51457" lon="0.70375">
        <ele>163.6</ele>
        <time>2018-07-22T14:10:31Z</time>
      </trkpt>
      <trkpt lat="44.51454" lon="0.70377">
        <ele>163.7</ele>
        <time>2018-07-22T14:10:33Z</time>
      </trkpt>
      <trkpt lat="44.5145" lon="0.70379">
        <ele>164</ele>
        <time>2018-07-22T14:10:36Z</time>
      </trkpt>
      <trkpt lat="44.51448" lon="0.70382">
        <ele>164.2</ele>
        <time>2018-07-22T14:10:38Z</time>
      </trkpt>
      <trkpt lat="44.51445" lon="0.70383">
        <ele>164.3</ele>
        <time>2018-07-22T14:10:40Z</time>
      </trkpt>
      <trkpt lat="44.51443" lon="0.70385">
        <ele>164.4</ele>
        <time>2018-07-22T14:10:42Z</time>
      </trkpt>
      <trkpt lat="44.5144" lon="0.70388">
        <ele>164.6</ele>
        <time>2018-07-22T14:10:44Z</time>
      </trkpt>
      <trkpt lat="44.51437" lon="0.7039">
        <ele>164.7</ele>
        <time>2018-07-22T14:10:46Z</time>
      </trkpt>
      <trkpt lat="44.51434" lon="0.70392">
        <ele>164.9</ele>
        <time>2018-07-22T14:10:49Z</time>
      </trkpt>
      <trkpt lat="44.51432" lon="0.70396">
        <ele>165</ele>
        <time>2018-07-22T14:10:51Z</time>
      </trkpt>
      <trkpt lat="44.51431" lon="0.70399">
        <ele>165.1</ele>
        <time>2018-07-22T14:10:53Z</time>
      </trkpt>
      <trkpt lat="44.51429" lon="0.70403">
        <ele>165.4</ele>
        <time>2018-07-22T14:10:55Z</time>
      </trkpt>
      <trkpt lat="44.51427" lon="0.70406">
        <ele>165.6</ele>
        <time>2018-07-22T14:10:57Z</time>
      </trkpt>
      <trkpt lat="44.51424" lon="0.70409">
        <ele>165.8</ele>
        <time>2018-07-22T14:10:59Z</time>
      </trkpt>
      <trkpt lat="44.51423" lon="0.70412">
        <ele>166</ele>
        <time>2018-07-22T14:11:01Z</time>
      </trkpt>
      <trkpt lat="44.51421" lon="0.70415">
        <ele>166.2</ele>
        <time>2018-07-22T14:11:03Z</time>
      </trkpt>
      <trkpt lat="44.51419" lon="0.70418">
        <ele>166.4</ele>
        <time>2018-07-22T14:11:05Z</time>
      </trkpt>
      <trkpt lat="44.51418" lon="0.70422">
        <ele>166.6</ele>
        <time>2018-07-22T14:11:07Z</time>
      </trkpt>
      <trkpt lat="44.51416" lon="0.70425">
        <ele>166.8</ele>
        <time>2018-07-22T14:11:09Z</time>
      </trkpt>
      <trkpt lat="44.51414" lon="0.70429">
        <ele>167</ele>
        <time>2018-07-22T14:11:11Z</time>
      </trkpt>
      <trkpt lat="44.51412" lon="0.70433">
        <ele>167.2</ele>
        <time>2018-07-22T14:11:13Z</time>
      </trkpt>
      <trkpt lat="44.5141" lon="0.70436">
        <ele>167.4</ele>
        <time>2018-07-22T14:11:15Z</time>
      </trkpt>
      <trkpt lat="44.51409" lon="0.7044">
        <ele>167.6</ele>
        <time>2018-07-22T14:11:17Z</time>
      </trkpt>
      <trkpt lat="44.51407" lon="0.70443">
        <ele>167.7</ele>
        <time>2018-07-22T14:11:19Z</time>
      </trkpt>
      <trkpt lat="44.51404" lon="0.70446">
        <ele>167.9</ele>
        <time>2018-07-22T14:11:21Z</time>
      </trkpt>
      <trkpt lat="44.51402" lon="0.70449">
        <ele>168.1</ele>
        <time>2018-07-22T14:11:23Z</time>
      </trkpt>
      <trkpt lat="44.514" lon="0.70454">
        <ele>168.4</ele>
        <time>2018-07-22T14:11:26Z</time>
      </trkpt>
      <trkpt lat="44.51398" lon="0.70457">
        <ele>168.7</ele>
        <time>2018-07-22T14:11:29Z</time>
      </trkpt>
      <trkpt lat="44.51395" lon="0.70459">
        <ele>168.9</ele>
        <time>2018-07-22T14:11:31Z</time>
      </trkpt>
      <trkpt lat="44.51392" lon="0.70462">
        <ele>169.1</ele>
        <time>2018-07-22T14:11:34Z</time>
      </trkpt>
      <trkpt lat="44.51389" lon="0.70465">
        <ele>169.3</ele>
        <time>2018-07-22T14:11:37Z</time>
      </trkpt>
      <trkpt lat="44.51386" lon="0.70467">
        <ele>169.5</ele>
        <time>2018-07-22T14:11:39Z</time>
      </trkpt>
      <trkpt lat="44.51382" lon="0.70468">
        <ele>169.7</ele>
        <time>2018-07-22T14:11:42Z</time>
      </trkpt>
      <trkpt lat="44.51379" lon="0.7047">
        <ele>169.9</ele>
        <time>2018-07-22T14:11:45Z</time>
      </trkpt>
      <trkpt lat="44.51375" lon="0.70471">
        <ele>170.2</ele>
        <time>2018-07-22T14:11:48Z</time>
      </trkpt>
      <trkpt lat="44.51371" lon="0.70471">
        <ele>170.4</ele>
        <time>2018-07-22T14:11:51Z</time>
      </trkpt>
      <trkpt lat="44.51368" lon="0.70471">
        <ele>170.6</ele>
        <time>2018-07-22T14:11:54Z</time>
      </trkpt>
      <trkpt lat="44.51365" lon="0.70471">
        <ele>170.8</ele>
        <time>2018-07-22T14:11:57Z</time>
      </trkpt>
      <trkpt lat="44.51361" lon="0.7047">
        <ele>171</ele>
        <time>2018-07-22T14:12:00Z</time>
      </trkpt>
      <trkpt lat="44.51357" lon="0.70469">
        <ele>171.2</ele>
        <time>2018-07-22T14:12:03Z</time>
      </trkpt>
      <trkpt lat="44.51353" lon="0.70468">
        <ele>171.5</ele>
        <time>2018-07-22T14:12:06Z</time>
      </trkpt>
      <trkpt lat="44.51351" lon="0.70467">
        <ele>171.6</ele>
        <time>2018-07-22T14:12:08Z</time>
      </trkpt>
      <trkpt lat="44.51348" lon="0.70466">
        <ele>171.8</ele>
        <time>2018-07-22T14:12:10Z</time>
      </trkpt>
      <trkpt lat="44.51345" lon="0.70464">
        <ele>172</ele>
        <time>2018-07-22T14:12:12Z</time>
      </trkpt>
      <trkpt lat="44.51343" lon="0.70462">
        <ele>172.1</ele>
        <time>2018-07-22T14:12:14Z</time>
      </trkpt>
      <trkpt lat="44.5134" lon="0.7046">
        <ele>172.4</ele>
        <time>2018-07-22T14:12:17Z</time>
      </trkpt>
      <trkpt lat="44.51337" lon="0.70457">
        <ele>172.7</ele>
        <time>2018-07-22T14:12:20Z</time>
      </trkpt>
      <trkpt lat="44.51334" lon="0.70455">
        <ele>172.9</ele>
        <time>2018-07-22T14:12:22Z</time>
      </trkpt>
      <trkpt lat="44.51332" lon="0.70453">
        <ele>173.1</ele>
        <time>2018-07-22T14:12:24Z</time>
      </trkpt>
      <trkpt lat="44.51329" lon="0.70451">
        <ele>173.2</ele>
        <time>2018-07-22T14:12:26Z</time>
      </trkpt>
      <trkpt lat="44.51326" lon="0.70449">
        <ele>173.4</ele>
        <time>2018-07-22T14:12:29Z</time>
      </trkpt>
      <trkpt lat="44.51322" lon="0.70447">
        <ele>173.6</ele>
        <time>2018-07-22T14:12:32Z</time>
      </trkpt>
      <trkpt lat="44.5132" lon="0.70446">
        <ele>173.8</ele>
        <time>2018-07-22T14:12:34Z</time>
      </trkpt>
      <trkpt lat="44.51317" lon="0.70444">
        <ele>173.9</ele>
        <time>2018-07-22T14:12:36Z</time>
      </trkpt>
      <trkpt lat="44.51314" lon="0.70443">
        <ele>174.1</ele>
        <time>2018-07-22T14:12:39Z</time>
      </trkpt>
      <trkpt lat="44.5131" lon="0.70443">
        <ele>174.4</ele>
        <time>2018-07-22T14:12:42Z</time>
      </trkpt>
      <trkpt lat="44.51306" lon="0.70442">
        <ele>174.7</ele>
        <time>2018-07-22T14:12:45Z</time>
      </trkpt>
      <trkpt lat="44.51303" lon="0.70442">
        <ele>174.9</ele>
        <time>2018-07-22T14:12:47Z</time>
      </trkpt>
      <trkpt lat="44.51301" lon="0.70443">
        <ele>175</ele>
        <time>2018-07-22T14:12:49Z</time>
      </trkpt>
      <trkpt lat="44.51298" lon="0.70445">
        <ele>175.2</ele>
        <time>2018-07-22T14:12:51Z</time>
      </trkpt>
      <trkpt lat="44.51294" lon="0.70448">
        <ele>175.5</ele>
        <time>2018-07-22T14:12:54Z</time>
      </trkpt>
      <trkpt lat="44.51292" lon="0.7045">
        <ele>175.7</ele>
        <time>2018-07-22T14:12:57Z</time>
      </trkpt>
      <trkpt lat="44.51289" lon="0.7045">
        <ele>175.9</ele>
        <time>2018-07-22T14:13:00Z</time>
      </trkpt>
      <trkpt lat="44.51285" lon="0.70447">
        <ele>175.4</ele>
        <time>2018-07-22T14:13:03Z</time>
      </trkpt>
      <trkpt lat="44.51283" lon="0.70445">
        <ele>175</ele>
        <time>2018-07-22T14:13:05Z</time>
      </trkpt>
      <trkpt lat="44.5128" lon="0.70443">
        <ele>175.4</ele>
        <time>2018-07-22T14:13:07Z</time>
      </trkpt>
      <trkpt lat="44.51276" lon="0.7044">
        <ele>175</ele>
        <time>2018-07-22T14:13:10Z</time>
      </trkpt>
      <trkpt lat="44.51274" lon="0.70438">
        <ele>175.4</ele>
        <time>2018-07-22T14:13:12Z</time>
      </trkpt>
      <trkpt lat="44.51271" lon="0.70437">
        <ele>174.9</ele>
        <time>2018-07-22T14:13:14Z</time>
      </trkpt>
      <trkpt lat="44.51268" lon="0.70435">
        <ele>175.3</ele>
        <time>2018-07-22T14:13:16Z</time>
      </trkpt>
      <trkpt lat="44.51265" lon="0.70434">
        <ele>175.6</ele>
        <time>2018-07-22T14:13:18Z</time>
      </trkpt>
      <trkpt lat="44.51262" lon="0.70432">
        <ele>175.1</ele>
        <time>2018-07-22T14:13:20Z</time>
      </trkpt>
      <trkpt lat="44.51259" lon="0.7043">
        <ele>175.4</ele>
        <time>2018-07-22T14:13:22Z</time>
      </trkpt>
      <trkpt lat="44.51256" lon="0.70428">
        <ele>174.8</ele>
        <time>2018-07-22T14:13:24Z</time>
      </trkpt>
      <trkpt lat="44.51252" lon="0.70426">
        <ele>175.1</ele>
        <time>2018-07-22T14:13:26Z</time>
      </trkpt>
      <trkpt lat="44.51249" lon="0.70425">
        <ele>175.4</ele>
        <time>2018-07-22T14:13:28Z</time>
      </trkpt>
      <trkpt lat="44.51246" lon="0.70423">
        <ele>174.8</ele>
        <time>2018-07-22T14:13:30Z</time>
      </trkpt>
      <trkpt lat="44.51243" lon="0.70422">
        <ele>175</ele>
        <time>2018-07-22T14:13:32Z</time>
      </trkpt>
      <trkpt lat="44.5124" lon="0.70421">
        <ele>175.3</ele>
        <time>2018-07-22T14:13:34Z</time>
      </trkpt>
      <trkpt lat="44.51236" lon="0.70419">
        <ele>174.6</ele>
        <time>2018-07-22T14:13:37Z</time>
      </trkpt>
      <trkpt lat="44.51233" lon="0.70417">
        <ele>174.8</ele>
        <time>2018-07-22T14:13:39Z</time>
      </trkpt>
      <trkpt lat="44.5123" lon="0.70416">
        <ele>175.2</ele>
        <time>2018-07-22T14:13:41Z</time>
      </trkpt>
      <trkpt lat="44.51226" lon="0.70416">
        <ele>175.5</ele>
        <time>2018-07-22T14:13:43Z</time>
      </trkpt>
      <trkpt lat="44.51222" lon="0.70414">
        <ele>174.7</ele>
        <time>2018-07-22T14:13:46Z</time>
      </trkpt>
      <trkpt lat="44.5122" lon="0.70413">
        <ele>175</ele>
        <time>2018-07-22T14:13:48Z</time>
      </trkpt>
      <trkpt lat="44.51217" lon="0.70412">
        <ele>175.4</ele>
        <time>2018-07-22T14:13:50Z</time>
      </trkpt>
      <trkpt lat="44.51213" lon="0.70412">
        <ele>175.7</ele>
        <time>2018-07-22T14:13:53Z</time>
      </trkpt>
      <trkpt lat="44.5121" lon="0.70412">
        <ele>175.9</ele>
        <time>2018-07-22T14:13:55Z</time>
      </trkpt>
      <trkpt lat="44.51206" lon="0.70412">
        <ele>176.2</ele>
        <time>2018-07-22T14:13:58Z</time>
      </trkpt>
      <trkpt lat="44.51203" lon="0.70412">
        <ele>176.5</ele>
        <time>2018-07-22T14:14:00Z</time>
      </trkpt>
      <trkpt lat="44.512" lon="0.70413">
        <ele>176.8</ele>
        <time>2018-07-22T14:14:02Z</time>
      </trkpt>
      <trkpt lat="44.51197" lon="0.70413">
        <ele>177.1</ele>
        <time>2018-07-22T14:14:04Z</time>
      </trkpt>
      <trkpt lat="44.51193" lon="0.70412">
        <ele>177.4</ele>
        <time>2018-07-22T14:14:07Z</time>
      </trkpt>
      <trkpt lat="44.51189" lon="0.70411">
        <ele>177.9</ele>
        <time>2018-07-22T14:14:10Z</time>
      </trkpt>
      <trkpt lat="44.51187" lon="0.70413">
        <ele>178.2</ele>
        <time>2018-07-22T14:14:12Z</time>
      </trkpt>
      <trkpt lat="44.51183" lon="0.70413">
        <ele>178.4</ele>
        <time>2018-07-22T14:14:15Z</time>
      </trkpt>
      <trkpt lat="44.5118" lon="0.70412">
        <ele>178.6</ele>
        <time>2018-07-22T14:14:18Z</time>
      </trkpt>
      <trkpt lat="44.51177" lon="0.7041">
        <ele>177.9</ele>
        <time>2018-07-22T14:14:21Z</time>
      </trkpt>
      <trkpt lat="44.51173" lon="0.70409">
        <ele>178.1</ele>
        <time>2018-07-22T14:14:24Z</time>
      </trkpt>
      <trkpt lat="44.51169" lon="0.70409">
        <ele>178.3</ele>
        <time>2018-07-22T14:14:27Z</time>
      </trkpt>
      <trkpt lat="44.51166" lon="0.70408">
        <ele>178.6</ele>
        <time>2018-07-22T14:14:29Z</time>
      </trkpt>
      <trkpt lat="44.51163" lon="0.70407">
        <ele>178.9</ele>
        <time>2018-07-22T14:14:32Z</time>
      </trkpt>
      <trkpt lat="44.51159" lon="0.70407">
        <ele>178.3</ele>
        <time>2018-07-22T14:14:35Z</time>
      </trkpt>
      <trkpt lat="44.51155" lon="0.70407">
        <ele>178.5</ele>
        <time>2018-07-22T14:14:38Z</time>
      </trkpt>
      <trkpt lat="44.51151" lon="0.70406">
        <ele>178.7</ele>
        <time>2018-07-22T14:14:41Z</time>
      </trkpt>
      <trkpt lat="44.51148" lon="0.70406">
        <ele>178.9</ele>
        <time>2018-07-22T14:14:43Z</time>
      </trkpt>
      <trkpt lat="44.51145" lon="0.70405">
        <ele>179.1</ele>
        <time>2018-07-22T14:14:45Z</time>
      </trkpt>
      <trkpt lat="44.51141" lon="0.70406">
        <ele>179.6</ele>
        <time>2018-07-22T14:14:48Z</time>
      </trkpt>
      <trkpt lat="44.51137" lon="0.70406">
        <ele>179.9</ele>
        <time>2018-07-22T14:14:51Z</time>
      </trkpt>
      <trkpt lat="44.51134" lon="0.70407">
        <ele>180.1</ele>
        <time>2018-07-22T14:14:54Z</time>
      </trkpt>
      <trkpt lat="44.51131" lon="0.70408">
        <ele>181.3</ele>
        <time>2018-07-22T14:14:57Z</time>
      </trkpt>
      <trkpt lat="44.51128" lon="0.70409">
        <ele>181.6</ele>
        <time>2018-07-22T14:15:00Z</time>
      </trkpt>
      <trkpt lat="44.51125" lon="0.70409">
        <ele>181.8</ele>
        <time>2018-07-22T14:15:03Z</time>
      </trkpt>
      <trkpt lat="44.51122" lon="0.70411">
        <ele>182</ele>
        <time>2018-07-22T14:15:06Z</time>
      </trkpt>
      <trkpt lat="44.51119" lon="0.70412">
        <ele>183.2</ele>
        <time>2018-07-22T14:15:09Z</time>
      </trkpt>
      <trkpt lat="44.51117" lon="0.70414">
        <ele>183.3</ele>
        <time>2018-07-22T14:15:11Z</time>
      </trkpt>
      <trkpt lat="44.51113" lon="0.70415">
        <ele>183.6</ele>
        <time>2018-07-22T14:15:14Z</time>
      </trkpt>
      <trkpt lat="44.5111" lon="0.70417">
        <ele>184.7</ele>
        <time>2018-07-22T14:15:17Z</time>
      </trkpt>
      <trkpt lat="44.51107" lon="0.70419">
        <ele>184.9</ele>
        <time>2018-07-22T14:15:20Z</time>
      </trkpt>
      <trkpt lat="44.51103" lon="0.70421">
        <ele>185.9</ele>
        <time>2018-07-22T14:15:23Z</time>
      </trkpt>
      <trkpt lat="44.511" lon="0.70423">
        <ele>186.1</ele>
        <time>2018-07-22T14:15:26Z</time>
      </trkpt>
      <trkpt lat="44.51098" lon="0.70425">
        <ele>187.1</ele>
        <time>2018-07-22T14:15:28Z</time>
      </trkpt>
      <trkpt lat="44.51094" lon="0.70427">
        <ele>187.3</ele>
        <time>2018-07-22T14:15:31Z</time>
      </trkpt>
      <trkpt lat="44.51091" lon="0.70429">
        <ele>188.2</ele>
        <time>2018-07-22T14:15:33Z</time>
      </trkpt>
      <trkpt lat="44.51089" lon="0.70431">
        <ele>188.4</ele>
        <time>2018-07-22T14:15:35Z</time>
      </trkpt>
      <trkpt lat="44.51086" lon="0.70434">
        <ele>189.3</ele>
        <time>2018-07-22T14:15:37Z</time>
      </trkpt>
      <trkpt lat="44.51084" lon="0.70436">
        <ele>189.4</ele>
        <time>2018-07-22T14:15:39Z</time>
      </trkpt>
      <trkpt lat="44.5108" lon="0.70438">
        <ele>190.4</ele>
        <time>2018-07-22T14:15:42Z</time>
      </trkpt>
      <trkpt lat="44.51076" lon="0.70437">
        <ele>190.6</ele>
        <time>2018-07-22T14:15:45Z</time>
      </trkpt>
      <trkpt lat="44.51074" lon="0.70439">
        <ele>190.7</ele>
        <time>2018-07-22T14:15:47Z</time>
      </trkpt>
      <trkpt lat="44.51071" lon="0.7044">
        <ele>190.8</ele>
        <time>2018-07-22T14:15:49Z</time>
      </trkpt>
      <trkpt lat="44.51068" lon="0.70441">
        <ele>191.6</ele>
        <time>2018-07-22T14:15:51Z</time>
      </trkpt>
      <trkpt lat="44.51065" lon="0.70443">
        <ele>191.8</ele>
        <time>2018-07-22T14:15:53Z</time>
      </trkpt>
      <trkpt lat="44.51061" lon="0.70444">
        <ele>191.9</ele>
        <time>2018-07-22T14:15:56Z</time>
      </trkpt>
      <trkpt lat="44.51058" lon="0.70446">
        <ele>192.7</ele>
        <time>2018-07-22T14:15:58Z</time>
      </trkpt>
      <trkpt lat="44.51056" lon="0.70447">
        <ele>192.8</ele>
        <time>2018-07-22T14:16:00Z</time>
      </trkpt>
      <trkpt lat="44.51052" lon="0.7045">
        <ele>192.8</ele>
        <time>2018-07-22T14:16:03Z</time>
      </trkpt>
      <trkpt lat="44.51049" lon="0.70453">
        <ele>193.6</ele>
        <time>2018-07-22T14:16:06Z</time>
      </trkpt>
      <trkpt lat="44.51047" lon="0.70455">
        <ele>194.3</ele>
        <time>2018-07-22T14:16:08Z</time>
      </trkpt>
      <trkpt lat="44.51043" lon="0.70458">
        <ele>194.3</ele>
        <time>2018-07-22T14:16:11Z</time>
      </trkpt>
      <trkpt lat="44.5104" lon="0.7046">
        <ele>195</ele>
        <time>2018-07-22T14:16:14Z</time>
      </trkpt>
      <trkpt lat="44.51038" lon="0.70461">
        <ele>195</ele>
        <time>2018-07-22T14:16:16Z</time>
      </trkpt>
      <trkpt lat="44.51035" lon="0.70463">
        <ele>195.7</ele>
        <time>2018-07-22T14:16:18Z</time>
      </trkpt>
      <trkpt lat="44.51032" lon="0.70465">
        <ele>195.7</ele>
        <time>2018-07-22T14:16:20Z</time>
      </trkpt>
      <trkpt lat="44.51029" lon="0.70467">
        <ele>195.7</ele>
        <time>2018-07-22T14:16:22Z</time>
      </trkpt>
      <trkpt lat="44.51026" lon="0.70468">
        <ele>196.2</ele>
        <time>2018-07-22T14:16:24Z</time>
      </trkpt>
      <trkpt lat="44.51023" lon="0.7047">
        <ele>196.2</ele>
        <time>2018-07-22T14:16:26Z</time>
      </trkpt>
      <trkpt lat="44.5102" lon="0.70473">
        <ele>196.7</ele>
        <time>2018-07-22T14:16:28Z</time>
      </trkpt>
      <trkpt lat="44.51018" lon="0.70475">
        <ele>196.6</ele>
        <time>2018-07-22T14:16:30Z</time>
      </trkpt>
      <trkpt lat="44.51016" lon="0.70478">
        <ele>197.2</ele>
        <time>2018-07-22T14:16:32Z</time>
      </trkpt>
      <trkpt lat="44.51015" lon="0.70481">
        <ele>197.6</ele>
        <time>2018-07-22T14:16:35Z</time>
      </trkpt>
      <trkpt lat="44.51015" lon="0.70486">
        <ele>198.1</ele>
        <time>2018-07-22T14:16:38Z</time>
      </trkpt>
      <trkpt lat="44.51013" lon="0.70491">
        <ele>198.6</ele>
        <time>2018-07-22T14:16:41Z</time>
      </trkpt>
      <trkpt lat="44.51012" lon="0.70494">
        <ele>199</ele>
        <time>2018-07-22T14:16:44Z</time>
      </trkpt>
      <trkpt lat="44.5101" lon="0.70498">
        <ele>199.6</ele>
        <time>2018-07-22T14:16:46Z</time>
      </trkpt>
      <trkpt lat="44.51009" lon="0.70502">
        <ele>199.9</ele>
        <time>2018-07-22T14:16:48Z</time>
      </trkpt>
      <trkpt lat="44.51006" lon="0.70506">
        <ele>199.8</ele>
        <time>2018-07-22T14:16:51Z</time>
      </trkpt>
      <trkpt lat="44.51005" lon="0.7051">
        <ele>200.8</ele>
        <time>2018-07-22T14:16:54Z</time>
      </trkpt>
      <trkpt lat="44.51005" lon="0.70514">
        <ele>200.9</ele>
        <time>2018-07-22T14:16:57Z</time>
      </trkpt>
      <trkpt lat="44.51005" lon="0.70518">
        <ele>201.4</ele>
        <time>2018-07-22T14:17:00Z</time>
      </trkpt>
      <trkpt lat="44.51004" lon="0.70523">
        <ele>202.3</ele>
        <time>2018-07-22T14:17:03Z</time>
      </trkpt>
      <trkpt lat="44.51003" lon="0.70528">
        <ele>202.6</ele>
        <time>2018-07-22T14:17:06Z</time>
      </trkpt>
      <trkpt lat="44.51003" lon="0.70533">
        <ele>203</ele>
        <time>2018-07-22T14:17:09Z</time>
      </trkpt>
      <trkpt lat="44.51003" lon="0.70538">
        <ele>203.4</ele>
        <time>2018-07-22T14:17:12Z</time>
      </trkpt>
      <trkpt lat="44.51004" lon="0.70542">
        <ele>203.8</ele>
        <time>2018-07-22T14:17:16Z</time>
      </trkpt>
      <trkpt lat="44.51005" lon="0.70546">
        <ele>204</ele>
        <time>2018-07-22T14:17:19Z</time>
      </trkpt>
      <trkpt lat="44.51005" lon="0.70552">
        <ele>204.2</ele>
        <time>2018-07-22T14:17:22Z</time>
      </trkpt>
      <trkpt lat="44.51005" lon="0.70556">
        <ele>204.4</ele>
        <time>2018-07-22T14:17:25Z</time>
      </trkpt>
      <trkpt lat="44.51005" lon="0.70561">
        <ele>204.5</ele>
        <time>2018-07-22T14:17:28Z</time>
      </trkpt>
      <trkpt lat="44.51005" lon="0.70566">
        <ele>204.6</ele>
        <time>2018-07-22T14:17:31Z</time>
      </trkpt>
      <trkpt lat="44.51004" lon="0.7057">
        <ele>204.6</ele>
        <time>2018-07-22T14:17:33Z</time>
      </trkpt>
      <trkpt lat="44.51003" lon="0.70574">
        <ele>204.5</ele>
        <time>2018-07-22T14:17:35Z</time>
      </trkpt>
      <trkpt lat="44.51002" lon="0.70578">
        <ele>204.5</ele>
        <time>2018-07-22T14:17:37Z</time>
      </trkpt>
      <trkpt lat="44.51001" lon="0.70582">
        <ele>204.5</ele>
        <time>2018-07-22T14:17:39Z</time>
      </trkpt>
      <trkpt lat="44.51" lon="0.70585">
        <ele>204.5</ele>
        <time>2018-07-22T14:17:41Z</time>
      </trkpt>
      <trkpt lat="44.50997" lon="0.70588">
        <ele>204.5</ele>
        <time>2018-07-22T14:17:43Z</time>
      </trkpt>
      <trkpt lat="44.50994" lon="0.7059">
        <ele>204.5</ele>
        <time>2018-07-22T14:17:45Z</time>
      </trkpt>
      <trkpt lat="44.50991" lon="0.70591">
        <ele>204.5</ele>
        <time>2018-07-22T14:17:47Z</time>
      </trkpt>
      <trkpt lat="44.50989" lon="0.70593">
        <ele>204.5</ele>
        <time>2018-07-22T14:17:49Z</time>
      </trkpt>
      <trkpt lat="44.50986" lon="0.70595">
        <ele>204.5</ele>
        <time>2018-07-22T14:17:51Z</time>
      </trkpt>
      <trkpt lat="44.50982" lon="0.70597">
        <ele>204.6</ele>
        <time>2018-07-22T14:17:54Z</time>
      </trkpt>
      <trkpt lat="44.5098" lon="0.70599">
        <ele>204.6</ele>
        <time>2018-07-22T14:17:56Z</time>
      </trkpt>
      <trkpt lat="44.50977" lon="0.70601">
        <ele>204.6</ele>
        <time>2018-07-22T14:17:58Z</time>
      </trkpt>
      <trkpt lat="44.50975" lon="0.70603">
        <ele>204.6</ele>
        <time>2018-07-22T14:18:00Z</time>
      </trkpt>
      <trkpt lat="44.50973" lon="0.70605">
        <ele>204.6</ele>
        <time>2018-07-22T14:18:02Z</time>
      </trkpt>
      <trkpt lat="44.5097" lon="0.70606">
        <ele>204.6</ele>
        <time>2018-07-22T14:18:04Z</time>
      </trkpt>
      <trkpt lat="44.50966" lon="0.70609">
        <ele>204.7</ele>
        <time>2018-07-22T14:18:07Z</time>
      </trkpt>
      <trkpt lat="44.50964" lon="0.7061">
        <ele>204.7</ele>
        <time>2018-07-22T14:18:09Z</time>
      </trkpt>
      <trkpt lat="44.5096" lon="0.70612">
        <ele>204.8</ele>
        <time>2018-07-22T14:18:12Z</time>
      </trkpt>
      <trkpt lat="44.50958" lon="0.70614">
        <ele>204.9</ele>
        <time>2018-07-22T14:18:14Z</time>
      </trkpt>
      <trkpt lat="44.50954" lon="0.70616">
        <ele>205</ele>
        <time>2018-07-22T14:18:17Z</time>
      </trkpt>
      <trkpt lat="44.50952" lon="0.70617">
        <ele>205</ele>
        <time>2018-07-22T14:18:19Z</time>
      </trkpt>
      <trkpt lat="44.50948" lon="0.70619">
        <ele>205.2</ele>
        <time>2018-07-22T14:18:22Z</time>
      </trkpt>
      <trkpt lat="44.50945" lon="0.7062">
        <ele>205.2</ele>
        <time>2018-07-22T14:18:24Z</time>
      </trkpt>
      <trkpt lat="44.50942" lon="0.70622">
        <ele>205.3</ele>
        <time>2018-07-22T14:18:27Z</time>
      </trkpt>
      <trkpt lat="44.50939" lon="0.70623">
        <ele>205.4</ele>
        <time>2018-07-22T14:18:29Z</time>
      </trkpt>
      <trkpt lat="44.50936" lon="0.70624">
        <ele>205.4</ele>
        <time>2018-07-22T14:18:31Z</time>
      </trkpt>
      <trkpt lat="44.50934" lon="0.70625">
        <ele>205.5</ele>
        <time>2018-07-22T14:18:33Z</time>
      </trkpt>
      <trkpt lat="44.50931" lon="0.70626">
        <ele>205.6</ele>
        <time>2018-07-22T14:18:35Z</time>
      </trkpt>
      <trkpt lat="44.50928" lon="0.70627">
        <ele>205.7</ele>
        <time>2018-07-22T14:18:37Z</time>
      </trkpt>
      <trkpt lat="44.50926" lon="0.70628">
        <ele>205.8</ele>
        <time>2018-07-22T14:18:39Z</time>
      </trkpt>
      <trkpt lat="44.50923" lon="0.70629">
        <ele>205.9</ele>
        <time>2018-07-22T14:18:41Z</time>
      </trkpt>
      <trkpt lat="44.5092" lon="0.70631">
        <ele>206</ele>
        <time>2018-07-22T14:18:43Z</time>
      </trkpt>
      <trkpt lat="44.50917" lon="0.70632">
        <ele>206.2</ele>
        <time>2018-07-22T14:18:46Z</time>
      </trkpt>
      <trkpt lat="44.50914" lon="0.70633">
        <ele>206.4</ele>
        <time>2018-07-22T14:18:48Z</time>
      </trkpt>
      <trkpt lat="44.5091" lon="0.70635">
        <ele>206.6</ele>
        <time>2018-07-22T14:18:51Z</time>
      </trkpt>
      <trkpt lat="44.50908" lon="0.70636">
        <ele>206.7</ele>
        <time>2018-07-22T14:18:53Z</time>
      </trkpt>
      <trkpt lat="44.50904" lon="0.70637">
        <ele>206.8</ele>
        <time>2018-07-22T14:18:56Z</time>
      </trkpt>
      <trkpt lat="44.50901" lon="0.70639">
        <ele>206.9</ele>
        <time>2018-07-22T14:18:58Z</time>
      </trkpt>
      <trkpt lat="44.50897" lon="0.7064">
        <ele>207.1</ele>
        <time>2018-07-22T14:19:01Z</time>
      </trkpt>
      <trkpt lat="44.50894" lon="0.70642">
        <ele>207.3</ele>
        <time>2018-07-22T14:19:03Z</time>
      </trkpt>
      <trkpt lat="44.50892" lon="0.70644">
        <ele>207.4</ele>
        <time>2018-07-22T14:19:05Z</time>
      </trkpt>
      <trkpt lat="44.50889" lon="0.70645">
        <ele>207.6</ele>
        <time>2018-07-22T14:19:07Z</time>
      </trkpt>
      <trkpt lat="44.50886" lon="0.70646">
        <ele>207.8</ele>
        <time>2018-07-22T14:19:09Z</time>
      </trkpt>
      <trkpt lat="44.50883" lon="0.70648">
        <ele>207.9</ele>
        <time>2018-07-22T14:19:11Z</time>
      </trkpt>
      <trkpt lat="44.5088" lon="0.70649">
        <ele>208</ele>
        <time>2018-07-22T14:19:13Z</time>
      </trkpt>
      <trkpt lat="44.50877" lon="0.7065">
        <ele>208.1</ele>
        <time>2018-07-22T14:19:15Z</time>
      </trkpt>
      <trkpt lat="44.50874" lon="0.70651">
        <ele>208.2</ele>
        <time>2018-07-22T14:19:17Z</time>
      </trkpt>
      <trkpt lat="44.50871" lon="0.70653">
        <ele>208.3</ele>
        <time>2018-07-22T14:19:19Z</time>
      </trkpt>
      <trkpt lat="44.50867" lon="0.70654">
        <ele>208.4</ele>
        <time>2018-07-22T14:19:21Z</time>
      </trkpt>
      <trkpt lat="44.50864" lon="0.70655">
        <ele>208.5</ele>
        <time>2018-07-22T14:19:23Z</time>
      </trkpt>
      <trkpt lat="44.50861" lon="0.70657">
        <ele>208.6</ele>
        <time>2018-07-22T14:19:25Z</time>
      </trkpt>
      <trkpt lat="44.50858" lon="0.70658">
        <ele>208.7</ele>
        <time>2018-07-22T14:19:27Z</time>
      </trkpt>
      <trkpt lat="44.50855" lon="0.70659">
        <ele>208.8</ele>
        <time>2018-07-22T14:19:29Z</time>
      </trkpt>
      <trkpt lat="44.50852" lon="0.7066">
        <ele>208.9</ele>
        <time>2018-07-22T14:19:31Z</time>
      </trkpt>
      <trkpt lat="44.50849" lon="0.7066">
        <ele>208.9</ele>
        <time>2018-07-22T14:19:33Z</time>
      </trkpt>
      <trkpt lat="44.50846" lon="0.70662">
        <ele>209</ele>
        <time>2018-07-22T14:19:35Z</time>
      </trkpt>
      <trkpt lat="44.50843" lon="0.70663">
        <ele>209</ele>
        <time>2018-07-22T14:19:37Z</time>
      </trkpt>
      <trkpt lat="44.50839" lon="0.70664">
        <ele>209.1</ele>
        <time>2018-07-22T14:19:39Z</time>
      </trkpt>
      <trkpt lat="44.50835" lon="0.70663">
        <ele>209.1</ele>
        <time>2018-07-22T14:19:41Z</time>
      </trkpt>
      <trkpt lat="44.50832" lon="0.70662">
        <ele>209.2</ele>
        <time>2018-07-22T14:19:43Z</time>
      </trkpt>
      <trkpt lat="44.50829" lon="0.70663">
        <ele>209.2</ele>
        <time>2018-07-22T14:19:45Z</time>
      </trkpt>
      <trkpt lat="44.50825" lon="0.70664">
        <ele>209.2</ele>
        <time>2018-07-22T14:19:48Z</time>
      </trkpt>
      <trkpt lat="44.50822" lon="0.70666">
        <ele>209.2</ele>
        <time>2018-07-22T14:19:50Z</time>
      </trkpt>
      <trkpt lat="44.50819" lon="0.70667">
        <ele>209.2</ele>
        <time>2018-07-22T14:19:54Z</time>
      </trkpt>
      <trkpt lat="44.50815" lon="0.70668">
        <ele>209.2</ele>
        <time>2018-07-22T14:19:57Z</time>
      </trkpt>
      <trkpt lat="44.50812" lon="0.70669">
        <ele>209.2</ele>
        <time>2018-07-22T14:19:59Z</time>
      </trkpt>
      <trkpt lat="44.50809" lon="0.7067">
        <ele>209.1</ele>
        <time>2018-07-22T14:20:01Z</time>
      </trkpt>
      <trkpt lat="44.50804" lon="0.70671">
        <ele>209.1</ele>
        <time>2018-07-22T14:20:03Z</time>
      </trkpt>
      <trkpt lat="44.508" lon="0.70671">
        <ele>209</ele>
        <time>2018-07-22T14:20:05Z</time>
      </trkpt>
      <trkpt lat="44.50797" lon="0.70672">
        <ele>209</ele>
        <time>2018-07-22T14:20:07Z</time>
      </trkpt>
      <trkpt lat="44.50793" lon="0.70673">
        <ele>208.9</ele>
        <time>2018-07-22T14:20:09Z</time>
      </trkpt>
      <trkpt lat="44.50789" lon="0.70675">
        <ele>208.9</ele>
        <time>2018-07-22T14:20:11Z</time>
      </trkpt>
      <trkpt lat="44.50786" lon="0.70676">
        <ele>208.8</ele>
        <time>2018-07-22T14:20:13Z</time>
      </trkpt>
      <trkpt lat="44.50783" lon="0.70677">
        <ele>208.8</ele>
        <time>2018-07-22T14:20:15Z</time>
      </trkpt>
      <trkpt lat="44.50779" lon="0.70678">
        <ele>208.8</ele>
        <time>2018-07-22T14:20:17Z</time>
      </trkpt>
      <trkpt lat="44.50775" lon="0.70679">
        <ele>208.7</ele>
        <time>2018-07-22T14:20:19Z</time>
      </trkpt>
      <trkpt lat="44.50772" lon="0.70681">
        <ele>208.7</ele>
        <time>2018-07-22T14:20:21Z</time>
      </trkpt>
      <trkpt lat="44.50769" lon="0.70682">
        <ele>208.6</ele>
        <time>2018-07-22T14:20:23Z</time>
      </trkpt>
      <trkpt lat="44.50766" lon="0.70683">
        <ele>208.6</ele>
        <time>2018-07-22T14:20:25Z</time>
      </trkpt>
      <trkpt lat="44.50763" lon="0.70685">
        <ele>208.5</ele>
        <time>2018-07-22T14:20:27Z</time>
      </trkpt>
      <trkpt lat="44.5076" lon="0.70687">
        <ele>208.5</ele>
        <time>2018-07-22T14:20:29Z</time>
      </trkpt>
      <trkpt lat="44.50757" lon="0.70688">
        <ele>208.4</ele>
        <time>2018-07-22T14:20:31Z</time>
      </trkpt>
      <trkpt lat="44.50754" lon="0.70689">
        <ele>208.3</ele>
        <time>2018-07-22T14:20:33Z</time>
      </trkpt>
      <trkpt lat="44.50751" lon="0.7069">
        <ele>208.3</ele>
        <time>2018-07-22T14:20:35Z</time>
      </trkpt>
      <trkpt lat="44.50748" lon="0.70692">
        <ele>208.2</ele>
        <time>2018-07-22T14:20:37Z</time>
      </trkpt>
      <trkpt lat="44.50746" lon="0.70694">
        <ele>208.1</ele>
        <time>2018-07-22T14:20:39Z</time>
      </trkpt>
      <trkpt lat="44.50743" lon="0.70696">
        <ele>208.1</ele>
        <time>2018-07-22T14:20:41Z</time>
      </trkpt>
      <trkpt lat="44.5074" lon="0.70698">
        <ele>208</ele>
        <time>2018-07-22T14:20:44Z</time>
      </trkpt>
      <trkpt lat="44.50737" lon="0.707">
        <ele>207.9</ele>
        <time>2018-07-22T14:20:46Z</time>
      </trkpt>
      <trkpt lat="44.50734" lon="0.70701">
        <ele>207.9</ele>
        <time>2018-07-22T14:20:48Z</time>
      </trkpt>
      <trkpt lat="44.50732" lon="0.70703">
        <ele>207.8</ele>
        <time>2018-07-22T14:20:50Z</time>
      </trkpt>
      <trkpt lat="44.50729" lon="0.70705">
        <ele>207.7</ele>
        <time>2018-07-22T14:20:52Z</time>
      </trkpt>
      <trkpt lat="44.50726" lon="0.70706">
        <ele>207.6</ele>
        <time>2018-07-22T14:20:54Z</time>
      </trkpt>
      <trkpt lat="44.50724" lon="0.70708">
        <ele>207.5</ele>
        <time>2018-07-22T14:20:56Z</time>
      </trkpt>
      <trkpt lat="44.50721" lon="0.7071">
        <ele>207.4</ele>
        <time>2018-07-22T14:20:58Z</time>
      </trkpt>
      <trkpt lat="44.50718" lon="0.70711">
        <ele>207.3</ele>
        <time>2018-07-22T14:21:00Z</time>
      </trkpt>
      <trkpt lat="44.50716" lon="0.70712">
        <ele>207.2</ele>
        <time>2018-07-22T14:21:02Z</time>
      </trkpt>
      <trkpt lat="44.50713" lon="0.70714">
        <ele>207</ele>
        <time>2018-07-22T14:21:04Z</time>
      </trkpt>
      <trkpt lat="44.5071" lon="0.70715">
        <ele>206.9</ele>
        <time>2018-07-22T14:21:06Z</time>
      </trkpt>
      <trkpt lat="44.50707" lon="0.70717">
        <ele>206.8</ele>
        <time>2018-07-22T14:21:08Z</time>
      </trkpt>
      <trkpt lat="44.50705" lon="0.70718">
        <ele>206.7</ele>
        <time>2018-07-22T14:21:10Z</time>
      </trkpt>
      <trkpt lat="44.50702" lon="0.7072">
        <ele>206.6</ele>
        <time>2018-07-22T14:21:12Z</time>
      </trkpt>
      <trkpt lat="44.50699" lon="0.70722">
        <ele>206.5</ele>
        <time>2018-07-22T14:21:14Z</time>
      </trkpt>
      <trkpt lat="44.50697" lon="0.70723">
        <ele>206.4</ele>
        <time>2018-07-22T14:21:16Z</time>
      </trkpt>
      <trkpt lat="44.50694" lon="0.70725">
        <ele>206.3</ele>
        <time>2018-07-22T14:21:18Z</time>
      </trkpt>
      <trkpt lat="44.50691" lon="0.70727">
        <ele>206.2</ele>
        <time>2018-07-22T14:21:21Z</time>
      </trkpt>
      <trkpt lat="44.50687" lon="0.70729">
        <ele>206</ele>
        <time>2018-07-22T14:21:24Z</time>
      </trkpt>
      <trkpt lat="44.50684" lon="0.7073">
        <ele>205.9</ele>
        <time>2018-07-22T14:21:26Z</time>
      </trkpt>
      <trkpt lat="44.50681" lon="0.70731">
        <ele>205.8</ele>
        <time>2018-07-22T14:21:28Z</time>
      </trkpt>
      <trkpt lat="44.50679" lon="0.70733">
        <ele>205.7</ele>
        <time>2018-07-22T14:21:30Z</time>
      </trkpt>
      <trkpt lat="44.50676" lon="0.70735">
        <ele>205.6</ele>
        <time>2018-07-22T14:21:32Z</time>
      </trkpt>
      <trkpt lat="44.50673" lon="0.70736">
        <ele>205.5</ele>
        <time>2018-07-22T14:21:34Z</time>
      </trkpt>
      <trkpt lat="44.5067" lon="0.70737">
        <ele>205.4</ele>
        <time>2018-07-22T14:21:36Z</time>
      </trkpt>
      <trkpt lat="44.50667" lon="0.70738">
        <ele>205.3</ele>
        <time>2018-07-22T14:21:38Z</time>
      </trkpt>
      <trkpt lat="44.50664" lon="0.70739">
        <ele>205.2</ele>
        <time>2018-07-22T14:21:40Z</time>
      </trkpt>
      <trkpt lat="44.50661" lon="0.70741">
        <ele>205.2</ele>
        <time>2018-07-22T14:21:42Z</time>
      </trkpt>
      <trkpt lat="44.50658" lon="0.70742">
        <ele>205.1</ele>
        <time>2018-07-22T14:21:44Z</time>
      </trkpt>
      <trkpt lat="44.50655" lon="0.70743">
        <ele>205</ele>
        <time>2018-07-22T14:21:46Z</time>
      </trkpt>
      <trkpt lat="44.50652" lon="0.70744">
        <ele>204.9</ele>
        <time>2018-07-22T14:21:48Z</time>
      </trkpt>
      <trkpt lat="44.50649" lon="0.70746">
        <ele>204.8</ele>
        <time>2018-07-22T14:21:50Z</time>
      </trkpt>
      <trkpt lat="44.50647" lon="0.70747">
        <ele>204.8</ele>
        <time>2018-07-22T14:21:52Z</time>
      </trkpt>
      <trkpt lat="44.50644" lon="0.70749">
        <ele>204.7</ele>
        <time>2018-07-22T14:21:54Z</time>
      </trkpt>
      <trkpt lat="44.50641" lon="0.7075">
        <ele>204.7</ele>
        <time>2018-07-22T14:21:56Z</time>
      </trkpt>
      <trkpt lat="44.50638" lon="0.7075">
        <ele>204.6</ele>
        <time>2018-07-22T14:21:58Z</time>
      </trkpt>
      <trkpt lat="44.50634" lon="0.7075">
        <ele>204.6</ele>
        <time>2018-07-22T14:22:00Z</time>
      </trkpt>
      <trkpt lat="44.50631" lon="0.70751">
        <ele>204.7</ele>
        <time>2018-07-22T14:22:02Z</time>
      </trkpt>
      <trkpt lat="44.50628" lon="0.70752">
        <ele>204.7</ele>
        <time>2018-07-22T14:22:04Z</time>
      </trkpt>
      <trkpt lat="44.50625" lon="0.70752">
        <ele>204.6</ele>
        <time>2018-07-22T14:22:06Z</time>
      </trkpt>
      <trkpt lat="44.50622" lon="0.70753">
        <ele>204.6</ele>
        <time>2018-07-22T14:22:08Z</time>
      </trkpt>
      <trkpt lat="44.50619" lon="0.70753">
        <ele>204.7</ele>
        <time>2018-07-22T14:22:10Z</time>
      </trkpt>
      <trkpt lat="44.50616" lon="0.70754">
        <ele>204.8</ele>
        <time>2018-07-22T14:22:12Z</time>
      </trkpt>
      <trkpt lat="44.50612" lon="0.70755">
        <ele>204.9</ele>
        <time>2018-07-22T14:22:14Z</time>
      </trkpt>
      <trkpt lat="44.5061" lon="0.70756">
        <ele>205</ele>
        <time>2018-07-22T14:22:16Z</time>
      </trkpt>
      <trkpt lat="44.50607" lon="0.70757">
        <ele>205.1</ele>
        <time>2018-07-22T14:22:18Z</time>
      </trkpt>
      <trkpt lat="44.50603" lon="0.70758">
        <ele>205.2</ele>
        <time>2018-07-22T14:22:20Z</time>
      </trkpt>
      <trkpt lat="44.506" lon="0.70759">
        <ele>205.3</ele>
        <time>2018-07-22T14:22:22Z</time>
      </trkpt>
      <trkpt lat="44.50596" lon="0.7076">
        <ele>205.3</ele>
        <time>2018-07-22T14:22:24Z</time>
      </trkpt>
      <trkpt lat="44.50593" lon="0.70761">
        <ele>205.4</ele>
        <time>2018-07-22T14:22:26Z</time>
      </trkpt>
      <trkpt lat="44.5059" lon="0.70762">
        <ele>205.6</ele>
        <time>2018-07-22T14:22:28Z</time>
      </trkpt>
      <trkpt lat="44.50587" lon="0.70763">
        <ele>205.7</ele>
        <time>2018-07-22T14:22:30Z</time>
      </trkpt>
      <trkpt lat="44.50584" lon="0.70763">
        <ele>205.7</ele>
        <time>2018-07-22T14:22:32Z</time>
      </trkpt>
      <trkpt lat="44.50581" lon="0.70764">
        <ele>205.8</ele>
        <time>2018-07-22T14:22:34Z</time>
      </trkpt>
      <trkpt lat="44.50578" lon="0.70765">
        <ele>205.8</ele>
        <time>2018-07-22T14:22:36Z</time>
      </trkpt>
      <trkpt lat="44.50575" lon="0.70766">
        <ele>205.9</ele>
        <time>2018-07-22T14:22:38Z</time>
      </trkpt>
      <trkpt lat="44.50572" lon="0.70766">
        <ele>206</ele>
        <time>2018-07-22T14:22:40Z</time>
      </trkpt>
      <trkpt lat="44.50569" lon="0.70767">
        <ele>206.1</ele>
        <time>2018-07-22T14:22:42Z</time>
      </trkpt>
      <trkpt lat="44.50565" lon="0.70767">
        <ele>206.1</ele>
        <time>2018-07-22T14:22:45Z</time>
      </trkpt>
      <trkpt lat="44.50562" lon="0.70768">
        <ele>206.1</ele>
        <time>2018-07-22T14:22:47Z</time>
      </trkpt>
      <trkpt lat="44.50559" lon="0.70769">
        <ele>206.1</ele>
        <time>2018-07-22T14:22:49Z</time>
      </trkpt>
      <trkpt lat="44.50555" lon="0.70769">
        <ele>206.1</ele>
        <time>2018-07-22T14:22:51Z</time>
      </trkpt>
      <trkpt lat="44.50552" lon="0.70769">
        <ele>206.1</ele>
        <time>2018-07-22T14:22:53Z</time>
      </trkpt>
      <trkpt lat="44.50549" lon="0.70768">
        <ele>206.2</ele>
        <time>2018-07-22T14:22:55Z</time>
      </trkpt>
      <trkpt lat="44.50545" lon="0.70769">
        <ele>206.2</ele>
        <time>2018-07-22T14:22:58Z</time>
      </trkpt>
      <trkpt lat="44.50541" lon="0.70769">
        <ele>206.2</ele>
        <time>2018-07-22T14:23:00Z</time>
      </trkpt>
      <trkpt lat="44.50538" lon="0.70768">
        <ele>206.2</ele>
        <time>2018-07-22T14:23:02Z</time>
      </trkpt>
      <trkpt lat="44.50534" lon="0.70768">
        <ele>206.3</ele>
        <time>2018-07-22T14:23:04Z</time>
      </trkpt>
      <trkpt lat="44.50531" lon="0.70768">
        <ele>206.2</ele>
        <time>2018-07-22T14:23:06Z</time>
      </trkpt>
      <trkpt lat="44.50529" lon="0.70767">
        <ele>206.2</ele>
        <time>2018-07-22T14:23:08Z</time>
      </trkpt>
      <trkpt lat="44.50524" lon="0.70766">
        <ele>206.2</ele>
        <time>2018-07-22T14:23:12Z</time>
      </trkpt>
      <trkpt lat="44.50521" lon="0.70766">
        <ele>206.1</ele>
        <time>2018-07-22T14:23:14Z</time>
      </trkpt>
      <trkpt lat="44.50518" lon="0.70766">
        <ele>206</ele>
        <time>2018-07-22T14:23:16Z</time>
      </trkpt>
      <trkpt lat="44.50515" lon="0.70767">
        <ele>205.9</ele>
        <time>2018-07-22T14:23:19Z</time>
      </trkpt>
      <trkpt lat="44.50512" lon="0.70769">
        <ele>205.9</ele>
        <time>2018-07-22T14:23:22Z</time>
      </trkpt>
      <trkpt lat="44.50509" lon="0.7077">
        <ele>205.9</ele>
        <time>2018-07-22T14:23:25Z</time>
      </trkpt>
      <trkpt lat="44.50505" lon="0.70772">
        <ele>205.8</ele>
        <time>2018-07-22T14:23:28Z</time>
      </trkpt>
      <trkpt lat="44.50502" lon="0.70773">
        <ele>205.8</ele>
        <time>2018-07-22T14:23:30Z</time>
      </trkpt>
      <trkpt lat="44.50498" lon="0.70774">
        <ele>205.9</ele>
        <time>2018-07-22T14:23:32Z</time>
      </trkpt>
      <trkpt lat="44.50494" lon="0.70775">
        <ele>205.9</ele>
        <time>2018-07-22T14:23:34Z</time>
      </trkpt>
      <trkpt lat="44.50491" lon="0.70776">
        <ele>205.9</ele>
        <time>2018-07-22T14:23:36Z</time>
      </trkpt>
      <trkpt lat="44.50489" lon="0.70777">
        <ele>205.9</ele>
        <time>2018-07-22T14:23:38Z</time>
      </trkpt>
      <trkpt lat="44.50485" lon="0.70777">
        <ele>206.1</ele>
        <time>2018-07-22T14:23:40Z</time>
      </trkpt>
      <trkpt lat="44.50481" lon="0.70778">
        <ele>206.2</ele>
        <time>2018-07-22T14:23:42Z</time>
      </trkpt>
      <trkpt lat="44.50477" lon="0.70778">
        <ele>206.2</ele>
        <time>2018-07-22T14:23:44Z</time>
      </trkpt>
      <trkpt lat="44.50474" lon="0.70779">
        <ele>206</ele>
        <time>2018-07-22T14:23:46Z</time>
      </trkpt>
      <trkpt lat="44.50471" lon="0.7078">
        <ele>205.8</ele>
        <time>2018-07-22T14:23:49Z</time>
      </trkpt>
      <trkpt lat="44.50468" lon="0.70782">
        <ele>205.9</ele>
        <time>2018-07-22T14:23:51Z</time>
      </trkpt>
      <trkpt lat="44.50466" lon="0.70784">
        <ele>205.7</ele>
        <time>2018-07-22T14:23:53Z</time>
      </trkpt>
      <trkpt lat="44.50464" lon="0.70786">
        <ele>205.7</ele>
        <time>2018-07-22T14:23:56Z</time>
      </trkpt>
      <trkpt lat="44.50461" lon="0.70788">
        <ele>205.5</ele>
        <time>2018-07-22T14:23:58Z</time>
      </trkpt>
      <trkpt lat="44.50458" lon="0.70789">
        <ele>205.4</ele>
        <time>2018-07-22T14:24:00Z</time>
      </trkpt>
      <trkpt lat="44.50455" lon="0.70791">
        <ele>205.2</ele>
        <time>2018-07-22T14:24:02Z</time>
      </trkpt>
      <trkpt lat="44.50451" lon="0.70793">
        <ele>205</ele>
        <time>2018-07-22T14:24:04Z</time>
      </trkpt>
      <trkpt lat="44.50447" lon="0.70795">
        <ele>204.8</ele>
        <time>2018-07-22T14:24:06Z</time>
      </trkpt>
      <trkpt lat="44.50444" lon="0.70797">
        <ele>204.5</ele>
        <time>2018-07-22T14:24:08Z</time>
      </trkpt>
      <trkpt lat="44.50442" lon="0.70799">
        <ele>204.3</ele>
        <time>2018-07-22T14:24:10Z</time>
      </trkpt>
      <trkpt lat="44.50438" lon="0.708">
        <ele>204</ele>
        <time>2018-07-22T14:24:12Z</time>
      </trkpt>
      <trkpt lat="44.50435" lon="0.70802">
        <ele>203.8</ele>
        <time>2018-07-22T14:24:14Z</time>
      </trkpt>
      <trkpt lat="44.5043" lon="0.70803">
        <ele>202.9</ele>
        <time>2018-07-22T14:24:16Z</time>
      </trkpt>
      <trkpt lat="44.50427" lon="0.70805">
        <ele>202.6</ele>
        <time>2018-07-22T14:24:18Z</time>
      </trkpt>
      <trkpt lat="44.50424" lon="0.70806">
        <ele>202.2</ele>
        <time>2018-07-22T14:24:20Z</time>
      </trkpt>
      <trkpt lat="44.5042" lon="0.70808">
        <ele>201.6</ele>
        <time>2018-07-22T14:24:22Z</time>
      </trkpt>
      <trkpt lat="44.50417" lon="0.7081">
        <ele>201.2</ele>
        <time>2018-07-22T14:24:24Z</time>
      </trkpt>
      <trkpt lat="44.50415" lon="0.70812">
        <ele>200.5</ele>
        <time>2018-07-22T14:24:26Z</time>
      </trkpt>
      <trkpt lat="44.50411" lon="0.70814">
        <ele>200</ele>
        <time>2018-07-22T14:24:28Z</time>
      </trkpt>
      <trkpt lat="44.50408" lon="0.70817">
        <ele>199.3</ele>
        <time>2018-07-22T14:24:30Z</time>
      </trkpt>
      <trkpt lat="44.50405" lon="0.7082">
        <ele>198.6</ele>
        <time>2018-07-22T14:24:32Z</time>
      </trkpt>
      <trkpt lat="44.50402" lon="0.70822">
        <ele>198.2</ele>
        <time>2018-07-22T14:24:34Z</time>
      </trkpt>
      <trkpt lat="44.50399" lon="0.70824">
        <ele>197.5</ele>
        <time>2018-07-22T14:24:36Z</time>
      </trkpt>
      <trkpt lat="44.50396" lon="0.70827">
        <ele>197.2</ele>
        <time>2018-07-22T14:24:38Z</time>
      </trkpt>
      <trkpt lat="44.50393" lon="0.7083">
        <ele>196.5</ele>
        <time>2018-07-22T14:24:40Z</time>
      </trkpt>
      <trkpt lat="44.5039" lon="0.70832">
        <ele>195.9</ele>
        <time>2018-07-22T14:24:42Z</time>
      </trkpt>
      <trkpt lat="44.50388" lon="0.70834">
        <ele>195.5</ele>
        <time>2018-07-22T14:24:44Z</time>
      </trkpt>
      <trkpt lat="44.50385" lon="0.70837">
        <ele>194.8</ele>
        <time>2018-07-22T14:24:46Z</time>
      </trkpt>
      <trkpt lat="44.50382" lon="0.7084">
        <ele>194.5</ele>
        <time>2018-07-22T14:24:48Z</time>
      </trkpt>
      <trkpt lat="44.5038" lon="0.70841">
        <ele>194.2</ele>
        <time>2018-07-22T14:24:50Z</time>
      </trkpt>
      <trkpt lat="44.50377" lon="0.70844">
        <ele>193.8</ele>
        <time>2018-07-22T14:24:52Z</time>
      </trkpt>
      <trkpt lat="44.50374" lon="0.70846">
        <ele>193</ele>
        <time>2018-07-22T14:24:54Z</time>
      </trkpt>
      <trkpt lat="44.50372" lon="0.70849">
        <ele>192.7</ele>
        <time>2018-07-22T14:24:56Z</time>
      </trkpt>
      <trkpt lat="44.50369" lon="0.70851">
        <ele>191.8</ele>
        <time>2018-07-22T14:24:58Z</time>
      </trkpt>
      <trkpt lat="44.50366" lon="0.70854">
        <ele>190.8</ele>
        <time>2018-07-22T14:25:01Z</time>
      </trkpt>
      <trkpt lat="44.50365" lon="0.70857">
        <ele>190.9</ele>
        <time>2018-07-22T14:25:03Z</time>
      </trkpt>
      <trkpt lat="44.50362" lon="0.70861">
        <ele>189.8</ele>
        <time>2018-07-22T14:25:06Z</time>
      </trkpt>
      <trkpt lat="44.5036" lon="0.70864">
        <ele>188.8</ele>
        <time>2018-07-22T14:25:09Z</time>
      </trkpt>
      <trkpt lat="44.50357" lon="0.70867">
        <ele>187.9</ele>
        <time>2018-07-22T14:25:12Z</time>
      </trkpt>
      <trkpt lat="44.50354" lon="0.70871">
        <ele>187</ele>
        <time>2018-07-22T14:25:15Z</time>
      </trkpt>
      <trkpt lat="44.50352" lon="0.70873">
        <ele>187</ele>
        <time>2018-07-22T14:25:17Z</time>
      </trkpt>
      <trkpt lat="44.50349" lon="0.70875">
        <ele>186.3</ele>
        <time>2018-07-22T14:25:19Z</time>
      </trkpt>
      <trkpt lat="44.50346" lon="0.70877">
        <ele>186</ele>
        <time>2018-07-22T14:25:21Z</time>
      </trkpt>
      <trkpt lat="44.50343" lon="0.70879">
        <ele>185.3</ele>
        <time>2018-07-22T14:25:23Z</time>
      </trkpt>
      <trkpt lat="44.50341" lon="0.70882">
        <ele>185.1</ele>
        <time>2018-07-22T14:25:25Z</time>
      </trkpt>
      <trkpt lat="44.50337" lon="0.70886">
        <ele>184.4</ele>
        <time>2018-07-22T14:25:28Z</time>
      </trkpt>
      <trkpt lat="44.50335" lon="0.70888">
        <ele>183.7</ele>
        <time>2018-07-22T14:25:30Z</time>
      </trkpt>
      <trkpt lat="44.50333" lon="0.70891">
        <ele>183.5</ele>
        <time>2018-07-22T14:25:33Z</time>
      </trkpt>
      <trkpt lat="44.5033" lon="0.70894">
        <ele>182.9</ele>
        <time>2018-07-22T14:25:35Z</time>
      </trkpt>
      <trkpt lat="44.50327" lon="0.70897">
        <ele>182.6</ele>
        <time>2018-07-22T14:25:36Z</time>
      </trkpt>
      <trkpt lat="44.50325" lon="0.709">
        <ele>182.5</ele>
        <time>2018-07-22T14:25:38Z</time>
      </trkpt>
      <trkpt lat="44.50322" lon="0.70902">
        <ele>182.1</ele>
        <time>2018-07-22T14:25:40Z</time>
      </trkpt>
      <trkpt lat="44.5032" lon="0.70904">
        <ele>182</ele>
        <time>2018-07-22T14:25:42Z</time>
      </trkpt>
      <trkpt lat="44.50318" lon="0.70908">
        <ele>181.7</ele>
        <time>2018-07-22T14:25:45Z</time>
      </trkpt>
      <trkpt lat="44.50315" lon="0.70912">
        <ele>181.4</ele>
        <time>2018-07-22T14:25:48Z</time>
      </trkpt>
      <trkpt lat="44.50313" lon="0.70916">
        <ele>181.1</ele>
        <time>2018-07-22T14:25:51Z</time>
      </trkpt>
      <trkpt lat="44.50312" lon="0.70919">
        <ele>180.9</ele>
        <time>2018-07-22T14:25:53Z</time>
      </trkpt>
      <trkpt lat="44.5031" lon="0.70923">
        <ele>180.7</ele>
        <time>2018-07-22T14:25:55Z</time>
      </trkpt>
      <trkpt lat="44.50308" lon="0.70926">
        <ele>180.7</ele>
        <time>2018-07-22T14:25:57Z</time>
      </trkpt>
      <trkpt lat="44.50307" lon="0.7093">
        <ele>180.6</ele>
        <time>2018-07-22T14:25:59Z</time>
      </trkpt>
      <trkpt lat="44.50305" lon="0.70933">
        <ele>180.4</ele>
        <time>2018-07-22T14:26:01Z</time>
      </trkpt>
      <trkpt lat="44.50302" lon="0.70936">
        <ele>180.3</ele>
        <time>2018-07-22T14:26:03Z</time>
      </trkpt>
      <trkpt lat="44.503" lon="0.70938">
        <ele>180.3</ele>
        <time>2018-07-22T14:26:05Z</time>
      </trkpt>
      <trkpt lat="44.50298" lon="0.70942">
        <ele>180.1</ele>
        <time>2018-07-22T14:26:07Z</time>
      </trkpt>
      <trkpt lat="44.50295" lon="0.70947">
        <ele>179.9</ele>
        <time>2018-07-22T14:26:09Z</time>
      </trkpt>
      <trkpt lat="44.50294" lon="0.70951">
        <ele>179.7</ele>
        <time>2018-07-22T14:26:11Z</time>
      </trkpt>
      <trkpt lat="44.50291" lon="0.70953">
        <ele>179.5</ele>
        <time>2018-07-22T14:26:13Z</time>
      </trkpt>
      <trkpt lat="44.50288" lon="0.70955">
        <ele>179.4</ele>
        <time>2018-07-22T14:26:15Z</time>
      </trkpt>
      <trkpt lat="44.50286" lon="0.70959">
        <ele>179.2</ele>
        <time>2018-07-22T14:26:17Z</time>
      </trkpt>
      <trkpt lat="44.50284" lon="0.70962">
        <ele>178.9</ele>
        <time>2018-07-22T14:26:19Z</time>
      </trkpt>
      <trkpt lat="44.50282" lon="0.70965">
        <ele>178.6</ele>
        <time>2018-07-22T14:26:21Z</time>
      </trkpt>
      <trkpt lat="44.5028" lon="0.70969">
        <ele>178.5</ele>
        <time>2018-07-22T14:26:23Z</time>
      </trkpt>
      <trkpt lat="44.50277" lon="0.70972">
        <ele>178.1</ele>
        <time>2018-07-22T14:26:25Z</time>
      </trkpt>
      <trkpt lat="44.50276" lon="0.70975">
        <ele>177.9</ele>
        <time>2018-07-22T14:26:27Z</time>
      </trkpt>
      <trkpt lat="44.50274" lon="0.70978">
        <ele>177.5</ele>
        <time>2018-07-22T14:26:29Z</time>
      </trkpt>
      <trkpt lat="44.50272" lon="0.70981">
        <ele>177.5</ele>
        <time>2018-07-22T14:26:31Z</time>
      </trkpt>
      <trkpt lat="44.5027" lon="0.70983">
        <ele>177.2</ele>
        <time>2018-07-22T14:26:33Z</time>
      </trkpt>
      <trkpt lat="44.50268" lon="0.70987">
        <ele>176.9</ele>
        <time>2018-07-22T14:26:36Z</time>
      </trkpt>
      <trkpt lat="44.50266" lon="0.70992">
        <ele>176.7</ele>
        <time>2018-07-22T14:26:39Z</time>
      </trkpt>
      <trkpt lat="44.50264" lon="0.70996">
        <ele>176.3</ele>
        <time>2018-07-22T14:26:42Z</time>
      </trkpt>
      <trkpt lat="44.50261" lon="0.70999">
        <ele>176.3</ele>
        <time>2018-07-22T14:26:44Z</time>
      </trkpt>
      <trkpt lat="44.50258" lon="0.71002">
        <ele>175.9</ele>
        <time>2018-07-22T14:26:46Z</time>
      </trkpt>
      <trkpt lat="44.50256" lon="0.71005">
        <ele>175.6</ele>
        <time>2018-07-22T14:26:48Z</time>
      </trkpt>
      <trkpt lat="44.50254" lon="0.71008">
        <ele>175.4</ele>
        <time>2018-07-22T14:26:50Z</time>
      </trkpt>
      <trkpt lat="44.50252" lon="0.7101">
        <ele>175.3</ele>
        <time>2018-07-22T14:26:52Z</time>
      </trkpt>
      <trkpt lat="44.5025" lon="0.71013">
        <ele>175</ele>
        <time>2018-07-22T14:26:54Z</time>
      </trkpt>
      <trkpt lat="44.50247" lon="0.71016">
        <ele>174.9</ele>
        <time>2018-07-22T14:26:56Z</time>
      </trkpt>
      <trkpt lat="44.50244" lon="0.71018">
        <ele>174.6</ele>
        <time>2018-07-22T14:26:58Z</time>
      </trkpt>
      <trkpt lat="44.50241" lon="0.7102">
        <ele>174.5</ele>
        <time>2018-07-22T14:27:01Z</time>
      </trkpt>
      <trkpt lat="44.50237" lon="0.71022">
        <ele>174.3</ele>
        <time>2018-07-22T14:27:04Z</time>
      </trkpt>
      <trkpt lat="44.50234" lon="0.71025">
        <ele>174.1</ele>
        <time>2018-07-22T14:27:06Z</time>
      </trkpt>
      <trkpt lat="44.50231" lon="0.71028">
        <ele>173.9</ele>
        <time>2018-07-22T14:27:08Z</time>
      </trkpt>
      <trkpt lat="44.50229" lon="0.71031">
        <ele>173.6</ele>
        <time>2018-07-22T14:27:10Z</time>
      </trkpt>
      <trkpt lat="44.50226" lon="0.71034">
        <ele>173.5</ele>
        <time>2018-07-22T14:27:12Z</time>
      </trkpt>
      <trkpt lat="44.50224" lon="0.71036">
        <ele>173.3</ele>
        <time>2018-07-22T14:27:14Z</time>
      </trkpt>
      <trkpt lat="44.50221" lon="0.71039">
        <ele>172.9</ele>
        <time>2018-07-22T14:27:16Z</time>
      </trkpt>
      <trkpt lat="44.50219" lon="0.71043">
        <ele>172.6</ele>
        <time>2018-07-22T14:27:18Z</time>
      </trkpt>
      <trkpt lat="44.50216" lon="0.71045">
        <ele>172.4</ele>
        <time>2018-07-22T14:27:20Z</time>
      </trkpt>
      <trkpt lat="44.50214" lon="0.71048">
        <ele>172</ele>
        <time>2018-07-22T14:27:22Z</time>
      </trkpt>
      <trkpt lat="44.50211" lon="0.7105">
        <ele>171.9</ele>
        <time>2018-07-22T14:27:24Z</time>
      </trkpt>
      <trkpt lat="44.50207" lon="0.71052">
        <ele>171.5</ele>
        <time>2018-07-22T14:27:26Z</time>
      </trkpt>
      <trkpt lat="44.50204" lon="0.71053">
        <ele>171.4</ele>
        <time>2018-07-22T14:27:28Z</time>
      </trkpt>
      <trkpt lat="44.50201" lon="0.71054">
        <ele>171.3</ele>
        <time>2018-07-22T14:27:30Z</time>
      </trkpt>
      <trkpt lat="44.50198" lon="0.71056">
        <ele>170.9</ele>
        <time>2018-07-22T14:27:32Z</time>
      </trkpt>
      <trkpt lat="44.50195" lon="0.71057">
        <ele>170.8</ele>
        <time>2018-07-22T14:27:34Z</time>
      </trkpt>
      <trkpt lat="44.50192" lon="0.71058">
        <ele>170.7</ele>
        <time>2018-07-22T14:27:36Z</time>
      </trkpt>
      <trkpt lat="44.50189" lon="0.71059">
        <ele>170.7</ele>
        <time>2018-07-22T14:27:38Z</time>
      </trkpt>
      <trkpt lat="44.50186" lon="0.71061">
        <ele>170.4</ele>
        <time>2018-07-22T14:27:40Z</time>
      </trkpt>
      <trkpt lat="44.50183" lon="0.71062">
        <ele>170.3</ele>
        <time>2018-07-22T14:27:42Z</time>
      </trkpt>
      <trkpt lat="44.5018" lon="0.71064">
        <ele>170</ele>
        <time>2018-07-22T14:27:44Z</time>
      </trkpt>
      <trkpt lat="44.50178" lon="0.71065">
        <ele>169.9</ele>
        <time>2018-07-22T14:27:46Z</time>
      </trkpt>
      <trkpt lat="44.50175" lon="0.71067">
        <ele>169.7</ele>
        <time>2018-07-22T14:27:48Z</time>
      </trkpt>
      <trkpt lat="44.50171" lon="0.71069">
        <ele>169.5</ele>
        <time>2018-07-22T14:27:51Z</time>
      </trkpt>
      <trkpt lat="44.50169" lon="0.7107">
        <ele>169.3</ele>
        <time>2018-07-22T14:27:53Z</time>
      </trkpt>
      <trkpt lat="44.50166" lon="0.71071">
        <ele>169.2</ele>
        <time>2018-07-22T14:27:55Z</time>
      </trkpt>
      <trkpt lat="44.50163" lon="0.71071">
        <ele>169</ele>
        <time>2018-07-22T14:27:57Z</time>
      </trkpt>
      <trkpt lat="44.5016" lon="0.71071">
        <ele>168.8</ele>
        <time>2018-07-22T14:27:59Z</time>
      </trkpt>
      <trkpt lat="44.50156" lon="0.7107">
        <ele>168.6</ele>
        <time>2018-07-22T14:28:02Z</time>
      </trkpt>
      <trkpt lat="44.50154" lon="0.71068">
        <ele>168.4</ele>
        <time>2018-07-22T14:28:04Z</time>
      </trkpt>
      <trkpt lat="44.50151" lon="0.71068">
        <ele>168.2</ele>
        <time>2018-07-22T14:28:06Z</time>
      </trkpt>
      <trkpt lat="44.50148" lon="0.71068">
        <ele>168</ele>
        <time>2018-07-22T14:28:08Z</time>
      </trkpt>
      <trkpt lat="44.50144" lon="0.71069">
        <ele>167.8</ele>
        <time>2018-07-22T14:28:10Z</time>
      </trkpt>
      <trkpt lat="44.50141" lon="0.71069">
        <ele>167.5</ele>
        <time>2018-07-22T14:28:12Z</time>
      </trkpt>
      <trkpt lat="44.50138" lon="0.71069">
        <ele>167.1</ele>
        <time>2018-07-22T14:28:14Z</time>
      </trkpt>
      <trkpt lat="44.50135" lon="0.71069">
        <ele>166.8</ele>
        <time>2018-07-22T14:28:16Z</time>
      </trkpt>
      <trkpt lat="44.50132" lon="0.71069">
        <ele>166.6</ele>
        <time>2018-07-22T14:28:18Z</time>
      </trkpt>
      <trkpt lat="44.50129" lon="0.7107">
        <ele>166.3</ele>
        <time>2018-07-22T14:28:20Z</time>
      </trkpt>
      <trkpt lat="44.50126" lon="0.7107">
        <ele>166.1</ele>
        <time>2018-07-22T14:28:22Z</time>
      </trkpt>
      <trkpt lat="44.50123" lon="0.7107">
        <ele>165.9</ele>
        <time>2018-07-22T14:28:24Z</time>
      </trkpt>
      <trkpt lat="44.5012" lon="0.71071">
        <ele>165.6</ele>
        <time>2018-07-22T14:28:26Z</time>
      </trkpt>
      <trkpt lat="44.50117" lon="0.71071">
        <ele>165.4</ele>
        <time>2018-07-22T14:28:28Z</time>
      </trkpt>
      <trkpt lat="44.50114" lon="0.71071">
        <ele>165.2</ele>
        <time>2018-07-22T14:28:30Z</time>
      </trkpt>
      <trkpt lat="44.50111" lon="0.71071">
        <ele>165</ele>
        <time>2018-07-22T14:28:32Z</time>
      </trkpt>
      <trkpt lat="44.50108" lon="0.7107">
        <ele>165</ele>
        <time>2018-07-22T14:28:34Z</time>
      </trkpt>
      <trkpt lat="44.50105" lon="0.7107">
        <ele>165</ele>
        <time>2018-07-22T14:28:36Z</time>
      </trkpt>
      <trkpt lat="44.50102" lon="0.7107">
        <ele>165</ele>
        <time>2018-07-22T14:28:38Z</time>
      </trkpt>
      <trkpt lat="44.501" lon="0.71071">
        <ele>165</ele>
        <time>2018-07-22T14:28:40Z</time>
      </trkpt>
      <trkpt lat="44.50097" lon="0.71072">
        <ele>164.9</ele>
        <time>2018-07-22T14:28:42Z</time>
      </trkpt>
      <trkpt lat="44.50094" lon="0.71074">
        <ele>164.9</ele>
        <time>2018-07-22T14:28:44Z</time>
      </trkpt>
      <trkpt lat="44.50091" lon="0.71075">
        <ele>164.9</ele>
        <time>2018-07-22T14:28:46Z</time>
      </trkpt>
      <trkpt lat="44.50088" lon="0.71074">
        <ele>164.9</ele>
        <time>2018-07-22T14:28:48Z</time>
      </trkpt>
      <trkpt lat="44.50085" lon="0.71073">
        <ele>164.9</ele>
        <time>2018-07-22T14:28:50Z</time>
      </trkpt>
      <trkpt lat="44.50081" lon="0.71071">
        <ele>164.9</ele>
        <time>2018-07-22T14:28:53Z</time>
      </trkpt>
      <trkpt lat="44.50078" lon="0.71069">
        <ele>164.9</ele>
        <time>2018-07-22T14:28:55Z</time>
      </trkpt>
      <trkpt lat="44.50076" lon="0.71069">
        <ele>164.9</ele>
        <time>2018-07-22T14:28:57Z</time>
      </trkpt>
      <trkpt lat="44.50073" lon="0.71069">
        <ele>164.8</ele>
        <time>2018-07-22T14:28:59Z</time>
      </trkpt>
      <trkpt lat="44.5007" lon="0.71069">
        <ele>164.8</ele>
        <time>2018-07-22T14:29:01Z</time>
      </trkpt>
      <trkpt lat="44.50067" lon="0.71069">
        <ele>164.8</ele>
        <time>2018-07-22T14:29:03Z</time>
      </trkpt>
      <trkpt lat="44.50063" lon="0.71068">
        <ele>164.8</ele>
        <time>2018-07-22T14:29:06Z</time>
      </trkpt>
      <trkpt lat="44.5006" lon="0.71068">
        <ele>164.8</ele>
        <time>2018-07-22T14:29:08Z</time>
      </trkpt>
      <trkpt lat="44.50057" lon="0.71068">
        <ele>164.8</ele>
        <time>2018-07-22T14:29:10Z</time>
      </trkpt>
      <trkpt lat="44.50054" lon="0.71068">
        <ele>164.8</ele>
        <time>2018-07-22T14:29:12Z</time>
      </trkpt>
      <trkpt lat="44.50051" lon="0.71068">
        <ele>164.7</ele>
        <time>2018-07-22T14:29:14Z</time>
      </trkpt>
      <trkpt lat="44.50048" lon="0.71068">
        <ele>164.7</ele>
        <time>2018-07-22T14:29:16Z</time>
      </trkpt>
      <trkpt lat="44.50045" lon="0.71068">
        <ele>164.7</ele>
        <time>2018-07-22T14:29:18Z</time>
      </trkpt>
      <trkpt lat="44.50042" lon="0.71068">
        <ele>164.7</ele>
        <time>2018-07-22T14:29:20Z</time>
      </trkpt>
      <trkpt lat="44.50039" lon="0.71069">
        <ele>164.7</ele>
        <time>2018-07-22T14:29:22Z</time>
      </trkpt>
      <trkpt lat="44.50036" lon="0.71068">
        <ele>164.6</ele>
        <time>2018-07-22T14:29:24Z</time>
      </trkpt>
      <trkpt lat="44.50033" lon="0.71068">
        <ele>164.6</ele>
        <time>2018-07-22T14:29:26Z</time>
      </trkpt>
      <trkpt lat="44.50029" lon="0.71069">
        <ele>164.6</ele>
        <time>2018-07-22T14:29:29Z</time>
      </trkpt>
      <trkpt lat="44.50026" lon="0.71069">
        <ele>164.5</ele>
        <time>2018-07-22T14:29:31Z</time>
      </trkpt>
      <trkpt lat="44.50023" lon="0.71069">
        <ele>164.5</ele>
        <time>2018-07-22T14:29:33Z</time>
      </trkpt>
      <trkpt lat="44.5002" lon="0.71068">
        <ele>164.4</ele>
        <time>2018-07-22T14:29:35Z</time>
      </trkpt>
      <trkpt lat="44.50017" lon="0.71068">
        <ele>164.4</ele>
        <time>2018-07-22T14:29:37Z</time>
      </trkpt>
      <trkpt lat="44.50014" lon="0.71068">
        <ele>164.3</ele>
        <time>2018-07-22T14:29:39Z</time>
      </trkpt>
      <trkpt lat="44.50011" lon="0.71067">
        <ele>164.3</ele>
        <time>2018-07-22T14:29:41Z</time>
      </trkpt>
      <trkpt lat="44.50008" lon="0.71066">
        <ele>164.2</ele>
        <time>2018-07-22T14:29:43Z</time>
      </trkpt>
      <trkpt lat="44.50006" lon="0.71066">
        <ele>164.2</ele>
        <time>2018-07-22T14:29:45Z</time>
      </trkpt>
      <trkpt lat="44.50003" lon="0.71065">
        <ele>164.1</ele>
        <time>2018-07-22T14:29:47Z</time>
      </trkpt>
      <trkpt lat="44.5" lon="0.71064">
        <ele>164</ele>
        <time>2018-07-22T14:29:49Z</time>
      </trkpt>
      <trkpt lat="44.49997" lon="0.71065">
        <ele>163.8</ele>
        <time>2018-07-22T14:29:51Z</time>
      </trkpt>
      <trkpt lat="44.49993" lon="0.71066">
        <ele>163.6</ele>
        <time>2018-07-22T14:29:54Z</time>
      </trkpt>
      <trkpt lat="44.4999" lon="0.71067">
        <ele>163.4</ele>
        <time>2018-07-22T14:29:56Z</time>
      </trkpt>
      <trkpt lat="44.49987" lon="0.71067">
        <ele>163.3</ele>
        <time>2018-07-22T14:29:58Z</time>
      </trkpt>
      <trkpt lat="44.49984" lon="0.71068">
        <ele>163.1</ele>
        <time>2018-07-22T14:30:00Z</time>
      </trkpt>
      <trkpt lat="44.49981" lon="0.71068">
        <ele>162.9</ele>
        <time>2018-07-22T14:30:02Z</time>
      </trkpt>
      <trkpt lat="44.49979" lon="0.71069">
        <ele>162.8</ele>
        <time>2018-07-22T14:30:04Z</time>
      </trkpt>
      <trkpt lat="44.49976" lon="0.71069">
        <ele>162.6</ele>
        <time>2018-07-22T14:30:06Z</time>
      </trkpt>
      <trkpt lat="44.49973" lon="0.71069">
        <ele>162.5</ele>
        <time>2018-07-22T14:30:08Z</time>
      </trkpt>
      <trkpt lat="44.4997" lon="0.71069">
        <ele>162.4</ele>
        <time>2018-07-22T14:30:10Z</time>
      </trkpt>
      <trkpt lat="44.49967" lon="0.7107">
        <ele>162.3</ele>
        <time>2018-07-22T14:30:12Z</time>
      </trkpt>
      <trkpt lat="44.49964" lon="0.7107">
        <ele>162.2</ele>
        <time>2018-07-22T14:30:15Z</time>
      </trkpt>
      <trkpt lat="44.49959" lon="0.7107">
        <ele>162</ele>
        <time>2018-07-22T14:30:18Z</time>
      </trkpt>
      <trkpt lat="44.49955" lon="0.7107">
        <ele>162</ele>
        <time>2018-07-22T14:30:21Z</time>
      </trkpt>
      <trkpt lat="44.49952" lon="0.71071">
        <ele>161.9</ele>
        <time>2018-07-22T14:30:23Z</time>
      </trkpt>
      <trkpt lat="44.49949" lon="0.71071">
        <ele>161.9</ele>
        <time>2018-07-22T14:30:25Z</time>
      </trkpt>
      <trkpt lat="44.49946" lon="0.71072">
        <ele>161.8</ele>
        <time>2018-07-22T14:30:27Z</time>
      </trkpt>
      <trkpt lat="44.49943" lon="0.71072">
        <ele>161.8</ele>
        <time>2018-07-22T14:30:29Z</time>
      </trkpt>
      <trkpt lat="44.49939" lon="0.71074">
        <ele>161.8</ele>
        <time>2018-07-22T14:30:32Z</time>
      </trkpt>
      <trkpt lat="44.49935" lon="0.71073">
        <ele>161.7</ele>
        <time>2018-07-22T14:30:35Z</time>
      </trkpt>
      <trkpt lat="44.49931" lon="0.71073">
        <ele>161.7</ele>
        <time>2018-07-22T14:30:38Z</time>
      </trkpt>
      <trkpt lat="44.49928" lon="0.71072">
        <ele>161.5</ele>
        <time>2018-07-22T14:30:40Z</time>
      </trkpt>
      <trkpt lat="44.49925" lon="0.71072">
        <ele>161.4</ele>
        <time>2018-07-22T14:30:42Z</time>
      </trkpt>
      <trkpt lat="44.49922" lon="0.71072">
        <ele>161.3</ele>
        <time>2018-07-22T14:30:44Z</time>
      </trkpt>
      <trkpt lat="44.49918" lon="0.71071">
        <ele>161.2</ele>
        <time>2018-07-22T14:30:46Z</time>
      </trkpt>
      <trkpt lat="44.49915" lon="0.7107">
        <ele>161</ele>
        <time>2018-07-22T14:30:48Z</time>
      </trkpt>
      <trkpt lat="44.49912" lon="0.71068">
        <ele>160.9</ele>
        <time>2018-07-22T14:30:50Z</time>
      </trkpt>
      <trkpt lat="44.49909" lon="0.71067">
        <ele>160.6</ele>
        <time>2018-07-22T14:30:52Z</time>
      </trkpt>
      <trkpt lat="44.49906" lon="0.71066">
        <ele>160.4</ele>
        <time>2018-07-22T14:30:54Z</time>
      </trkpt>
      <trkpt lat="44.49903" lon="0.71065">
        <ele>160.3</ele>
        <time>2018-07-22T14:30:56Z</time>
      </trkpt>
      <trkpt lat="44.499" lon="0.71064">
        <ele>160.1</ele>
        <time>2018-07-22T14:30:58Z</time>
      </trkpt>
      <trkpt lat="44.49896" lon="0.71062">
        <ele>159.8</ele>
        <time>2018-07-22T14:31:01Z</time>
      </trkpt>
      <trkpt lat="44.49893" lon="0.71061">
        <ele>159.7</ele>
        <time>2018-07-22T14:31:03Z</time>
      </trkpt>
      <trkpt lat="44.49891" lon="0.7106">
        <ele>159.5</ele>
        <time>2018-07-22T14:31:05Z</time>
      </trkpt>
      <trkpt lat="44.49888" lon="0.71059">
        <ele>159.3</ele>
        <time>2018-07-22T14:31:07Z</time>
      </trkpt>
      <trkpt lat="44.49885" lon="0.71058">
        <ele>159</ele>
        <time>2018-07-22T14:31:09Z</time>
      </trkpt>
      <trkpt lat="44.49882" lon="0.71055">
        <ele>158.9</ele>
        <time>2018-07-22T14:31:11Z</time>
      </trkpt>
      <trkpt lat="44.4988" lon="0.71053">
        <ele>158.6</ele>
        <time>2018-07-22T14:31:13Z</time>
      </trkpt>
      <trkpt lat="44.49876" lon="0.71051">
        <ele>158.4</ele>
        <time>2018-07-22T14:31:16Z</time>
      </trkpt>
      <trkpt lat="44.49873" lon="0.71049">
        <ele>158.1</ele>
        <time>2018-07-22T14:31:19Z</time>
      </trkpt>
      <trkpt lat="44.4987" lon="0.71048">
        <ele>158</ele>
        <time>2018-07-22T14:31:21Z</time>
      </trkpt>
      <trkpt lat="44.49867" lon="0.71048">
        <ele>157.9</ele>
        <time>2018-07-22T14:31:25Z</time>
      </trkpt>
      <trkpt lat="44.49863" lon="0.71045">
        <ele>157.6</ele>
        <time>2018-07-22T14:31:27Z</time>
      </trkpt>
      <trkpt lat="44.49859" lon="0.71043">
        <ele>157.5</ele>
        <time>2018-07-22T14:31:29Z</time>
      </trkpt>
      <trkpt lat="44.49856" lon="0.7104">
        <ele>157.3</ele>
        <time>2018-07-22T14:31:31Z</time>
      </trkpt>
      <trkpt lat="44.49853" lon="0.71037">
        <ele>157</ele>
        <time>2018-07-22T14:31:33Z</time>
      </trkpt>
      <trkpt lat="44.4985" lon="0.71035">
        <ele>156.9</ele>
        <time>2018-07-22T14:31:35Z</time>
      </trkpt>
      <trkpt lat="44.49846" lon="0.71032">
        <ele>156.7</ele>
        <time>2018-07-22T14:31:38Z</time>
      </trkpt>
      <trkpt lat="44.49843" lon="0.71032">
        <ele>156.6</ele>
        <time>2018-07-22T14:31:40Z</time>
      </trkpt>
      <trkpt lat="44.4984" lon="0.7103">
        <ele>156.5</ele>
        <time>2018-07-22T14:31:42Z</time>
      </trkpt>
      <trkpt lat="44.49837" lon="0.71027">
        <ele>156.4</ele>
        <time>2018-07-22T14:31:44Z</time>
      </trkpt>
      <trkpt lat="44.49834" lon="0.71025">
        <ele>156.2</ele>
        <time>2018-07-22T14:31:46Z</time>
      </trkpt>
      <trkpt lat="44.49831" lon="0.71023">
        <ele>155.8</ele>
        <time>2018-07-22T14:31:48Z</time>
      </trkpt>
      <trkpt lat="44.49828" lon="0.71021">
        <ele>155.7</ele>
        <time>2018-07-22T14:31:50Z</time>
      </trkpt>
      <trkpt lat="44.49825" lon="0.71019">
        <ele>155.4</ele>
        <time>2018-07-22T14:31:52Z</time>
      </trkpt>
      <trkpt lat="44.49822" lon="0.71017">
        <ele>155.3</ele>
        <time>2018-07-22T14:31:54Z</time>
      </trkpt>
      <trkpt lat="44.49818" lon="0.71014">
        <ele>155</ele>
        <time>2018-07-22T14:31:56Z</time>
      </trkpt>
      <trkpt lat="44.49816" lon="0.71011">
        <ele>154.7</ele>
        <time>2018-07-22T14:31:58Z</time>
      </trkpt>
      <trkpt lat="44.49813" lon="0.71008">
        <ele>154.6</ele>
        <time>2018-07-22T14:32:00Z</time>
      </trkpt>
      <trkpt lat="44.49809" lon="0.71005">
        <ele>154.2</ele>
        <time>2018-07-22T14:32:02Z</time>
      </trkpt>
      <trkpt lat="44.49806" lon="0.71002">
        <ele>153.9</ele>
        <time>2018-07-22T14:32:04Z</time>
      </trkpt>
      <trkpt lat="44.49803" lon="0.71">
        <ele>153.8</ele>
        <time>2018-07-22T14:32:06Z</time>
      </trkpt>
      <trkpt lat="44.49801" lon="0.70998">
        <ele>153.6</ele>
        <time>2018-07-22T14:32:08Z</time>
      </trkpt>
      <trkpt lat="44.49798" lon="0.70995">
        <ele>153.5</ele>
        <time>2018-07-22T14:32:10Z</time>
      </trkpt>
      <trkpt lat="44.49795" lon="0.70992">
        <ele>153.2</ele>
        <time>2018-07-22T14:32:12Z</time>
      </trkpt>
      <trkpt lat="44.49792" lon="0.7099">
        <ele>152.9</ele>
        <time>2018-07-22T14:32:14Z</time>
      </trkpt>
      <trkpt lat="44.49789" lon="0.70988">
        <ele>152.8</ele>
        <time>2018-07-22T14:32:16Z</time>
      </trkpt>
      <trkpt lat="44.49786" lon="0.70987">
        <ele>152.8</ele>
        <time>2018-07-22T14:32:18Z</time>
      </trkpt>
      <trkpt lat="44.49784" lon="0.70985">
        <ele>152.6</ele>
        <time>2018-07-22T14:32:20Z</time>
      </trkpt>
      <trkpt lat="44.49781" lon="0.70983">
        <ele>152.5</ele>
        <time>2018-07-22T14:32:22Z</time>
      </trkpt>
      <trkpt lat="44.49778" lon="0.7098">
        <ele>152.4</ele>
        <time>2018-07-22T14:32:24Z</time>
      </trkpt>
      <trkpt lat="44.49775" lon="0.70979">
        <ele>152.3</ele>
        <time>2018-07-22T14:32:26Z</time>
      </trkpt>
      <trkpt lat="44.49773" lon="0.70977">
        <ele>152.2</ele>
        <time>2018-07-22T14:32:28Z</time>
      </trkpt>
      <trkpt lat="44.4977" lon="0.70974">
        <ele>152.2</ele>
        <time>2018-07-22T14:32:30Z</time>
      </trkpt>
      <trkpt lat="44.49767" lon="0.70971">
        <ele>152.1</ele>
        <time>2018-07-22T14:32:32Z</time>
      </trkpt>
      <trkpt lat="44.49764" lon="0.70969">
        <ele>152</ele>
        <time>2018-07-22T14:32:34Z</time>
      </trkpt>
      <trkpt lat="44.49761" lon="0.70967">
        <ele>152</ele>
        <time>2018-07-22T14:32:36Z</time>
      </trkpt>
      <trkpt lat="44.49758" lon="0.70965">
        <ele>152.1</ele>
        <time>2018-07-22T14:32:39Z</time>
      </trkpt>
      <trkpt lat="44.49754" lon="0.70963">
        <ele>152.1</ele>
        <time>2018-07-22T14:32:42Z</time>
      </trkpt>
      <trkpt lat="44.49751" lon="0.7096">
        <ele>152</ele>
        <time>2018-07-22T14:32:45Z</time>
      </trkpt>
      <trkpt lat="44.49749" lon="0.70957">
        <ele>152</ele>
        <time>2018-07-22T14:32:48Z</time>
      </trkpt>
      <trkpt lat="44.49747" lon="0.70953">
        <ele>152</ele>
        <time>2018-07-22T14:32:52Z</time>
      </trkpt>
      <trkpt lat="44.49741" lon="0.70958">
        <ele>152.2</ele>
        <time>2018-07-22T14:33:34Z</time>
      </trkpt>
      <trkpt lat="44.49739" lon="0.70961">
        <ele>152.2</ele>
        <time>2018-07-22T14:33:37Z</time>
      </trkpt>
      <trkpt lat="44.49742" lon="0.70952">
        <ele>152</ele>
        <time>2018-07-22T14:35:18Z</time>
      </trkpt>
      <trkpt lat="44.49739" lon="0.70952">
        <ele>151.9</ele>
        <time>2018-07-22T14:35:21Z</time>
      </trkpt>
      <trkpt lat="44.49735" lon="0.7095">
        <ele>152</ele>
        <time>2018-07-22T14:35:24Z</time>
      </trkpt>
      <trkpt lat="44.49733" lon="0.70947">
        <ele>152</ele>
        <time>2018-07-22T14:35:26Z</time>
      </trkpt>
      <trkpt lat="44.4973" lon="0.70945">
        <ele>152</ele>
        <time>2018-07-22T14:35:28Z</time>
      </trkpt>
      <trkpt lat="44.49727" lon="0.70941">
        <ele>151.9</ele>
        <time>2018-07-22T14:35:33Z</time>
      </trkpt>
      <trkpt lat="44.49724" lon="0.70939">
        <ele>152</ele>
        <time>2018-07-22T14:35:35Z</time>
      </trkpt>
      <trkpt lat="44.49721" lon="0.70937">
        <ele>152</ele>
        <time>2018-07-22T14:35:37Z</time>
      </trkpt>
      <trkpt lat="44.49718" lon="0.70935">
        <ele>152</ele>
        <time>2018-07-22T14:35:39Z</time>
      </trkpt>
      <trkpt lat="44.49715" lon="0.70933">
        <ele>152</ele>
        <time>2018-07-22T14:35:41Z</time>
      </trkpt>
      <trkpt lat="44.49712" lon="0.70932">
        <ele>152.1</ele>
        <time>2018-07-22T14:35:43Z</time>
      </trkpt>
      <trkpt lat="44.4971" lon="0.70931">
        <ele>152.1</ele>
        <time>2018-07-22T14:35:45Z</time>
      </trkpt>
      <trkpt lat="44.49706" lon="0.70928">
        <ele>152.1</ele>
        <time>2018-07-22T14:35:47Z</time>
      </trkpt>
      <trkpt lat="44.49703" lon="0.70926">
        <ele>152.1</ele>
        <time>2018-07-22T14:35:49Z</time>
      </trkpt>
      <trkpt lat="44.49701" lon="0.70923">
        <ele>152.1</ele>
        <time>2018-07-22T14:35:51Z</time>
      </trkpt>
      <trkpt lat="44.49698" lon="0.70922">
        <ele>152.1</ele>
        <time>2018-07-22T14:35:53Z</time>
      </trkpt>
      <trkpt lat="44.49694" lon="0.70919">
        <ele>152.2</ele>
        <time>2018-07-22T14:35:56Z</time>
      </trkpt>
      <trkpt lat="44.49691" lon="0.70919">
        <ele>152.3</ele>
        <time>2018-07-22T14:35:58Z</time>
      </trkpt>
      <trkpt lat="44.49687" lon="0.70919">
        <ele>152.5</ele>
        <time>2018-07-22T14:36:00Z</time>
      </trkpt>
      <trkpt lat="44.49684" lon="0.70918">
        <ele>152.4</ele>
        <time>2018-07-22T14:36:02Z</time>
      </trkpt>
      <trkpt lat="44.49681" lon="0.70916">
        <ele>152.5</ele>
        <time>2018-07-22T14:36:04Z</time>
      </trkpt>
      <trkpt lat="44.49677" lon="0.70914">
        <ele>152.5</ele>
        <time>2018-07-22T14:36:06Z</time>
      </trkpt>
      <trkpt lat="44.49674" lon="0.70912">
        <ele>152.5</ele>
        <time>2018-07-22T14:36:08Z</time>
      </trkpt>
      <trkpt lat="44.49671" lon="0.7091">
        <ele>152.5</ele>
        <time>2018-07-22T14:36:10Z</time>
      </trkpt>
      <trkpt lat="44.49668" lon="0.70907">
        <ele>152.4</ele>
        <time>2018-07-22T14:36:12Z</time>
      </trkpt>
      <trkpt lat="44.49665" lon="0.70906">
        <ele>152.5</ele>
        <time>2018-07-22T14:36:14Z</time>
      </trkpt>
      <trkpt lat="44.49663" lon="0.70905">
        <ele>152.4</ele>
        <time>2018-07-22T14:36:16Z</time>
      </trkpt>
      <trkpt lat="44.4966" lon="0.70903">
        <ele>152.5</ele>
        <time>2018-07-22T14:36:18Z</time>
      </trkpt>
      <trkpt lat="44.49656" lon="0.70902">
        <ele>152.5</ele>
        <time>2018-07-22T14:36:21Z</time>
      </trkpt>
      <trkpt lat="44.49653" lon="0.70901">
        <ele>152.5</ele>
        <time>2018-07-22T14:36:23Z</time>
      </trkpt>
      <trkpt lat="44.49651" lon="0.70899">
        <ele>152.5</ele>
        <time>2018-07-22T14:36:25Z</time>
      </trkpt>
      <trkpt lat="44.49648" lon="0.70896">
        <ele>152.5</ele>
        <time>2018-07-22T14:36:27Z</time>
      </trkpt>
      <trkpt lat="44.49645" lon="0.70894">
        <ele>152.4</ele>
        <time>2018-07-22T14:36:30Z</time>
      </trkpt>
      <trkpt lat="44.49643" lon="0.70891">
        <ele>152.4</ele>
        <time>2018-07-22T14:36:32Z</time>
      </trkpt>
      <trkpt lat="44.4964" lon="0.7089">
        <ele>152.4</ele>
        <time>2018-07-22T14:36:34Z</time>
      </trkpt>
      <trkpt lat="44.49637" lon="0.70888">
        <ele>152.5</ele>
        <time>2018-07-22T14:36:36Z</time>
      </trkpt>
      <trkpt lat="44.49634" lon="0.70886">
        <ele>152.5</ele>
        <time>2018-07-22T14:36:39Z</time>
      </trkpt>
      <trkpt lat="44.49631" lon="0.70886">
        <ele>152.6</ele>
        <time>2018-07-22T14:36:41Z</time>
      </trkpt>
      <trkpt lat="44.49628" lon="0.70884">
        <ele>152.6</ele>
        <time>2018-07-22T14:36:43Z</time>
      </trkpt>
      <trkpt lat="44.49625" lon="0.70882">
        <ele>152.7</ele>
        <time>2018-07-22T14:36:45Z</time>
      </trkpt>
      <trkpt lat="44.49622" lon="0.7088">
        <ele>152.7</ele>
        <time>2018-07-22T14:36:47Z</time>
      </trkpt>
      <trkpt lat="44.4962" lon="0.70878">
        <ele>152.8</ele>
        <time>2018-07-22T14:36:49Z</time>
      </trkpt>
      <trkpt lat="44.49617" lon="0.70875">
        <ele>152.8</ele>
        <time>2018-07-22T14:36:51Z</time>
      </trkpt>
      <trkpt lat="44.49614" lon="0.70872">
        <ele>152.9</ele>
        <time>2018-07-22T14:36:54Z</time>
      </trkpt>
      <trkpt lat="44.49611" lon="0.70869">
        <ele>153.1</ele>
        <time>2018-07-22T14:36:56Z</time>
      </trkpt>
      <trkpt lat="44.49608" lon="0.70867">
        <ele>153.2</ele>
        <time>2018-07-22T14:36:58Z</time>
      </trkpt>
      <trkpt lat="44.49606" lon="0.70865">
        <ele>153.4</ele>
        <time>2018-07-22T14:37:00Z</time>
      </trkpt>
      <trkpt lat="44.49603" lon="0.70863">
        <ele>153.6</ele>
        <time>2018-07-22T14:37:02Z</time>
      </trkpt>
      <trkpt lat="44.496" lon="0.70861">
        <ele>153.8</ele>
        <time>2018-07-22T14:37:04Z</time>
      </trkpt>
      <trkpt lat="44.49596" lon="0.70858">
        <ele>153.9</ele>
        <time>2018-07-22T14:37:06Z</time>
      </trkpt>
      <trkpt lat="44.49593" lon="0.70857">
        <ele>154.2</ele>
        <time>2018-07-22T14:37:08Z</time>
      </trkpt>
      <trkpt lat="44.4959" lon="0.70855">
        <ele>154.3</ele>
        <time>2018-07-22T14:37:10Z</time>
      </trkpt>
      <trkpt lat="44.49587" lon="0.70854">
        <ele>154.5</ele>
        <time>2018-07-22T14:37:12Z</time>
      </trkpt>
      <trkpt lat="44.49585" lon="0.70852">
        <ele>154.8</ele>
        <time>2018-07-22T14:37:14Z</time>
      </trkpt>
      <trkpt lat="44.49582" lon="0.70849">
        <ele>155</ele>
        <time>2018-07-22T14:37:16Z</time>
      </trkpt>
      <trkpt lat="44.49579" lon="0.70848">
        <ele>155.3</ele>
        <time>2018-07-22T14:37:18Z</time>
      </trkpt>
      <trkpt lat="44.49576" lon="0.70847">
        <ele>155.5</ele>
        <time>2018-07-22T14:37:20Z</time>
      </trkpt>
      <trkpt lat="44.49572" lon="0.70845">
        <ele>155.7</ele>
        <time>2018-07-22T14:37:23Z</time>
      </trkpt>
      <trkpt lat="44.49569" lon="0.70844">
        <ele>156</ele>
        <time>2018-07-22T14:37:25Z</time>
      </trkpt>
      <trkpt lat="44.49566" lon="0.70842">
        <ele>156.2</ele>
        <time>2018-07-22T14:37:27Z</time>
      </trkpt>
      <trkpt lat="44.49563" lon="0.70839">
        <ele>156.5</ele>
        <time>2018-07-22T14:37:30Z</time>
      </trkpt>
      <trkpt lat="44.4956" lon="0.70837">
        <ele>156.7</ele>
        <time>2018-07-22T14:37:32Z</time>
      </trkpt>
      <trkpt lat="44.49557" lon="0.70835">
        <ele>157.1</ele>
        <time>2018-07-22T14:37:34Z</time>
      </trkpt>
      <trkpt lat="44.49554" lon="0.70833">
        <ele>157.3</ele>
        <time>2018-07-22T14:37:36Z</time>
      </trkpt>
      <trkpt lat="44.49551" lon="0.7083">
        <ele>157.6</ele>
        <time>2018-07-22T14:37:38Z</time>
      </trkpt>
      <trkpt lat="44.49547" lon="0.70827">
        <ele>158</ele>
        <time>2018-07-22T14:37:41Z</time>
      </trkpt>
      <trkpt lat="44.49543" lon="0.70825">
        <ele>158.3</ele>
        <time>2018-07-22T14:37:43Z</time>
      </trkpt>
      <trkpt lat="44.49539" lon="0.70823">
        <ele>158.5</ele>
        <time>2018-07-22T14:37:45Z</time>
      </trkpt>
      <trkpt lat="44.49537" lon="0.70821">
        <ele>158.8</ele>
        <time>2018-07-22T14:37:47Z</time>
      </trkpt>
      <trkpt lat="44.49536" lon="0.70818">
        <ele>158.9</ele>
        <time>2018-07-22T14:37:50Z</time>
      </trkpt>
      <trkpt lat="44.49533" lon="0.70815">
        <ele>159.1</ele>
        <time>2018-07-22T14:37:53Z</time>
      </trkpt>
      <trkpt lat="44.4953" lon="0.70811">
        <ele>159.2</ele>
        <time>2018-07-22T14:37:56Z</time>
      </trkpt>
      <trkpt lat="44.49528" lon="0.70809">
        <ele>159.4</ele>
        <time>2018-07-22T14:37:58Z</time>
      </trkpt>
      <trkpt lat="44.49526" lon="0.70806">
        <ele>159.4</ele>
        <time>2018-07-22T14:38:00Z</time>
      </trkpt>
      <trkpt lat="44.49523" lon="0.70802">
        <ele>159.5</ele>
        <time>2018-07-22T14:38:03Z</time>
      </trkpt>
      <trkpt lat="44.49522" lon="0.70799">
        <ele>159.6</ele>
        <time>2018-07-22T14:38:06Z</time>
      </trkpt>
      <trkpt lat="44.49519" lon="0.70794">
        <ele>159.6</ele>
        <time>2018-07-22T14:38:09Z</time>
      </trkpt>
      <trkpt lat="44.49516" lon="0.70791">
        <ele>159.7</ele>
        <time>2018-07-22T14:38:12Z</time>
      </trkpt>
      <trkpt lat="44.49515" lon="0.70787">
        <ele>159.8</ele>
        <time>2018-07-22T14:38:16Z</time>
      </trkpt>
      <trkpt lat="44.49513" lon="0.70782">
        <ele>159.8</ele>
        <time>2018-07-22T14:38:19Z</time>
      </trkpt>
      <trkpt lat="44.49511" lon="0.70779">
        <ele>159.9</ele>
        <time>2018-07-22T14:38:21Z</time>
      </trkpt>
      <trkpt lat="44.49508" lon="0.70776">
        <ele>160</ele>
        <time>2018-07-22T14:38:23Z</time>
      </trkpt>
      <trkpt lat="44.49505" lon="0.70772">
        <ele>160</ele>
        <time>2018-07-22T14:38:25Z</time>
      </trkpt>
      <trkpt lat="44.49502" lon="0.7077">
        <ele>160.1</ele>
        <time>2018-07-22T14:38:27Z</time>
      </trkpt>
      <trkpt lat="44.49499" lon="0.70768">
        <ele>160.1</ele>
        <time>2018-07-22T14:38:29Z</time>
      </trkpt>
      <trkpt lat="44.49496" lon="0.70766">
        <ele>160.2</ele>
        <time>2018-07-22T14:38:31Z</time>
      </trkpt>
      <trkpt lat="44.49494" lon="0.70763">
        <ele>160.2</ele>
        <time>2018-07-22T14:38:33Z</time>
      </trkpt>
      <trkpt lat="44.49491" lon="0.70761">
        <ele>160.2</ele>
        <time>2018-07-22T14:38:35Z</time>
      </trkpt>
      <trkpt lat="44.49488" lon="0.70758">
        <ele>160.1</ele>
        <time>2018-07-22T14:38:38Z</time>
      </trkpt>
      <trkpt lat="44.49485" lon="0.70756">
        <ele>160.1</ele>
        <time>2018-07-22T14:38:41Z</time>
      </trkpt>
      <trkpt lat="44.49482" lon="0.70753">
        <ele>160</ele>
        <time>2018-07-22T14:38:43Z</time>
      </trkpt>
      <trkpt lat="44.49479" lon="0.7075">
        <ele>159.8</ele>
        <time>2018-07-22T14:38:45Z</time>
      </trkpt>
      <trkpt lat="44.49476" lon="0.70747">
        <ele>159.7</ele>
        <time>2018-07-22T14:38:48Z</time>
      </trkpt>
      <trkpt lat="44.49473" lon="0.70746">
        <ele>159.5</ele>
        <time>2018-07-22T14:38:50Z</time>
      </trkpt>
      <trkpt lat="44.4947" lon="0.70744">
        <ele>159.4</ele>
        <time>2018-07-22T14:38:52Z</time>
      </trkpt>
      <trkpt lat="44.49468" lon="0.7074">
        <ele>159</ele>
        <time>2018-07-22T14:38:54Z</time>
      </trkpt>
      <trkpt lat="44.49467" lon="0.70736">
        <ele>158.6</ele>
        <time>2018-07-22T14:38:56Z</time>
      </trkpt>
      <trkpt lat="44.49465" lon="0.70732">
        <ele>158.2</ele>
        <time>2018-07-22T14:38:58Z</time>
      </trkpt>
      <trkpt lat="44.49461" lon="0.70729">
        <ele>158.1</ele>
        <time>2018-07-22T14:39:01Z</time>
      </trkpt>
      <trkpt lat="44.49458" lon="0.70725">
        <ele>157.5</ele>
        <time>2018-07-22T14:39:03Z</time>
      </trkpt>
      <trkpt lat="44.49456" lon="0.70722">
        <ele>156.9</ele>
        <time>2018-07-22T14:39:06Z</time>
      </trkpt>
      <trkpt lat="44.49455" lon="0.70718">
        <ele>156.4</ele>
        <time>2018-07-22T14:39:09Z</time>
      </trkpt>
      <trkpt lat="44.49455" lon="0.70713">
        <ele>155.9</ele>
        <time>2018-07-22T14:39:12Z</time>
      </trkpt>
      <trkpt lat="44.49455" lon="0.70708">
        <ele>155.4</ele>
        <time>2018-07-22T14:39:15Z</time>
      </trkpt>
      <trkpt lat="44.49452" lon="0.70704">
        <ele>154.6</ele>
        <time>2018-07-22T14:39:17Z</time>
      </trkpt>
      <trkpt lat="44.49449" lon="0.70701">
        <ele>153.8</ele>
        <time>2018-07-22T14:39:19Z</time>
      </trkpt>
      <trkpt lat="44.49447" lon="0.70698">
        <ele>153</ele>
        <time>2018-07-22T14:39:21Z</time>
      </trkpt>
      <trkpt lat="44.49444" lon="0.70695">
        <ele>152.8</ele>
        <time>2018-07-22T14:39:23Z</time>
      </trkpt>
      <trkpt lat="44.49442" lon="0.70694">
        <ele>152</ele>
        <time>2018-07-22T14:39:25Z</time>
      </trkpt>
      <trkpt lat="44.49439" lon="0.7069">
        <ele>151.3</ele>
        <time>2018-07-22T14:39:27Z</time>
      </trkpt>
      <trkpt lat="44.49437" lon="0.70685">
        <ele>150.8</ele>
        <time>2018-07-22T14:39:30Z</time>
      </trkpt>
      <trkpt lat="44.49434" lon="0.70682">
        <ele>150.6</ele>
        <time>2018-07-22T14:39:32Z</time>
      </trkpt>
      <trkpt lat="44.4943" lon="0.70679">
        <ele>149.9</ele>
        <time>2018-07-22T14:39:34Z</time>
      </trkpt>
      <trkpt lat="44.49427" lon="0.70676">
        <ele>149.4</ele>
        <time>2018-07-22T14:39:36Z</time>
      </trkpt>
      <trkpt lat="44.49425" lon="0.70672">
        <ele>149</ele>
        <time>2018-07-22T14:39:38Z</time>
      </trkpt>
      <trkpt lat="44.49422" lon="0.70669">
        <ele>148.9</ele>
        <time>2018-07-22T14:39:40Z</time>
      </trkpt>
      <trkpt lat="44.4942" lon="0.70665">
        <ele>148.5</ele>
        <time>2018-07-22T14:39:43Z</time>
      </trkpt>
      <trkpt lat="44.49419" lon="0.70661">
        <ele>148.1</ele>
        <time>2018-07-22T14:39:45Z</time>
      </trkpt>
      <trkpt lat="44.49417" lon="0.70657">
        <ele>147.7</ele>
        <time>2018-07-22T14:39:48Z</time>
      </trkpt>
      <trkpt lat="44.49415" lon="0.70652">
        <ele>147.3</ele>
        <time>2018-07-22T14:39:51Z</time>
      </trkpt>
      <trkpt lat="44.49412" lon="0.7065">
        <ele>146.9</ele>
        <time>2018-07-22T14:39:53Z</time>
      </trkpt>
      <trkpt lat="44.49408" lon="0.70647">
        <ele>146.4</ele>
        <time>2018-07-22T14:39:55Z</time>
      </trkpt>
      <trkpt lat="44.49405" lon="0.70644">
        <ele>146.3</ele>
        <time>2018-07-22T14:39:57Z</time>
      </trkpt>
      <trkpt lat="44.49403" lon="0.70641">
        <ele>145.9</ele>
        <time>2018-07-22T14:39:59Z</time>
      </trkpt>
      <trkpt lat="44.49399" lon="0.70637">
        <ele>145.5</ele>
        <time>2018-07-22T14:40:01Z</time>
      </trkpt>
      <trkpt lat="44.49396" lon="0.70634">
        <ele>145</ele>
        <time>2018-07-22T14:40:03Z</time>
      </trkpt>
      <trkpt lat="44.49393" lon="0.70632">
        <ele>144.8</ele>
        <time>2018-07-22T14:40:05Z</time>
      </trkpt>
      <trkpt lat="44.49391" lon="0.70629">
        <ele>144.5</ele>
        <time>2018-07-22T14:40:07Z</time>
      </trkpt>
      <trkpt lat="44.49389" lon="0.70626">
        <ele>144.3</ele>
        <time>2018-07-22T14:40:09Z</time>
      </trkpt>
      <trkpt lat="44.49387" lon="0.70623">
        <ele>143.8</ele>
        <time>2018-07-22T14:40:11Z</time>
      </trkpt>
      <trkpt lat="44.49384" lon="0.7062">
        <ele>143.3</ele>
        <time>2018-07-22T14:40:13Z</time>
      </trkpt>
      <trkpt lat="44.49382" lon="0.70617">
        <ele>143</ele>
        <time>2018-07-22T14:40:16Z</time>
      </trkpt>
      <trkpt lat="44.49381" lon="0.70612">
        <ele>142.6</ele>
        <time>2018-07-22T14:40:18Z</time>
      </trkpt>
      <trkpt lat="44.49379" lon="0.70608">
        <ele>142.3</ele>
        <time>2018-07-22T14:40:20Z</time>
      </trkpt>
      <trkpt lat="44.49378" lon="0.70604">
        <ele>142</ele>
        <time>2018-07-22T14:40:22Z</time>
      </trkpt>
      <trkpt lat="44.49377" lon="0.706">
        <ele>141.6</ele>
        <time>2018-07-22T14:40:24Z</time>
      </trkpt>
      <trkpt lat="44.49375" lon="0.70597">
        <ele>141.5</ele>
        <time>2018-07-22T14:40:26Z</time>
      </trkpt>
      <trkpt lat="44.49372" lon="0.70593">
        <ele>141.3</ele>
        <time>2018-07-22T14:40:29Z</time>
      </trkpt>
      <trkpt lat="44.49371" lon="0.70589">
        <ele>140.9</ele>
        <time>2018-07-22T14:40:31Z</time>
      </trkpt>
      <trkpt lat="44.4937" lon="0.70586">
        <ele>140.7</ele>
        <time>2018-07-22T14:40:33Z</time>
      </trkpt>
      <trkpt lat="44.49368" lon="0.70581">
        <ele>140.4</ele>
        <time>2018-07-22T14:40:35Z</time>
      </trkpt>
      <trkpt lat="44.49366" lon="0.70578">
        <ele>140.1</ele>
        <time>2018-07-22T14:40:37Z</time>
      </trkpt>
      <trkpt lat="44.49364" lon="0.70574">
        <ele>139.9</ele>
        <time>2018-07-22T14:40:39Z</time>
      </trkpt>
      <trkpt lat="44.49362" lon="0.7057">
        <ele>139.6</ele>
        <time>2018-07-22T14:40:41Z</time>
      </trkpt>
      <trkpt lat="44.4936" lon="0.70566">
        <ele>139.6</ele>
        <time>2018-07-22T14:40:43Z</time>
      </trkpt>
      <trkpt lat="44.49358" lon="0.70563">
        <ele>139.1</ele>
        <time>2018-07-22T14:40:45Z</time>
      </trkpt>
      <trkpt lat="44.49357" lon="0.7056">
        <ele>138.7</ele>
        <time>2018-07-22T14:40:47Z</time>
      </trkpt>
      <trkpt lat="44.49356" lon="0.70555">
        <ele>138.4</ele>
        <time>2018-07-22T14:40:51Z</time>
      </trkpt>
      <trkpt lat="44.49354" lon="0.70551">
        <ele>138.2</ele>
        <time>2018-07-22T14:40:53Z</time>
      </trkpt>
      <trkpt lat="44.49351" lon="0.70548">
        <ele>137.5</ele>
        <time>2018-07-22T14:40:55Z</time>
      </trkpt>
      <trkpt lat="44.49347" lon="0.70546">
        <ele>137</ele>
        <time>2018-07-22T14:40:57Z</time>
      </trkpt>
      <trkpt lat="44.49345" lon="0.70543">
        <ele>136.7</ele>
        <time>2018-07-22T14:40:59Z</time>
      </trkpt>
      <trkpt lat="44.49342" lon="0.70541">
        <ele>136.4</ele>
        <time>2018-07-22T14:41:01Z</time>
      </trkpt>
      <trkpt lat="44.49341" lon="0.70536">
        <ele>135.7</ele>
        <time>2018-07-22T14:41:06Z</time>
      </trkpt>
      <trkpt lat="44.49339" lon="0.70532">
        <ele>135.4</ele>
        <time>2018-07-22T14:41:09Z</time>
      </trkpt>
      <trkpt lat="44.49337" lon="0.70529">
        <ele>134.9</ele>
        <time>2018-07-22T14:41:12Z</time>
      </trkpt>
      <trkpt lat="44.49335" lon="0.70526">
        <ele>134.3</ele>
        <time>2018-07-22T14:41:16Z</time>
      </trkpt>
      <trkpt lat="44.49333" lon="0.70522">
        <ele>134</ele>
        <time>2018-07-22T14:41:19Z</time>
      </trkpt>
      <trkpt lat="44.49331" lon="0.70518">
        <ele>133.5</ele>
        <time>2018-07-22T14:41:22Z</time>
      </trkpt>
      <trkpt lat="44.49329" lon="0.70515">
        <ele>133.5</ele>
        <time>2018-07-22T14:41:26Z</time>
      </trkpt>
      <trkpt lat="44.49327" lon="0.7051">
        <ele>133</ele>
        <time>2018-07-22T14:41:30Z</time>
      </trkpt>
      <trkpt lat="44.49325" lon="0.70507">
        <ele>132.5</ele>
        <time>2018-07-22T14:41:33Z</time>
      </trkpt>
      <trkpt lat="44.49324" lon="0.70503">
        <ele>132.3</ele>
        <time>2018-07-22T14:41:36Z</time>
      </trkpt>
      <trkpt lat="44.49323" lon="0.70499">
        <ele>131.7</ele>
        <time>2018-07-22T14:41:38Z</time>
      </trkpt>
      <trkpt lat="44.49321" lon="0.70496">
        <ele>131.4</ele>
        <time>2018-07-22T14:41:40Z</time>
      </trkpt>
      <trkpt lat="44.4932" lon="0.70492">
        <ele>130.9</ele>
        <time>2018-07-22T14:41:42Z</time>
      </trkpt>
      <trkpt lat="44.49317" lon="0.70489">
        <ele>130.8</ele>
        <time>2018-07-22T14:41:44Z</time>
      </trkpt>
      <trkpt lat="44.49315" lon="0.70485">
        <ele>130.3</ele>
        <time>2018-07-22T14:41:46Z</time>
      </trkpt>
      <trkpt lat="44.49313" lon="0.70481">
        <ele>129.7</ele>
        <time>2018-07-22T14:41:48Z</time>
      </trkpt>
      <trkpt lat="44.49312" lon="0.70477">
        <ele>129.4</ele>
        <time>2018-07-22T14:41:50Z</time>
      </trkpt>
      <trkpt lat="44.49312" lon="0.70472">
        <ele>129</ele>
        <time>2018-07-22T14:41:52Z</time>
      </trkpt>
      <trkpt lat="44.49311" lon="0.70468">
        <ele>128.4</ele>
        <time>2018-07-22T14:41:54Z</time>
      </trkpt>
      <trkpt lat="44.49309" lon="0.70464">
        <ele>128</ele>
        <time>2018-07-22T14:41:56Z</time>
      </trkpt>
      <trkpt lat="44.49308" lon="0.70459">
        <ele>127.7</ele>
        <time>2018-07-22T14:41:58Z</time>
      </trkpt>
      <trkpt lat="44.49306" lon="0.70455">
        <ele>127.1</ele>
        <time>2018-07-22T14:42:00Z</time>
      </trkpt>
      <trkpt lat="44.49307" lon="0.70449">
        <ele>126.5</ele>
        <time>2018-07-22T14:42:03Z</time>
      </trkpt>
      <trkpt lat="44.49306" lon="0.70445">
        <ele>126.3</ele>
        <time>2018-07-22T14:42:05Z</time>
      </trkpt>
      <trkpt lat="44.49304" lon="0.7044">
        <ele>125.9</ele>
        <time>2018-07-22T14:42:07Z</time>
      </trkpt>
      <trkpt lat="44.49303" lon="0.70436">
        <ele>125.6</ele>
        <time>2018-07-22T14:42:09Z</time>
      </trkpt>
      <trkpt lat="44.49302" lon="0.70431">
        <ele>125.4</ele>
        <time>2018-07-22T14:42:11Z</time>
      </trkpt>
      <trkpt lat="44.49301" lon="0.70427">
        <ele>124.9</ele>
        <time>2018-07-22T14:42:13Z</time>
      </trkpt>
      <trkpt lat="44.49299" lon="0.70423">
        <ele>124.6</ele>
        <time>2018-07-22T14:42:15Z</time>
      </trkpt>
      <trkpt lat="44.49298" lon="0.70418">
        <ele>124.1</ele>
        <time>2018-07-22T14:42:17Z</time>
      </trkpt>
      <trkpt lat="44.49298" lon="0.70414">
        <ele>123.7</ele>
        <time>2018-07-22T14:42:19Z</time>
      </trkpt>
      <trkpt lat="44.49297" lon="0.7041">
        <ele>123.3</ele>
        <time>2018-07-22T14:42:21Z</time>
      </trkpt>
      <trkpt lat="44.49295" lon="0.70405">
        <ele>122.6</ele>
        <time>2018-07-22T14:42:23Z</time>
      </trkpt>
      <trkpt lat="44.49293" lon="0.70401">
        <ele>122.2</ele>
        <time>2018-07-22T14:42:25Z</time>
      </trkpt>
      <trkpt lat="44.49292" lon="0.70397">
        <ele>121.5</ele>
        <time>2018-07-22T14:42:27Z</time>
      </trkpt>
      <trkpt lat="44.49291" lon="0.70392">
        <ele>121.1</ele>
        <time>2018-07-22T14:42:29Z</time>
      </trkpt>
      <trkpt lat="44.49288" lon="0.70389">
        <ele>120.4</ele>
        <time>2018-07-22T14:42:31Z</time>
      </trkpt>
      <trkpt lat="44.49287" lon="0.70385">
        <ele>119.9</ele>
        <time>2018-07-22T14:42:34Z</time>
      </trkpt>
      <trkpt lat="44.49286" lon="0.70381">
        <ele>119.3</ele>
        <time>2018-07-22T14:42:36Z</time>
      </trkpt>
      <trkpt lat="44.49286" lon="0.70377">
        <ele>118.9</ele>
        <time>2018-07-22T14:42:38Z</time>
      </trkpt>
      <trkpt lat="44.49287" lon="0.70372">
        <ele>118.6</ele>
        <time>2018-07-22T14:42:41Z</time>
      </trkpt>
      <trkpt lat="44.49286" lon="0.70368">
        <ele>118.4</ele>
        <time>2018-07-22T14:42:43Z</time>
      </trkpt>
      <trkpt lat="44.49283" lon="0.70364">
        <ele>117.6</ele>
        <time>2018-07-22T14:42:46Z</time>
      </trkpt>
      <trkpt lat="44.49283" lon="0.70359">
        <ele>117</ele>
        <time>2018-07-22T14:42:48Z</time>
      </trkpt>
      <trkpt lat="44.49281" lon="0.70355">
        <ele>116.6</ele>
        <time>2018-07-22T14:42:50Z</time>
      </trkpt>
      <trkpt lat="44.4928" lon="0.70351">
        <ele>116.2</ele>
        <time>2018-07-22T14:42:52Z</time>
      </trkpt>
      <trkpt lat="44.49279" lon="0.70347">
        <ele>115.7</ele>
        <time>2018-07-22T14:42:54Z</time>
      </trkpt>
      <trkpt lat="44.49278" lon="0.70343">
        <ele>115.7</ele>
        <time>2018-07-22T14:42:56Z</time>
      </trkpt>
      <trkpt lat="44.49277" lon="0.70339">
        <ele>115.5</ele>
        <time>2018-07-22T14:42:58Z</time>
      </trkpt>
      <trkpt lat="44.49276" lon="0.70335">
        <ele>114.9</ele>
        <time>2018-07-22T14:43:00Z</time>
      </trkpt>
      <trkpt lat="44.49275" lon="0.70331">
        <ele>114.7</ele>
        <time>2018-07-22T14:43:02Z</time>
      </trkpt>
      <trkpt lat="44.49274" lon="0.70327">
        <ele>114.2</ele>
        <time>2018-07-22T14:43:04Z</time>
      </trkpt>
      <trkpt lat="44.49272" lon="0.70322">
        <ele>114</ele>
        <time>2018-07-22T14:43:06Z</time>
      </trkpt>
      <trkpt lat="44.49272" lon="0.70317">
        <ele>113.7</ele>
        <time>2018-07-22T14:43:08Z</time>
      </trkpt>
      <trkpt lat="44.49271" lon="0.70312">
        <ele>113.1</ele>
        <time>2018-07-22T14:43:10Z</time>
      </trkpt>
      <trkpt lat="44.49271" lon="0.70307">
        <ele>112.9</ele>
        <time>2018-07-22T14:43:12Z</time>
      </trkpt>
      <trkpt lat="44.49271" lon="0.70303">
        <ele>112.5</ele>
        <time>2018-07-22T14:43:14Z</time>
      </trkpt>
      <trkpt lat="44.4927" lon="0.70299">
        <ele>112.3</ele>
        <time>2018-07-22T14:43:16Z</time>
      </trkpt>
      <trkpt lat="44.49268" lon="0.70295">
        <ele>112</ele>
        <time>2018-07-22T14:43:18Z</time>
      </trkpt>
      <trkpt lat="44.49266" lon="0.70292">
        <ele>111.8</ele>
        <time>2018-07-22T14:43:20Z</time>
      </trkpt>
      <trkpt lat="44.49264" lon="0.70288">
        <ele>111.4</ele>
        <time>2018-07-22T14:43:22Z</time>
      </trkpt>
      <trkpt lat="44.49262" lon="0.70284">
        <ele>111.2</ele>
        <time>2018-07-22T14:43:24Z</time>
      </trkpt>
      <trkpt lat="44.49261" lon="0.70282">
        <ele>110.8</ele>
        <time>2018-07-22T14:43:26Z</time>
      </trkpt>
      <trkpt lat="44.49259" lon="0.70277">
        <ele>110.4</ele>
        <time>2018-07-22T14:43:29Z</time>
      </trkpt>
      <trkpt lat="44.49259" lon="0.70272">
        <ele>110</ele>
        <time>2018-07-22T14:43:32Z</time>
      </trkpt>
      <trkpt lat="44.49258" lon="0.70267">
        <ele>109.7</ele>
        <time>2018-07-22T14:43:35Z</time>
      </trkpt>
      <trkpt lat="44.49258" lon="0.70261">
        <ele>109.5</ele>
        <time>2018-07-22T14:43:38Z</time>
      </trkpt>
      <trkpt lat="44.49258" lon="0.70257">
        <ele>109.2</ele>
        <time>2018-07-22T14:43:40Z</time>
      </trkpt>
      <trkpt lat="44.49257" lon="0.70253">
        <ele>109</ele>
        <time>2018-07-22T14:43:42Z</time>
      </trkpt>
      <trkpt lat="44.49256" lon="0.70249">
        <ele>108.7</ele>
        <time>2018-07-22T14:43:44Z</time>
      </trkpt>
      <trkpt lat="44.49255" lon="0.70245">
        <ele>108.3</ele>
        <time>2018-07-22T14:43:46Z</time>
      </trkpt>
      <trkpt lat="44.49254" lon="0.7024">
        <ele>108</ele>
        <time>2018-07-22T14:43:48Z</time>
      </trkpt>
      <trkpt lat="44.49253" lon="0.70236">
        <ele>107.8</ele>
        <time>2018-07-22T14:43:50Z</time>
      </trkpt>
      <trkpt lat="44.49251" lon="0.70232">
        <ele>107.4</ele>
        <time>2018-07-22T14:43:52Z</time>
      </trkpt>
      <trkpt lat="44.49249" lon="0.70228">
        <ele>107.1</ele>
        <time>2018-07-22T14:43:54Z</time>
      </trkpt>
      <trkpt lat="44.49248" lon="0.70223">
        <ele>106.8</ele>
        <time>2018-07-22T14:43:56Z</time>
      </trkpt>
      <trkpt lat="44.49246" lon="0.70219">
        <ele>106.4</ele>
        <time>2018-07-22T14:43:58Z</time>
      </trkpt>
      <trkpt lat="44.49244" lon="0.70216">
        <ele>106.2</ele>
        <time>2018-07-22T14:44:00Z</time>
      </trkpt>
      <trkpt lat="44.49243" lon="0.70213">
        <ele>105.9</ele>
        <time>2018-07-22T14:44:02Z</time>
      </trkpt>
      <trkpt lat="44.49241" lon="0.70208">
        <ele>105.7</ele>
        <time>2018-07-22T14:44:04Z</time>
      </trkpt>
      <trkpt lat="44.4924" lon="0.70204">
        <ele>105.4</ele>
        <time>2018-07-22T14:44:06Z</time>
      </trkpt>
      <trkpt lat="44.4924" lon="0.70199">
        <ele>105.1</ele>
        <time>2018-07-22T14:44:08Z</time>
      </trkpt>
      <trkpt lat="44.49239" lon="0.70195">
        <ele>104.9</ele>
        <time>2018-07-22T14:44:10Z</time>
      </trkpt>
      <trkpt lat="44.49238" lon="0.7019">
        <ele>104.6</ele>
        <time>2018-07-22T14:44:12Z</time>
      </trkpt>
      <trkpt lat="44.49238" lon="0.70185">
        <ele>104.3</ele>
        <time>2018-07-22T14:44:14Z</time>
      </trkpt>
      <trkpt lat="44.49238" lon="0.70181">
        <ele>104</ele>
        <time>2018-07-22T14:44:16Z</time>
      </trkpt>
      <trkpt lat="44.49237" lon="0.70177">
        <ele>103.7</ele>
        <time>2018-07-22T14:44:18Z</time>
      </trkpt>
      <trkpt lat="44.49235" lon="0.70174">
        <ele>103.5</ele>
        <time>2018-07-22T14:44:20Z</time>
      </trkpt>
      <trkpt lat="44.49234" lon="0.70171">
        <ele>103.2</ele>
        <time>2018-07-22T14:44:22Z</time>
      </trkpt>
      <trkpt lat="44.49233" lon="0.70166">
        <ele>103</ele>
        <time>2018-07-22T14:44:24Z</time>
      </trkpt>
      <trkpt lat="44.49233" lon="0.70162">
        <ele>102.8</ele>
        <time>2018-07-22T14:44:26Z</time>
      </trkpt>
      <trkpt lat="44.49234" lon="0.70157">
        <ele>102.6</ele>
        <time>2018-07-22T14:44:29Z</time>
      </trkpt>
      <trkpt lat="44.49234" lon="0.70152">
        <ele>102.4</ele>
        <time>2018-07-22T14:44:31Z</time>
      </trkpt>
      <trkpt lat="44.49234" lon="0.70148">
        <ele>102.4</ele>
        <time>2018-07-22T14:44:33Z</time>
      </trkpt>
      <trkpt lat="44.49235" lon="0.70144">
        <ele>102.2</ele>
        <time>2018-07-22T14:44:35Z</time>
      </trkpt>
      <trkpt lat="44.49234" lon="0.70139">
        <ele>102</ele>
        <time>2018-07-22T14:44:37Z</time>
      </trkpt>
      <trkpt lat="44.49234" lon="0.70135">
        <ele>101.8</ele>
        <time>2018-07-22T14:44:39Z</time>
      </trkpt>
      <trkpt lat="44.49233" lon="0.70131">
        <ele>101.6</ele>
        <time>2018-07-22T14:44:41Z</time>
      </trkpt>
      <trkpt lat="44.49232" lon="0.70127">
        <ele>101.4</ele>
        <time>2018-07-22T14:44:43Z</time>
      </trkpt>
      <trkpt lat="44.49232" lon="0.70122">
        <ele>101.3</ele>
        <time>2018-07-22T14:44:46Z</time>
      </trkpt>
      <trkpt lat="44.49232" lon="0.70117">
        <ele>101.1</ele>
        <time>2018-07-22T14:44:48Z</time>
      </trkpt>
      <trkpt lat="44.49233" lon="0.70112">
        <ele>100.9</ele>
        <time>2018-07-22T14:44:50Z</time>
      </trkpt>
      <trkpt lat="44.49234" lon="0.70108">
        <ele>100.7</ele>
        <time>2018-07-22T14:44:52Z</time>
      </trkpt>
      <trkpt lat="44.49233" lon="0.70104">
        <ele>100.5</ele>
        <time>2018-07-22T14:44:54Z</time>
      </trkpt>
      <trkpt lat="44.49232" lon="0.70099">
        <ele>100.3</ele>
        <time>2018-07-22T14:44:56Z</time>
      </trkpt>
      <trkpt lat="44.49232" lon="0.70094">
        <ele>100.1</ele>
        <time>2018-07-22T14:44:58Z</time>
      </trkpt>
      <trkpt lat="44.49232" lon="0.70089">
        <ele>99.6</ele>
        <time>2018-07-22T14:45:00Z</time>
      </trkpt>
      <trkpt lat="44.49231" lon="0.70084">
        <ele>99.3</ele>
        <time>2018-07-22T14:45:02Z</time>
      </trkpt>
      <trkpt lat="44.4923" lon="0.7008">
        <ele>99.1</ele>
        <time>2018-07-22T14:45:04Z</time>
      </trkpt>
      <trkpt lat="44.49229" lon="0.70076">
        <ele>98.9</ele>
        <time>2018-07-22T14:45:06Z</time>
      </trkpt>
      <trkpt lat="44.49227" lon="0.70071">
        <ele>98.7</ele>
        <time>2018-07-22T14:45:08Z</time>
      </trkpt>
      <trkpt lat="44.49225" lon="0.70067">
        <ele>98.5</ele>
        <time>2018-07-22T14:45:10Z</time>
      </trkpt>
      <trkpt lat="44.49224" lon="0.70063">
        <ele>98.2</ele>
        <time>2018-07-22T14:45:12Z</time>
      </trkpt>
      <trkpt lat="44.49222" lon="0.70059">
        <ele>97.9</ele>
        <time>2018-07-22T14:45:14Z</time>
      </trkpt>
      <trkpt lat="44.4922" lon="0.70055">
        <ele>97.8</ele>
        <time>2018-07-22T14:45:16Z</time>
      </trkpt>
      <trkpt lat="44.49219" lon="0.7005">
        <ele>97.6</ele>
        <time>2018-07-22T14:45:18Z</time>
      </trkpt>
      <trkpt lat="44.49218" lon="0.70046">
        <ele>97.4</ele>
        <time>2018-07-22T14:45:20Z</time>
      </trkpt>
      <trkpt lat="44.49215" lon="0.70042">
        <ele>97.2</ele>
        <time>2018-07-22T14:45:22Z</time>
      </trkpt>
      <trkpt lat="44.49214" lon="0.70038">
        <ele>97.2</ele>
        <time>2018-07-22T14:45:24Z</time>
      </trkpt>
      <trkpt lat="44.49211" lon="0.70034">
        <ele>97</ele>
        <time>2018-07-22T14:45:26Z</time>
      </trkpt>
      <trkpt lat="44.49209" lon="0.7003">
        <ele>96.8</ele>
        <time>2018-07-22T14:45:28Z</time>
      </trkpt>
      <trkpt lat="44.49208" lon="0.70027">
        <ele>96.7</ele>
        <time>2018-07-22T14:45:30Z</time>
      </trkpt>
      <trkpt lat="44.49206" lon="0.70023">
        <ele>96.5</ele>
        <time>2018-07-22T14:45:32Z</time>
      </trkpt>
      <trkpt lat="44.49204" lon="0.70019">
        <ele>96.4</ele>
        <time>2018-07-22T14:45:34Z</time>
      </trkpt>
      <trkpt lat="44.49202" lon="0.70015">
        <ele>96.2</ele>
        <time>2018-07-22T14:45:36Z</time>
      </trkpt>
      <trkpt lat="44.492" lon="0.70012">
        <ele>96</ele>
        <time>2018-07-22T14:45:38Z</time>
      </trkpt>
      <trkpt lat="44.49198" lon="0.70008">
        <ele>96</ele>
        <time>2018-07-22T14:45:40Z</time>
      </trkpt>
      <trkpt lat="44.49196" lon="0.70005">
        <ele>95.8</ele>
        <time>2018-07-22T14:45:42Z</time>
      </trkpt>
      <trkpt lat="44.49194" lon="0.70002">
        <ele>95.7</ele>
        <time>2018-07-22T14:45:44Z</time>
      </trkpt>
      <trkpt lat="44.49192" lon="0.69998">
        <ele>95.6</ele>
        <time>2018-07-22T14:45:46Z</time>
      </trkpt>
      <trkpt lat="44.4919" lon="0.69994">
        <ele>95.4</ele>
        <time>2018-07-22T14:45:48Z</time>
      </trkpt>
      <trkpt lat="44.49188" lon="0.6999">
        <ele>95.3</ele>
        <time>2018-07-22T14:45:50Z</time>
      </trkpt>
      <trkpt lat="44.49186" lon="0.69986">
        <ele>95.2</ele>
        <time>2018-07-22T14:45:52Z</time>
      </trkpt>
      <trkpt lat="44.49184" lon="0.69981">
        <ele>95.1</ele>
        <time>2018-07-22T14:45:54Z</time>
      </trkpt>
      <trkpt lat="44.49183" lon="0.69977">
        <ele>95</ele>
        <time>2018-07-22T14:45:56Z</time>
      </trkpt>
      <trkpt lat="44.49181" lon="0.69974">
        <ele>94.9</ele>
        <time>2018-07-22T14:45:58Z</time>
      </trkpt>
      <trkpt lat="44.4918" lon="0.6997">
        <ele>94.8</ele>
        <time>2018-07-22T14:46:00Z</time>
      </trkpt>
      <trkpt lat="44.49179" lon="0.69965">
        <ele>94.7</ele>
        <time>2018-07-22T14:46:02Z</time>
      </trkpt>
      <trkpt lat="44.49177" lon="0.69962">
        <ele>94.6</ele>
        <time>2018-07-22T14:46:04Z</time>
      </trkpt>
      <trkpt lat="44.49175" lon="0.69959">
        <ele>94.4</ele>
        <time>2018-07-22T14:46:06Z</time>
      </trkpt>
      <trkpt lat="44.49172" lon="0.69956">
        <ele>94.2</ele>
        <time>2018-07-22T14:46:09Z</time>
      </trkpt>
      <trkpt lat="44.49169" lon="0.69953">
        <ele>94.2</ele>
        <time>2018-07-22T14:46:11Z</time>
      </trkpt>
      <trkpt lat="44.49166" lon="0.69951">
        <ele>94</ele>
        <time>2018-07-22T14:46:13Z</time>
      </trkpt>
      <trkpt lat="44.49164" lon="0.69948">
        <ele>94</ele>
        <time>2018-07-22T14:46:15Z</time>
      </trkpt>
      <trkpt lat="44.49162" lon="0.69946">
        <ele>93.8</ele>
        <time>2018-07-22T14:46:17Z</time>
      </trkpt>
      <trkpt lat="44.49159" lon="0.69943">
        <ele>93.6</ele>
        <time>2018-07-22T14:46:19Z</time>
      </trkpt>
      <trkpt lat="44.49157" lon="0.69941">
        <ele>93.5</ele>
        <time>2018-07-22T14:46:21Z</time>
      </trkpt>
      <trkpt lat="44.49154" lon="0.69938">
        <ele>93.3</ele>
        <time>2018-07-22T14:46:24Z</time>
      </trkpt>
      <trkpt lat="44.49151" lon="0.69935">
        <ele>93.2</ele>
        <time>2018-07-22T14:46:27Z</time>
      </trkpt>
      <trkpt lat="44.49149" lon="0.69933">
        <ele>93.1</ele>
        <time>2018-07-22T14:46:29Z</time>
      </trkpt>
      <trkpt lat="44.49146" lon="0.6993">
        <ele>92.9</ele>
        <time>2018-07-22T14:46:32Z</time>
      </trkpt>
      <trkpt lat="44.49144" lon="0.69928">
        <ele>92.8</ele>
        <time>2018-07-22T14:46:34Z</time>
      </trkpt>
      <trkpt lat="44.49141" lon="0.69925">
        <ele>92.5</ele>
        <time>2018-07-22T14:46:37Z</time>
      </trkpt>
      <trkpt lat="44.49138" lon="0.69922">
        <ele>92.5</ele>
        <time>2018-07-22T14:46:40Z</time>
      </trkpt>
      <trkpt lat="44.49135" lon="0.69919">
        <ele>92.5</ele>
        <time>2018-07-22T14:46:43Z</time>
      </trkpt>
      <trkpt lat="44.49133" lon="0.69916">
        <ele>92.4</ele>
        <time>2018-07-22T14:46:45Z</time>
      </trkpt>
      <trkpt lat="44.4913" lon="0.69913">
        <ele>92.4</ele>
        <time>2018-07-22T14:46:47Z</time>
      </trkpt>
      <trkpt lat="44.49127" lon="0.69911">
        <ele>92.4</ele>
        <time>2018-07-22T14:46:49Z</time>
      </trkpt>
      <trkpt lat="44.49125" lon="0.69908">
        <ele>92.4</ele>
        <time>2018-07-22T14:46:51Z</time>
      </trkpt>
      <trkpt lat="44.49123" lon="0.69905">
        <ele>92.3</ele>
        <time>2018-07-22T14:46:53Z</time>
      </trkpt>
      <trkpt lat="44.49122" lon="0.69901">
        <ele>92.3</ele>
        <time>2018-07-22T14:46:55Z</time>
      </trkpt>
      <trkpt lat="44.49121" lon="0.69898">
        <ele>92.3</ele>
        <time>2018-07-22T14:46:57Z</time>
      </trkpt>
      <trkpt lat="44.49119" lon="0.69895">
        <ele>92.3</ele>
        <time>2018-07-22T14:46:59Z</time>
      </trkpt>
      <trkpt lat="44.49116" lon="0.69893">
        <ele>92.2</ele>
        <time>2018-07-22T14:47:01Z</time>
      </trkpt>
      <trkpt lat="44.49112" lon="0.69892">
        <ele>92.2</ele>
        <time>2018-07-22T14:47:05Z</time>
      </trkpt>
      <trkpt lat="44.4911" lon="0.69892">
        <ele>92.2</ele>
        <time>2018-07-22T14:47:07Z</time>
      </trkpt>
      <trkpt lat="44.49106" lon="0.69891">
        <ele>92.1</ele>
        <time>2018-07-22T14:47:09Z</time>
      </trkpt>
      <trkpt lat="44.49103" lon="0.69888">
        <ele>92.1</ele>
        <time>2018-07-22T14:47:12Z</time>
      </trkpt>
      <trkpt lat="44.49101" lon="0.69885">
        <ele>92.1</ele>
        <time>2018-07-22T14:47:14Z</time>
      </trkpt>
      <trkpt lat="44.491" lon="0.69882">
        <ele>92.1</ele>
        <time>2018-07-22T14:47:16Z</time>
      </trkpt>
      <trkpt lat="44.49097" lon="0.69878">
        <ele>92</ele>
        <time>2018-07-22T14:47:20Z</time>
      </trkpt>
      <trkpt lat="44.49096" lon="0.69875">
        <ele>92</ele>
        <time>2018-07-22T14:47:22Z</time>
      </trkpt>
      <trkpt lat="44.49096" lon="0.69871">
        <ele>92</ele>
        <time>2018-07-22T14:47:28Z</time>
      </trkpt>
      <trkpt lat="44.49096" lon="0.69866">
        <ele>92</ele>
        <time>2018-07-22T14:47:32Z</time>
      </trkpt>
      <trkpt lat="44.49095" lon="0.69862">
        <ele>92.1</ele>
        <time>2018-07-22T14:47:36Z</time>
      </trkpt>
      <trkpt lat="44.49094" lon="0.69858">
        <ele>92.1</ele>
        <time>2018-07-22T14:47:38Z</time>
      </trkpt>
      <trkpt lat="44.49093" lon="0.69853">
        <ele>92.1</ele>
        <time>2018-07-22T14:47:41Z</time>
      </trkpt>
      <trkpt lat="44.49092" lon="0.69847">
        <ele>92.2</ele>
        <time>2018-07-22T14:47:44Z</time>
      </trkpt>
      <trkpt lat="44.49089" lon="0.69845">
        <ele>92.3</ele>
        <time>2018-07-22T14:47:46Z</time>
      </trkpt>
      <trkpt lat="44.49086" lon="0.69843">
        <ele>92.3</ele>
        <time>2018-07-22T14:47:48Z</time>
      </trkpt>
      <trkpt lat="44.49083" lon="0.69842">
        <ele>92.3</ele>
        <time>2018-07-22T14:47:50Z</time>
      </trkpt>
      <trkpt lat="44.4908" lon="0.69841">
        <ele>92.3</ele>
        <time>2018-07-22T14:47:52Z</time>
      </trkpt>
      <trkpt lat="44.49077" lon="0.6984">
        <ele>92.4</ele>
        <time>2018-07-22T14:47:54Z</time>
      </trkpt>
      <trkpt lat="44.49074" lon="0.6984">
        <ele>92.4</ele>
        <time>2018-07-22T14:47:56Z</time>
      </trkpt>
      <trkpt lat="44.49071" lon="0.69839">
        <ele>92.4</ele>
        <time>2018-07-22T14:47:58Z</time>
      </trkpt>
      <trkpt lat="44.49068" lon="0.69839">
        <ele>92.4</ele>
        <time>2018-07-22T14:48:00Z</time>
      </trkpt>
      <trkpt lat="44.49065" lon="0.69838">
        <ele>92.5</ele>
        <time>2018-07-22T14:48:02Z</time>
      </trkpt>
      <trkpt lat="44.49062" lon="0.69838">
        <ele>92.5</ele>
        <time>2018-07-22T14:48:04Z</time>
      </trkpt>
      <trkpt lat="44.49059" lon="0.69837">
        <ele>92.5</ele>
        <time>2018-07-22T14:48:06Z</time>
      </trkpt>
      <trkpt lat="44.49056" lon="0.69835">
        <ele>92.6</ele>
        <time>2018-07-22T14:48:08Z</time>
      </trkpt>
      <trkpt lat="44.49053" lon="0.69834">
        <ele>92.6</ele>
        <time>2018-07-22T14:48:10Z</time>
      </trkpt>
      <trkpt lat="44.4905" lon="0.69833">
        <ele>92.6</ele>
        <time>2018-07-22T14:48:12Z</time>
      </trkpt>
      <trkpt lat="44.49047" lon="0.69832">
        <ele>92.6</ele>
        <time>2018-07-22T14:48:14Z</time>
      </trkpt>
      <trkpt lat="44.49044" lon="0.69832">
        <ele>92.7</ele>
        <time>2018-07-22T14:48:16Z</time>
      </trkpt>
      <trkpt lat="44.49041" lon="0.69831">
        <ele>92.8</ele>
        <time>2018-07-22T14:48:18Z</time>
      </trkpt>
      <trkpt lat="44.49039" lon="0.69831">
        <ele>92.8</ele>
        <time>2018-07-22T14:48:20Z</time>
      </trkpt>
      <trkpt lat="44.49036" lon="0.6983">
        <ele>92.8</ele>
        <time>2018-07-22T14:48:22Z</time>
      </trkpt>
      <trkpt lat="44.49033" lon="0.69829">
        <ele>92.9</ele>
        <time>2018-07-22T14:48:24Z</time>
      </trkpt>
      <trkpt lat="44.4903" lon="0.69829">
        <ele>92.9</ele>
        <time>2018-07-22T14:48:26Z</time>
      </trkpt>
      <trkpt lat="44.49027" lon="0.69828">
        <ele>92.9</ele>
        <time>2018-07-22T14:48:28Z</time>
      </trkpt>
      <trkpt lat="44.49024" lon="0.69827">
        <ele>93.1</ele>
        <time>2018-07-22T14:48:30Z</time>
      </trkpt>
      <trkpt lat="44.49021" lon="0.69826">
        <ele>93.2</ele>
        <time>2018-07-22T14:48:32Z</time>
      </trkpt>
      <trkpt lat="44.49018" lon="0.69826">
        <ele>93.2</ele>
        <time>2018-07-22T14:48:34Z</time>
      </trkpt>
      <trkpt lat="44.49014" lon="0.69825">
        <ele>93.3</ele>
        <time>2018-07-22T14:48:37Z</time>
      </trkpt>
      <trkpt lat="44.49011" lon="0.69824">
        <ele>93.3</ele>
        <time>2018-07-22T14:48:39Z</time>
      </trkpt>
      <trkpt lat="44.49007" lon="0.69824">
        <ele>93.3</ele>
        <time>2018-07-22T14:48:42Z</time>
      </trkpt>
      <trkpt lat="44.49004" lon="0.69824">
        <ele>93.4</ele>
        <time>2018-07-22T14:48:44Z</time>
      </trkpt>
      <trkpt lat="44.49001" lon="0.69824">
        <ele>93.4</ele>
        <time>2018-07-22T14:48:47Z</time>
      </trkpt>
      <trkpt lat="44.48997" lon="0.69824">
        <ele>93.5</ele>
        <time>2018-07-22T14:48:49Z</time>
      </trkpt>
      <trkpt lat="44.48994" lon="0.69824">
        <ele>93.5</ele>
        <time>2018-07-22T14:48:51Z</time>
      </trkpt>
      <trkpt lat="44.48991" lon="0.69824">
        <ele>93.6</ele>
        <time>2018-07-22T14:48:53Z</time>
      </trkpt>
      <trkpt lat="44.48988" lon="0.69823">
        <ele>93.7</ele>
        <time>2018-07-22T14:48:55Z</time>
      </trkpt>
      <trkpt lat="44.48984" lon="0.69822">
        <ele>93.9</ele>
        <time>2018-07-22T14:48:58Z</time>
      </trkpt>
      <trkpt lat="44.48982" lon="0.69822">
        <ele>94</ele>
        <time>2018-07-22T14:49:00Z</time>
      </trkpt>
      <trkpt lat="44.48979" lon="0.69821">
        <ele>94.1</ele>
        <time>2018-07-22T14:49:02Z</time>
      </trkpt>
      <trkpt lat="44.48976" lon="0.6982">
        <ele>94.2</ele>
        <time>2018-07-22T14:49:04Z</time>
      </trkpt>
      <trkpt lat="44.48973" lon="0.69819">
        <ele>94.5</ele>
        <time>2018-07-22T14:49:06Z</time>
      </trkpt>
      <trkpt lat="44.4897" lon="0.69818">
        <ele>94.6</ele>
        <time>2018-07-22T14:49:08Z</time>
      </trkpt>
      <trkpt lat="44.48967" lon="0.69817">
        <ele>94.6</ele>
        <time>2018-07-22T14:49:10Z</time>
      </trkpt>
      <trkpt lat="44.48964" lon="0.69815">
        <ele>94.7</ele>
        <time>2018-07-22T14:49:13Z</time>
      </trkpt>
      <trkpt lat="44.48961" lon="0.69814">
        <ele>95.1</ele>
        <time>2018-07-22T14:49:15Z</time>
      </trkpt>
      <trkpt lat="44.48958" lon="0.69812">
        <ele>95.1</ele>
        <time>2018-07-22T14:49:17Z</time>
      </trkpt>
      <trkpt lat="44.48955" lon="0.69811">
        <ele>95.2</ele>
        <time>2018-07-22T14:49:19Z</time>
      </trkpt>
      <trkpt lat="44.48952" lon="0.69809">
        <ele>95.6</ele>
        <time>2018-07-22T14:49:21Z</time>
      </trkpt>
      <trkpt lat="44.48949" lon="0.69807">
        <ele>95.6</ele>
        <time>2018-07-22T14:49:23Z</time>
      </trkpt>
      <trkpt lat="44.48946" lon="0.69805">
        <ele>96</ele>
        <time>2018-07-22T14:49:25Z</time>
      </trkpt>
      <trkpt lat="44.48944" lon="0.69803">
        <ele>96</ele>
        <time>2018-07-22T14:49:27Z</time>
      </trkpt>
      <trkpt lat="44.4894" lon="0.698">
        <ele>96.4</ele>
        <time>2018-07-22T14:49:30Z</time>
      </trkpt>
      <trkpt lat="44.48938" lon="0.69798">
        <ele>96.5</ele>
        <time>2018-07-22T14:49:32Z</time>
      </trkpt>
      <trkpt lat="44.48935" lon="0.69795">
        <ele>96.8</ele>
        <time>2018-07-22T14:49:34Z</time>
      </trkpt>
      <trkpt lat="44.48933" lon="0.69792">
        <ele>97.2</ele>
        <time>2018-07-22T14:49:36Z</time>
      </trkpt>
      <trkpt lat="44.4893" lon="0.6979">
        <ele>97.3</ele>
        <time>2018-07-22T14:49:39Z</time>
      </trkpt>
      <trkpt lat="44.48927" lon="0.69785">
        <ele>97.7</ele>
        <time>2018-07-22T14:49:42Z</time>
      </trkpt>
      <trkpt lat="44.48924" lon="0.69781">
        <ele>98.1</ele>
        <time>2018-07-22T14:49:45Z</time>
      </trkpt>
      <trkpt lat="44.48922" lon="0.69779">
        <ele>98.5</ele>
        <time>2018-07-22T14:49:47Z</time>
      </trkpt>
      <trkpt lat="44.4892" lon="0.69777">
        <ele>98.6</ele>
        <time>2018-07-22T14:49:49Z</time>
      </trkpt>
      <trkpt lat="44.48918" lon="0.69774">
        <ele>99</ele>
        <time>2018-07-22T14:49:51Z</time>
      </trkpt>
      <trkpt lat="44.48915" lon="0.69772">
        <ele>99.1</ele>
        <time>2018-07-22T14:49:53Z</time>
      </trkpt>
      <trkpt lat="44.48912" lon="0.69768">
        <ele>99.5</ele>
        <time>2018-07-22T14:49:56Z</time>
      </trkpt>
      <trkpt lat="44.4891" lon="0.69766">
        <ele>99.7</ele>
        <time>2018-07-22T14:49:58Z</time>
      </trkpt>
      <trkpt lat="44.48907" lon="0.69762">
        <ele>100</ele>
        <time>2018-07-22T14:50:01Z</time>
      </trkpt>
      <trkpt lat="44.48905" lon="0.69759">
        <ele>100.1</ele>
        <time>2018-07-22T14:50:03Z</time>
      </trkpt>
      <trkpt lat="44.48902" lon="0.69757">
        <ele>100.4</ele>
        <time>2018-07-22T14:50:05Z</time>
      </trkpt>
      <trkpt lat="44.489" lon="0.69754">
        <ele>100.7</ele>
        <time>2018-07-22T14:50:07Z</time>
      </trkpt>
      <trkpt lat="44.48898" lon="0.69752">
        <ele>100.8</ele>
        <time>2018-07-22T14:50:09Z</time>
      </trkpt>
      <trkpt lat="44.48895" lon="0.69748">
        <ele>101</ele>
        <time>2018-07-22T14:50:12Z</time>
      </trkpt>
      <trkpt lat="44.48893" lon="0.69743">
        <ele>101.3</ele>
        <time>2018-07-22T14:50:15Z</time>
      </trkpt>
      <trkpt lat="44.48892" lon="0.6974">
        <ele>101.5</ele>
        <time>2018-07-22T14:50:17Z</time>
      </trkpt>
      <trkpt lat="44.4889" lon="0.69737">
        <ele>101.8</ele>
        <time>2018-07-22T14:50:19Z</time>
      </trkpt>
      <trkpt lat="44.48888" lon="0.69733">
        <ele>101.8</ele>
        <time>2018-07-22T14:50:22Z</time>
      </trkpt>
      <trkpt lat="44.48886" lon="0.69729">
        <ele>102</ele>
        <time>2018-07-22T14:50:25Z</time>
      </trkpt>
      <trkpt lat="44.48883" lon="0.69725">
        <ele>102.2</ele>
        <time>2018-07-22T14:50:28Z</time>
      </trkpt>
      <trkpt lat="44.48881" lon="0.69721">
        <ele>102.4</ele>
        <time>2018-07-22T14:50:31Z</time>
      </trkpt>
      <trkpt lat="44.48878" lon="0.69716">
        <ele>102.6</ele>
        <time>2018-07-22T14:50:34Z</time>
      </trkpt>
      <trkpt lat="44.48876" lon="0.69712">
        <ele>102.8</ele>
        <time>2018-07-22T14:50:37Z</time>
      </trkpt>
      <trkpt lat="44.48874" lon="0.69709">
        <ele>103</ele>
        <time>2018-07-22T14:50:39Z</time>
      </trkpt>
      <trkpt lat="44.48872" lon="0.69706">
        <ele>103.2</ele>
        <time>2018-07-22T14:50:42Z</time>
      </trkpt>
      <trkpt lat="44.4887" lon="0.69702">
        <ele>103.4</ele>
        <time>2018-07-22T14:50:45Z</time>
      </trkpt>
      <trkpt lat="44.48867" lon="0.69698">
        <ele>103.5</ele>
        <time>2018-07-22T14:50:48Z</time>
      </trkpt>
      <trkpt lat="44.48865" lon="0.69695">
        <ele>103.5</ele>
        <time>2018-07-22T14:50:50Z</time>
      </trkpt>
      <trkpt lat="44.48862" lon="0.69691">
        <ele>103.7</ele>
        <time>2018-07-22T14:50:53Z</time>
      </trkpt>
      <trkpt lat="44.48859" lon="0.69688">
        <ele>103.8</ele>
        <time>2018-07-22T14:50:56Z</time>
      </trkpt>
      <trkpt lat="44.48857" lon="0.69685">
        <ele>103.9</ele>
        <time>2018-07-22T14:50:59Z</time>
      </trkpt>
      <trkpt lat="44.48854" lon="0.69681">
        <ele>104</ele>
        <time>2018-07-22T14:51:02Z</time>
      </trkpt>
      <trkpt lat="44.48852" lon="0.69679">
        <ele>104.1</ele>
        <time>2018-07-22T14:51:04Z</time>
      </trkpt>
      <trkpt lat="44.48849" lon="0.69675">
        <ele>104.1</ele>
        <time>2018-07-22T14:51:07Z</time>
      </trkpt>
      <trkpt lat="44.48846" lon="0.6967">
        <ele>104.4</ele>
        <time>2018-07-22T14:51:10Z</time>
      </trkpt>
      <trkpt lat="44.48844" lon="0.69666">
        <ele>104.5</ele>
        <time>2018-07-22T14:51:13Z</time>
      </trkpt>
      <trkpt lat="44.48843" lon="0.69661">
        <ele>104.7</ele>
        <time>2018-07-22T14:51:16Z</time>
      </trkpt>
      <trkpt lat="44.48842" lon="0.69656">
        <ele>104.9</ele>
        <time>2018-07-22T14:51:19Z</time>
      </trkpt>
      <trkpt lat="44.48844" lon="0.69651">
        <ele>105.1</ele>
        <time>2018-07-22T14:51:22Z</time>
      </trkpt>
      <trkpt lat="44.48846" lon="0.69646">
        <ele>105.3</ele>
        <time>2018-07-22T14:51:25Z</time>
      </trkpt>
      <trkpt lat="44.48847" lon="0.69643">
        <ele>105.5</ele>
        <time>2018-07-22T14:51:27Z</time>
      </trkpt>
      <trkpt lat="44.48848" lon="0.69639">
        <ele>105.6</ele>
        <time>2018-07-22T14:51:29Z</time>
      </trkpt>
      <trkpt lat="44.4885" lon="0.69635">
        <ele>105.7</ele>
        <time>2018-07-22T14:51:31Z</time>
      </trkpt>
      <trkpt lat="44.48851" lon="0.6963">
        <ele>105.9</ele>
        <time>2018-07-22T14:51:34Z</time>
      </trkpt>
      <trkpt lat="44.48853" lon="0.69625">
        <ele>106.1</ele>
        <time>2018-07-22T14:51:37Z</time>
      </trkpt>
      <trkpt lat="44.48854" lon="0.69622">
        <ele>106.2</ele>
        <time>2018-07-22T14:51:39Z</time>
      </trkpt>
      <trkpt lat="44.48855" lon="0.69618">
        <ele>106.4</ele>
        <time>2018-07-22T14:51:41Z</time>
      </trkpt>
      <trkpt lat="44.48856" lon="0.69613">
        <ele>106.6</ele>
        <time>2018-07-22T14:51:44Z</time>
      </trkpt>
      <trkpt lat="44.48857" lon="0.69608">
        <ele>106.7</ele>
        <time>2018-07-22T14:51:47Z</time>
      </trkpt>
      <trkpt lat="44.48858" lon="0.69602">
        <ele>106.9</ele>
        <time>2018-07-22T14:51:50Z</time>
      </trkpt>
      <trkpt lat="44.48859" lon="0.69597">
        <ele>107.1</ele>
        <time>2018-07-22T14:51:53Z</time>
      </trkpt>
      <trkpt lat="44.4886" lon="0.69592">
        <ele>107.3</ele>
        <time>2018-07-22T14:51:56Z</time>
      </trkpt>
      <trkpt lat="44.48861" lon="0.69587">
        <ele>107.4</ele>
        <time>2018-07-22T14:51:59Z</time>
      </trkpt>
      <trkpt lat="44.48862" lon="0.69583">
        <ele>107.5</ele>
        <time>2018-07-22T14:52:01Z</time>
      </trkpt>
      <trkpt lat="44.48864" lon="0.69578">
        <ele>107.7</ele>
        <time>2018-07-22T14:52:04Z</time>
      </trkpt>
      <trkpt lat="44.48866" lon="0.69575">
        <ele>107.8</ele>
        <time>2018-07-22T14:52:06Z</time>
      </trkpt>
      <trkpt lat="44.48868" lon="0.69572">
        <ele>107.9</ele>
        <time>2018-07-22T14:52:08Z</time>
      </trkpt>
      <trkpt lat="44.48869" lon="0.69568">
        <ele>108.1</ele>
        <time>2018-07-22T14:52:10Z</time>
      </trkpt>
      <trkpt lat="44.48871" lon="0.69564">
        <ele>108.2</ele>
        <time>2018-07-22T14:52:13Z</time>
      </trkpt>
      <trkpt lat="44.48872" lon="0.69559">
        <ele>108.4</ele>
        <time>2018-07-22T14:52:16Z</time>
      </trkpt>
      <trkpt lat="44.48874" lon="0.69554">
        <ele>108.5</ele>
        <time>2018-07-22T14:52:19Z</time>
      </trkpt>
      <trkpt lat="44.48876" lon="0.6955">
        <ele>108.7</ele>
        <time>2018-07-22T14:52:22Z</time>
      </trkpt>
      <trkpt lat="44.48878" lon="0.69546">
        <ele>108.8</ele>
        <time>2018-07-22T14:52:25Z</time>
      </trkpt>
      <trkpt lat="44.48881" lon="0.69543">
        <ele>109</ele>
        <time>2018-07-22T14:52:27Z</time>
      </trkpt>
      <trkpt lat="44.48884" lon="0.69541">
        <ele>109.1</ele>
        <time>2018-07-22T14:52:29Z</time>
      </trkpt>
      <trkpt lat="44.48887" lon="0.69537">
        <ele>109.2</ele>
        <time>2018-07-22T14:52:32Z</time>
      </trkpt>
      <trkpt lat="44.4889" lon="0.69535">
        <ele>109.3</ele>
        <time>2018-07-22T14:52:34Z</time>
      </trkpt>
      <trkpt lat="44.48893" lon="0.69533">
        <ele>109.5</ele>
        <time>2018-07-22T14:52:36Z</time>
      </trkpt>
      <trkpt lat="44.48896" lon="0.6953">
        <ele>109.6</ele>
        <time>2018-07-22T14:52:38Z</time>
      </trkpt>
      <trkpt lat="44.48898" lon="0.69527">
        <ele>109.7</ele>
        <time>2018-07-22T14:52:40Z</time>
      </trkpt>
      <trkpt lat="44.48901" lon="0.69525">
        <ele>109.9</ele>
        <time>2018-07-22T14:52:42Z</time>
      </trkpt>
      <trkpt lat="44.48903" lon="0.69522">
        <ele>110</ele>
        <time>2018-07-22T14:52:44Z</time>
      </trkpt>
      <trkpt lat="44.48905" lon="0.69519">
        <ele>110.1</ele>
        <time>2018-07-22T14:52:46Z</time>
      </trkpt>
      <trkpt lat="44.48908" lon="0.69515">
        <ele>110.2</ele>
        <time>2018-07-22T14:52:49Z</time>
      </trkpt>
      <trkpt lat="44.4891" lon="0.69511">
        <ele>110.4</ele>
        <time>2018-07-22T14:52:52Z</time>
      </trkpt>
      <trkpt lat="44.48911" lon="0.69508">
        <ele>110.5</ele>
        <time>2018-07-22T14:52:54Z</time>
      </trkpt>
      <trkpt lat="44.48913" lon="0.69503">
        <ele>110.6</ele>
        <time>2018-07-22T14:52:57Z</time>
      </trkpt>
      <trkpt lat="44.48914" lon="0.69499">
        <ele>110.8</ele>
        <time>2018-07-22T14:53:00Z</time>
      </trkpt>
      <trkpt lat="44.48916" lon="0.69494">
        <ele>110.9</ele>
        <time>2018-07-22T14:53:03Z</time>
      </trkpt>
      <trkpt lat="44.48919" lon="0.6949">
        <ele>111.1</ele>
        <time>2018-07-22T14:53:06Z</time>
      </trkpt>
      <trkpt lat="44.48921" lon="0.69486">
        <ele>111.2</ele>
        <time>2018-07-22T14:53:09Z</time>
      </trkpt>
      <trkpt lat="44.48923" lon="0.69481">
        <ele>111.3</ele>
        <time>2018-07-22T14:53:12Z</time>
      </trkpt>
      <trkpt lat="44.48925" lon="0.69477">
        <ele>111.4</ele>
        <time>2018-07-22T14:53:14Z</time>
      </trkpt>
      <trkpt lat="44.48926" lon="0.69473">
        <ele>111.5</ele>
        <time>2018-07-22T14:53:16Z</time>
      </trkpt>
      <trkpt lat="44.48927" lon="0.69469">
        <ele>111.6</ele>
        <time>2018-07-22T14:53:18Z</time>
      </trkpt>
      <trkpt lat="44.48929" lon="0.69464">
        <ele>111.8</ele>
        <time>2018-07-22T14:53:21Z</time>
      </trkpt>
      <trkpt lat="44.48931" lon="0.69459">
        <ele>111.9</ele>
        <time>2018-07-22T14:53:24Z</time>
      </trkpt>
      <trkpt lat="44.48932" lon="0.69456">
        <ele>112</ele>
        <time>2018-07-22T14:53:26Z</time>
      </trkpt>
      <trkpt lat="44.48934" lon="0.69451">
        <ele>112.1</ele>
        <time>2018-07-22T14:53:29Z</time>
      </trkpt>
      <trkpt lat="44.48935" lon="0.69446">
        <ele>112.2</ele>
        <time>2018-07-22T14:53:32Z</time>
      </trkpt>
      <trkpt lat="44.48937" lon="0.69442">
        <ele>112.3</ele>
        <time>2018-07-22T14:53:34Z</time>
      </trkpt>
      <trkpt lat="44.48939" lon="0.69439">
        <ele>112.4</ele>
        <time>2018-07-22T14:53:36Z</time>
      </trkpt>
      <trkpt lat="44.48941" lon="0.69436">
        <ele>112.5</ele>
        <time>2018-07-22T14:53:38Z</time>
      </trkpt>
      <trkpt lat="44.48943" lon="0.69433">
        <ele>112.6</ele>
        <time>2018-07-22T14:53:40Z</time>
      </trkpt>
      <trkpt lat="44.48944" lon="0.6943">
        <ele>112.7</ele>
        <time>2018-07-22T14:53:42Z</time>
      </trkpt>
      <trkpt lat="44.48946" lon="0.69426">
        <ele>112.8</ele>
        <time>2018-07-22T14:53:44Z</time>
      </trkpt>
      <trkpt lat="44.48947" lon="0.69421">
        <ele>112.9</ele>
        <time>2018-07-22T14:53:47Z</time>
      </trkpt>
      <trkpt lat="44.48949" lon="0.69416">
        <ele>113</ele>
        <time>2018-07-22T14:53:50Z</time>
      </trkpt>
      <trkpt lat="44.4895" lon="0.69413">
        <ele>113.1</ele>
        <time>2018-07-22T14:53:52Z</time>
      </trkpt>
      <trkpt lat="44.48951" lon="0.69407">
        <ele>113.2</ele>
        <time>2018-07-22T14:53:55Z</time>
      </trkpt>
      <trkpt lat="44.48952" lon="0.69404">
        <ele>113.3</ele>
        <time>2018-07-22T14:53:57Z</time>
      </trkpt>
      <trkpt lat="44.48954" lon="0.694">
        <ele>113.4</ele>
        <time>2018-07-22T14:53:59Z</time>
      </trkpt>
      <trkpt lat="44.48955" lon="0.69396">
        <ele>113.5</ele>
        <time>2018-07-22T14:54:01Z</time>
      </trkpt>
      <trkpt lat="44.48956" lon="0.69392">
        <ele>113.6</ele>
        <time>2018-07-22T14:54:03Z</time>
      </trkpt>
      <trkpt lat="44.48958" lon="0.69389">
        <ele>113.7</ele>
        <time>2018-07-22T14:54:05Z</time>
      </trkpt>
      <trkpt lat="44.4896" lon="0.69385">
        <ele>113.8</ele>
        <time>2018-07-22T14:54:07Z</time>
      </trkpt>
      <trkpt lat="44.48961" lon="0.69382">
        <ele>113.9</ele>
        <time>2018-07-22T14:54:09Z</time>
      </trkpt>
      <trkpt lat="44.48963" lon="0.69378">
        <ele>114</ele>
        <time>2018-07-22T14:54:11Z</time>
      </trkpt>
      <trkpt lat="44.48965" lon="0.69374">
        <ele>114.2</ele>
        <time>2018-07-22T14:54:13Z</time>
      </trkpt>
      <trkpt lat="44.48966" lon="0.69371">
        <ele>114.3</ele>
        <time>2018-07-22T14:54:15Z</time>
      </trkpt>
      <trkpt lat="44.48967" lon="0.69367">
        <ele>114.4</ele>
        <time>2018-07-22T14:54:17Z</time>
      </trkpt>
      <trkpt lat="44.48968" lon="0.69363">
        <ele>114.5</ele>
        <time>2018-07-22T14:54:19Z</time>
      </trkpt>
      <trkpt lat="44.48969" lon="0.69359">
        <ele>114.6</ele>
        <time>2018-07-22T14:54:21Z</time>
      </trkpt>
      <trkpt lat="44.48971" lon="0.69355">
        <ele>114.7</ele>
        <time>2018-07-22T14:54:23Z</time>
      </trkpt>
      <trkpt lat="44.48972" lon="0.69352">
        <ele>114.8</ele>
        <time>2018-07-22T14:54:25Z</time>
      </trkpt>
      <trkpt lat="44.48974" lon="0.69349">
        <ele>114.9</ele>
        <time>2018-07-22T14:54:27Z</time>
      </trkpt>
      <trkpt lat="44.48976" lon="0.69345">
        <ele>115</ele>
        <time>2018-07-22T14:54:29Z</time>
      </trkpt>
      <trkpt lat="44.48977" lon="0.69342">
        <ele>115.1</ele>
        <time>2018-07-22T14:54:31Z</time>
      </trkpt>
      <trkpt lat="44.48978" lon="0.69338">
        <ele>115.2</ele>
        <time>2018-07-22T14:54:33Z</time>
      </trkpt>
      <trkpt lat="44.4898" lon="0.69334">
        <ele>115.3</ele>
        <time>2018-07-22T14:54:35Z</time>
      </trkpt>
      <trkpt lat="44.48981" lon="0.69331">
        <ele>115.5</ele>
        <time>2018-07-22T14:54:37Z</time>
      </trkpt>
      <trkpt lat="44.48983" lon="0.69327">
        <ele>115.6</ele>
        <time>2018-07-22T14:54:39Z</time>
      </trkpt>
      <trkpt lat="44.48984" lon="0.69324">
        <ele>115.7</ele>
        <time>2018-07-22T14:54:41Z</time>
      </trkpt>
      <trkpt lat="44.48986" lon="0.69319">
        <ele>115.9</ele>
        <time>2018-07-22T14:54:44Z</time>
      </trkpt>
      <trkpt lat="44.48987" lon="0.69315">
        <ele>116.1</ele>
        <time>2018-07-22T14:54:46Z</time>
      </trkpt>
      <trkpt lat="44.48988" lon="0.69311">
        <ele>116.2</ele>
        <time>2018-07-22T14:54:48Z</time>
      </trkpt>
      <trkpt lat="44.4899" lon="0.69308">
        <ele>116.4</ele>
        <time>2018-07-22T14:54:50Z</time>
      </trkpt>
      <trkpt lat="44.48992" lon="0.69304">
        <ele>116.5</ele>
        <time>2018-07-22T14:54:52Z</time>
      </trkpt>
      <trkpt lat="44.48993" lon="0.69301">
        <ele>116.7</ele>
        <time>2018-07-22T14:54:54Z</time>
      </trkpt>
      <trkpt lat="44.48995" lon="0.69298">
        <ele>116.8</ele>
        <time>2018-07-22T14:54:56Z</time>
      </trkpt>
      <trkpt lat="44.48998" lon="0.69294">
        <ele>117</ele>
        <time>2018-07-22T14:54:59Z</time>
      </trkpt>
      <trkpt lat="44.49" lon="0.69291">
        <ele>117.1</ele>
        <time>2018-07-22T14:55:01Z</time>
      </trkpt>
      <trkpt lat="44.49003" lon="0.69288">
        <ele>117.2</ele>
        <time>2018-07-22T14:55:03Z</time>
      </trkpt>
      <trkpt lat="44.49005" lon="0.69286">
        <ele>117.4</ele>
        <time>2018-07-22T14:55:05Z</time>
      </trkpt>
      <trkpt lat="44.49007" lon="0.69283">
        <ele>117.5</ele>
        <time>2018-07-22T14:55:07Z</time>
      </trkpt>
      <trkpt lat="44.49009" lon="0.6928">
        <ele>117.7</ele>
        <time>2018-07-22T14:55:09Z</time>
      </trkpt>
      <trkpt lat="44.49011" lon="0.69277">
        <ele>117.8</ele>
        <time>2018-07-22T14:55:11Z</time>
      </trkpt>
      <trkpt lat="44.49012" lon="0.69274">
        <ele>117.9</ele>
        <time>2018-07-22T14:55:13Z</time>
      </trkpt>
      <trkpt lat="44.49014" lon="0.69271">
        <ele>118.1</ele>
        <time>2018-07-22T14:55:15Z</time>
      </trkpt>
      <trkpt lat="44.49016" lon="0.69267">
        <ele>118.2</ele>
        <time>2018-07-22T14:55:17Z</time>
      </trkpt>
      <trkpt lat="44.49017" lon="0.69264">
        <ele>118.3</ele>
        <time>2018-07-22T14:55:19Z</time>
      </trkpt>
      <trkpt lat="44.49019" lon="0.6926">
        <ele>118.5</ele>
        <time>2018-07-22T14:55:21Z</time>
      </trkpt>
      <trkpt lat="44.4902" lon="0.69257">
        <ele>118.6</ele>
        <time>2018-07-22T14:55:23Z</time>
      </trkpt>
      <trkpt lat="44.49021" lon="0.69253">
        <ele>118.8</ele>
        <time>2018-07-22T14:55:25Z</time>
      </trkpt>
      <trkpt lat="44.49023" lon="0.6925">
        <ele>118.9</ele>
        <time>2018-07-22T14:55:27Z</time>
      </trkpt>
      <trkpt lat="44.49024" lon="0.69246">
        <ele>119</ele>
        <time>2018-07-22T14:55:29Z</time>
      </trkpt>
      <trkpt lat="44.49025" lon="0.69242">
        <ele>119.2</ele>
        <time>2018-07-22T14:55:31Z</time>
      </trkpt>
      <trkpt lat="44.49026" lon="0.69239">
        <ele>119.4</ele>
        <time>2018-07-22T14:55:33Z</time>
      </trkpt>
      <trkpt lat="44.49027" lon="0.69234">
        <ele>119.5</ele>
        <time>2018-07-22T14:55:36Z</time>
      </trkpt>
      <trkpt lat="44.49029" lon="0.69231">
        <ele>119.6</ele>
        <time>2018-07-22T14:55:38Z</time>
      </trkpt>
      <trkpt lat="44.4903" lon="0.69227">
        <ele>119.7</ele>
        <time>2018-07-22T14:55:40Z</time>
      </trkpt>
      <trkpt lat="44.49032" lon="0.69223">
        <ele>119.8</ele>
        <time>2018-07-22T14:55:42Z</time>
      </trkpt>
      <trkpt lat="44.49033" lon="0.69219">
        <ele>120</ele>
        <time>2018-07-22T14:55:44Z</time>
      </trkpt>
      <trkpt lat="44.49034" lon="0.69215">
        <ele>120.1</ele>
        <time>2018-07-22T14:55:46Z</time>
      </trkpt>
      <trkpt lat="44.49035" lon="0.6921">
        <ele>120.3</ele>
        <time>2018-07-22T14:55:49Z</time>
      </trkpt>
      <trkpt lat="44.49036" lon="0.69204">
        <ele>120.4</ele>
        <time>2018-07-22T14:55:52Z</time>
      </trkpt>
      <trkpt lat="44.49036" lon="0.69199">
        <ele>120.5</ele>
        <time>2018-07-22T14:55:55Z</time>
      </trkpt>
      <trkpt lat="44.49037" lon="0.69195">
        <ele>120.6</ele>
        <time>2018-07-22T14:55:57Z</time>
      </trkpt>
      <trkpt lat="44.49038" lon="0.6919">
        <ele>120.7</ele>
        <time>2018-07-22T14:56:00Z</time>
      </trkpt>
      <trkpt lat="44.4904" lon="0.69186">
        <ele>120.8</ele>
        <time>2018-07-22T14:56:03Z</time>
      </trkpt>
      <trkpt lat="44.49043" lon="0.69182">
        <ele>121</ele>
        <time>2018-07-22T14:56:06Z</time>
      </trkpt>
      <trkpt lat="44.49045" lon="0.6918">
        <ele>121</ele>
        <time>2018-07-22T14:56:08Z</time>
      </trkpt>
      <trkpt lat="44.49047" lon="0.69178">
        <ele>121.1</ele>
        <time>2018-07-22T14:56:10Z</time>
      </trkpt>
      <trkpt lat="44.4905" lon="0.69175">
        <ele>121.2</ele>
        <time>2018-07-22T14:56:12Z</time>
      </trkpt>
      <trkpt lat="44.49052" lon="0.69172">
        <ele>121.3</ele>
        <time>2018-07-22T14:56:14Z</time>
      </trkpt>
      <trkpt lat="44.49053" lon="0.69167">
        <ele>121.4</ele>
        <time>2018-07-22T14:56:17Z</time>
      </trkpt>
      <trkpt lat="44.49055" lon="0.69163">
        <ele>121.9</ele>
        <time>2018-07-22T14:56:20Z</time>
      </trkpt>
      <trkpt lat="44.49057" lon="0.69159">
        <ele>122.4</ele>
        <time>2018-07-22T14:56:23Z</time>
      </trkpt>
      <trkpt lat="44.4906" lon="0.69155">
        <ele>122.5</ele>
        <time>2018-07-22T14:56:26Z</time>
      </trkpt>
      <trkpt lat="44.49062" lon="0.69152">
        <ele>123</ele>
        <time>2018-07-22T14:56:29Z</time>
      </trkpt>
      <trkpt lat="44.49064" lon="0.69149">
        <ele>123.6</ele>
        <time>2018-07-22T14:56:32Z</time>
      </trkpt>
      <trkpt lat="44.49068" lon="0.69148">
        <ele>124.1</ele>
        <time>2018-07-22T14:56:36Z</time>
      </trkpt>
      <trkpt lat="44.4907" lon="0.69144">
        <ele>124.6</ele>
        <time>2018-07-22T14:56:39Z</time>
      </trkpt>
      <trkpt lat="44.49073" lon="0.69142">
        <ele>125.1</ele>
        <time>2018-07-22T14:56:41Z</time>
      </trkpt>
      <trkpt lat="44.49077" lon="0.69142">
        <ele>125.6</ele>
        <time>2018-07-22T14:56:44Z</time>
      </trkpt>
      <trkpt lat="44.4908" lon="0.6914">
        <ele>126.1</ele>
        <time>2018-07-22T14:56:47Z</time>
      </trkpt>
      <trkpt lat="44.49084" lon="0.6914">
        <ele>126.7</ele>
        <time>2018-07-22T14:56:50Z</time>
      </trkpt>
      <trkpt lat="44.49087" lon="0.6914">
        <ele>127.2</ele>
        <time>2018-07-22T14:56:53Z</time>
      </trkpt>
      <trkpt lat="44.49091" lon="0.69139">
        <ele>128.2</ele>
        <time>2018-07-22T14:56:56Z</time>
      </trkpt>
      <trkpt lat="44.49093" lon="0.69138">
        <ele>128.6</ele>
        <time>2018-07-22T14:56:58Z</time>
      </trkpt>
      <trkpt lat="44.49097" lon="0.69136">
        <ele>129.2</ele>
        <time>2018-07-22T14:57:01Z</time>
      </trkpt>
      <trkpt lat="44.49099" lon="0.69133">
        <ele>129.2</ele>
        <time>2018-07-22T14:57:03Z</time>
      </trkpt>
      <trkpt lat="44.49101" lon="0.6913">
        <ele>129.8</ele>
        <time>2018-07-22T14:57:07Z</time>
      </trkpt>
      <trkpt lat="44.49103" lon="0.69127">
        <ele>130.4</ele>
        <time>2018-07-22T14:57:10Z</time>
      </trkpt>
      <trkpt lat="44.49106" lon="0.69124">
        <ele>131.1</ele>
        <time>2018-07-22T14:57:13Z</time>
      </trkpt>
      <trkpt lat="44.49109" lon="0.69121">
        <ele>131.7</ele>
        <time>2018-07-22T14:57:16Z</time>
      </trkpt>
      <trkpt lat="44.49112" lon="0.69118">
        <ele>132.5</ele>
        <time>2018-07-22T14:57:19Z</time>
      </trkpt>
      <trkpt lat="44.49115" lon="0.69114">
        <ele>132.6</ele>
        <time>2018-07-22T14:57:22Z</time>
      </trkpt>
      <trkpt lat="44.49116" lon="0.6911">
        <ele>133.4</ele>
        <time>2018-07-22T14:57:25Z</time>
      </trkpt>
      <trkpt lat="44.49118" lon="0.69106">
        <ele>134.2</ele>
        <time>2018-07-22T14:57:28Z</time>
      </trkpt>
      <trkpt lat="44.49119" lon="0.69101">
        <ele>134.4</ele>
        <time>2018-07-22T14:57:31Z</time>
      </trkpt>
      <trkpt lat="44.4912" lon="0.69097">
        <ele>134.5</ele>
        <time>2018-07-22T14:57:34Z</time>
      </trkpt>
      <trkpt lat="44.49121" lon="0.69092">
        <ele>135.2</ele>
        <time>2018-07-22T14:57:37Z</time>
      </trkpt>
      <trkpt lat="44.49122" lon="0.69089">
        <ele>135.3</ele>
        <time>2018-07-22T14:57:40Z</time>
      </trkpt>
      <trkpt lat="44.49126" lon="0.69087">
        <ele>135.8</ele>
        <time>2018-07-22T14:57:43Z</time>
      </trkpt>
      <trkpt lat="44.49128" lon="0.69085">
        <ele>136.4</ele>
        <time>2018-07-22T14:57:46Z</time>
      </trkpt>
      <trkpt lat="44.49131" lon="0.69081">
        <ele>137</ele>
        <time>2018-07-22T14:57:49Z</time>
      </trkpt>
      <trkpt lat="44.49132" lon="0.69077">
        <ele>137</ele>
        <time>2018-07-22T14:57:52Z</time>
      </trkpt>
      <trkpt lat="44.49133" lon="0.69073">
        <ele>137.6</ele>
        <time>2018-07-22T14:57:55Z</time>
      </trkpt>
      <trkpt lat="44.49134" lon="0.69068">
        <ele>137.6</ele>
        <time>2018-07-22T14:57:58Z</time>
      </trkpt>
      <trkpt lat="44.49134" lon="0.69063">
        <ele>137.6</ele>
        <time>2018-07-22T14:58:01Z</time>
      </trkpt>
      <trkpt lat="44.49135" lon="0.69058">
        <ele>137.6</ele>
        <time>2018-07-22T14:58:04Z</time>
      </trkpt>
      <trkpt lat="44.49137" lon="0.69054">
        <ele>138.2</ele>
        <time>2018-07-22T14:58:07Z</time>
      </trkpt>
      <trkpt lat="44.49138" lon="0.69051">
        <ele>138.2</ele>
        <time>2018-07-22T14:58:11Z</time>
      </trkpt>
      <trkpt lat="44.4914" lon="0.69046">
        <ele>138.8</ele>
        <time>2018-07-22T14:58:15Z</time>
      </trkpt>
      <trkpt lat="44.49141" lon="0.69042">
        <ele>138.8</ele>
        <time>2018-07-22T14:58:18Z</time>
      </trkpt>
      <trkpt lat="44.49143" lon="0.69039">
        <ele>139.4</ele>
        <time>2018-07-22T14:58:21Z</time>
      </trkpt>
      <trkpt lat="44.49144" lon="0.69034">
        <ele>139.4</ele>
        <time>2018-07-22T14:58:24Z</time>
      </trkpt>
      <trkpt lat="44.49144" lon="0.6903">
        <ele>139.4</ele>
        <time>2018-07-22T14:58:26Z</time>
      </trkpt>
      <trkpt lat="44.49145" lon="0.69025">
        <ele>139.4</ele>
        <time>2018-07-22T14:58:29Z</time>
      </trkpt>
      <trkpt lat="44.49147" lon="0.69023">
        <ele>140</ele>
        <time>2018-07-22T14:58:31Z</time>
      </trkpt>
      <trkpt lat="44.4915" lon="0.69019">
        <ele>140.6</ele>
        <time>2018-07-22T14:58:34Z</time>
      </trkpt>
      <trkpt lat="44.49152" lon="0.69016">
        <ele>141.1</ele>
        <time>2018-07-22T14:58:37Z</time>
      </trkpt>
      <trkpt lat="44.49153" lon="0.69012">
        <ele>141.1</ele>
        <time>2018-07-22T14:58:39Z</time>
      </trkpt>
      <trkpt lat="44.49154" lon="0.69008">
        <ele>141.1</ele>
        <time>2018-07-22T14:58:41Z</time>
      </trkpt>
      <trkpt lat="44.49155" lon="0.69003">
        <ele>141.7</ele>
        <time>2018-07-22T14:58:44Z</time>
      </trkpt>
      <trkpt lat="44.49157" lon="0.68999">
        <ele>141.7</ele>
        <time>2018-07-22T14:58:46Z</time>
      </trkpt>
      <trkpt lat="44.49158" lon="0.68995">
        <ele>142.2</ele>
        <time>2018-07-22T14:58:48Z</time>
      </trkpt>
      <trkpt lat="44.49158" lon="0.68991">
        <ele>142.2</ele>
        <time>2018-07-22T14:58:51Z</time>
      </trkpt>
      <trkpt lat="44.4916" lon="0.68986">
        <ele>142.1</ele>
        <time>2018-07-22T14:58:54Z</time>
      </trkpt>
      <trkpt lat="44.49162" lon="0.68983">
        <ele>142.5</ele>
        <time>2018-07-22T14:58:58Z</time>
      </trkpt>
      <trkpt lat="44.49163" lon="0.68979">
        <ele>142.4</ele>
        <time>2018-07-22T14:59:09Z</time>
      </trkpt>
      <trkpt lat="44.49165" lon="0.68975">
        <ele>142.8</ele>
        <time>2018-07-22T14:59:12Z</time>
      </trkpt>
      <trkpt lat="44.49167" lon="0.68972">
        <ele>143.1</ele>
        <time>2018-07-22T14:59:14Z</time>
      </trkpt>
      <trkpt lat="44.49168" lon="0.68968">
        <ele>143</ele>
        <time>2018-07-22T14:59:16Z</time>
      </trkpt>
      <trkpt lat="44.49169" lon="0.68964">
        <ele>142.9</ele>
        <time>2018-07-22T14:59:19Z</time>
      </trkpt>
      <trkpt lat="44.49171" lon="0.68959">
        <ele>143.3</ele>
        <time>2018-07-22T14:59:22Z</time>
      </trkpt>
      <trkpt lat="44.49173" lon="0.68954">
        <ele>143.2</ele>
        <time>2018-07-22T14:59:24Z</time>
      </trkpt>
      <trkpt lat="44.49174" lon="0.68951">
        <ele>143.5</ele>
        <time>2018-07-22T14:59:26Z</time>
      </trkpt>
      <trkpt lat="44.49176" lon="0.68947">
        <ele>143.5</ele>
        <time>2018-07-22T14:59:28Z</time>
      </trkpt>
      <trkpt lat="44.49178" lon="0.68942">
        <ele>143.7</ele>
        <time>2018-07-22T14:59:31Z</time>
      </trkpt>
      <trkpt lat="44.49181" lon="0.68938">
        <ele>143.9</ele>
        <time>2018-07-22T14:59:34Z</time>
      </trkpt>
      <trkpt lat="44.49182" lon="0.68935">
        <ele>144</ele>
        <time>2018-07-22T14:59:36Z</time>
      </trkpt>
      <trkpt lat="44.49184" lon="0.6893">
        <ele>143.8</ele>
        <time>2018-07-22T14:59:39Z</time>
      </trkpt>
      <trkpt lat="44.49185" lon="0.68925">
        <ele>143.6</ele>
        <time>2018-07-22T14:59:42Z</time>
      </trkpt>
      <trkpt lat="44.49185" lon="0.68922">
        <ele>143.6</ele>
        <time>2018-07-22T14:59:45Z</time>
      </trkpt>
      <trkpt lat="44.49187" lon="0.68916">
        <ele>143.4</ele>
        <time>2018-07-22T14:59:48Z</time>
      </trkpt>
      <trkpt lat="44.49189" lon="0.68914">
        <ele>143.5</ele>
        <time>2018-07-22T14:59:50Z</time>
      </trkpt>
      <trkpt lat="44.49192" lon="0.68912">
        <ele>143.5</ele>
        <time>2018-07-22T14:59:52Z</time>
      </trkpt>
      <trkpt lat="44.49195" lon="0.68909">
        <ele>143.5</ele>
        <time>2018-07-22T14:59:54Z</time>
      </trkpt>
      <trkpt lat="44.49197" lon="0.68905">
        <ele>143.5</ele>
        <time>2018-07-22T14:59:56Z</time>
      </trkpt>
      <trkpt lat="44.492" lon="0.68902">
        <ele>143.6</ele>
        <time>2018-07-22T14:59:58Z</time>
      </trkpt>
      <trkpt lat="44.49201" lon="0.68899">
        <ele>143.6</ele>
        <time>2018-07-22T15:00:00Z</time>
      </trkpt>
      <trkpt lat="44.49203" lon="0.68895">
        <ele>143.5</ele>
        <time>2018-07-22T15:00:02Z</time>
      </trkpt>
      <trkpt lat="44.49204" lon="0.68889">
        <ele>143.6</ele>
        <time>2018-07-22T15:00:05Z</time>
      </trkpt>
      <trkpt lat="44.49204" lon="0.68884">
        <ele>143.5</ele>
        <time>2018-07-22T15:00:07Z</time>
      </trkpt>
      <trkpt lat="44.49204" lon="0.6888">
        <ele>143.3</ele>
        <time>2018-07-22T15:00:09Z</time>
      </trkpt>
      <trkpt lat="44.49204" lon="0.68876">
        <ele>143.4</ele>
        <time>2018-07-22T15:00:11Z</time>
      </trkpt>
      <trkpt lat="44.49205" lon="0.6887">
        <ele>143.3</ele>
        <time>2018-07-22T15:00:14Z</time>
      </trkpt>
      <trkpt lat="44.49206" lon="0.68866">
        <ele>143.3</ele>
        <time>2018-07-22T15:00:16Z</time>
      </trkpt>
      <trkpt lat="44.49208" lon="0.68863">
        <ele>143.4</ele>
        <time>2018-07-22T15:00:18Z</time>
      </trkpt>
      <trkpt lat="44.49208" lon="0.68858">
        <ele>143.4</ele>
        <time>2018-07-22T15:00:20Z</time>
      </trkpt>
      <trkpt lat="44.49209" lon="0.68854">
        <ele>143.4</ele>
        <time>2018-07-22T15:00:22Z</time>
      </trkpt>
      <trkpt lat="44.4921" lon="0.68849">
        <ele>143.4</ele>
        <time>2018-07-22T15:00:24Z</time>
      </trkpt>
      <trkpt lat="44.4921" lon="0.68844">
        <ele>143.5</ele>
        <time>2018-07-22T15:00:26Z</time>
      </trkpt>
      <trkpt lat="44.49212" lon="0.6884">
        <ele>143.5</ele>
        <time>2018-07-22T15:00:28Z</time>
      </trkpt>
      <trkpt lat="44.49215" lon="0.68837">
        <ele>143.6</ele>
        <time>2018-07-22T15:00:30Z</time>
      </trkpt>
      <trkpt lat="44.49218" lon="0.68834">
        <ele>143.6</ele>
        <time>2018-07-22T15:00:32Z</time>
      </trkpt>
      <trkpt lat="44.4922" lon="0.68831">
        <ele>143.6</ele>
        <time>2018-07-22T15:00:34Z</time>
      </trkpt>
      <trkpt lat="44.49222" lon="0.68828">
        <ele>143.7</ele>
        <time>2018-07-22T15:00:36Z</time>
      </trkpt>
      <trkpt lat="44.49224" lon="0.68824">
        <ele>143.6</ele>
        <time>2018-07-22T15:00:39Z</time>
      </trkpt>
      <trkpt lat="44.49223" lon="0.6882">
        <ele>143.6</ele>
        <time>2018-07-22T15:00:42Z</time>
      </trkpt>
      <trkpt lat="44.49224" lon="0.68816">
        <ele>143.5</ele>
        <time>2018-07-22T15:00:44Z</time>
      </trkpt>
      <trkpt lat="44.49225" lon="0.68812">
        <ele>143.5</ele>
        <time>2018-07-22T15:00:46Z</time>
      </trkpt>
      <trkpt lat="44.49226" lon="0.68807">
        <ele>143.4</ele>
        <time>2018-07-22T15:00:49Z</time>
      </trkpt>
      <trkpt lat="44.49226" lon="0.68802">
        <ele>143.2</ele>
        <time>2018-07-22T15:00:52Z</time>
      </trkpt>
      <trkpt lat="44.49226" lon="0.68798">
        <ele>143.2</ele>
        <time>2018-07-22T15:00:54Z</time>
      </trkpt>
      <trkpt lat="44.49226" lon="0.68793">
        <ele>143.1</ele>
        <time>2018-07-22T15:00:56Z</time>
      </trkpt>
      <trkpt lat="44.49226" lon="0.68788">
        <ele>143</ele>
        <time>2018-07-22T15:00:58Z</time>
      </trkpt>
      <trkpt lat="44.49227" lon="0.68784">
        <ele>142.9</ele>
        <time>2018-07-22T15:01:00Z</time>
      </trkpt>
      <trkpt lat="44.49228" lon="0.6878">
        <ele>142.9</ele>
        <time>2018-07-22T15:01:02Z</time>
      </trkpt>
      <trkpt lat="44.4923" lon="0.68776">
        <ele>142.8</ele>
        <time>2018-07-22T15:01:04Z</time>
      </trkpt>
      <trkpt lat="44.49232" lon="0.68772">
        <ele>142.7</ele>
        <time>2018-07-22T15:01:06Z</time>
      </trkpt>
      <trkpt lat="44.49234" lon="0.68769">
        <ele>142.7</ele>
        <time>2018-07-22T15:01:08Z</time>
      </trkpt>
      <trkpt lat="44.49235" lon="0.68765">
        <ele>142.6</ele>
        <time>2018-07-22T15:01:10Z</time>
      </trkpt>
      <trkpt lat="44.49236" lon="0.6876">
        <ele>142.5</ele>
        <time>2018-07-22T15:01:12Z</time>
      </trkpt>
      <trkpt lat="44.49235" lon="0.68755">
        <ele>142.4</ele>
        <time>2018-07-22T15:01:14Z</time>
      </trkpt>
      <trkpt lat="44.49234" lon="0.68751">
        <ele>142.4</ele>
        <time>2018-07-22T15:01:16Z</time>
      </trkpt>
      <trkpt lat="44.49234" lon="0.68747">
        <ele>142.3</ele>
        <time>2018-07-22T15:01:18Z</time>
      </trkpt>
      <trkpt lat="44.49238" lon="0.68743">
        <ele>142.2</ele>
        <time>2018-07-22T15:01:21Z</time>
      </trkpt>
      <trkpt lat="44.4924" lon="0.6874">
        <ele>142.2</ele>
        <time>2018-07-22T15:01:23Z</time>
      </trkpt>
      <trkpt lat="44.49243" lon="0.68738">
        <ele>142.2</ele>
        <time>2018-07-22T15:01:26Z</time>
      </trkpt>
      <trkpt lat="44.49245" lon="0.68735">
        <ele>142.1</ele>
        <time>2018-07-22T15:01:28Z</time>
      </trkpt>
      <trkpt lat="44.49247" lon="0.68732">
        <ele>142.1</ele>
        <time>2018-07-22T15:01:30Z</time>
      </trkpt>
      <trkpt lat="44.49249" lon="0.68728">
        <ele>142.1</ele>
        <time>2018-07-22T15:01:32Z</time>
      </trkpt>
      <trkpt lat="44.49251" lon="0.68725">
        <ele>142.2</ele>
        <time>2018-07-22T15:01:34Z</time>
      </trkpt>
      <trkpt lat="44.49252" lon="0.6872">
        <ele>142.2</ele>
        <time>2018-07-22T15:01:36Z</time>
      </trkpt>
      <trkpt lat="44.49254" lon="0.68716">
        <ele>142.2</ele>
        <time>2018-07-22T15:01:39Z</time>
      </trkpt>
      <trkpt lat="44.49256" lon="0.68713">
        <ele>142.3</ele>
        <time>2018-07-22T15:01:42Z</time>
      </trkpt>
      <trkpt lat="44.49256" lon="0.68709">
        <ele>142.3</ele>
        <time>2018-07-22T15:01:46Z</time>
      </trkpt>
      <trkpt lat="44.49258" lon="0.68705">
        <ele>142.4</ele>
        <time>2018-07-22T15:01:48Z</time>
      </trkpt>
      <trkpt lat="44.4926" lon="0.68701">
        <ele>142.4</ele>
        <time>2018-07-22T15:01:50Z</time>
      </trkpt>
      <trkpt lat="44.49262" lon="0.68698">
        <ele>142.5</ele>
        <time>2018-07-22T15:01:52Z</time>
      </trkpt>
      <trkpt lat="44.49264" lon="0.68694">
        <ele>142.6</ele>
        <time>2018-07-22T15:01:54Z</time>
      </trkpt>
      <trkpt lat="44.49266" lon="0.6869">
        <ele>142.7</ele>
        <time>2018-07-22T15:01:56Z</time>
      </trkpt>
      <trkpt lat="44.49267" lon="0.68686">
        <ele>142.7</ele>
        <time>2018-07-22T15:01:58Z</time>
      </trkpt>
      <trkpt lat="44.49269" lon="0.68683">
        <ele>142.8</ele>
        <time>2018-07-22T15:02:00Z</time>
      </trkpt>
      <trkpt lat="44.4927" lon="0.6868">
        <ele>142.8</ele>
        <time>2018-07-22T15:02:02Z</time>
      </trkpt>
      <trkpt lat="44.49272" lon="0.68677">
        <ele>142.9</ele>
        <time>2018-07-22T15:02:04Z</time>
      </trkpt>
      <trkpt lat="44.49274" lon="0.68672">
        <ele>143</ele>
        <time>2018-07-22T15:02:07Z</time>
      </trkpt>
      <trkpt lat="44.49276" lon="0.68668">
        <ele>143.1</ele>
        <time>2018-07-22T15:02:10Z</time>
      </trkpt>
      <trkpt lat="44.49277" lon="0.68664">
        <ele>143.1</ele>
        <time>2018-07-22T15:02:13Z</time>
      </trkpt>
      <trkpt lat="44.49278" lon="0.6866">
        <ele>143.2</ele>
        <time>2018-07-22T15:02:15Z</time>
      </trkpt>
      <trkpt lat="44.49281" lon="0.68657">
        <ele>143.4</ele>
        <time>2018-07-22T15:02:17Z</time>
      </trkpt>
      <trkpt lat="44.49285" lon="0.68653">
        <ele>143.5</ele>
        <time>2018-07-22T15:02:19Z</time>
      </trkpt>
      <trkpt lat="44.49287" lon="0.6865">
        <ele>143.7</ele>
        <time>2018-07-22T15:02:21Z</time>
      </trkpt>
      <trkpt lat="44.49289" lon="0.68647">
        <ele>143.9</ele>
        <time>2018-07-22T15:02:23Z</time>
      </trkpt>
      <trkpt lat="44.49292" lon="0.68643">
        <ele>144</ele>
        <time>2018-07-22T15:02:25Z</time>
      </trkpt>
      <trkpt lat="44.49294" lon="0.68641">
        <ele>144.3</ele>
        <time>2018-07-22T15:02:27Z</time>
      </trkpt>
      <trkpt lat="44.49297" lon="0.68637">
        <ele>144.6</ele>
        <time>2018-07-22T15:02:30Z</time>
      </trkpt>
      <trkpt lat="44.49299" lon="0.68633">
        <ele>144.9</ele>
        <time>2018-07-22T15:02:33Z</time>
      </trkpt>
      <trkpt lat="44.49302" lon="0.6863">
        <ele>145.1</ele>
        <time>2018-07-22T15:02:36Z</time>
      </trkpt>
      <trkpt lat="44.49304" lon="0.68628">
        <ele>145.2</ele>
        <time>2018-07-22T15:02:38Z</time>
      </trkpt>
      <trkpt lat="44.49306" lon="0.68625">
        <ele>145.5</ele>
        <time>2018-07-22T15:02:40Z</time>
      </trkpt>
      <trkpt lat="44.49309" lon="0.68623">
        <ele>145.7</ele>
        <time>2018-07-22T15:02:42Z</time>
      </trkpt>
      <trkpt lat="44.49311" lon="0.68618">
        <ele>146.1</ele>
        <time>2018-07-22T15:02:45Z</time>
      </trkpt>
      <trkpt lat="44.49313" lon="0.68615">
        <ele>146.2</ele>
        <time>2018-07-22T15:02:47Z</time>
      </trkpt>
      <trkpt lat="44.49315" lon="0.68611">
        <ele>146.5</ele>
        <time>2018-07-22T15:02:49Z</time>
      </trkpt>
      <trkpt lat="44.49316" lon="0.68608">
        <ele>146.5</ele>
        <time>2018-07-22T15:02:51Z</time>
      </trkpt>
      <trkpt lat="44.49317" lon="0.68604">
        <ele>146.7</ele>
        <time>2018-07-22T15:02:54Z</time>
      </trkpt>
      <trkpt lat="44.49319" lon="0.686">
        <ele>146.7</ele>
        <time>2018-07-22T15:02:57Z</time>
      </trkpt>
      <trkpt lat="44.49321" lon="0.68596">
        <ele>146.9</ele>
        <time>2018-07-22T15:03:00Z</time>
      </trkpt>
      <trkpt lat="44.49324" lon="0.68593">
        <ele>147.1</ele>
        <time>2018-07-22T15:03:03Z</time>
      </trkpt>
      <trkpt lat="44.49326" lon="0.68591">
        <ele>147</ele>
        <time>2018-07-22T15:03:05Z</time>
      </trkpt>
      <trkpt lat="44.49328" lon="0.68589">
        <ele>147.2</ele>
        <time>2018-07-22T15:03:07Z</time>
      </trkpt>
      <trkpt lat="44.49331" lon="0.68585">
        <ele>147.3</ele>
        <time>2018-07-22T15:03:10Z</time>
      </trkpt>
      <trkpt lat="44.49331" lon="0.68581">
        <ele>147.2</ele>
        <time>2018-07-22T15:03:12Z</time>
      </trkpt>
      <trkpt lat="44.49333" lon="0.68576">
        <ele>147.3</ele>
        <time>2018-07-22T15:03:14Z</time>
      </trkpt>
      <trkpt lat="44.49335" lon="0.68574">
        <ele>147.2</ele>
        <time>2018-07-22T15:03:16Z</time>
      </trkpt>
      <trkpt lat="44.49338" lon="0.6857">
        <ele>147.2</ele>
        <time>2018-07-22T15:03:19Z</time>
      </trkpt>
      <trkpt lat="44.4934" lon="0.68567">
        <ele>147.4</ele>
        <time>2018-07-22T15:03:21Z</time>
      </trkpt>
      <trkpt lat="44.49341" lon="0.68564">
        <ele>147.2</ele>
        <time>2018-07-22T15:03:24Z</time>
      </trkpt>
      <trkpt lat="44.49343" lon="0.6856">
        <ele>147.2</ele>
        <time>2018-07-22T15:03:27Z</time>
      </trkpt>
      <trkpt lat="44.49345" lon="0.68557">
        <ele>147.4</ele>
        <time>2018-07-22T15:03:29Z</time>
      </trkpt>
      <trkpt lat="44.49347" lon="0.68552">
        <ele>147.1</ele>
        <time>2018-07-22T15:03:32Z</time>
      </trkpt>
      <trkpt lat="44.49348" lon="0.68549">
        <ele>147.2</ele>
        <time>2018-07-22T15:03:34Z</time>
      </trkpt>
      <trkpt lat="44.49351" lon="0.68544">
        <ele>147.1</ele>
        <time>2018-07-22T15:03:37Z</time>
      </trkpt>
      <trkpt lat="44.49352" lon="0.6854">
        <ele>147</ele>
        <time>2018-07-22T15:03:40Z</time>
      </trkpt>
      <trkpt lat="44.49353" lon="0.68536">
        <ele>146.8</ele>
        <time>2018-07-22T15:03:42Z</time>
      </trkpt>
      <trkpt lat="44.49355" lon="0.68532">
        <ele>146.8</ele>
        <time>2018-07-22T15:03:44Z</time>
      </trkpt>
      <trkpt lat="44.49357" lon="0.68528">
        <ele>146.7</ele>
        <time>2018-07-22T15:03:46Z</time>
      </trkpt>
      <trkpt lat="44.49359" lon="0.68525">
        <ele>146.5</ele>
        <time>2018-07-22T15:03:48Z</time>
      </trkpt>
      <trkpt lat="44.49361" lon="0.68521">
        <ele>146.3</ele>
        <time>2018-07-22T15:03:51Z</time>
      </trkpt>
      <trkpt lat="44.49363" lon="0.68516">
        <ele>146.1</ele>
        <time>2018-07-22T15:03:54Z</time>
      </trkpt>
      <trkpt lat="44.49366" lon="0.68513">
        <ele>145.9</ele>
        <time>2018-07-22T15:03:56Z</time>
      </trkpt>
      <trkpt lat="44.49368" lon="0.6851">
        <ele>145.6</ele>
        <time>2018-07-22T15:03:58Z</time>
      </trkpt>
      <trkpt lat="44.49369" lon="0.68506">
        <ele>145.4</ele>
        <time>2018-07-22T15:04:00Z</time>
      </trkpt>
      <trkpt lat="44.4937" lon="0.68502">
        <ele>145.4</ele>
        <time>2018-07-22T15:04:02Z</time>
      </trkpt>
      <trkpt lat="44.49373" lon="0.68497">
        <ele>145.1</ele>
        <time>2018-07-22T15:04:05Z</time>
      </trkpt>
      <trkpt lat="44.49374" lon="0.68494">
        <ele>144.8</ele>
        <time>2018-07-22T15:04:07Z</time>
      </trkpt>
      <trkpt lat="44.49377" lon="0.6849">
        <ele>144.6</ele>
        <time>2018-07-22T15:04:09Z</time>
      </trkpt>
      <trkpt lat="44.4938" lon="0.68487">
        <ele>144.3</ele>
        <time>2018-07-22T15:04:12Z</time>
      </trkpt>
      <trkpt lat="44.49382" lon="0.68483">
        <ele>144.1</ele>
        <time>2018-07-22T15:04:14Z</time>
      </trkpt>
      <trkpt lat="44.49383" lon="0.6848">
        <ele>143.9</ele>
        <time>2018-07-22T15:04:16Z</time>
      </trkpt>
      <trkpt lat="44.49385" lon="0.68477">
        <ele>143.9</ele>
        <time>2018-07-22T15:04:18Z</time>
      </trkpt>
      <trkpt lat="44.49387" lon="0.68475">
        <ele>143.7</ele>
        <time>2018-07-22T15:04:20Z</time>
      </trkpt>
      <trkpt lat="44.4939" lon="0.68471">
        <ele>143.4</ele>
        <time>2018-07-22T15:04:23Z</time>
      </trkpt>
      <trkpt lat="44.49391" lon="0.68467">
        <ele>143.4</ele>
        <time>2018-07-22T15:04:25Z</time>
      </trkpt>
      <trkpt lat="44.49393" lon="0.68463">
        <ele>143.2</ele>
        <time>2018-07-22T15:04:27Z</time>
      </trkpt>
      <trkpt lat="44.49395" lon="0.6846">
        <ele>142.9</ele>
        <time>2018-07-22T15:04:29Z</time>
      </trkpt>
      <trkpt lat="44.49396" lon="0.68456">
        <ele>142.7</ele>
        <time>2018-07-22T15:04:31Z</time>
      </trkpt>
      <trkpt lat="44.49397" lon="0.6845">
        <ele>142.5</ele>
        <time>2018-07-22T15:04:34Z</time>
      </trkpt>
      <trkpt lat="44.49397" lon="0.68446">
        <ele>142.2</ele>
        <time>2018-07-22T15:04:36Z</time>
      </trkpt>
      <trkpt lat="44.49398" lon="0.68442">
        <ele>142</ele>
        <time>2018-07-22T15:04:38Z</time>
      </trkpt>
      <trkpt lat="44.49399" lon="0.68437">
        <ele>141.8</ele>
        <time>2018-07-22T15:04:40Z</time>
      </trkpt>
      <trkpt lat="44.49401" lon="0.68433">
        <ele>141.6</ele>
        <time>2018-07-22T15:04:42Z</time>
      </trkpt>
      <trkpt lat="44.49403" lon="0.68428">
        <ele>141.5</ele>
        <time>2018-07-22T15:04:44Z</time>
      </trkpt>
      <trkpt lat="44.49404" lon="0.68423">
        <ele>141.5</ele>
        <time>2018-07-22T15:04:46Z</time>
      </trkpt>
      <trkpt lat="44.49406" lon="0.68419">
        <ele>141.6</ele>
        <time>2018-07-22T15:04:48Z</time>
      </trkpt>
      <trkpt lat="44.49406" lon="0.68414">
        <ele>141.6</ele>
        <time>2018-07-22T15:04:50Z</time>
      </trkpt>
      <trkpt lat="44.49406" lon="0.68409">
        <ele>141.7</ele>
        <time>2018-07-22T15:04:52Z</time>
      </trkpt>
      <trkpt lat="44.49407" lon="0.68405">
        <ele>141.9</ele>
        <time>2018-07-22T15:04:54Z</time>
      </trkpt>
      <trkpt lat="44.49408" lon="0.68401">
        <ele>142</ele>
        <time>2018-07-22T15:04:56Z</time>
      </trkpt>
      <trkpt lat="44.49408" lon="0.68397">
        <ele>142.2</ele>
        <time>2018-07-22T15:04:58Z</time>
      </trkpt>
      <trkpt lat="44.49409" lon="0.68392">
        <ele>142.4</ele>
        <time>2018-07-22T15:05:00Z</time>
      </trkpt>
      <trkpt lat="44.4941" lon="0.68388">
        <ele>142.6</ele>
        <time>2018-07-22T15:05:02Z</time>
      </trkpt>
      <trkpt lat="44.49411" lon="0.68384">
        <ele>142.8</ele>
        <time>2018-07-22T15:05:04Z</time>
      </trkpt>
      <trkpt lat="44.49412" lon="0.68379">
        <ele>143</ele>
        <time>2018-07-22T15:05:07Z</time>
      </trkpt>
      <trkpt lat="44.49413" lon="0.68375">
        <ele>143.3</ele>
        <time>2018-07-22T15:05:09Z</time>
      </trkpt>
      <trkpt lat="44.49414" lon="0.68371">
        <ele>143.5</ele>
        <time>2018-07-22T15:05:11Z</time>
      </trkpt>
      <trkpt lat="44.49416" lon="0.68368">
        <ele>143.7</ele>
        <time>2018-07-22T15:05:13Z</time>
      </trkpt>
      <trkpt lat="44.49418" lon="0.68365">
        <ele>143.7</ele>
        <time>2018-07-22T15:05:15Z</time>
      </trkpt>
      <trkpt lat="44.4942" lon="0.68361">
        <ele>143.9</ele>
        <time>2018-07-22T15:05:18Z</time>
      </trkpt>
      <trkpt lat="44.49422" lon="0.68355">
        <ele>144.4</ele>
        <time>2018-07-22T15:05:21Z</time>
      </trkpt>
      <trkpt lat="44.49423" lon="0.68352">
        <ele>144.4</ele>
        <time>2018-07-22T15:05:23Z</time>
      </trkpt>
      <trkpt lat="44.49423" lon="0.68348">
        <ele>144.6</ele>
        <time>2018-07-22T15:05:25Z</time>
      </trkpt>
      <trkpt lat="44.49423" lon="0.68344">
        <ele>144.8</ele>
        <time>2018-07-22T15:05:27Z</time>
      </trkpt>
      <trkpt lat="44.49424" lon="0.6834">
        <ele>145</ele>
        <time>2018-07-22T15:05:29Z</time>
      </trkpt>
      <trkpt lat="44.49425" lon="0.68336">
        <ele>145.2</ele>
        <time>2018-07-22T15:05:31Z</time>
      </trkpt>
      <trkpt lat="44.49425" lon="0.68332">
        <ele>145.4</ele>
        <time>2018-07-22T15:05:33Z</time>
      </trkpt>
      <trkpt lat="44.49425" lon="0.68327">
        <ele>145.6</ele>
        <time>2018-07-22T15:05:35Z</time>
      </trkpt>
      <trkpt lat="44.49425" lon="0.68323">
        <ele>145.8</ele>
        <time>2018-07-22T15:05:37Z</time>
      </trkpt>
      <trkpt lat="44.49426" lon="0.68317">
        <ele>145.9</ele>
        <time>2018-07-22T15:05:40Z</time>
      </trkpt>
      <trkpt lat="44.49427" lon="0.68313">
        <ele>146.1</ele>
        <time>2018-07-22T15:05:42Z</time>
      </trkpt>
      <trkpt lat="44.49427" lon="0.68308">
        <ele>146.5</ele>
        <time>2018-07-22T15:05:45Z</time>
      </trkpt>
      <trkpt lat="44.49428" lon="0.68303">
        <ele>146.7</ele>
        <time>2018-07-22T15:05:48Z</time>
      </trkpt>
      <trkpt lat="44.49429" lon="0.68298">
        <ele>146.8</ele>
        <time>2018-07-22T15:05:51Z</time>
      </trkpt>
      <trkpt lat="44.4943" lon="0.68294">
        <ele>147</ele>
        <time>2018-07-22T15:05:53Z</time>
      </trkpt>
      <trkpt lat="44.49431" lon="0.68291">
        <ele>147.2</ele>
        <time>2018-07-22T15:05:55Z</time>
      </trkpt>
      <trkpt lat="44.49433" lon="0.68287">
        <ele>147.2</ele>
        <time>2018-07-22T15:05:57Z</time>
      </trkpt>
      <trkpt lat="44.49433" lon="0.68282">
        <ele>147.6</ele>
        <time>2018-07-22T15:06:00Z</time>
      </trkpt>
      <trkpt lat="44.49432" lon="0.68278">
        <ele>147.6</ele>
        <time>2018-07-22T15:06:02Z</time>
      </trkpt>
      <trkpt lat="44.49431" lon="0.68274">
        <ele>147.8</ele>
        <time>2018-07-22T15:06:05Z</time>
      </trkpt>
      <trkpt lat="44.49432" lon="0.68269">
        <ele>147.9</ele>
        <time>2018-07-22T15:06:08Z</time>
      </trkpt>
      <trkpt lat="44.49433" lon="0.68265">
        <ele>148</ele>
        <time>2018-07-22T15:06:10Z</time>
      </trkpt>
      <trkpt lat="44.49434" lon="0.68262">
        <ele>148</ele>
        <time>2018-07-22T15:06:12Z</time>
      </trkpt>
      <trkpt lat="44.49437" lon="0.68258">
        <ele>148.2</ele>
        <time>2018-07-22T15:06:15Z</time>
      </trkpt>
      <trkpt lat="44.49439" lon="0.68253">
        <ele>148.3</ele>
        <time>2018-07-22T15:06:18Z</time>
      </trkpt>
      <trkpt lat="44.49441" lon="0.6825">
        <ele>148.4</ele>
        <time>2018-07-22T15:06:20Z</time>
      </trkpt>
      <trkpt lat="44.49442" lon="0.68247">
        <ele>148.5</ele>
        <time>2018-07-22T15:06:22Z</time>
      </trkpt>
      <trkpt lat="44.49444" lon="0.68243">
        <ele>148.6</ele>
        <time>2018-07-22T15:06:24Z</time>
      </trkpt>
      <trkpt lat="44.49445" lon="0.6824">
        <ele>148.6</ele>
        <time>2018-07-22T15:06:26Z</time>
      </trkpt>
      <trkpt lat="44.49447" lon="0.68236">
        <ele>148.8</ele>
        <time>2018-07-22T15:06:29Z</time>
      </trkpt>
      <trkpt lat="44.49449" lon="0.68231">
        <ele>149</ele>
        <time>2018-07-22T15:06:32Z</time>
      </trkpt>
      <trkpt lat="44.49452" lon="0.68227">
        <ele>149.2</ele>
        <time>2018-07-22T15:06:35Z</time>
      </trkpt>
      <trkpt lat="44.49455" lon="0.68224">
        <ele>149.3</ele>
        <time>2018-07-22T15:06:38Z</time>
      </trkpt>
      <trkpt lat="44.49457" lon="0.6822">
        <ele>149.5</ele>
        <time>2018-07-22T15:06:41Z</time>
      </trkpt>
      <trkpt lat="44.49459" lon="0.68217">
        <ele>149.6</ele>
        <time>2018-07-22T15:06:43Z</time>
      </trkpt>
      <trkpt lat="44.49461" lon="0.68214">
        <ele>149.7</ele>
        <time>2018-07-22T15:06:45Z</time>
      </trkpt>
      <trkpt lat="44.49464" lon="0.6821">
        <ele>149.8</ele>
        <time>2018-07-22T15:06:48Z</time>
      </trkpt>
      <trkpt lat="44.49466" lon="0.68206">
        <ele>150</ele>
        <time>2018-07-22T15:06:51Z</time>
      </trkpt>
      <trkpt lat="44.49469" lon="0.68201">
        <ele>150.1</ele>
        <time>2018-07-22T15:06:54Z</time>
      </trkpt>
      <trkpt lat="44.49471" lon="0.68198">
        <ele>150.2</ele>
        <time>2018-07-22T15:06:56Z</time>
      </trkpt>
      <trkpt lat="44.49473" lon="0.68196">
        <ele>150.3</ele>
        <time>2018-07-22T15:06:58Z</time>
      </trkpt>
      <trkpt lat="44.49476" lon="0.68192">
        <ele>150.5</ele>
        <time>2018-07-22T15:07:01Z</time>
      </trkpt>
      <trkpt lat="44.49478" lon="0.68187">
        <ele>150.5</ele>
        <time>2018-07-22T15:07:04Z</time>
      </trkpt>
      <trkpt lat="44.49481" lon="0.68183">
        <ele>150.5</ele>
        <time>2018-07-22T15:07:07Z</time>
      </trkpt>
      <trkpt lat="44.49483" lon="0.6818">
        <ele>150.4</ele>
        <time>2018-07-22T15:07:09Z</time>
      </trkpt>
      <trkpt lat="44.49485" lon="0.68177">
        <ele>150.5</ele>
        <time>2018-07-22T15:07:11Z</time>
      </trkpt>
      <trkpt lat="44.49487" lon="0.68174">
        <ele>150.4</ele>
        <time>2018-07-22T15:07:13Z</time>
      </trkpt>
      <trkpt lat="44.49489" lon="0.6817">
        <ele>150.3</ele>
        <time>2018-07-22T15:07:15Z</time>
      </trkpt>
      <trkpt lat="44.49491" lon="0.68168">
        <ele>150.3</ele>
        <time>2018-07-22T15:07:17Z</time>
      </trkpt>
      <trkpt lat="44.49493" lon="0.68165">
        <ele>150.2</ele>
        <time>2018-07-22T15:07:19Z</time>
      </trkpt>
      <trkpt lat="44.49495" lon="0.68162">
        <ele>150.1</ele>
        <time>2018-07-22T15:07:21Z</time>
      </trkpt>
      <trkpt lat="44.49497" lon="0.68159">
        <ele>150.1</ele>
        <time>2018-07-22T15:07:23Z</time>
      </trkpt>
      <trkpt lat="44.495" lon="0.68157">
        <ele>150</ele>
        <time>2018-07-22T15:07:25Z</time>
      </trkpt>
      <trkpt lat="44.49502" lon="0.68154">
        <ele>149.8</ele>
        <time>2018-07-22T15:07:27Z</time>
      </trkpt>
      <trkpt lat="44.49505" lon="0.68151">
        <ele>149.7</ele>
        <time>2018-07-22T15:07:30Z</time>
      </trkpt>
      <trkpt lat="44.49507" lon="0.68148">
        <ele>149.6</ele>
        <time>2018-07-22T15:07:32Z</time>
      </trkpt>
      <trkpt lat="44.4951" lon="0.68144">
        <ele>149.5</ele>
        <time>2018-07-22T15:07:35Z</time>
      </trkpt>
      <trkpt lat="44.49512" lon="0.68142">
        <ele>149.5</ele>
        <time>2018-07-22T15:07:37Z</time>
      </trkpt>
      <trkpt lat="44.49514" lon="0.68139">
        <ele>149.4</ele>
        <time>2018-07-22T15:07:39Z</time>
      </trkpt>
      <trkpt lat="44.49516" lon="0.68136">
        <ele>149.4</ele>
        <time>2018-07-22T15:07:41Z</time>
      </trkpt>
      <trkpt lat="44.49519" lon="0.68132">
        <ele>149.4</ele>
        <time>2018-07-22T15:07:44Z</time>
      </trkpt>
      <trkpt lat="44.49521" lon="0.68129">
        <ele>149.4</ele>
        <time>2018-07-22T15:07:46Z</time>
      </trkpt>
      <trkpt lat="44.49523" lon="0.68126">
        <ele>149.4</ele>
        <time>2018-07-22T15:07:48Z</time>
      </trkpt>
      <trkpt lat="44.49526" lon="0.68122">
        <ele>149.4</ele>
        <time>2018-07-22T15:07:51Z</time>
      </trkpt>
      <trkpt lat="44.49528" lon="0.68119">
        <ele>149.6</ele>
        <time>2018-07-22T15:07:53Z</time>
      </trkpt>
      <trkpt lat="44.4953" lon="0.68117">
        <ele>149.4</ele>
        <time>2018-07-22T15:07:55Z</time>
      </trkpt>
      <trkpt lat="44.49532" lon="0.68114">
        <ele>149.6</ele>
        <time>2018-07-22T15:07:57Z</time>
      </trkpt>
      <trkpt lat="44.49534" lon="0.68112">
        <ele>149.5</ele>
        <time>2018-07-22T15:07:59Z</time>
      </trkpt>
      <trkpt lat="44.49537" lon="0.68108">
        <ele>149.5</ele>
        <time>2018-07-22T15:08:02Z</time>
      </trkpt>
      <trkpt lat="44.4954" lon="0.68104">
        <ele>149.7</ele>
        <time>2018-07-22T15:08:05Z</time>
      </trkpt>
      <trkpt lat="44.49543" lon="0.68101">
        <ele>149.8</ele>
        <time>2018-07-22T15:08:08Z</time>
      </trkpt>
      <trkpt lat="44.49545" lon="0.68098">
        <ele>149.7</ele>
        <time>2018-07-22T15:08:10Z</time>
      </trkpt>
      <trkpt lat="44.49548" lon="0.68095">
        <ele>149.8</ele>
        <time>2018-07-22T15:08:13Z</time>
      </trkpt>
      <trkpt lat="44.4955" lon="0.6809">
        <ele>149.9</ele>
        <time>2018-07-22T15:08:16Z</time>
      </trkpt>
      <trkpt lat="44.49552" lon="0.68085">
        <ele>150.2</ele>
        <time>2018-07-22T15:08:19Z</time>
      </trkpt>
      <trkpt lat="44.49554" lon="0.68082">
        <ele>150.3</ele>
        <time>2018-07-22T15:08:21Z</time>
      </trkpt>
      <trkpt lat="44.49555" lon="0.68079">
        <ele>150.6</ele>
        <time>2018-07-22T15:08:23Z</time>
      </trkpt>
      <trkpt lat="44.49557" lon="0.68074">
        <ele>150.6</ele>
        <time>2018-07-22T15:08:26Z</time>
      </trkpt>
      <trkpt lat="44.49558" lon="0.68071">
        <ele>150.8</ele>
        <time>2018-07-22T15:08:28Z</time>
      </trkpt>
      <trkpt lat="44.4956" lon="0.68066">
        <ele>150.8</ele>
        <time>2018-07-22T15:08:31Z</time>
      </trkpt>
      <trkpt lat="44.4956" lon="0.68062">
        <ele>151</ele>
        <time>2018-07-22T15:08:33Z</time>
      </trkpt>
      <trkpt lat="44.49561" lon="0.68056">
        <ele>151.2</ele>
        <time>2018-07-22T15:08:36Z</time>
      </trkpt>
      <trkpt lat="44.49563" lon="0.68051">
        <ele>151.2</ele>
        <time>2018-07-22T15:08:39Z</time>
      </trkpt>
      <trkpt lat="44.49564" lon="0.68048">
        <ele>151.4</ele>
        <time>2018-07-22T15:08:41Z</time>
      </trkpt>
      <trkpt lat="44.49565" lon="0.68044">
        <ele>151.4</ele>
        <time>2018-07-22T15:08:43Z</time>
      </trkpt>
      <trkpt lat="44.49566" lon="0.6804">
        <ele>151.7</ele>
        <time>2018-07-22T15:08:45Z</time>
      </trkpt>
      <trkpt lat="44.49567" lon="0.68037">
        <ele>152</ele>
        <time>2018-07-22T15:08:47Z</time>
      </trkpt>
      <trkpt lat="44.49568" lon="0.68032">
        <ele>152.2</ele>
        <time>2018-07-22T15:08:50Z</time>
      </trkpt>
      <trkpt lat="44.4957" lon="0.68027">
        <ele>152.6</ele>
        <time>2018-07-22T15:08:53Z</time>
      </trkpt>
      <trkpt lat="44.49571" lon="0.68022">
        <ele>153</ele>
        <time>2018-07-22T15:08:56Z</time>
      </trkpt>
      <trkpt lat="44.49572" lon="0.68017">
        <ele>153.2</ele>
        <time>2018-07-22T15:08:59Z</time>
      </trkpt>
      <trkpt lat="44.49573" lon="0.68012">
        <ele>154.1</ele>
        <time>2018-07-22T15:09:02Z</time>
      </trkpt>
      <trkpt lat="44.49574" lon="0.68007">
        <ele>154.6</ele>
        <time>2018-07-22T15:09:05Z</time>
      </trkpt>
      <trkpt lat="44.49575" lon="0.68003">
        <ele>154.9</ele>
        <time>2018-07-22T15:09:08Z</time>
      </trkpt>
      <trkpt lat="44.49575" lon="0.67998">
        <ele>155.5</ele>
        <time>2018-07-22T15:09:11Z</time>
      </trkpt>
      <trkpt lat="44.49577" lon="0.67994">
        <ele>156.1</ele>
        <time>2018-07-22T15:09:14Z</time>
      </trkpt>
      <trkpt lat="44.49579" lon="0.67991">
        <ele>155.9</ele>
        <time>2018-07-22T15:09:16Z</time>
      </trkpt>
      <trkpt lat="44.49581" lon="0.67987">
        <ele>156.3</ele>
        <time>2018-07-22T15:09:19Z</time>
      </trkpt>
      <trkpt lat="44.4958" lon="0.67983">
        <ele>156.9</ele>
        <time>2018-07-22T15:09:22Z</time>
      </trkpt>
      <trkpt lat="44.49579" lon="0.67978">
        <ele>158.1</ele>
        <time>2018-07-22T15:09:25Z</time>
      </trkpt>
      <trkpt lat="44.49579" lon="0.67972">
        <ele>158.6</ele>
        <time>2018-07-22T15:09:28Z</time>
      </trkpt>
      <trkpt lat="44.49579" lon="0.67968">
        <ele>159.1</ele>
        <time>2018-07-22T15:09:31Z</time>
      </trkpt>
      <trkpt lat="44.4958" lon="0.67964">
        <ele>159.5</ele>
        <time>2018-07-22T15:09:34Z</time>
      </trkpt>
      <trkpt lat="44.49581" lon="0.67959">
        <ele>160</ele>
        <time>2018-07-22T15:09:38Z</time>
      </trkpt>
      <trkpt lat="44.49583" lon="0.67956">
        <ele>160.5</ele>
        <time>2018-07-22T15:09:41Z</time>
      </trkpt>
      <trkpt lat="44.49583" lon="0.6795">
        <ele>161</ele>
        <time>2018-07-22T15:09:44Z</time>
      </trkpt>
      <trkpt lat="44.49584" lon="0.67946">
        <ele>161.6</ele>
        <time>2018-07-22T15:09:47Z</time>
      </trkpt>
      <trkpt lat="44.49583" lon="0.67942">
        <ele>162.2</ele>
        <time>2018-07-22T15:09:51Z</time>
      </trkpt>
      <trkpt lat="44.49582" lon="0.67938">
        <ele>162.7</ele>
        <time>2018-07-22T15:09:54Z</time>
      </trkpt>
      <trkpt lat="44.49583" lon="0.67933">
        <ele>163.3</ele>
        <time>2018-07-22T15:09:59Z</time>
      </trkpt>
      <trkpt lat="44.49583" lon="0.67929">
        <ele>163.9</ele>
        <time>2018-07-22T15:10:02Z</time>
      </trkpt>
      <trkpt lat="44.49583" lon="0.67924">
        <ele>164.3</ele>
        <time>2018-07-22T15:10:05Z</time>
      </trkpt>
      <trkpt lat="44.49583" lon="0.67919">
        <ele>164.8</ele>
        <time>2018-07-22T15:10:07Z</time>
      </trkpt>
      <trkpt lat="44.49583" lon="0.67915">
        <ele>165.2</ele>
        <time>2018-07-22T15:10:09Z</time>
      </trkpt>
      <trkpt lat="44.49584" lon="0.67911">
        <ele>165.8</ele>
        <time>2018-07-22T15:10:13Z</time>
      </trkpt>
      <trkpt lat="44.49583" lon="0.67906">
        <ele>166.3</ele>
        <time>2018-07-22T15:10:17Z</time>
      </trkpt>
      <trkpt lat="44.49583" lon="0.67901">
        <ele>166.7</ele>
        <time>2018-07-22T15:10:22Z</time>
      </trkpt>
      <trkpt lat="44.49582" lon="0.67897">
        <ele>167.1</ele>
        <time>2018-07-22T15:10:25Z</time>
      </trkpt>
      <trkpt lat="44.49581" lon="0.67891">
        <ele>168.1</ele>
        <time>2018-07-22T15:10:28Z</time>
      </trkpt>
      <trkpt lat="44.4958" lon="0.67886">
        <ele>168.6</ele>
        <time>2018-07-22T15:10:32Z</time>
      </trkpt>
      <trkpt lat="44.49581" lon="0.67881">
        <ele>169</ele>
        <time>2018-07-22T15:10:35Z</time>
      </trkpt>
      <trkpt lat="44.49581" lon="0.67877">
        <ele>169.5</ele>
        <time>2018-07-22T15:10:39Z</time>
      </trkpt>
      <trkpt lat="44.49582" lon="0.67874">
        <ele>169.9</ele>
        <time>2018-07-22T15:10:42Z</time>
      </trkpt>
      <trkpt lat="44.49583" lon="0.6787">
        <ele>170.5</ele>
        <time>2018-07-22T15:10:45Z</time>
      </trkpt>
      <trkpt lat="44.49585" lon="0.67866">
        <ele>171.1</ele>
        <time>2018-07-22T15:10:49Z</time>
      </trkpt>
      <trkpt lat="44.49587" lon="0.67863">
        <ele>171.2</ele>
        <time>2018-07-22T15:10:52Z</time>
      </trkpt>
      <trkpt lat="44.49589" lon="0.67858">
        <ele>171.7</ele>
        <time>2018-07-22T15:10:56Z</time>
      </trkpt>
      <trkpt lat="44.49589" lon="0.67854">
        <ele>172.3</ele>
        <time>2018-07-22T15:10:59Z</time>
      </trkpt>
      <trkpt lat="44.49591" lon="0.67851">
        <ele>173</ele>
        <time>2018-07-22T15:11:03Z</time>
      </trkpt>
      <trkpt lat="44.49591" lon="0.67847">
        <ele>173.6</ele>
        <time>2018-07-22T15:11:06Z</time>
      </trkpt>
      <trkpt lat="44.49594" lon="0.67843">
        <ele>174.2</ele>
        <time>2018-07-22T15:11:21Z</time>
      </trkpt>
      <trkpt lat="44.49595" lon="0.67838">
        <ele>174.7</ele>
        <time>2018-07-22T15:11:24Z</time>
      </trkpt>
      <trkpt lat="44.49596" lon="0.67834">
        <ele>175.3</ele>
        <time>2018-07-22T15:11:28Z</time>
      </trkpt>
      <trkpt lat="44.49598" lon="0.6783">
        <ele>175.7</ele>
        <time>2018-07-22T15:11:31Z</time>
      </trkpt>
      <trkpt lat="44.49599" lon="0.67827">
        <ele>176.3</ele>
        <time>2018-07-22T15:11:34Z</time>
      </trkpt>
      <trkpt lat="44.49599" lon="0.67822">
        <ele>176.8</ele>
        <time>2018-07-22T15:11:37Z</time>
      </trkpt>
      <trkpt lat="44.496" lon="0.67817">
        <ele>177.2</ele>
        <time>2018-07-22T15:11:40Z</time>
      </trkpt>
      <trkpt lat="44.49602" lon="0.67814">
        <ele>177.7</ele>
        <time>2018-07-22T15:11:42Z</time>
      </trkpt>
      <trkpt lat="44.49604" lon="0.67812">
        <ele>177.7</ele>
        <time>2018-07-22T15:11:45Z</time>
      </trkpt>
      <trkpt lat="44.49605" lon="0.67807">
        <ele>178.1</ele>
        <time>2018-07-22T15:11:48Z</time>
      </trkpt>
      <trkpt lat="44.49605" lon="0.67802">
        <ele>178.6</ele>
        <time>2018-07-22T15:11:51Z</time>
      </trkpt>
      <trkpt lat="44.49606" lon="0.67797">
        <ele>179.4</ele>
        <time>2018-07-22T15:11:54Z</time>
      </trkpt>
      <trkpt lat="44.49607" lon="0.67793">
        <ele>179.7</ele>
        <time>2018-07-22T15:11:56Z</time>
      </trkpt>
      <trkpt lat="44.49609" lon="0.67789">
        <ele>179.7</ele>
        <time>2018-07-22T15:11:59Z</time>
      </trkpt>
      <trkpt lat="44.4961" lon="0.67785">
        <ele>180.1</ele>
        <time>2018-07-22T15:12:02Z</time>
      </trkpt>
      <trkpt lat="44.49612" lon="0.67781">
        <ele>180.4</ele>
        <time>2018-07-22T15:12:05Z</time>
      </trkpt>
      <trkpt lat="44.49614" lon="0.67777">
        <ele>180.7</ele>
        <time>2018-07-22T15:12:09Z</time>
      </trkpt>
      <trkpt lat="44.49614" lon="0.67771">
        <ele>181.3</ele>
        <time>2018-07-22T15:12:17Z</time>
      </trkpt>
      <trkpt lat="44.49615" lon="0.67768">
        <ele>181.5</ele>
        <time>2018-07-22T15:12:25Z</time>
      </trkpt>
      <trkpt lat="44.49617" lon="0.67764">
        <ele>181.5</ele>
        <time>2018-07-22T15:12:28Z</time>
      </trkpt>
      <trkpt lat="44.4962" lon="0.67761">
        <ele>181.7</ele>
        <time>2018-07-22T15:12:30Z</time>
      </trkpt>
      <trkpt lat="44.49622" lon="0.67757">
        <ele>181.8</ele>
        <time>2018-07-22T15:12:33Z</time>
      </trkpt>
      <trkpt lat="44.49624" lon="0.67752">
        <ele>182</ele>
        <time>2018-07-22T15:12:36Z</time>
      </trkpt>
      <trkpt lat="44.49625" lon="0.67748">
        <ele>182.1</ele>
        <time>2018-07-22T15:12:39Z</time>
      </trkpt>
      <trkpt lat="44.49627" lon="0.67743">
        <ele>182.2</ele>
        <time>2018-07-22T15:12:42Z</time>
      </trkpt>
      <trkpt lat="44.49629" lon="0.6774">
        <ele>182.3</ele>
        <time>2018-07-22T15:12:44Z</time>
      </trkpt>
      <trkpt lat="44.49631" lon="0.67736">
        <ele>182.4</ele>
        <time>2018-07-22T15:12:47Z</time>
      </trkpt>
      <trkpt lat="44.49633" lon="0.67733">
        <ele>182.6</ele>
        <time>2018-07-22T15:12:49Z</time>
      </trkpt>
      <trkpt lat="44.49635" lon="0.67729">
        <ele>182.6</ele>
        <time>2018-07-22T15:12:51Z</time>
      </trkpt>
      <trkpt lat="44.49637" lon="0.67725">
        <ele>182.7</ele>
        <time>2018-07-22T15:12:54Z</time>
      </trkpt>
      <trkpt lat="44.49638" lon="0.6772">
        <ele>183</ele>
        <time>2018-07-22T15:12:57Z</time>
      </trkpt>
      <trkpt lat="44.4964" lon="0.67716">
        <ele>183.2</ele>
        <time>2018-07-22T15:13:00Z</time>
      </trkpt>
      <trkpt lat="44.49641" lon="0.67711">
        <ele>183.4</ele>
        <time>2018-07-22T15:13:03Z</time>
      </trkpt>
      <trkpt lat="44.49643" lon="0.67707">
        <ele>183.5</ele>
        <time>2018-07-22T15:13:06Z</time>
      </trkpt>
      <trkpt lat="44.49644" lon="0.67702">
        <ele>183.5</ele>
        <time>2018-07-22T15:13:09Z</time>
      </trkpt>
      <trkpt lat="44.49646" lon="0.67697">
        <ele>183.7</ele>
        <time>2018-07-22T15:13:12Z</time>
      </trkpt>
      <trkpt lat="44.49648" lon="0.67692">
        <ele>183.8</ele>
        <time>2018-07-22T15:13:15Z</time>
      </trkpt>
      <trkpt lat="44.4965" lon="0.67689">
        <ele>183.7</ele>
        <time>2018-07-22T15:13:17Z</time>
      </trkpt>
      <trkpt lat="44.49651" lon="0.67685">
        <ele>183.8</ele>
        <time>2018-07-22T15:13:19Z</time>
      </trkpt>
      <trkpt lat="44.49653" lon="0.67682">
        <ele>183.7</ele>
        <time>2018-07-22T15:13:21Z</time>
      </trkpt>
      <trkpt lat="44.49654" lon="0.67678">
        <ele>183.7</ele>
        <time>2018-07-22T15:13:23Z</time>
      </trkpt>
      <trkpt lat="44.49656" lon="0.67675">
        <ele>183.6</ele>
        <time>2018-07-22T15:13:25Z</time>
      </trkpt>
      <trkpt lat="44.49657" lon="0.67671">
        <ele>183.5</ele>
        <time>2018-07-22T15:13:27Z</time>
      </trkpt>
      <trkpt lat="44.49659" lon="0.67667">
        <ele>183.3</ele>
        <time>2018-07-22T15:13:30Z</time>
      </trkpt>
      <trkpt lat="44.49661" lon="0.67663">
        <ele>183.2</ele>
        <time>2018-07-22T15:13:33Z</time>
      </trkpt>
      <trkpt lat="44.49663" lon="0.6766">
        <ele>183.2</ele>
        <time>2018-07-22T15:13:35Z</time>
      </trkpt>
      <trkpt lat="44.49665" lon="0.67656">
        <ele>183.2</ele>
        <time>2018-07-22T15:13:37Z</time>
      </trkpt>
      <trkpt lat="44.49667" lon="0.67652">
        <ele>183.1</ele>
        <time>2018-07-22T15:13:40Z</time>
      </trkpt>
      <trkpt lat="44.49668" lon="0.67649">
        <ele>182.9</ele>
        <time>2018-07-22T15:13:42Z</time>
      </trkpt>
      <trkpt lat="44.4967" lon="0.67645">
        <ele>182.9</ele>
        <time>2018-07-22T15:13:44Z</time>
      </trkpt>
      <trkpt lat="44.49672" lon="0.67642">
        <ele>182.7</ele>
        <time>2018-07-22T15:13:46Z</time>
      </trkpt>
      <trkpt lat="44.49673" lon="0.67639">
        <ele>182.7</ele>
        <time>2018-07-22T15:13:48Z</time>
      </trkpt>
      <trkpt lat="44.49675" lon="0.67636">
        <ele>182.7</ele>
        <time>2018-07-22T15:13:50Z</time>
      </trkpt>
      <trkpt lat="44.49678" lon="0.67632">
        <ele>182.6</ele>
        <time>2018-07-22T15:13:52Z</time>
      </trkpt>
      <trkpt lat="44.4968" lon="0.67629">
        <ele>182.6</ele>
        <time>2018-07-22T15:13:54Z</time>
      </trkpt>
      <trkpt lat="44.49682" lon="0.67626">
        <ele>182.6</ele>
        <time>2018-07-22T15:13:56Z</time>
      </trkpt>
      <trkpt lat="44.49684" lon="0.67623">
        <ele>182.5</ele>
        <time>2018-07-22T15:13:58Z</time>
      </trkpt>
      <trkpt lat="44.49686" lon="0.6762">
        <ele>182.6</ele>
        <time>2018-07-22T15:14:00Z</time>
      </trkpt>
      <trkpt lat="44.49687" lon="0.67616">
        <ele>182.6</ele>
        <time>2018-07-22T15:14:02Z</time>
      </trkpt>
      <trkpt lat="44.49689" lon="0.67613">
        <ele>182.6</ele>
        <time>2018-07-22T15:14:04Z</time>
      </trkpt>
      <trkpt lat="44.49691" lon="0.67609">
        <ele>182.7</ele>
        <time>2018-07-22T15:14:06Z</time>
      </trkpt>
      <trkpt lat="44.49693" lon="0.67606">
        <ele>182.7</ele>
        <time>2018-07-22T15:14:08Z</time>
      </trkpt>
      <trkpt lat="44.49696" lon="0.67603">
        <ele>182.8</ele>
        <time>2018-07-22T15:14:10Z</time>
      </trkpt>
      <trkpt lat="44.49698" lon="0.676">
        <ele>182.8</ele>
        <time>2018-07-22T15:14:12Z</time>
      </trkpt>
      <trkpt lat="44.49699" lon="0.67596">
        <ele>182.8</ele>
        <time>2018-07-22T15:14:14Z</time>
      </trkpt>
      <trkpt lat="44.49701" lon="0.67593">
        <ele>182.9</ele>
        <time>2018-07-22T15:14:16Z</time>
      </trkpt>
      <trkpt lat="44.49703" lon="0.67589">
        <ele>182.9</ele>
        <time>2018-07-22T15:14:18Z</time>
      </trkpt>
      <trkpt lat="44.49705" lon="0.67585">
        <ele>182.8</ele>
        <time>2018-07-22T15:14:20Z</time>
      </trkpt>
      <trkpt lat="44.49707" lon="0.67581">
        <ele>182.8</ele>
        <time>2018-07-22T15:14:22Z</time>
      </trkpt>
      <trkpt lat="44.49709" lon="0.67577">
        <ele>182.8</ele>
        <time>2018-07-22T15:14:24Z</time>
      </trkpt>
      <trkpt lat="44.49711" lon="0.67574">
        <ele>182.7</ele>
        <time>2018-07-22T15:14:26Z</time>
      </trkpt>
      <trkpt lat="44.49712" lon="0.6757">
        <ele>182.7</ele>
        <time>2018-07-22T15:14:28Z</time>
      </trkpt>
      <trkpt lat="44.49714" lon="0.67566">
        <ele>182.7</ele>
        <time>2018-07-22T15:14:30Z</time>
      </trkpt>
      <trkpt lat="44.49716" lon="0.67563">
        <ele>182.8</ele>
        <time>2018-07-22T15:14:32Z</time>
      </trkpt>
      <trkpt lat="44.49718" lon="0.67559">
        <ele>182.7</ele>
        <time>2018-07-22T15:14:34Z</time>
      </trkpt>
      <trkpt lat="44.49719" lon="0.67555">
        <ele>182.8</ele>
        <time>2018-07-22T15:14:36Z</time>
      </trkpt>
      <trkpt lat="44.4972" lon="0.67551">
        <ele>182.8</ele>
        <time>2018-07-22T15:14:38Z</time>
      </trkpt>
      <trkpt lat="44.49721" lon="0.67546">
        <ele>182.7</ele>
        <time>2018-07-22T15:14:40Z</time>
      </trkpt>
      <trkpt lat="44.49721" lon="0.67542">
        <ele>182.9</ele>
        <time>2018-07-22T15:14:42Z</time>
      </trkpt>
      <trkpt lat="44.49722" lon="0.67538">
        <ele>182.9</ele>
        <time>2018-07-22T15:14:44Z</time>
      </trkpt>
      <trkpt lat="44.49724" lon="0.67534">
        <ele>183</ele>
        <time>2018-07-22T15:14:46Z</time>
      </trkpt>
      <trkpt lat="44.49726" lon="0.67531">
        <ele>183</ele>
        <time>2018-07-22T15:14:48Z</time>
      </trkpt>
      <trkpt lat="44.49727" lon="0.67527">
        <ele>183.2</ele>
        <time>2018-07-22T15:14:50Z</time>
      </trkpt>
      <trkpt lat="44.49729" lon="0.67523">
        <ele>183.3</ele>
        <time>2018-07-22T15:14:52Z</time>
      </trkpt>
      <trkpt lat="44.49731" lon="0.6752">
        <ele>183.4</ele>
        <time>2018-07-22T15:14:54Z</time>
      </trkpt>
      <trkpt lat="44.49733" lon="0.67516">
        <ele>183.6</ele>
        <time>2018-07-22T15:14:56Z</time>
      </trkpt>
      <trkpt lat="44.49735" lon="0.67513">
        <ele>183.7</ele>
        <time>2018-07-22T15:14:58Z</time>
      </trkpt>
      <trkpt lat="44.49736" lon="0.67509">
        <ele>183.8</ele>
        <time>2018-07-22T15:15:00Z</time>
      </trkpt>
      <trkpt lat="44.49738" lon="0.67505">
        <ele>183.9</ele>
        <time>2018-07-22T15:15:02Z</time>
      </trkpt>
      <trkpt lat="44.4974" lon="0.67502">
        <ele>184</ele>
        <time>2018-07-22T15:15:04Z</time>
      </trkpt>
      <trkpt lat="44.49741" lon="0.67498">
        <ele>184.1</ele>
        <time>2018-07-22T15:15:06Z</time>
      </trkpt>
      <trkpt lat="44.49742" lon="0.67494">
        <ele>184.2</ele>
        <time>2018-07-22T15:15:08Z</time>
      </trkpt>
      <trkpt lat="44.49744" lon="0.67491">
        <ele>184.3</ele>
        <time>2018-07-22T15:15:10Z</time>
      </trkpt>
      <trkpt lat="44.49745" lon="0.67487">
        <ele>184.4</ele>
        <time>2018-07-22T15:15:12Z</time>
      </trkpt>
      <trkpt lat="44.49746" lon="0.67483">
        <ele>184.5</ele>
        <time>2018-07-22T15:15:14Z</time>
      </trkpt>
      <trkpt lat="44.49747" lon="0.6748">
        <ele>184.5</ele>
        <time>2018-07-22T15:15:16Z</time>
      </trkpt>
      <trkpt lat="44.49748" lon="0.67476">
        <ele>184.6</ele>
        <time>2018-07-22T15:15:18Z</time>
      </trkpt>
      <trkpt lat="44.4975" lon="0.67472">
        <ele>184.7</ele>
        <time>2018-07-22T15:15:20Z</time>
      </trkpt>
      <trkpt lat="44.49751" lon="0.67469">
        <ele>184.8</ele>
        <time>2018-07-22T15:15:22Z</time>
      </trkpt>
      <trkpt lat="44.49754" lon="0.67468">
        <ele>184.9</ele>
        <time>2018-07-22T15:15:24Z</time>
      </trkpt>
      <trkpt lat="44.49757" lon="0.67468">
        <ele>185</ele>
        <time>2018-07-22T15:15:29Z</time>
      </trkpt>
      <trkpt lat="44.49755" lon="0.67467">
        <ele>185.1</ele>
        <time>2018-07-22T15:15:44Z</time>
      </trkpt>
      <trkpt lat="44.49754" lon="0.67463">
        <ele>185.2</ele>
        <time>2018-07-22T15:15:46Z</time>
      </trkpt>
      <trkpt lat="44.49754" lon="0.67459">
        <ele>185.2</ele>
        <time>2018-07-22T15:15:48Z</time>
      </trkpt>
      <trkpt lat="44.49756" lon="0.67455">
        <ele>185.3</ele>
        <time>2018-07-22T15:15:50Z</time>
      </trkpt>
      <trkpt lat="44.49757" lon="0.67451">
        <ele>185.4</ele>
        <time>2018-07-22T15:15:52Z</time>
      </trkpt>
      <trkpt lat="44.49758" lon="0.67446">
        <ele>185.6</ele>
        <time>2018-07-22T15:15:54Z</time>
      </trkpt>
      <trkpt lat="44.4976" lon="0.6744">
        <ele>185.7</ele>
        <time>2018-07-22T15:15:56Z</time>
      </trkpt>
      <trkpt lat="44.49762" lon="0.67434">
        <ele>185.9</ele>
        <time>2018-07-22T15:15:58Z</time>
      </trkpt>
      <trkpt lat="44.49764" lon="0.67427">
        <ele>186.1</ele>
        <time>2018-07-22T15:16:00Z</time>
      </trkpt>
      <trkpt lat="44.49765" lon="0.67423">
        <ele>186.2</ele>
        <time>2018-07-22T15:16:01Z</time>
      </trkpt>
      <trkpt lat="44.49766" lon="0.67419">
        <ele>186.3</ele>
        <time>2018-07-22T15:16:02Z</time>
      </trkpt>
      <trkpt lat="44.49767" lon="0.67413">
        <ele>186.5</ele>
        <time>2018-07-22T15:16:04Z</time>
      </trkpt>
      <trkpt lat="44.49769" lon="0.67407">
        <ele>186.6</ele>
        <time>2018-07-22T15:16:06Z</time>
      </trkpt>
      <trkpt lat="44.4977" lon="0.67403">
        <ele>186.7</ele>
        <time>2018-07-22T15:16:08Z</time>
      </trkpt>
      <trkpt lat="44.49771" lon="0.67398">
        <ele>186.7</ele>
        <time>2018-07-22T15:16:11Z</time>
      </trkpt>
      <trkpt lat="44.49772" lon="0.67395">
        <ele>186.8</ele>
        <time>2018-07-22T15:16:13Z</time>
      </trkpt>
      <trkpt lat="44.49773" lon="0.67389">
        <ele>186.9</ele>
        <time>2018-07-22T15:16:16Z</time>
      </trkpt>
      <trkpt lat="44.49774" lon="0.67385">
        <ele>187.1</ele>
        <time>2018-07-22T15:16:18Z</time>
      </trkpt>
      <trkpt lat="44.49775" lon="0.67381">
        <ele>187.2</ele>
        <time>2018-07-22T15:16:20Z</time>
      </trkpt>
      <trkpt lat="44.49776" lon="0.67377">
        <ele>187.3</ele>
        <time>2018-07-22T15:16:22Z</time>
      </trkpt>
      <trkpt lat="44.49777" lon="0.67373">
        <ele>187.4</ele>
        <time>2018-07-22T15:16:24Z</time>
      </trkpt>
      <trkpt lat="44.49778" lon="0.67369">
        <ele>187.6</ele>
        <time>2018-07-22T15:16:26Z</time>
      </trkpt>
      <trkpt lat="44.4978" lon="0.67365">
        <ele>187.8</ele>
        <time>2018-07-22T15:16:28Z</time>
      </trkpt>
      <trkpt lat="44.4978" lon="0.67361">
        <ele>188</ele>
        <time>2018-07-22T15:16:30Z</time>
      </trkpt>
      <trkpt lat="44.49781" lon="0.67357">
        <ele>188.3</ele>
        <time>2018-07-22T15:16:32Z</time>
      </trkpt>
      <trkpt lat="44.49781" lon="0.67352">
        <ele>188.6</ele>
        <time>2018-07-22T15:16:34Z</time>
      </trkpt>
      <trkpt lat="44.49781" lon="0.67348">
        <ele>188.8</ele>
        <time>2018-07-22T15:16:36Z</time>
      </trkpt>
      <trkpt lat="44.49782" lon="0.67344">
        <ele>189.2</ele>
        <time>2018-07-22T15:16:38Z</time>
      </trkpt>
      <trkpt lat="44.49782" lon="0.67338">
        <ele>189.7</ele>
        <time>2018-07-22T15:16:41Z</time>
      </trkpt>
      <trkpt lat="44.49782" lon="0.67334">
        <ele>190</ele>
        <time>2018-07-22T15:16:43Z</time>
      </trkpt>
      <trkpt lat="44.49782" lon="0.6733">
        <ele>190.4</ele>
        <time>2018-07-22T15:16:45Z</time>
      </trkpt>
      <trkpt lat="44.49783" lon="0.67326">
        <ele>190.9</ele>
        <time>2018-07-22T15:16:47Z</time>
      </trkpt>
      <trkpt lat="44.49783" lon="0.67322">
        <ele>191.3</ele>
        <time>2018-07-22T15:16:49Z</time>
      </trkpt>
      <trkpt lat="44.49783" lon="0.67317">
        <ele>191.7</ele>
        <time>2018-07-22T15:16:51Z</time>
      </trkpt>
      <trkpt lat="44.49783" lon="0.67313">
        <ele>192</ele>
        <time>2018-07-22T15:16:53Z</time>
      </trkpt>
      <trkpt lat="44.49783" lon="0.67308">
        <ele>192</ele>
        <time>2018-07-22T15:16:56Z</time>
      </trkpt>
      <trkpt lat="44.49782" lon="0.67303">
        <ele>192.1</ele>
        <time>2018-07-22T15:16:59Z</time>
      </trkpt>
      <trkpt lat="44.49782" lon="0.67298">
        <ele>192.3</ele>
        <time>2018-07-22T15:17:02Z</time>
      </trkpt>
      <trkpt lat="44.49781" lon="0.67294">
        <ele>192.5</ele>
        <time>2018-07-22T15:17:05Z</time>
      </trkpt>
      <trkpt lat="44.49781" lon="0.67289">
        <ele>192.7</ele>
        <time>2018-07-22T15:17:08Z</time>
      </trkpt>
      <trkpt lat="44.49781" lon="0.67284">
        <ele>192.9</ele>
        <time>2018-07-22T15:17:11Z</time>
      </trkpt>
      <trkpt lat="44.49782" lon="0.67281">
        <ele>193.1</ele>
        <time>2018-07-22T15:17:14Z</time>
      </trkpt>
      <trkpt lat="44.49781" lon="0.67276">
        <ele>193.3</ele>
        <time>2018-07-22T15:17:16Z</time>
      </trkpt>
      <trkpt lat="44.49781" lon="0.67272">
        <ele>193.5</ele>
        <time>2018-07-22T15:17:20Z</time>
      </trkpt>
      <trkpt lat="44.49782" lon="0.67268">
        <ele>193.6</ele>
        <time>2018-07-22T15:17:23Z</time>
      </trkpt>
      <trkpt lat="44.49782" lon="0.67264">
        <ele>193.8</ele>
        <time>2018-07-22T15:17:26Z</time>
      </trkpt>
      <trkpt lat="44.49781" lon="0.6726">
        <ele>194</ele>
        <time>2018-07-22T15:17:29Z</time>
      </trkpt>
      <trkpt lat="44.49781" lon="0.67255">
        <ele>194.2</ele>
        <time>2018-07-22T15:17:33Z</time>
      </trkpt>
      <trkpt lat="44.4978" lon="0.67251">
        <ele>194.4</ele>
        <time>2018-07-22T15:17:36Z</time>
      </trkpt>
      <trkpt lat="44.49778" lon="0.67247">
        <ele>194.6</ele>
        <time>2018-07-22T15:17:39Z</time>
      </trkpt>
      <trkpt lat="44.49776" lon="0.67243">
        <ele>194.8</ele>
        <time>2018-07-22T15:17:42Z</time>
      </trkpt>
      <trkpt lat="44.49776" lon="0.67238">
        <ele>195</ele>
        <time>2018-07-22T15:17:45Z</time>
      </trkpt>
      <trkpt lat="44.49776" lon="0.67233">
        <ele>195.2</ele>
        <time>2018-07-22T15:17:48Z</time>
      </trkpt>
      <trkpt lat="44.49777" lon="0.67228">
        <ele>195.4</ele>
        <time>2018-07-22T15:17:50Z</time>
      </trkpt>
      <trkpt lat="44.49778" lon="0.67224">
        <ele>195.6</ele>
        <time>2018-07-22T15:17:52Z</time>
      </trkpt>
      <trkpt lat="44.49779" lon="0.6722">
        <ele>196</ele>
        <time>2018-07-22T15:17:54Z</time>
      </trkpt>
      <trkpt lat="44.49779" lon="0.67216">
        <ele>196.4</ele>
        <time>2018-07-22T15:17:56Z</time>
      </trkpt>
      <trkpt lat="44.49778" lon="0.67211">
        <ele>196.9</ele>
        <time>2018-07-22T15:17:59Z</time>
      </trkpt>
      <trkpt lat="44.49777" lon="0.67206">
        <ele>197</ele>
        <time>2018-07-22T15:18:02Z</time>
      </trkpt>
      <trkpt lat="44.49776" lon="0.67201">
        <ele>197</ele>
        <time>2018-07-22T15:18:05Z</time>
      </trkpt>
      <trkpt lat="44.49775" lon="0.67195">
        <ele>197</ele>
        <time>2018-07-22T15:18:08Z</time>
      </trkpt>
      <trkpt lat="44.49774" lon="0.6719">
        <ele>197</ele>
        <time>2018-07-22T15:18:11Z</time>
      </trkpt>
      <trkpt lat="44.49774" lon="0.67186">
        <ele>197</ele>
        <time>2018-07-22T15:18:13Z</time>
      </trkpt>
      <trkpt lat="44.49773" lon="0.67182">
        <ele>197</ele>
        <time>2018-07-22T15:18:15Z</time>
      </trkpt>
      <trkpt lat="44.49773" lon="0.67178">
        <ele>197</ele>
        <time>2018-07-22T15:18:17Z</time>
      </trkpt>
      <trkpt lat="44.49772" lon="0.67174">
        <ele>197</ele>
        <time>2018-07-22T15:18:19Z</time>
      </trkpt>
      <trkpt lat="44.49772" lon="0.6717">
        <ele>197</ele>
        <time>2018-07-22T15:18:21Z</time>
      </trkpt>
      <trkpt lat="44.49771" lon="0.67165">
        <ele>197.1</ele>
        <time>2018-07-22T15:18:23Z</time>
      </trkpt>
      <trkpt lat="44.4977" lon="0.6716">
        <ele>197.3</ele>
        <time>2018-07-22T15:18:26Z</time>
      </trkpt>
      <trkpt lat="44.49769" lon="0.67156">
        <ele>197.5</ele>
        <time>2018-07-22T15:18:28Z</time>
      </trkpt>
      <trkpt lat="44.49769" lon="0.67152">
        <ele>197.6</ele>
        <time>2018-07-22T15:18:30Z</time>
      </trkpt>
      <trkpt lat="44.49769" lon="0.67148">
        <ele>197.8</ele>
        <time>2018-07-22T15:18:32Z</time>
      </trkpt>
      <trkpt lat="44.4977" lon="0.67143">
        <ele>198</ele>
        <time>2018-07-22T15:18:35Z</time>
      </trkpt>
      <trkpt lat="44.49769" lon="0.67138">
        <ele>198.2</ele>
        <time>2018-07-22T15:18:38Z</time>
      </trkpt>
      <trkpt lat="44.49768" lon="0.67134">
        <ele>198.3</ele>
        <time>2018-07-22T15:18:40Z</time>
      </trkpt>
      <trkpt lat="44.49768" lon="0.6713">
        <ele>198.4</ele>
        <time>2018-07-22T15:18:42Z</time>
      </trkpt>
      <trkpt lat="44.49768" lon="0.67126">
        <ele>198.6</ele>
        <time>2018-07-22T15:18:44Z</time>
      </trkpt>
      <trkpt lat="44.49769" lon="0.67121">
        <ele>198.7</ele>
        <time>2018-07-22T15:18:47Z</time>
      </trkpt>
      <trkpt lat="44.49768" lon="0.67117">
        <ele>198.9</ele>
        <time>2018-07-22T15:18:49Z</time>
      </trkpt>
      <trkpt lat="44.49768" lon="0.67113">
        <ele>199</ele>
        <time>2018-07-22T15:18:51Z</time>
      </trkpt>
      <trkpt lat="44.49769" lon="0.67108">
        <ele>199.1</ele>
        <time>2018-07-22T15:18:53Z</time>
      </trkpt>
      <trkpt lat="44.49769" lon="0.67104">
        <ele>199.2</ele>
        <time>2018-07-22T15:18:55Z</time>
      </trkpt>
      <trkpt lat="44.49769" lon="0.67099">
        <ele>199.4</ele>
        <time>2018-07-22T15:18:58Z</time>
      </trkpt>
      <trkpt lat="44.49769" lon="0.67094">
        <ele>199.6</ele>
        <time>2018-07-22T15:19:01Z</time>
      </trkpt>
      <trkpt lat="44.4977" lon="0.67091">
        <ele>199.7</ele>
        <time>2018-07-22T15:19:03Z</time>
      </trkpt>
      <trkpt lat="44.4977" lon="0.67086">
        <ele>199.8</ele>
        <time>2018-07-22T15:19:05Z</time>
      </trkpt>
      <trkpt lat="44.4977" lon="0.67082">
        <ele>199.9</ele>
        <time>2018-07-22T15:19:07Z</time>
      </trkpt>
      <trkpt lat="44.49769" lon="0.67078">
        <ele>200.1</ele>
        <time>2018-07-22T15:19:09Z</time>
      </trkpt>
      <trkpt lat="44.49771" lon="0.67072">
        <ele>200.3</ele>
        <time>2018-07-22T15:19:12Z</time>
      </trkpt>
      <trkpt lat="44.49773" lon="0.67068">
        <ele>200.4</ele>
        <time>2018-07-22T15:19:14Z</time>
      </trkpt>
      <trkpt lat="44.49774" lon="0.67064">
        <ele>200.5</ele>
        <time>2018-07-22T15:19:17Z</time>
      </trkpt>
      <trkpt lat="44.49773" lon="0.6706">
        <ele>200.7</ele>
        <time>2018-07-22T15:19:19Z</time>
      </trkpt>
      <trkpt lat="44.49771" lon="0.67055">
        <ele>200.8</ele>
        <time>2018-07-22T15:19:21Z</time>
      </trkpt>
      <trkpt lat="44.49769" lon="0.67051">
        <ele>201</ele>
        <time>2018-07-22T15:19:23Z</time>
      </trkpt>
      <trkpt lat="44.49767" lon="0.67047">
        <ele>201</ele>
        <time>2018-07-22T15:19:25Z</time>
      </trkpt>
      <trkpt lat="44.49766" lon="0.67043">
        <ele>201</ele>
        <time>2018-07-22T15:19:27Z</time>
      </trkpt>
      <trkpt lat="44.49764" lon="0.6704">
        <ele>201.1</ele>
        <time>2018-07-22T15:19:29Z</time>
      </trkpt>
      <trkpt lat="44.49762" lon="0.67035">
        <ele>201.7</ele>
        <time>2018-07-22T15:19:31Z</time>
      </trkpt>
      <trkpt lat="44.49761" lon="0.67032">
        <ele>202.3</ele>
        <time>2018-07-22T15:19:33Z</time>
      </trkpt>
      <trkpt lat="44.49759" lon="0.67027">
        <ele>202.9</ele>
        <time>2018-07-22T15:19:35Z</time>
      </trkpt>
      <trkpt lat="44.49758" lon="0.67023">
        <ele>203.4</ele>
        <time>2018-07-22T15:19:37Z</time>
      </trkpt>
      <trkpt lat="44.49758" lon="0.67019">
        <ele>204</ele>
        <time>2018-07-22T15:19:39Z</time>
      </trkpt>
      <trkpt lat="44.49757" lon="0.67015">
        <ele>204.5</ele>
        <time>2018-07-22T15:19:41Z</time>
      </trkpt>
      <trkpt lat="44.49756" lon="0.67009">
        <ele>205.3</ele>
        <time>2018-07-22T15:19:44Z</time>
      </trkpt>
      <trkpt lat="44.49757" lon="0.67004">
        <ele>206</ele>
        <time>2018-07-22T15:19:47Z</time>
      </trkpt>
      <trkpt lat="44.49757" lon="0.66998">
        <ele>206.6</ele>
        <time>2018-07-22T15:19:50Z</time>
      </trkpt>
      <trkpt lat="44.49757" lon="0.66995">
        <ele>207.1</ele>
        <time>2018-07-22T15:19:52Z</time>
      </trkpt>
      <trkpt lat="44.49757" lon="0.6699">
        <ele>207.3</ele>
        <time>2018-07-22T15:19:54Z</time>
      </trkpt>
      <trkpt lat="44.49757" lon="0.66986">
        <ele>207.6</ele>
        <time>2018-07-22T15:19:56Z</time>
      </trkpt>
      <trkpt lat="44.49757" lon="0.66982">
        <ele>207.8</ele>
        <time>2018-07-22T15:19:58Z</time>
      </trkpt>
      <trkpt lat="44.49756" lon="0.66977">
        <ele>208.1</ele>
        <time>2018-07-22T15:20:01Z</time>
      </trkpt>
      <trkpt lat="44.49755" lon="0.66973">
        <ele>208.3</ele>
        <time>2018-07-22T15:20:03Z</time>
      </trkpt>
      <trkpt lat="44.49755" lon="0.66968">
        <ele>208.6</ele>
        <time>2018-07-22T15:20:06Z</time>
      </trkpt>
      <trkpt lat="44.49756" lon="0.66962">
        <ele>208.9</ele>
        <time>2018-07-22T15:20:09Z</time>
      </trkpt>
      <trkpt lat="44.49756" lon="0.66958">
        <ele>209.2</ele>
        <time>2018-07-22T15:20:11Z</time>
      </trkpt>
      <trkpt lat="44.49757" lon="0.66952">
        <ele>209.5</ele>
        <time>2018-07-22T15:20:13Z</time>
      </trkpt>
      <trkpt lat="44.49756" lon="0.66948">
        <ele>209.7</ele>
        <time>2018-07-22T15:20:15Z</time>
      </trkpt>
      <trkpt lat="44.49755" lon="0.66944">
        <ele>209.9</ele>
        <time>2018-07-22T15:20:18Z</time>
      </trkpt>
      <trkpt lat="44.49754" lon="0.66938">
        <ele>210.2</ele>
        <time>2018-07-22T15:20:21Z</time>
      </trkpt>
      <trkpt lat="44.49753" lon="0.66933">
        <ele>210.4</ele>
        <time>2018-07-22T15:20:23Z</time>
      </trkpt>
      <trkpt lat="44.49753" lon="0.66928">
        <ele>210.6</ele>
        <time>2018-07-22T15:20:26Z</time>
      </trkpt>
      <trkpt lat="44.49753" lon="0.66923">
        <ele>210.9</ele>
        <time>2018-07-22T15:20:29Z</time>
      </trkpt>
      <trkpt lat="44.49753" lon="0.66918">
        <ele>211.1</ele>
        <time>2018-07-22T15:20:32Z</time>
      </trkpt>
      <trkpt lat="44.49753" lon="0.66913">
        <ele>211.3</ele>
        <time>2018-07-22T15:20:35Z</time>
      </trkpt>
      <trkpt lat="44.49752" lon="0.66908">
        <ele>211.6</ele>
        <time>2018-07-22T15:20:39Z</time>
      </trkpt>
      <trkpt lat="44.49751" lon="0.66903">
        <ele>211.8</ele>
        <time>2018-07-22T15:20:42Z</time>
      </trkpt>
      <trkpt lat="44.49748" lon="0.66899">
        <ele>211.9</ele>
        <time>2018-07-22T15:20:45Z</time>
      </trkpt>
      <trkpt lat="44.49747" lon="0.66895">
        <ele>211.5</ele>
        <time>2018-07-22T15:20:47Z</time>
      </trkpt>
      <trkpt lat="44.49747" lon="0.6689">
        <ele>211</ele>
        <time>2018-07-22T15:20:49Z</time>
      </trkpt>
      <trkpt lat="44.49748" lon="0.66885">
        <ele>210.5</ele>
        <time>2018-07-22T15:20:51Z</time>
      </trkpt>
      <trkpt lat="44.49748" lon="0.6688">
        <ele>209.9</ele>
        <time>2018-07-22T15:20:54Z</time>
      </trkpt>
      <trkpt lat="44.49749" lon="0.66875">
        <ele>209.4</ele>
        <time>2018-07-22T15:20:57Z</time>
      </trkpt>
      <trkpt lat="44.49749" lon="0.6687">
        <ele>209</ele>
        <time>2018-07-22T15:21:00Z</time>
      </trkpt>
      <trkpt lat="44.49748" lon="0.66866">
        <ele>209</ele>
        <time>2018-07-22T15:21:03Z</time>
      </trkpt>
      <trkpt lat="44.49747" lon="0.66862">
        <ele>209</ele>
        <time>2018-07-22T15:21:06Z</time>
      </trkpt>
      <trkpt lat="44.49748" lon="0.66858">
        <ele>209</ele>
        <time>2018-07-22T15:21:09Z</time>
      </trkpt>
      <trkpt lat="44.49748" lon="0.66854">
        <ele>209</ele>
        <time>2018-07-22T15:21:14Z</time>
      </trkpt>
      <trkpt lat="44.49748" lon="0.66848">
        <ele>209</ele>
        <time>2018-07-22T15:21:21Z</time>
      </trkpt>
      <trkpt lat="44.49748" lon="0.66844">
        <ele>209</ele>
        <time>2018-07-22T15:21:23Z</time>
      </trkpt>
      <trkpt lat="44.49748" lon="0.66839">
        <ele>209</ele>
        <time>2018-07-22T15:21:25Z</time>
      </trkpt>
      <trkpt lat="44.49748" lon="0.66835">
        <ele>209</ele>
        <time>2018-07-22T15:21:28Z</time>
      </trkpt>
      <trkpt lat="44.49745" lon="0.66832">
        <ele>209.1</ele>
        <time>2018-07-22T15:21:30Z</time>
      </trkpt>
      <trkpt lat="44.49743" lon="0.66831">
        <ele>209.3</ele>
        <time>2018-07-22T15:21:32Z</time>
      </trkpt>
      <trkpt lat="44.4974" lon="0.66827">
        <ele>209.6</ele>
        <time>2018-07-22T15:21:35Z</time>
      </trkpt>
      <trkpt lat="44.49738" lon="0.66823">
        <ele>209.8</ele>
        <time>2018-07-22T15:21:38Z</time>
      </trkpt>
      <trkpt lat="44.49736" lon="0.66819">
        <ele>210.1</ele>
        <time>2018-07-22T15:21:42Z</time>
      </trkpt>
      <trkpt lat="44.49735" lon="0.66816">
        <ele>210.3</ele>
        <time>2018-07-22T15:21:45Z</time>
      </trkpt>
      <trkpt lat="44.49734" lon="0.66812">
        <ele>210.5</ele>
        <time>2018-07-22T15:21:49Z</time>
      </trkpt>
      <trkpt lat="44.49737" lon="0.6681">
        <ele>210.7</ele>
        <time>2018-07-22T15:21:52Z</time>
      </trkpt>
      <trkpt lat="44.49737" lon="0.66806">
        <ele>211</ele>
        <time>2018-07-22T15:21:57Z</time>
      </trkpt>
      <trkpt lat="44.49736" lon="0.66809">
        <ele>210.9</ele>
        <time>2018-07-22T15:22:06Z</time>
      </trkpt>
      <trkpt lat="44.49738" lon="0.66811">
        <ele>210.8</ele>
        <time>2018-07-22T15:22:13Z</time>
      </trkpt>
      <trkpt lat="44.49739" lon="0.66805">
        <ele>210.6</ele>
        <time>2018-07-22T15:22:18Z</time>
      </trkpt>
      <trkpt lat="44.49738" lon="0.66809">
        <ele>210.4</ele>
        <time>2018-07-22T15:22:23Z</time>
      </trkpt>
      <trkpt lat="44.49736" lon="0.66814">
        <ele>210.2</ele>
        <time>2018-07-22T15:22:24Z</time>
      </trkpt>
      <trkpt lat="44.49734" lon="0.66817">
        <ele>210.1</ele>
        <time>2018-07-22T15:22:25Z</time>
      </trkpt>
      <trkpt lat="44.49711" lon="0.66812">
        <ele>209</ele>
        <time>2018-07-22T15:22:28Z</time>
      </trkpt>
      <trkpt lat="44.49717" lon="0.66811">
        <ele>209</ele>
        <time>2018-07-22T15:22:30Z</time>
      </trkpt>
      <trkpt lat="44.49735" lon="0.66808">
        <ele>209</ele>
        <time>2018-07-22T15:22:32Z</time>
      </trkpt>
    </trkseg>
  </trk>
</gpx>